<?xml version="1.0" encoding="UTF-8" standalone="no" ?>
<gpx xmlns="http://www.topografix.com/GPX/1/1" xmlns:xsi="http://www.w3.org/2001/XMLSchema-instance" xsi:schemaLocation="http://www.topografix.com/GPX/1/1 http://www.topografix.com/GPX/1/1/gpx.xsd" version="1.1" creator="VisuGPX - https://www.visugpx.com">
  <metadata>
    <name>col Buissonnet- St Geniez-raidCDS</name>
  </metadata>
  <trk>
    <name><![CDATA[col Buissonnet- St Geniez]]></name>
    <trkseg>
      <trkpt lat="44.42156" lon="6.08417">
        <ele>1300</ele>
        <time>2020-06-11T08:02:15Z</time>
      </trkpt>
      <trkpt lat="44.42154" lon="6.08415">
        <ele>1322</ele>
        <time>2020-06-11T08:02:23Z</time>
      </trkpt>
      <trkpt lat="44.4215" lon="6.08423">
        <ele>1322</ele>
        <time>2020-06-11T08:02:29Z</time>
      </trkpt>
      <trkpt lat="44.4215" lon="6.08424">
        <ele>1323</ele>
        <time>2020-06-11T08:02:32Z</time>
      </trkpt>
      <trkpt lat="44.4215" lon="6.08425">
        <ele>1323</ele>
        <time>2020-06-11T08:02:36Z</time>
      </trkpt>
      <trkpt lat="44.42149" lon="6.08426">
        <ele>1323</ele>
        <time>2020-06-11T08:02:49Z</time>
      </trkpt>
      <trkpt lat="44.42149" lon="6.08426">
        <ele>1323</ele>
        <time>2020-06-11T08:03:01Z</time>
      </trkpt>
      <trkpt lat="44.42148" lon="6.08427">
        <ele>1323</ele>
        <time>2020-06-11T08:03:20Z</time>
      </trkpt>
      <trkpt lat="44.42145" lon="6.08431">
        <ele>1323</ele>
        <time>2020-06-11T08:03:23Z</time>
      </trkpt>
      <trkpt lat="44.42144" lon="6.08436">
        <ele>1324</ele>
        <time>2020-06-11T08:03:25Z</time>
      </trkpt>
      <trkpt lat="44.42144" lon="6.08442">
        <ele>1324</ele>
        <time>2020-06-11T08:03:27Z</time>
      </trkpt>
      <trkpt lat="44.42146" lon="6.08457">
        <ele>1324</ele>
        <time>2020-06-11T08:03:31Z</time>
      </trkpt>
      <trkpt lat="44.42146" lon="6.08463">
        <ele>1325</ele>
        <time>2020-06-11T08:03:33Z</time>
      </trkpt>
      <trkpt lat="44.42144" lon="6.08473">
        <ele>1325</ele>
        <time>2020-06-11T08:03:36Z</time>
      </trkpt>
      <trkpt lat="44.42137" lon="6.08491">
        <ele>1326</ele>
        <time>2020-06-11T08:03:42Z</time>
      </trkpt>
      <trkpt lat="44.42129" lon="6.08504">
        <ele>1326</ele>
        <time>2020-06-11T08:03:46Z</time>
      </trkpt>
      <trkpt lat="44.42127" lon="6.08508">
        <ele>1326</ele>
        <time>2020-06-11T08:03:47Z</time>
      </trkpt>
      <trkpt lat="44.42113" lon="6.08518">
        <ele>1327</ele>
        <time>2020-06-11T08:03:52Z</time>
      </trkpt>
      <trkpt lat="44.42105" lon="6.08524">
        <ele>1328</ele>
        <time>2020-06-11T08:03:56Z</time>
      </trkpt>
      <trkpt lat="44.42096" lon="6.08531">
        <ele>1329</ele>
        <time>2020-06-11T08:04:01Z</time>
      </trkpt>
      <trkpt lat="44.42094" lon="6.08531">
        <ele>1329</ele>
        <time>2020-06-11T08:04:02Z</time>
      </trkpt>
      <trkpt lat="44.42084" lon="6.08538">
        <ele>1330</ele>
        <time>2020-06-11T08:04:08Z</time>
      </trkpt>
      <trkpt lat="44.42077" lon="6.08548">
        <ele>1332</ele>
        <time>2020-06-11T08:04:14Z</time>
      </trkpt>
      <trkpt lat="44.42076" lon="6.08548">
        <ele>1332</ele>
        <time>2020-06-11T08:04:15Z</time>
      </trkpt>
      <trkpt lat="44.4207" lon="6.08551">
        <ele>1333</ele>
        <time>2020-06-11T08:04:19Z</time>
      </trkpt>
      <trkpt lat="44.42063" lon="6.08553">
        <ele>1334</ele>
        <time>2020-06-11T08:04:23Z</time>
      </trkpt>
      <trkpt lat="44.42054" lon="6.08559">
        <ele>1335</ele>
        <time>2020-06-11T08:04:30Z</time>
      </trkpt>
      <trkpt lat="44.42045" lon="6.0857">
        <ele>1336</ele>
        <time>2020-06-11T08:04:37Z</time>
      </trkpt>
      <trkpt lat="44.4204" lon="6.08573">
        <ele>1337</ele>
        <time>2020-06-11T08:04:41Z</time>
      </trkpt>
      <trkpt lat="44.42038" lon="6.08573">
        <ele>1338</ele>
        <time>2020-06-11T08:04:43Z</time>
      </trkpt>
      <trkpt lat="44.42034" lon="6.08574">
        <ele>1339</ele>
        <time>2020-06-11T08:04:46Z</time>
      </trkpt>
      <trkpt lat="44.42032" lon="6.08574">
        <ele>1339</ele>
        <time>2020-06-11T08:04:48Z</time>
      </trkpt>
      <trkpt lat="44.42029" lon="6.08575">
        <ele>1340</ele>
        <time>2020-06-11T08:04:50Z</time>
      </trkpt>
      <trkpt lat="44.42023" lon="6.0857">
        <ele>1341</ele>
        <time>2020-06-11T08:04:55Z</time>
      </trkpt>
      <trkpt lat="44.4202" lon="6.08568">
        <ele>1342</ele>
        <time>2020-06-11T08:04:57Z</time>
      </trkpt>
      <trkpt lat="44.42018" lon="6.08565">
        <ele>1342</ele>
        <time>2020-06-11T08:04:59Z</time>
      </trkpt>
      <trkpt lat="44.42012" lon="6.08563">
        <ele>1343</ele>
        <time>2020-06-11T08:05:02Z</time>
      </trkpt>
      <trkpt lat="44.42002" lon="6.08566">
        <ele>1343</ele>
        <time>2020-06-11T08:05:07Z</time>
      </trkpt>
      <trkpt lat="44.42" lon="6.08566">
        <ele>1344</ele>
        <time>2020-06-11T08:05:08Z</time>
      </trkpt>
      <trkpt lat="44.41994" lon="6.08569">
        <ele>1344</ele>
        <time>2020-06-11T08:05:12Z</time>
      </trkpt>
      <trkpt lat="44.41988" lon="6.0857">
        <ele>1345</ele>
        <time>2020-06-11T08:05:16Z</time>
      </trkpt>
      <trkpt lat="44.41987" lon="6.0857">
        <ele>1346</ele>
        <time>2020-06-11T08:05:17Z</time>
      </trkpt>
      <trkpt lat="44.41978" lon="6.08573">
        <ele>1347</ele>
        <time>2020-06-11T08:05:23Z</time>
      </trkpt>
      <trkpt lat="44.41976" lon="6.08574">
        <ele>1347</ele>
        <time>2020-06-11T08:05:24Z</time>
      </trkpt>
      <trkpt lat="44.4197" lon="6.08579">
        <ele>1348</ele>
        <time>2020-06-11T08:05:29Z</time>
      </trkpt>
      <trkpt lat="44.41967" lon="6.08579">
        <ele>1348</ele>
        <time>2020-06-11T08:05:31Z</time>
      </trkpt>
      <trkpt lat="44.41962" lon="6.08578">
        <ele>1349</ele>
        <time>2020-06-11T08:05:34Z</time>
      </trkpt>
      <trkpt lat="44.41955" lon="6.08578">
        <ele>1350</ele>
        <time>2020-06-11T08:05:39Z</time>
      </trkpt>
      <trkpt lat="44.41952" lon="6.08578">
        <ele>1350</ele>
        <time>2020-06-11T08:05:41Z</time>
      </trkpt>
      <trkpt lat="44.41948" lon="6.08579">
        <ele>1351</ele>
        <time>2020-06-11T08:05:44Z</time>
      </trkpt>
      <trkpt lat="44.41945" lon="6.0858">
        <ele>1352</ele>
        <time>2020-06-11T08:05:46Z</time>
      </trkpt>
      <trkpt lat="44.41939" lon="6.08581">
        <ele>1353</ele>
        <time>2020-06-11T08:05:50Z</time>
      </trkpt>
      <trkpt lat="44.41935" lon="6.08581">
        <ele>1353</ele>
        <time>2020-06-11T08:05:53Z</time>
      </trkpt>
      <trkpt lat="44.41932" lon="6.08582">
        <ele>1354</ele>
        <time>2020-06-11T08:05:55Z</time>
      </trkpt>
      <trkpt lat="44.41926" lon="6.08583">
        <ele>1355</ele>
        <time>2020-06-11T08:05:59Z</time>
      </trkpt>
      <trkpt lat="44.41921" lon="6.08584">
        <ele>1355</ele>
        <time>2020-06-11T08:06:02Z</time>
      </trkpt>
      <trkpt lat="44.41914" lon="6.08588">
        <ele>1356</ele>
        <time>2020-06-11T08:06:07Z</time>
      </trkpt>
      <trkpt lat="44.4191" lon="6.08589">
        <ele>1357</ele>
        <time>2020-06-11T08:06:10Z</time>
      </trkpt>
      <trkpt lat="44.41908" lon="6.0859">
        <ele>1357</ele>
        <time>2020-06-11T08:06:11Z</time>
      </trkpt>
      <trkpt lat="44.419" lon="6.08594">
        <ele>1358</ele>
        <time>2020-06-11T08:06:17Z</time>
      </trkpt>
      <trkpt lat="44.41899" lon="6.08596">
        <ele>1358</ele>
        <time>2020-06-11T08:06:18Z</time>
      </trkpt>
      <trkpt lat="44.41897" lon="6.08599">
        <ele>1359</ele>
        <time>2020-06-11T08:06:20Z</time>
      </trkpt>
      <trkpt lat="44.41893" lon="6.08607">
        <ele>1360</ele>
        <time>2020-06-11T08:06:25Z</time>
      </trkpt>
      <trkpt lat="44.41893" lon="6.0861">
        <ele>1361</ele>
        <time>2020-06-11T08:06:27Z</time>
      </trkpt>
      <trkpt lat="44.41892" lon="6.08612">
        <ele>1361</ele>
        <time>2020-06-11T08:06:28Z</time>
      </trkpt>
      <trkpt lat="44.41891" lon="6.08615">
        <ele>1363</ele>
        <time>2020-06-11T08:06:31Z</time>
      </trkpt>
      <trkpt lat="44.41888" lon="6.08619">
        <ele>1364</ele>
        <time>2020-06-11T08:06:34Z</time>
      </trkpt>
      <trkpt lat="44.41883" lon="6.08621">
        <ele>1365</ele>
        <time>2020-06-11T08:06:38Z</time>
      </trkpt>
      <trkpt lat="44.4188" lon="6.08621">
        <ele>1366</ele>
        <time>2020-06-11T08:06:40Z</time>
      </trkpt>
      <trkpt lat="44.41879" lon="6.0862">
        <ele>1366</ele>
        <time>2020-06-11T08:06:41Z</time>
      </trkpt>
      <trkpt lat="44.41869" lon="6.0862">
        <ele>1368</ele>
        <time>2020-06-11T08:06:47Z</time>
      </trkpt>
      <trkpt lat="44.41857" lon="6.08624">
        <ele>1369</ele>
        <time>2020-06-11T08:06:56Z</time>
      </trkpt>
      <trkpt lat="44.41853" lon="6.08626">
        <ele>1370</ele>
        <time>2020-06-11T08:07:00Z</time>
      </trkpt>
      <trkpt lat="44.4185" lon="6.08627">
        <ele>1370</ele>
        <time>2020-06-11T08:07:02Z</time>
      </trkpt>
      <trkpt lat="44.41846" lon="6.08629">
        <ele>1371</ele>
        <time>2020-06-11T08:07:06Z</time>
      </trkpt>
      <trkpt lat="44.41842" lon="6.0863">
        <ele>1372</ele>
        <time>2020-06-11T08:07:09Z</time>
      </trkpt>
      <trkpt lat="44.41841" lon="6.0863">
        <ele>1372</ele>
        <time>2020-06-11T08:07:10Z</time>
      </trkpt>
      <trkpt lat="44.41837" lon="6.08632">
        <ele>1373</ele>
        <time>2020-06-11T08:07:14Z</time>
      </trkpt>
      <trkpt lat="44.41836" lon="6.08634">
        <ele>1374</ele>
        <time>2020-06-11T08:07:17Z</time>
      </trkpt>
      <trkpt lat="44.41836" lon="6.08635">
        <ele>1375</ele>
        <time>2020-06-11T08:07:18Z</time>
      </trkpt>
      <trkpt lat="44.41836" lon="6.08636">
        <ele>1375</ele>
        <time>2020-06-11T08:07:19Z</time>
      </trkpt>
      <trkpt lat="44.41836" lon="6.08638">
        <ele>1376</ele>
        <time>2020-06-11T08:07:20Z</time>
      </trkpt>
      <trkpt lat="44.41835" lon="6.08644">
        <ele>1377</ele>
        <time>2020-06-11T08:07:23Z</time>
      </trkpt>
      <trkpt lat="44.41836" lon="6.08645">
        <ele>1377</ele>
        <time>2020-06-11T08:07:24Z</time>
      </trkpt>
      <trkpt lat="44.41836" lon="6.08649">
        <ele>1378</ele>
        <time>2020-06-11T08:07:27Z</time>
      </trkpt>
      <trkpt lat="44.41834" lon="6.0865">
        <ele>1379</ele>
        <time>2020-06-11T08:07:31Z</time>
      </trkpt>
      <trkpt lat="44.41835" lon="6.08652">
        <ele>1379</ele>
        <time>2020-06-11T08:07:41Z</time>
      </trkpt>
      <trkpt lat="44.41834" lon="6.08652">
        <ele>1379</ele>
        <time>2020-06-11T08:07:50Z</time>
      </trkpt>
      <trkpt lat="44.41832" lon="6.08654">
        <ele>1379</ele>
        <time>2020-06-11T08:07:54Z</time>
      </trkpt>
      <trkpt lat="44.41829" lon="6.08658">
        <ele>1379</ele>
        <time>2020-06-11T08:07:56Z</time>
      </trkpt>
      <trkpt lat="44.4182" lon="6.08671">
        <ele>1379</ele>
        <time>2020-06-11T08:08:01Z</time>
      </trkpt>
      <trkpt lat="44.41807" lon="6.08677">
        <ele>1378</ele>
        <time>2020-06-11T08:08:05Z</time>
      </trkpt>
      <trkpt lat="44.41789" lon="6.08688">
        <ele>1378</ele>
        <time>2020-06-11T08:08:10Z</time>
      </trkpt>
      <trkpt lat="44.41776" lon="6.08696">
        <ele>1378</ele>
        <time>2020-06-11T08:08:14Z</time>
      </trkpt>
      <trkpt lat="44.41758" lon="6.08719">
        <ele>1377</ele>
        <time>2020-06-11T08:08:19Z</time>
      </trkpt>
      <trkpt lat="44.41754" lon="6.08726">
        <ele>1377</ele>
        <time>2020-06-11T08:08:20Z</time>
      </trkpt>
      <trkpt lat="44.41746" lon="6.08739">
        <ele>1377</ele>
        <time>2020-06-11T08:08:22Z</time>
      </trkpt>
      <trkpt lat="44.41743" lon="6.08745">
        <ele>1376</ele>
        <time>2020-06-11T08:08:23Z</time>
      </trkpt>
      <trkpt lat="44.41736" lon="6.08758">
        <ele>1375</ele>
        <time>2020-06-11T08:08:25Z</time>
      </trkpt>
      <trkpt lat="44.41724" lon="6.08769">
        <ele>1373</ele>
        <time>2020-06-11T08:08:27Z</time>
      </trkpt>
      <trkpt lat="44.41707" lon="6.08778">
        <ele>1372</ele>
        <time>2020-06-11T08:08:29Z</time>
      </trkpt>
      <trkpt lat="44.41699" lon="6.08785">
        <ele>1371</ele>
        <time>2020-06-11T08:08:30Z</time>
      </trkpt>
      <trkpt lat="44.41691" lon="6.08791">
        <ele>1370</ele>
        <time>2020-06-11T08:08:31Z</time>
      </trkpt>
      <trkpt lat="44.41683" lon="6.088">
        <ele>1369</ele>
        <time>2020-06-11T08:08:32Z</time>
      </trkpt>
      <trkpt lat="44.41675" lon="6.08808">
        <ele>1368</ele>
        <time>2020-06-11T08:08:33Z</time>
      </trkpt>
      <trkpt lat="44.41658" lon="6.08825">
        <ele>1366</ele>
        <time>2020-06-11T08:08:35Z</time>
      </trkpt>
      <trkpt lat="44.41651" lon="6.08834">
        <ele>1365</ele>
        <time>2020-06-11T08:08:36Z</time>
      </trkpt>
      <trkpt lat="44.41647" lon="6.08841">
        <ele>1364</ele>
        <time>2020-06-11T08:08:37Z</time>
      </trkpt>
      <trkpt lat="44.41643" lon="6.08849">
        <ele>1362</ele>
        <time>2020-06-11T08:08:38Z</time>
      </trkpt>
      <trkpt lat="44.41637" lon="6.08854">
        <ele>1354</ele>
        <time>2020-06-11T08:10:05Z</time>
      </trkpt>
      <trkpt lat="44.41632" lon="6.08841">
        <ele>1354</ele>
        <time>2020-06-11T08:10:10Z</time>
      </trkpt>
      <trkpt lat="44.41624" lon="6.08823">
        <ele>1355</ele>
        <time>2020-06-11T08:10:14Z</time>
      </trkpt>
      <trkpt lat="44.41621" lon="6.08819">
        <ele>1355</ele>
        <time>2020-06-11T08:10:15Z</time>
      </trkpt>
      <trkpt lat="44.41605" lon="6.08796">
        <ele>1355</ele>
        <time>2020-06-11T08:10:21Z</time>
      </trkpt>
      <trkpt lat="44.41596" lon="6.08776">
        <ele>1355</ele>
        <time>2020-06-11T08:10:25Z</time>
      </trkpt>
      <trkpt lat="44.41592" lon="6.08772">
        <ele>1355</ele>
        <time>2020-06-11T08:10:26Z</time>
      </trkpt>
      <trkpt lat="44.41584" lon="6.08767">
        <ele>1356</ele>
        <time>2020-06-11T08:10:28Z</time>
      </trkpt>
      <trkpt lat="44.41571" lon="6.08765">
        <ele>1356</ele>
        <time>2020-06-11T08:10:31Z</time>
      </trkpt>
      <trkpt lat="44.41562" lon="6.08767">
        <ele>1356</ele>
        <time>2020-06-11T08:10:33Z</time>
      </trkpt>
      <trkpt lat="44.41552" lon="6.08768">
        <ele>1356</ele>
        <time>2020-06-11T08:10:35Z</time>
      </trkpt>
      <trkpt lat="44.41542" lon="6.08774">
        <ele>1356</ele>
        <time>2020-06-11T08:10:37Z</time>
      </trkpt>
      <trkpt lat="44.41529" lon="6.08781">
        <ele>1356</ele>
        <time>2020-06-11T08:10:40Z</time>
      </trkpt>
      <trkpt lat="44.41524" lon="6.08782">
        <ele>1356</ele>
        <time>2020-06-11T08:10:41Z</time>
      </trkpt>
      <trkpt lat="44.4152" lon="6.08781">
        <ele>1356</ele>
        <time>2020-06-11T08:10:42Z</time>
      </trkpt>
      <trkpt lat="44.41506" lon="6.08773">
        <ele>1356</ele>
        <time>2020-06-11T08:10:45Z</time>
      </trkpt>
      <trkpt lat="44.41502" lon="6.0877">
        <ele>1356</ele>
        <time>2020-06-11T08:10:46Z</time>
      </trkpt>
      <trkpt lat="44.41494" lon="6.08764">
        <ele>1356</ele>
        <time>2020-06-11T08:10:48Z</time>
      </trkpt>
      <trkpt lat="44.41486" lon="6.08756">
        <ele>1357</ele>
        <time>2020-06-11T08:10:50Z</time>
      </trkpt>
      <trkpt lat="44.41472" lon="6.08742">
        <ele>1356</ele>
        <time>2020-06-11T08:10:53Z</time>
      </trkpt>
      <trkpt lat="44.41461" lon="6.08737">
        <ele>1356</ele>
        <time>2020-06-11T08:10:55Z</time>
      </trkpt>
      <trkpt lat="44.41444" lon="6.08737">
        <ele>1356</ele>
        <time>2020-06-11T08:10:58Z</time>
      </trkpt>
      <trkpt lat="44.41438" lon="6.08736">
        <ele>1356</ele>
        <time>2020-06-11T08:10:59Z</time>
      </trkpt>
      <trkpt lat="44.41433" lon="6.08735">
        <ele>1356</ele>
        <time>2020-06-11T08:11:00Z</time>
      </trkpt>
      <trkpt lat="44.41428" lon="6.08732">
        <ele>1357</ele>
        <time>2020-06-11T08:11:01Z</time>
      </trkpt>
      <trkpt lat="44.41418" lon="6.08726">
        <ele>1357</ele>
        <time>2020-06-11T08:11:03Z</time>
      </trkpt>
      <trkpt lat="44.41413" lon="6.08724">
        <ele>1357</ele>
        <time>2020-06-11T08:11:04Z</time>
      </trkpt>
      <trkpt lat="44.41403" lon="6.08724">
        <ele>1357</ele>
        <time>2020-06-11T08:11:06Z</time>
      </trkpt>
      <trkpt lat="44.41394" lon="6.0873">
        <ele>1357</ele>
        <time>2020-06-11T08:11:08Z</time>
      </trkpt>
      <trkpt lat="44.4139" lon="6.08742">
        <ele>1357</ele>
        <time>2020-06-11T08:11:10Z</time>
      </trkpt>
      <trkpt lat="44.41379" lon="6.08792">
        <ele>1356</ele>
        <time>2020-06-11T08:11:18Z</time>
      </trkpt>
      <trkpt lat="44.41374" lon="6.08819">
        <ele>1357</ele>
        <time>2020-06-11T08:11:22Z</time>
      </trkpt>
      <trkpt lat="44.41371" lon="6.08824">
        <ele>1357</ele>
        <time>2020-06-11T08:11:23Z</time>
      </trkpt>
      <trkpt lat="44.41367" lon="6.08826">
        <ele>1357</ele>
        <time>2020-06-11T08:11:24Z</time>
      </trkpt>
      <trkpt lat="44.41357" lon="6.08826">
        <ele>1357</ele>
        <time>2020-06-11T08:11:26Z</time>
      </trkpt>
      <trkpt lat="44.41335" lon="6.08816">
        <ele>1358</ele>
        <time>2020-06-11T08:11:31Z</time>
      </trkpt>
      <trkpt lat="44.41331" lon="6.08814">
        <ele>1358</ele>
        <time>2020-06-11T08:11:32Z</time>
      </trkpt>
      <trkpt lat="44.41319" lon="6.088">
        <ele>1358</ele>
        <time>2020-06-11T08:11:35Z</time>
      </trkpt>
      <trkpt lat="44.41307" lon="6.08787">
        <ele>1358</ele>
        <time>2020-06-11T08:11:38Z</time>
      </trkpt>
      <trkpt lat="44.41298" lon="6.08779">
        <ele>1357</ele>
        <time>2020-06-11T08:11:40Z</time>
      </trkpt>
      <trkpt lat="44.41294" lon="6.08776">
        <ele>1357</ele>
        <time>2020-06-11T08:11:41Z</time>
      </trkpt>
      <trkpt lat="44.4129" lon="6.08772">
        <ele>1357</ele>
        <time>2020-06-11T08:11:42Z</time>
      </trkpt>
      <trkpt lat="44.41286" lon="6.08768">
        <ele>1357</ele>
        <time>2020-06-11T08:11:43Z</time>
      </trkpt>
      <trkpt lat="44.41279" lon="6.0876">
        <ele>1357</ele>
        <time>2020-06-11T08:11:45Z</time>
      </trkpt>
      <trkpt lat="44.41274" lon="6.08757">
        <ele>1357</ele>
        <time>2020-06-11T08:11:46Z</time>
      </trkpt>
      <trkpt lat="44.41253" lon="6.08744">
        <ele>1358</ele>
        <time>2020-06-11T08:11:51Z</time>
      </trkpt>
      <trkpt lat="44.41242" lon="6.08736">
        <ele>1359</ele>
        <time>2020-06-11T08:11:54Z</time>
      </trkpt>
      <trkpt lat="44.41238" lon="6.08732">
        <ele>1359</ele>
        <time>2020-06-11T08:11:55Z</time>
      </trkpt>
      <trkpt lat="44.41225" lon="6.0872">
        <ele>1359</ele>
        <time>2020-06-11T08:11:58Z</time>
      </trkpt>
      <trkpt lat="44.41221" lon="6.08714">
        <ele>1359</ele>
        <time>2020-06-11T08:11:59Z</time>
      </trkpt>
      <trkpt lat="44.41205" lon="6.08679">
        <ele>1358</ele>
        <time>2020-06-11T08:12:04Z</time>
      </trkpt>
      <trkpt lat="44.41201" lon="6.08665">
        <ele>1358</ele>
        <time>2020-06-11T08:12:06Z</time>
      </trkpt>
      <trkpt lat="44.41199" lon="6.08644">
        <ele>1358</ele>
        <time>2020-06-11T08:12:09Z</time>
      </trkpt>
      <trkpt lat="44.41204" lon="6.08614">
        <ele>1357</ele>
        <time>2020-06-11T08:12:13Z</time>
      </trkpt>
      <trkpt lat="44.41211" lon="6.08592">
        <ele>1357</ele>
        <time>2020-06-11T08:12:16Z</time>
      </trkpt>
      <trkpt lat="44.41213" lon="6.08577">
        <ele>1356</ele>
        <time>2020-06-11T08:12:18Z</time>
      </trkpt>
      <trkpt lat="44.41214" lon="6.0857">
        <ele>1356</ele>
        <time>2020-06-11T08:12:19Z</time>
      </trkpt>
      <trkpt lat="44.41216" lon="6.08556">
        <ele>1354</ele>
        <time>2020-06-11T08:12:21Z</time>
      </trkpt>
      <trkpt lat="44.41215" lon="6.08552">
        <ele>1354</ele>
        <time>2020-06-11T08:12:22Z</time>
      </trkpt>
      <trkpt lat="44.41214" lon="6.08549">
        <ele>1353</ele>
        <time>2020-06-11T08:12:24Z</time>
      </trkpt>
      <trkpt lat="44.41214" lon="6.08549">
        <ele>1353</ele>
        <time>2020-06-11T08:12:26Z</time>
      </trkpt>
      <trkpt lat="44.41214" lon="6.08548">
        <ele>1353</ele>
        <time>2020-06-11T08:12:37Z</time>
      </trkpt>
      <trkpt lat="44.41214" lon="6.08549">
        <ele>1353</ele>
        <time>2020-06-11T08:12:47Z</time>
      </trkpt>
      <trkpt lat="44.41214" lon="6.08549">
        <ele>1353</ele>
        <time>2020-06-11T08:12:58Z</time>
      </trkpt>
      <trkpt lat="44.41213" lon="6.08551">
        <ele>1353</ele>
        <time>2020-06-11T08:13:11Z</time>
      </trkpt>
      <trkpt lat="44.41212" lon="6.08551">
        <ele>1353</ele>
        <time>2020-06-11T08:13:14Z</time>
      </trkpt>
      <trkpt lat="44.41213" lon="6.08553">
        <ele>1353</ele>
        <time>2020-06-11T08:13:20Z</time>
      </trkpt>
      <trkpt lat="44.41214" lon="6.08553">
        <ele>1353</ele>
        <time>2020-06-11T08:13:34Z</time>
      </trkpt>
      <trkpt lat="44.41214" lon="6.08553">
        <ele>1353</ele>
        <time>2020-06-11T08:13:55Z</time>
      </trkpt>
      <trkpt lat="44.41214" lon="6.08553">
        <ele>1353</ele>
        <time>2020-06-11T08:14:38Z</time>
      </trkpt>
      <trkpt lat="44.41213" lon="6.08553">
        <ele>1353</ele>
        <time>2020-06-11T08:14:48Z</time>
      </trkpt>
      <trkpt lat="44.41213" lon="6.08552">
        <ele>1353</ele>
        <time>2020-06-11T08:15:42Z</time>
      </trkpt>
      <trkpt lat="44.4121" lon="6.08542">
        <ele>1353</ele>
        <time>2020-06-11T08:15:46Z</time>
      </trkpt>
      <trkpt lat="44.41197" lon="6.08529">
        <ele>1354</ele>
        <time>2020-06-11T08:15:51Z</time>
      </trkpt>
      <trkpt lat="44.41173" lon="6.08522">
        <ele>1353</ele>
        <time>2020-06-11T08:15:58Z</time>
      </trkpt>
      <trkpt lat="44.41165" lon="6.08518">
        <ele>1353</ele>
        <time>2020-06-11T08:16:00Z</time>
      </trkpt>
      <trkpt lat="44.41157" lon="6.08511">
        <ele>1353</ele>
        <time>2020-06-11T08:16:02Z</time>
      </trkpt>
      <trkpt lat="44.41152" lon="6.08508">
        <ele>1353</ele>
        <time>2020-06-11T08:16:03Z</time>
      </trkpt>
      <trkpt lat="44.41135" lon="6.08503">
        <ele>1353</ele>
        <time>2020-06-11T08:16:06Z</time>
      </trkpt>
      <trkpt lat="44.41124" lon="6.08498">
        <ele>1353</ele>
        <time>2020-06-11T08:16:08Z</time>
      </trkpt>
      <trkpt lat="44.41114" lon="6.08489">
        <ele>1353</ele>
        <time>2020-06-11T08:16:10Z</time>
      </trkpt>
      <trkpt lat="44.41099" lon="6.08461">
        <ele>1353</ele>
        <time>2020-06-11T08:16:14Z</time>
      </trkpt>
      <trkpt lat="44.41088" lon="6.0844">
        <ele>1353</ele>
        <time>2020-06-11T08:16:17Z</time>
      </trkpt>
      <trkpt lat="44.41078" lon="6.08431">
        <ele>1353</ele>
        <time>2020-06-11T08:16:19Z</time>
      </trkpt>
      <trkpt lat="44.4105" lon="6.0842">
        <ele>1353</ele>
        <time>2020-06-11T08:16:24Z</time>
      </trkpt>
      <trkpt lat="44.41012" lon="6.08413">
        <ele>1354</ele>
        <time>2020-06-11T08:16:31Z</time>
      </trkpt>
      <trkpt lat="44.41002" lon="6.08417">
        <ele>1354</ele>
        <time>2020-06-11T08:16:33Z</time>
      </trkpt>
      <trkpt lat="44.40992" lon="6.08423">
        <ele>1354</ele>
        <time>2020-06-11T08:16:35Z</time>
      </trkpt>
      <trkpt lat="44.40987" lon="6.08426">
        <ele>1354</ele>
        <time>2020-06-11T08:16:36Z</time>
      </trkpt>
      <trkpt lat="44.40973" lon="6.08438">
        <ele>1354</ele>
        <time>2020-06-11T08:16:39Z</time>
      </trkpt>
      <trkpt lat="44.40964" lon="6.08445">
        <ele>1354</ele>
        <time>2020-06-11T08:16:41Z</time>
      </trkpt>
      <trkpt lat="44.4093" lon="6.08474">
        <ele>1355</ele>
        <time>2020-06-11T08:16:48Z</time>
      </trkpt>
      <trkpt lat="44.40901" lon="6.085">
        <ele>1355</ele>
        <time>2020-06-11T08:16:54Z</time>
      </trkpt>
      <trkpt lat="44.40896" lon="6.08501">
        <ele>1355</ele>
        <time>2020-06-11T08:16:55Z</time>
      </trkpt>
      <trkpt lat="44.4089" lon="6.08502">
        <ele>1355</ele>
        <time>2020-06-11T08:16:56Z</time>
      </trkpt>
      <trkpt lat="44.40879" lon="6.085">
        <ele>1355</ele>
        <time>2020-06-11T08:16:58Z</time>
      </trkpt>
      <trkpt lat="44.40873" lon="6.08498">
        <ele>1355</ele>
        <time>2020-06-11T08:16:59Z</time>
      </trkpt>
      <trkpt lat="44.40833" lon="6.08476">
        <ele>1354</ele>
        <time>2020-06-11T08:17:06Z</time>
      </trkpt>
      <trkpt lat="44.40824" lon="6.08465">
        <ele>1354</ele>
        <time>2020-06-11T08:17:08Z</time>
      </trkpt>
      <trkpt lat="44.40816" lon="6.08452">
        <ele>1354</ele>
        <time>2020-06-11T08:17:10Z</time>
      </trkpt>
      <trkpt lat="44.40803" lon="6.08415">
        <ele>1355</ele>
        <time>2020-06-11T08:17:15Z</time>
      </trkpt>
      <trkpt lat="44.40796" lon="6.08402">
        <ele>1355</ele>
        <time>2020-06-11T08:17:17Z</time>
      </trkpt>
      <trkpt lat="44.40783" lon="6.08386">
        <ele>1355</ele>
        <time>2020-06-11T08:17:20Z</time>
      </trkpt>
      <trkpt lat="44.40774" lon="6.08375">
        <ele>1355</ele>
        <time>2020-06-11T08:17:22Z</time>
      </trkpt>
      <trkpt lat="44.40765" lon="6.08366">
        <ele>1355</ele>
        <time>2020-06-11T08:17:24Z</time>
      </trkpt>
      <trkpt lat="44.40762" lon="6.0836">
        <ele>1355</ele>
        <time>2020-06-11T08:17:25Z</time>
      </trkpt>
      <trkpt lat="44.40759" lon="6.08354">
        <ele>1355</ele>
        <time>2020-06-11T08:17:26Z</time>
      </trkpt>
      <trkpt lat="44.40756" lon="6.08342">
        <ele>1354</ele>
        <time>2020-06-11T08:17:28Z</time>
      </trkpt>
      <trkpt lat="44.40756" lon="6.08331">
        <ele>1354</ele>
        <time>2020-06-11T08:17:31Z</time>
      </trkpt>
      <trkpt lat="44.40756" lon="6.0833">
        <ele>1354</ele>
        <time>2020-06-11T08:17:32Z</time>
      </trkpt>
      <trkpt lat="44.4076" lon="6.08327">
        <ele>1354</ele>
        <time>2020-06-11T08:17:36Z</time>
      </trkpt>
      <trkpt lat="44.4076" lon="6.08326">
        <ele>1354</ele>
        <time>2020-06-11T08:17:37Z</time>
      </trkpt>
      <trkpt lat="44.40763" lon="6.08315">
        <ele>1354</ele>
        <time>2020-06-11T08:17:41Z</time>
      </trkpt>
      <trkpt lat="44.40765" lon="6.08302">
        <ele>1353</ele>
        <time>2020-06-11T08:17:44Z</time>
      </trkpt>
      <trkpt lat="44.40764" lon="6.08295">
        <ele>1353</ele>
        <time>2020-06-11T08:17:46Z</time>
      </trkpt>
      <trkpt lat="44.40759" lon="6.08291">
        <ele>1352</ele>
        <time>2020-06-11T08:17:48Z</time>
      </trkpt>
      <trkpt lat="44.40755" lon="6.08291">
        <ele>1352</ele>
        <time>2020-06-11T08:17:49Z</time>
      </trkpt>
      <trkpt lat="44.4075" lon="6.08291">
        <ele>1352</ele>
        <time>2020-06-11T08:17:50Z</time>
      </trkpt>
      <trkpt lat="44.4074" lon="6.08293">
        <ele>1351</ele>
        <time>2020-06-11T08:17:52Z</time>
      </trkpt>
      <trkpt lat="44.40733" lon="6.0829">
        <ele>1350</ele>
        <time>2020-06-11T08:17:54Z</time>
      </trkpt>
      <trkpt lat="44.40728" lon="6.08287">
        <ele>1349</ele>
        <time>2020-06-11T08:17:55Z</time>
      </trkpt>
      <trkpt lat="44.40717" lon="6.08283">
        <ele>1348</ele>
        <time>2020-06-11T08:17:57Z</time>
      </trkpt>
      <trkpt lat="44.40707" lon="6.0828">
        <ele>1347</ele>
        <time>2020-06-11T08:17:59Z</time>
      </trkpt>
      <trkpt lat="44.40701" lon="6.08278">
        <ele>1346</ele>
        <time>2020-06-11T08:18:00Z</time>
      </trkpt>
      <trkpt lat="44.40696" lon="6.08277">
        <ele>1346</ele>
        <time>2020-06-11T08:18:01Z</time>
      </trkpt>
      <trkpt lat="44.40691" lon="6.08275">
        <ele>1345</ele>
        <time>2020-06-11T08:18:02Z</time>
      </trkpt>
      <trkpt lat="44.40686" lon="6.08273">
        <ele>1344</ele>
        <time>2020-06-11T08:18:03Z</time>
      </trkpt>
      <trkpt lat="44.40681" lon="6.08272">
        <ele>1343</ele>
        <time>2020-06-11T08:18:04Z</time>
      </trkpt>
      <trkpt lat="44.40676" lon="6.08272">
        <ele>1343</ele>
        <time>2020-06-11T08:18:05Z</time>
      </trkpt>
      <trkpt lat="44.40664" lon="6.08267">
        <ele>1341</ele>
        <time>2020-06-11T08:18:08Z</time>
      </trkpt>
      <trkpt lat="44.40651" lon="6.08265">
        <ele>1340</ele>
        <time>2020-06-11T08:18:12Z</time>
      </trkpt>
      <trkpt lat="44.40643" lon="6.08263">
        <ele>1340</ele>
        <time>2020-06-11T08:18:17Z</time>
      </trkpt>
      <trkpt lat="44.40636" lon="6.08258">
        <ele>1339</ele>
        <time>2020-06-11T08:18:20Z</time>
      </trkpt>
      <trkpt lat="44.40633" lon="6.08256">
        <ele>1339</ele>
        <time>2020-06-11T08:18:21Z</time>
      </trkpt>
      <trkpt lat="44.40628" lon="6.08249">
        <ele>1338</ele>
        <time>2020-06-11T08:18:23Z</time>
      </trkpt>
      <trkpt lat="44.40622" lon="6.08241">
        <ele>1336</ele>
        <time>2020-06-11T08:18:25Z</time>
      </trkpt>
      <trkpt lat="44.40618" lon="6.08238">
        <ele>1335</ele>
        <time>2020-06-11T08:18:26Z</time>
      </trkpt>
      <trkpt lat="44.40614" lon="6.08233">
        <ele>1333</ele>
        <time>2020-06-11T08:18:27Z</time>
      </trkpt>
      <trkpt lat="44.40609" lon="6.08228">
        <ele>1332</ele>
        <time>2020-06-11T08:18:28Z</time>
      </trkpt>
      <trkpt lat="44.40605" lon="6.08223">
        <ele>1331</ele>
        <time>2020-06-11T08:18:29Z</time>
      </trkpt>
      <trkpt lat="44.406" lon="6.08216">
        <ele>1329</ele>
        <time>2020-06-11T08:18:31Z</time>
      </trkpt>
      <trkpt lat="44.40597" lon="6.08213">
        <ele>1328</ele>
        <time>2020-06-11T08:18:32Z</time>
      </trkpt>
      <trkpt lat="44.40595" lon="6.0821">
        <ele>1327</ele>
        <time>2020-06-11T08:18:33Z</time>
      </trkpt>
      <trkpt lat="44.40593" lon="6.08207">
        <ele>1326</ele>
        <time>2020-06-11T08:18:34Z</time>
      </trkpt>
      <trkpt lat="44.40591" lon="6.08205">
        <ele>1325</ele>
        <time>2020-06-11T08:18:35Z</time>
      </trkpt>
      <trkpt lat="44.40587" lon="6.08202">
        <ele>1323</ele>
        <time>2020-06-11T08:18:37Z</time>
      </trkpt>
      <trkpt lat="44.40584" lon="6.08198">
        <ele>1322</ele>
        <time>2020-06-11T08:18:39Z</time>
      </trkpt>
      <trkpt lat="44.4058" lon="6.08194">
        <ele>1321</ele>
        <time>2020-06-11T08:18:41Z</time>
      </trkpt>
      <trkpt lat="44.40573" lon="6.0819">
        <ele>1321</ele>
        <time>2020-06-11T08:18:43Z</time>
      </trkpt>
      <trkpt lat="44.40562" lon="6.08179">
        <ele>1320</ele>
        <time>2020-06-11T08:18:46Z</time>
      </trkpt>
      <trkpt lat="44.40557" lon="6.08175">
        <ele>1320</ele>
        <time>2020-06-11T08:18:47Z</time>
      </trkpt>
      <trkpt lat="44.40547" lon="6.08168">
        <ele>1318</ele>
        <time>2020-06-11T08:18:49Z</time>
      </trkpt>
      <trkpt lat="44.40539" lon="6.08166">
        <ele>1317</ele>
        <time>2020-06-11T08:18:51Z</time>
      </trkpt>
      <trkpt lat="44.40535" lon="6.08163">
        <ele>1316</ele>
        <time>2020-06-11T08:18:54Z</time>
      </trkpt>
      <trkpt lat="44.40524" lon="6.08159">
        <ele>1317</ele>
        <time>2020-06-11T08:19:00Z</time>
      </trkpt>
      <trkpt lat="44.40517" lon="6.08156">
        <ele>1318</ele>
        <time>2020-06-11T08:19:03Z</time>
      </trkpt>
      <trkpt lat="44.40511" lon="6.08153">
        <ele>1318</ele>
        <time>2020-06-11T08:19:05Z</time>
      </trkpt>
      <trkpt lat="44.40499" lon="6.08144">
        <ele>1318</ele>
        <time>2020-06-11T08:19:08Z</time>
      </trkpt>
      <trkpt lat="44.40491" lon="6.08142">
        <ele>1317</ele>
        <time>2020-06-11T08:19:10Z</time>
      </trkpt>
      <trkpt lat="44.40487" lon="6.08142">
        <ele>1317</ele>
        <time>2020-06-11T08:19:11Z</time>
      </trkpt>
      <trkpt lat="44.40473" lon="6.08144">
        <ele>1316</ele>
        <time>2020-06-11T08:19:14Z</time>
      </trkpt>
      <trkpt lat="44.40468" lon="6.08146">
        <ele>1315</ele>
        <time>2020-06-11T08:19:15Z</time>
      </trkpt>
      <trkpt lat="44.40462" lon="6.0815">
        <ele>1314</ele>
        <time>2020-06-11T08:19:16Z</time>
      </trkpt>
      <trkpt lat="44.40457" lon="6.08152">
        <ele>1313</ele>
        <time>2020-06-11T08:19:17Z</time>
      </trkpt>
      <trkpt lat="44.40452" lon="6.08154">
        <ele>1312</ele>
        <time>2020-06-11T08:19:18Z</time>
      </trkpt>
      <trkpt lat="44.40447" lon="6.08157">
        <ele>1311</ele>
        <time>2020-06-11T08:19:19Z</time>
      </trkpt>
      <trkpt lat="44.40442" lon="6.08159">
        <ele>1309</ele>
        <time>2020-06-11T08:19:20Z</time>
      </trkpt>
      <trkpt lat="44.40436" lon="6.0816">
        <ele>1308</ele>
        <time>2020-06-11T08:19:21Z</time>
      </trkpt>
      <trkpt lat="44.40431" lon="6.08161">
        <ele>1306</ele>
        <time>2020-06-11T08:19:22Z</time>
      </trkpt>
      <trkpt lat="44.40428" lon="6.08161">
        <ele>1304</ele>
        <time>2020-06-11T08:19:23Z</time>
      </trkpt>
      <trkpt lat="44.40424" lon="6.0816">
        <ele>1303</ele>
        <time>2020-06-11T08:19:24Z</time>
      </trkpt>
      <trkpt lat="44.4042" lon="6.08159">
        <ele>1301</ele>
        <time>2020-06-11T08:19:25Z</time>
      </trkpt>
      <trkpt lat="44.40416" lon="6.08159">
        <ele>1300</ele>
        <time>2020-06-11T08:19:26Z</time>
      </trkpt>
      <trkpt lat="44.40412" lon="6.08159">
        <ele>1299</ele>
        <time>2020-06-11T08:19:27Z</time>
      </trkpt>
      <trkpt lat="44.40407" lon="6.0816">
        <ele>1297</ele>
        <time>2020-06-11T08:19:28Z</time>
      </trkpt>
      <trkpt lat="44.40402" lon="6.0816">
        <ele>1296</ele>
        <time>2020-06-11T08:19:29Z</time>
      </trkpt>
      <trkpt lat="44.40396" lon="6.08162">
        <ele>1295</ele>
        <time>2020-06-11T08:19:30Z</time>
      </trkpt>
      <trkpt lat="44.40391" lon="6.08162">
        <ele>1294</ele>
        <time>2020-06-11T08:19:31Z</time>
      </trkpt>
      <trkpt lat="44.40386" lon="6.08162">
        <ele>1293</ele>
        <time>2020-06-11T08:19:32Z</time>
      </trkpt>
      <trkpt lat="44.40381" lon="6.08163">
        <ele>1291</ele>
        <time>2020-06-11T08:19:33Z</time>
      </trkpt>
      <trkpt lat="44.40376" lon="6.08163">
        <ele>1290</ele>
        <time>2020-06-11T08:19:34Z</time>
      </trkpt>
      <trkpt lat="44.40371" lon="6.08163">
        <ele>1289</ele>
        <time>2020-06-11T08:19:35Z</time>
      </trkpt>
      <trkpt lat="44.40366" lon="6.08164">
        <ele>1287</ele>
        <time>2020-06-11T08:19:36Z</time>
      </trkpt>
      <trkpt lat="44.40361" lon="6.08165">
        <ele>1286</ele>
        <time>2020-06-11T08:19:37Z</time>
      </trkpt>
      <trkpt lat="44.40355" lon="6.08165">
        <ele>1285</ele>
        <time>2020-06-11T08:19:38Z</time>
      </trkpt>
      <trkpt lat="44.40349" lon="6.08167">
        <ele>1284</ele>
        <time>2020-06-11T08:19:39Z</time>
      </trkpt>
      <trkpt lat="44.40343" lon="6.08169">
        <ele>1282</ele>
        <time>2020-06-11T08:19:40Z</time>
      </trkpt>
      <trkpt lat="44.40336" lon="6.08171">
        <ele>1281</ele>
        <time>2020-06-11T08:19:41Z</time>
      </trkpt>
      <trkpt lat="44.40329" lon="6.08172">
        <ele>1280</ele>
        <time>2020-06-11T08:19:42Z</time>
      </trkpt>
      <trkpt lat="44.40323" lon="6.08172">
        <ele>1278</ele>
        <time>2020-06-11T08:19:43Z</time>
      </trkpt>
      <trkpt lat="44.40316" lon="6.0817">
        <ele>1277</ele>
        <time>2020-06-11T08:19:44Z</time>
      </trkpt>
      <trkpt lat="44.40309" lon="6.08168">
        <ele>1276</ele>
        <time>2020-06-11T08:19:45Z</time>
      </trkpt>
      <trkpt lat="44.40303" lon="6.08167">
        <ele>1274</ele>
        <time>2020-06-11T08:19:46Z</time>
      </trkpt>
      <trkpt lat="44.40298" lon="6.08166">
        <ele>1273</ele>
        <time>2020-06-11T08:19:47Z</time>
      </trkpt>
      <trkpt lat="44.40294" lon="6.08163">
        <ele>1271</ele>
        <time>2020-06-11T08:19:48Z</time>
      </trkpt>
      <trkpt lat="44.40291" lon="6.08162">
        <ele>1270</ele>
        <time>2020-06-11T08:19:49Z</time>
      </trkpt>
      <trkpt lat="44.40282" lon="6.08166">
        <ele>1268</ele>
        <time>2020-06-11T08:19:51Z</time>
      </trkpt>
      <trkpt lat="44.40271" lon="6.08169">
        <ele>1267</ele>
        <time>2020-06-11T08:19:53Z</time>
      </trkpt>
      <trkpt lat="44.40266" lon="6.08167">
        <ele>1267</ele>
        <time>2020-06-11T08:19:54Z</time>
      </trkpt>
      <trkpt lat="44.40255" lon="6.08164">
        <ele>1266</ele>
        <time>2020-06-11T08:19:56Z</time>
      </trkpt>
      <trkpt lat="44.40244" lon="6.08164">
        <ele>1265</ele>
        <time>2020-06-11T08:19:58Z</time>
      </trkpt>
      <trkpt lat="44.4024" lon="6.08163">
        <ele>1265</ele>
        <time>2020-06-11T08:19:59Z</time>
      </trkpt>
      <trkpt lat="44.40235" lon="6.08162">
        <ele>1265</ele>
        <time>2020-06-11T08:20:00Z</time>
      </trkpt>
      <trkpt lat="44.40227" lon="6.08163">
        <ele>1264</ele>
        <time>2020-06-11T08:20:02Z</time>
      </trkpt>
      <trkpt lat="44.40222" lon="6.08165">
        <ele>1264</ele>
        <time>2020-06-11T08:20:03Z</time>
      </trkpt>
      <trkpt lat="44.40218" lon="6.08166">
        <ele>1264</ele>
        <time>2020-06-11T08:20:04Z</time>
      </trkpt>
      <trkpt lat="44.40209" lon="6.08169">
        <ele>1263</ele>
        <time>2020-06-11T08:20:06Z</time>
      </trkpt>
      <trkpt lat="44.40205" lon="6.08166">
        <ele>1263</ele>
        <time>2020-06-11T08:20:07Z</time>
      </trkpt>
      <trkpt lat="44.40191" lon="6.08151">
        <ele>1263</ele>
        <time>2020-06-11T08:20:12Z</time>
      </trkpt>
      <trkpt lat="44.40178" lon="6.0814">
        <ele>1265</ele>
        <time>2020-06-11T08:20:17Z</time>
      </trkpt>
      <trkpt lat="44.40172" lon="6.08136">
        <ele>1266</ele>
        <time>2020-06-11T08:20:22Z</time>
      </trkpt>
      <trkpt lat="44.4014" lon="6.08126">
        <ele>1274</ele>
        <time>2020-06-11T08:20:56Z</time>
      </trkpt>
      <trkpt lat="44.40137" lon="6.08125">
        <ele>1275</ele>
        <time>2020-06-11T08:20:59Z</time>
      </trkpt>
      <trkpt lat="44.40134" lon="6.08121">
        <ele>1276</ele>
        <time>2020-06-11T08:21:03Z</time>
      </trkpt>
      <trkpt lat="44.40129" lon="6.0812">
        <ele>1277</ele>
        <time>2020-06-11T08:21:07Z</time>
      </trkpt>
      <trkpt lat="44.40126" lon="6.08119">
        <ele>1279</ele>
        <time>2020-06-11T08:21:10Z</time>
      </trkpt>
      <trkpt lat="44.4012" lon="6.0812">
        <ele>1280</ele>
        <time>2020-06-11T08:21:14Z</time>
      </trkpt>
      <trkpt lat="44.40117" lon="6.08119">
        <ele>1281</ele>
        <time>2020-06-11T08:21:17Z</time>
      </trkpt>
      <trkpt lat="44.40116" lon="6.08116">
        <ele>1281</ele>
        <time>2020-06-11T08:21:19Z</time>
      </trkpt>
      <trkpt lat="44.40115" lon="6.08115">
        <ele>1282</ele>
        <time>2020-06-11T08:21:20Z</time>
      </trkpt>
      <trkpt lat="44.40114" lon="6.0811">
        <ele>1282</ele>
        <time>2020-06-11T08:21:23Z</time>
      </trkpt>
      <trkpt lat="44.40111" lon="6.08104">
        <ele>1283</ele>
        <time>2020-06-11T08:21:27Z</time>
      </trkpt>
      <trkpt lat="44.4011" lon="6.08103">
        <ele>1284</ele>
        <time>2020-06-11T08:21:28Z</time>
      </trkpt>
      <trkpt lat="44.40104" lon="6.081">
        <ele>1284</ele>
        <time>2020-06-11T08:21:32Z</time>
      </trkpt>
      <trkpt lat="44.40101" lon="6.08095">
        <ele>1285</ele>
        <time>2020-06-11T08:21:35Z</time>
      </trkpt>
      <trkpt lat="44.40098" lon="6.08083">
        <ele>1285</ele>
        <time>2020-06-11T08:21:39Z</time>
      </trkpt>
      <trkpt lat="44.40096" lon="6.0808">
        <ele>1286</ele>
        <time>2020-06-11T08:21:40Z</time>
      </trkpt>
      <trkpt lat="44.40094" lon="6.08077">
        <ele>1286</ele>
        <time>2020-06-11T08:21:41Z</time>
      </trkpt>
      <trkpt lat="44.4009" lon="6.0807">
        <ele>1286</ele>
        <time>2020-06-11T08:21:43Z</time>
      </trkpt>
      <trkpt lat="44.4009" lon="6.08066">
        <ele>1286</ele>
        <time>2020-06-11T08:21:44Z</time>
      </trkpt>
      <trkpt lat="44.40087" lon="6.08055">
        <ele>1286</ele>
        <time>2020-06-11T08:21:46Z</time>
      </trkpt>
      <trkpt lat="44.40081" lon="6.08047">
        <ele>1285</ele>
        <time>2020-06-11T08:21:48Z</time>
      </trkpt>
      <trkpt lat="44.40077" lon="6.08037">
        <ele>1285</ele>
        <time>2020-06-11T08:21:50Z</time>
      </trkpt>
      <trkpt lat="44.40075" lon="6.08031">
        <ele>1284</ele>
        <time>2020-06-11T08:21:51Z</time>
      </trkpt>
      <trkpt lat="44.40072" lon="6.08025">
        <ele>1284</ele>
        <time>2020-06-11T08:21:52Z</time>
      </trkpt>
      <trkpt lat="44.40062" lon="6.08009">
        <ele>1284</ele>
        <time>2020-06-11T08:21:55Z</time>
      </trkpt>
      <trkpt lat="44.40055" lon="6.07999">
        <ele>1284</ele>
        <time>2020-06-11T08:21:58Z</time>
      </trkpt>
      <trkpt lat="44.40045" lon="6.07993">
        <ele>1286</ele>
        <time>2020-06-11T08:22:03Z</time>
      </trkpt>
      <trkpt lat="44.4004" lon="6.07991">
        <ele>1287</ele>
        <time>2020-06-11T08:22:06Z</time>
      </trkpt>
      <trkpt lat="44.4004" lon="6.0799">
        <ele>1287</ele>
        <time>2020-06-11T08:22:07Z</time>
      </trkpt>
      <trkpt lat="44.40017" lon="6.07976">
        <ele>1291</ele>
        <time>2020-06-11T08:22:27Z</time>
      </trkpt>
      <trkpt lat="44.40015" lon="6.07974">
        <ele>1292</ele>
        <time>2020-06-11T08:22:29Z</time>
      </trkpt>
      <trkpt lat="44.40015" lon="6.07972">
        <ele>1292</ele>
        <time>2020-06-11T08:22:30Z</time>
      </trkpt>
      <trkpt lat="44.40013" lon="6.0797">
        <ele>1293</ele>
        <time>2020-06-11T08:22:33Z</time>
      </trkpt>
      <trkpt lat="44.40012" lon="6.0797">
        <ele>1294</ele>
        <time>2020-06-11T08:22:35Z</time>
      </trkpt>
      <trkpt lat="44.40012" lon="6.07968">
        <ele>1295</ele>
        <time>2020-06-11T08:22:38Z</time>
      </trkpt>
      <trkpt lat="44.40011" lon="6.07968">
        <ele>1295</ele>
        <time>2020-06-11T08:22:41Z</time>
      </trkpt>
      <trkpt lat="44.40007" lon="6.07961">
        <ele>1296</ele>
        <time>2020-06-11T08:22:46Z</time>
      </trkpt>
      <trkpt lat="44.40006" lon="6.0796">
        <ele>1296</ele>
        <time>2020-06-11T08:22:47Z</time>
      </trkpt>
      <trkpt lat="44.39998" lon="6.07958">
        <ele>1297</ele>
        <time>2020-06-11T08:22:52Z</time>
      </trkpt>
      <trkpt lat="44.39996" lon="6.07957">
        <ele>1297</ele>
        <time>2020-06-11T08:22:53Z</time>
      </trkpt>
      <trkpt lat="44.39993" lon="6.07956">
        <ele>1297</ele>
        <time>2020-06-11T08:22:55Z</time>
      </trkpt>
      <trkpt lat="44.39993" lon="6.07953">
        <ele>1298</ele>
        <time>2020-06-11T08:22:57Z</time>
      </trkpt>
      <trkpt lat="44.39993" lon="6.07951">
        <ele>1298</ele>
        <time>2020-06-11T08:22:58Z</time>
      </trkpt>
      <trkpt lat="44.39992" lon="6.07948">
        <ele>1299</ele>
        <time>2020-06-11T08:23:01Z</time>
      </trkpt>
      <trkpt lat="44.39991" lon="6.07946">
        <ele>1299</ele>
        <time>2020-06-11T08:23:02Z</time>
      </trkpt>
      <trkpt lat="44.39991" lon="6.07945">
        <ele>1299</ele>
        <time>2020-06-11T08:23:03Z</time>
      </trkpt>
      <trkpt lat="44.39989" lon="6.07943">
        <ele>1300</ele>
        <time>2020-06-11T08:23:05Z</time>
      </trkpt>
      <trkpt lat="44.39989" lon="6.07942">
        <ele>1300</ele>
        <time>2020-06-11T08:23:06Z</time>
      </trkpt>
      <trkpt lat="44.39989" lon="6.07936">
        <ele>1301</ele>
        <time>2020-06-11T08:23:09Z</time>
      </trkpt>
      <trkpt lat="44.39987" lon="6.0793">
        <ele>1301</ele>
        <time>2020-06-11T08:23:12Z</time>
      </trkpt>
      <trkpt lat="44.39985" lon="6.07928">
        <ele>1301</ele>
        <time>2020-06-11T08:23:13Z</time>
      </trkpt>
      <trkpt lat="44.39981" lon="6.07925">
        <ele>1302</ele>
        <time>2020-06-11T08:23:15Z</time>
      </trkpt>
      <trkpt lat="44.39977" lon="6.07921">
        <ele>1302</ele>
        <time>2020-06-11T08:23:18Z</time>
      </trkpt>
      <trkpt lat="44.39975" lon="6.07916">
        <ele>1302</ele>
        <time>2020-06-11T08:23:20Z</time>
      </trkpt>
      <trkpt lat="44.39976" lon="6.07899">
        <ele>1302</ele>
        <time>2020-06-11T08:23:24Z</time>
      </trkpt>
      <trkpt lat="44.3998" lon="6.07891">
        <ele>1303</ele>
        <time>2020-06-11T08:23:26Z</time>
      </trkpt>
      <trkpt lat="44.3998" lon="6.07881">
        <ele>1303</ele>
        <time>2020-06-11T08:23:28Z</time>
      </trkpt>
      <trkpt lat="44.39978" lon="6.07864">
        <ele>1303</ele>
        <time>2020-06-11T08:23:31Z</time>
      </trkpt>
      <trkpt lat="44.39978" lon="6.07857">
        <ele>1302</ele>
        <time>2020-06-11T08:23:32Z</time>
      </trkpt>
      <trkpt lat="44.39976" lon="6.0785">
        <ele>1302</ele>
        <time>2020-06-11T08:23:33Z</time>
      </trkpt>
      <trkpt lat="44.39973" lon="6.07843">
        <ele>1302</ele>
        <time>2020-06-11T08:23:34Z</time>
      </trkpt>
      <trkpt lat="44.39971" lon="6.07835">
        <ele>1301</ele>
        <time>2020-06-11T08:23:35Z</time>
      </trkpt>
      <trkpt lat="44.39969" lon="6.07826">
        <ele>1300</ele>
        <time>2020-06-11T08:23:36Z</time>
      </trkpt>
      <trkpt lat="44.39969" lon="6.0782">
        <ele>1299</ele>
        <time>2020-06-11T08:23:37Z</time>
      </trkpt>
      <trkpt lat="44.3997" lon="6.07814">
        <ele>1299</ele>
        <time>2020-06-11T08:23:38Z</time>
      </trkpt>
      <trkpt lat="44.39974" lon="6.07805">
        <ele>1297</ele>
        <time>2020-06-11T08:23:40Z</time>
      </trkpt>
      <trkpt lat="44.39976" lon="6.07796">
        <ele>1296</ele>
        <time>2020-06-11T08:23:42Z</time>
      </trkpt>
      <trkpt lat="44.39976" lon="6.07787">
        <ele>1296</ele>
        <time>2020-06-11T08:23:44Z</time>
      </trkpt>
      <trkpt lat="44.39976" lon="6.07784">
        <ele>1295</ele>
        <time>2020-06-11T08:23:46Z</time>
      </trkpt>
      <trkpt lat="44.39976" lon="6.07782">
        <ele>1295</ele>
        <time>2020-06-11T08:23:48Z</time>
      </trkpt>
      <trkpt lat="44.39974" lon="6.07776">
        <ele>1295</ele>
        <time>2020-06-11T08:23:53Z</time>
      </trkpt>
      <trkpt lat="44.39973" lon="6.07774">
        <ele>1295</ele>
        <time>2020-06-11T08:23:54Z</time>
      </trkpt>
      <trkpt lat="44.3997" lon="6.07767">
        <ele>1295</ele>
        <time>2020-06-11T08:23:57Z</time>
      </trkpt>
      <trkpt lat="44.39966" lon="6.07754">
        <ele>1295</ele>
        <time>2020-06-11T08:24:02Z</time>
      </trkpt>
      <trkpt lat="44.3996" lon="6.0774">
        <ele>1296</ele>
        <time>2020-06-11T08:24:05Z</time>
      </trkpt>
      <trkpt lat="44.39959" lon="6.07732">
        <ele>1296</ele>
        <time>2020-06-11T08:24:07Z</time>
      </trkpt>
      <trkpt lat="44.39953" lon="6.0772">
        <ele>1297</ele>
        <time>2020-06-11T08:24:10Z</time>
      </trkpt>
      <trkpt lat="44.39952" lon="6.07716">
        <ele>1297</ele>
        <time>2020-06-11T08:24:11Z</time>
      </trkpt>
      <trkpt lat="44.39944" lon="6.07693">
        <ele>1298</ele>
        <time>2020-06-11T08:24:17Z</time>
      </trkpt>
      <trkpt lat="44.39941" lon="6.07685">
        <ele>1298</ele>
        <time>2020-06-11T08:24:19Z</time>
      </trkpt>
      <trkpt lat="44.39935" lon="6.07675">
        <ele>1299</ele>
        <time>2020-06-11T08:24:22Z</time>
      </trkpt>
      <trkpt lat="44.39934" lon="6.07672">
        <ele>1299</ele>
        <time>2020-06-11T08:24:23Z</time>
      </trkpt>
      <trkpt lat="44.39932" lon="6.07662">
        <ele>1299</ele>
        <time>2020-06-11T08:24:26Z</time>
      </trkpt>
      <trkpt lat="44.39926" lon="6.07651">
        <ele>1299</ele>
        <time>2020-06-11T08:24:31Z</time>
      </trkpt>
      <trkpt lat="44.39922" lon="6.07643">
        <ele>1300</ele>
        <time>2020-06-11T08:24:34Z</time>
      </trkpt>
      <trkpt lat="44.3992" lon="6.07637">
        <ele>1300</ele>
        <time>2020-06-11T08:24:36Z</time>
      </trkpt>
      <trkpt lat="44.39911" lon="6.07616">
        <ele>1300</ele>
        <time>2020-06-11T08:24:41Z</time>
      </trkpt>
      <trkpt lat="44.39906" lon="6.07609">
        <ele>1300</ele>
        <time>2020-06-11T08:24:45Z</time>
      </trkpt>
      <trkpt lat="44.39905" lon="6.07607">
        <ele>1300</ele>
        <time>2020-06-11T08:24:46Z</time>
      </trkpt>
      <trkpt lat="44.39903" lon="6.07602">
        <ele>1299</ele>
        <time>2020-06-11T08:24:48Z</time>
      </trkpt>
      <trkpt lat="44.399" lon="6.07597">
        <ele>1299</ele>
        <time>2020-06-11T08:24:50Z</time>
      </trkpt>
      <trkpt lat="44.39885" lon="6.07582">
        <ele>1299</ele>
        <time>2020-06-11T08:24:55Z</time>
      </trkpt>
      <trkpt lat="44.39867" lon="6.07574">
        <ele>1299</ele>
        <time>2020-06-11T08:25:00Z</time>
      </trkpt>
      <trkpt lat="44.39855" lon="6.0756">
        <ele>1300</ele>
        <time>2020-06-11T08:25:04Z</time>
      </trkpt>
      <trkpt lat="44.39853" lon="6.07555">
        <ele>1300</ele>
        <time>2020-06-11T08:25:05Z</time>
      </trkpt>
      <trkpt lat="44.39851" lon="6.07549">
        <ele>1300</ele>
        <time>2020-06-11T08:25:06Z</time>
      </trkpt>
      <trkpt lat="44.39846" lon="6.07537">
        <ele>1300</ele>
        <time>2020-06-11T08:25:08Z</time>
      </trkpt>
      <trkpt lat="44.39843" lon="6.07531">
        <ele>1300</ele>
        <time>2020-06-11T08:25:09Z</time>
      </trkpt>
      <trkpt lat="44.39839" lon="6.07525">
        <ele>1300</ele>
        <time>2020-06-11T08:25:10Z</time>
      </trkpt>
      <trkpt lat="44.39832" lon="6.07506">
        <ele>1299</ele>
        <time>2020-06-11T08:25:13Z</time>
      </trkpt>
      <trkpt lat="44.39828" lon="6.07502">
        <ele>1299</ele>
        <time>2020-06-11T08:25:14Z</time>
      </trkpt>
      <trkpt lat="44.39825" lon="6.07498">
        <ele>1299</ele>
        <time>2020-06-11T08:25:15Z</time>
      </trkpt>
      <trkpt lat="44.39819" lon="6.07487">
        <ele>1298</ele>
        <time>2020-06-11T08:25:17Z</time>
      </trkpt>
      <trkpt lat="44.39812" lon="6.07469">
        <ele>1298</ele>
        <time>2020-06-11T08:25:20Z</time>
      </trkpt>
      <trkpt lat="44.39808" lon="6.07464">
        <ele>1298</ele>
        <time>2020-06-11T08:25:21Z</time>
      </trkpt>
      <trkpt lat="44.39804" lon="6.07461">
        <ele>1297</ele>
        <time>2020-06-11T08:25:22Z</time>
      </trkpt>
      <trkpt lat="44.39791" lon="6.07451">
        <ele>1297</ele>
        <time>2020-06-11T08:25:26Z</time>
      </trkpt>
      <trkpt lat="44.39781" lon="6.07439">
        <ele>1298</ele>
        <time>2020-06-11T08:25:32Z</time>
      </trkpt>
      <trkpt lat="44.39779" lon="6.07438">
        <ele>1298</ele>
        <time>2020-06-11T08:25:33Z</time>
      </trkpt>
      <trkpt lat="44.39772" lon="6.07438">
        <ele>1298</ele>
        <time>2020-06-11T08:25:36Z</time>
      </trkpt>
      <trkpt lat="44.39762" lon="6.0744">
        <ele>1299</ele>
        <time>2020-06-11T08:25:40Z</time>
      </trkpt>
      <trkpt lat="44.3976" lon="6.07439">
        <ele>1299</ele>
        <time>2020-06-11T08:25:41Z</time>
      </trkpt>
      <trkpt lat="44.39751" lon="6.07438">
        <ele>1299</ele>
        <time>2020-06-11T08:25:46Z</time>
      </trkpt>
      <trkpt lat="44.3975" lon="6.07437">
        <ele>1299</ele>
        <time>2020-06-11T08:25:47Z</time>
      </trkpt>
      <trkpt lat="44.39749" lon="6.07437">
        <ele>1300</ele>
        <time>2020-06-11T08:25:49Z</time>
      </trkpt>
      <trkpt lat="44.39749" lon="6.07437">
        <ele>1300</ele>
        <time>2020-06-11T08:25:51Z</time>
      </trkpt>
      <trkpt lat="44.39745" lon="6.07435">
        <ele>1300</ele>
        <time>2020-06-11T08:25:56Z</time>
      </trkpt>
      <trkpt lat="44.3974" lon="6.07431">
        <ele>1301</ele>
        <time>2020-06-11T08:26:00Z</time>
      </trkpt>
      <trkpt lat="44.39738" lon="6.07428">
        <ele>1301</ele>
        <time>2020-06-11T08:26:03Z</time>
      </trkpt>
      <trkpt lat="44.39737" lon="6.07427">
        <ele>1301</ele>
        <time>2020-06-11T08:26:04Z</time>
      </trkpt>
      <trkpt lat="44.39734" lon="6.07424">
        <ele>1301</ele>
        <time>2020-06-11T08:26:06Z</time>
      </trkpt>
      <trkpt lat="44.39731" lon="6.07422">
        <ele>1301</ele>
        <time>2020-06-11T08:26:08Z</time>
      </trkpt>
      <trkpt lat="44.39726" lon="6.07416">
        <ele>1302</ele>
        <time>2020-06-11T08:26:12Z</time>
      </trkpt>
      <trkpt lat="44.39725" lon="6.07414">
        <ele>1302</ele>
        <time>2020-06-11T08:26:13Z</time>
      </trkpt>
      <trkpt lat="44.39721" lon="6.07405">
        <ele>1303</ele>
        <time>2020-06-11T08:26:20Z</time>
      </trkpt>
      <trkpt lat="44.39718" lon="6.07402">
        <ele>1304</ele>
        <time>2020-06-11T08:26:27Z</time>
      </trkpt>
      <trkpt lat="44.39717" lon="6.07397">
        <ele>1304</ele>
        <time>2020-06-11T08:26:30Z</time>
      </trkpt>
      <trkpt lat="44.39713" lon="6.07393">
        <ele>1305</ele>
        <time>2020-06-11T08:26:33Z</time>
      </trkpt>
      <trkpt lat="44.39713" lon="6.07392">
        <ele>1305</ele>
        <time>2020-06-11T08:26:34Z</time>
      </trkpt>
      <trkpt lat="44.39709" lon="6.07387">
        <ele>1305</ele>
        <time>2020-06-11T08:26:37Z</time>
      </trkpt>
      <trkpt lat="44.39708" lon="6.07385">
        <ele>1305</ele>
        <time>2020-06-11T08:26:38Z</time>
      </trkpt>
      <trkpt lat="44.39702" lon="6.07377">
        <ele>1306</ele>
        <time>2020-06-11T08:26:43Z</time>
      </trkpt>
      <trkpt lat="44.39702" lon="6.07376">
        <ele>1306</ele>
        <time>2020-06-11T08:26:44Z</time>
      </trkpt>
      <trkpt lat="44.39699" lon="6.07367">
        <ele>1308</ele>
        <time>2020-06-11T08:26:49Z</time>
      </trkpt>
      <trkpt lat="44.39696" lon="6.07364">
        <ele>1309</ele>
        <time>2020-06-11T08:26:54Z</time>
      </trkpt>
      <trkpt lat="44.39696" lon="6.07364">
        <ele>1309</ele>
        <time>2020-06-11T08:26:55Z</time>
      </trkpt>
      <trkpt lat="44.39693" lon="6.07361">
        <ele>1309</ele>
        <time>2020-06-11T08:26:59Z</time>
      </trkpt>
      <trkpt lat="44.39692" lon="6.07361">
        <ele>1309</ele>
        <time>2020-06-11T08:27:00Z</time>
      </trkpt>
      <trkpt lat="44.39691" lon="6.07357">
        <ele>1310</ele>
        <time>2020-06-11T08:27:06Z</time>
      </trkpt>
      <trkpt lat="44.39693" lon="6.07354">
        <ele>1311</ele>
        <time>2020-06-11T08:27:13Z</time>
      </trkpt>
      <trkpt lat="44.39693" lon="6.07352">
        <ele>1311</ele>
        <time>2020-06-11T08:27:14Z</time>
      </trkpt>
      <trkpt lat="44.39691" lon="6.07349">
        <ele>1311</ele>
        <time>2020-06-11T08:27:18Z</time>
      </trkpt>
      <trkpt lat="44.3969" lon="6.07349">
        <ele>1311</ele>
        <time>2020-06-11T08:27:21Z</time>
      </trkpt>
      <trkpt lat="44.39688" lon="6.07347">
        <ele>1312</ele>
        <time>2020-06-11T08:27:28Z</time>
      </trkpt>
      <trkpt lat="44.39686" lon="6.07346">
        <ele>1312</ele>
        <time>2020-06-11T08:27:29Z</time>
      </trkpt>
      <trkpt lat="44.39684" lon="6.07343">
        <ele>1312</ele>
        <time>2020-06-11T08:27:31Z</time>
      </trkpt>
      <trkpt lat="44.39683" lon="6.07341">
        <ele>1313</ele>
        <time>2020-06-11T08:27:33Z</time>
      </trkpt>
      <trkpt lat="44.39682" lon="6.07339">
        <ele>1313</ele>
        <time>2020-06-11T08:27:34Z</time>
      </trkpt>
      <trkpt lat="44.39682" lon="6.07333">
        <ele>1314</ele>
        <time>2020-06-11T08:27:37Z</time>
      </trkpt>
      <trkpt lat="44.3968" lon="6.07327">
        <ele>1315</ele>
        <time>2020-06-11T08:27:42Z</time>
      </trkpt>
      <trkpt lat="44.39678" lon="6.07323">
        <ele>1316</ele>
        <time>2020-06-11T08:27:45Z</time>
      </trkpt>
      <trkpt lat="44.39677" lon="6.07321">
        <ele>1317</ele>
        <time>2020-06-11T08:27:48Z</time>
      </trkpt>
      <trkpt lat="44.39675" lon="6.0732">
        <ele>1318</ele>
        <time>2020-06-11T08:27:50Z</time>
      </trkpt>
      <trkpt lat="44.39674" lon="6.07319">
        <ele>1319</ele>
        <time>2020-06-11T08:27:51Z</time>
      </trkpt>
      <trkpt lat="44.39673" lon="6.07319">
        <ele>1319</ele>
        <time>2020-06-11T08:27:54Z</time>
      </trkpt>
      <trkpt lat="44.39671" lon="6.07317">
        <ele>1320</ele>
        <time>2020-06-11T08:27:58Z</time>
      </trkpt>
      <trkpt lat="44.39671" lon="6.07313">
        <ele>1320</ele>
        <time>2020-06-11T08:28:01Z</time>
      </trkpt>
      <trkpt lat="44.3967" lon="6.07312">
        <ele>1321</ele>
        <time>2020-06-11T08:28:03Z</time>
      </trkpt>
      <trkpt lat="44.39667" lon="6.07311">
        <ele>1322</ele>
        <time>2020-06-11T08:28:08Z</time>
      </trkpt>
      <trkpt lat="44.39667" lon="6.07311">
        <ele>1322</ele>
        <time>2020-06-11T08:28:09Z</time>
      </trkpt>
      <trkpt lat="44.39664" lon="6.07311">
        <ele>1323</ele>
        <time>2020-06-11T08:28:14Z</time>
      </trkpt>
      <trkpt lat="44.39663" lon="6.07312">
        <ele>1324</ele>
        <time>2020-06-11T08:28:16Z</time>
      </trkpt>
      <trkpt lat="44.39661" lon="6.07313">
        <ele>1324</ele>
        <time>2020-06-11T08:28:21Z</time>
      </trkpt>
      <trkpt lat="44.39659" lon="6.07313">
        <ele>1325</ele>
        <time>2020-06-11T08:28:24Z</time>
      </trkpt>
      <trkpt lat="44.39658" lon="6.07313">
        <ele>1325</ele>
        <time>2020-06-11T08:28:25Z</time>
      </trkpt>
      <trkpt lat="44.39657" lon="6.07313">
        <ele>1326</ele>
        <time>2020-06-11T08:28:26Z</time>
      </trkpt>
      <trkpt lat="44.39653" lon="6.07315">
        <ele>1327</ele>
        <time>2020-06-11T08:28:33Z</time>
      </trkpt>
      <trkpt lat="44.39652" lon="6.07316">
        <ele>1327</ele>
        <time>2020-06-11T08:28:34Z</time>
      </trkpt>
      <trkpt lat="44.3965" lon="6.07316">
        <ele>1328</ele>
        <time>2020-06-11T08:28:37Z</time>
      </trkpt>
      <trkpt lat="44.39647" lon="6.07318">
        <ele>1329</ele>
        <time>2020-06-11T08:28:42Z</time>
      </trkpt>
      <trkpt lat="44.39643" lon="6.07319">
        <ele>1330</ele>
        <time>2020-06-11T08:28:48Z</time>
      </trkpt>
      <trkpt lat="44.39643" lon="6.07318">
        <ele>1331</ele>
        <time>2020-06-11T08:28:50Z</time>
      </trkpt>
      <trkpt lat="44.39644" lon="6.07316">
        <ele>1331</ele>
        <time>2020-06-11T08:28:54Z</time>
      </trkpt>
      <trkpt lat="44.39644" lon="6.07313">
        <ele>1331</ele>
        <time>2020-06-11T08:28:57Z</time>
      </trkpt>
      <trkpt lat="44.39643" lon="6.07309">
        <ele>1332</ele>
        <time>2020-06-11T08:29:00Z</time>
      </trkpt>
      <trkpt lat="44.39643" lon="6.07306">
        <ele>1333</ele>
        <time>2020-06-11T08:29:02Z</time>
      </trkpt>
      <trkpt lat="44.39642" lon="6.07303">
        <ele>1333</ele>
        <time>2020-06-11T08:29:04Z</time>
      </trkpt>
      <trkpt lat="44.39642" lon="6.07302">
        <ele>1333</ele>
        <time>2020-06-11T08:29:05Z</time>
      </trkpt>
      <trkpt lat="44.39643" lon="6.07301">
        <ele>1333</ele>
        <time>2020-06-11T08:29:06Z</time>
      </trkpt>
      <trkpt lat="44.39644" lon="6.07297">
        <ele>1334</ele>
        <time>2020-06-11T08:29:09Z</time>
      </trkpt>
      <trkpt lat="44.39644" lon="6.07295">
        <ele>1334</ele>
        <time>2020-06-11T08:29:10Z</time>
      </trkpt>
      <trkpt lat="44.39644" lon="6.07287">
        <ele>1335</ele>
        <time>2020-06-11T08:29:15Z</time>
      </trkpt>
      <trkpt lat="44.39643" lon="6.07284">
        <ele>1336</ele>
        <time>2020-06-11T08:29:18Z</time>
      </trkpt>
      <trkpt lat="44.39642" lon="6.07283">
        <ele>1336</ele>
        <time>2020-06-11T08:29:19Z</time>
      </trkpt>
      <trkpt lat="44.3964" lon="6.07283">
        <ele>1338</ele>
        <time>2020-06-11T08:29:22Z</time>
      </trkpt>
      <trkpt lat="44.39639" lon="6.07285">
        <ele>1338</ele>
        <time>2020-06-11T08:29:24Z</time>
      </trkpt>
      <trkpt lat="44.39637" lon="6.07286">
        <ele>1339</ele>
        <time>2020-06-11T08:29:26Z</time>
      </trkpt>
      <trkpt lat="44.39633" lon="6.07289">
        <ele>1340</ele>
        <time>2020-06-11T08:29:31Z</time>
      </trkpt>
      <trkpt lat="44.39629" lon="6.07293">
        <ele>1341</ele>
        <time>2020-06-11T08:29:35Z</time>
      </trkpt>
      <trkpt lat="44.39625" lon="6.07297">
        <ele>1342</ele>
        <time>2020-06-11T08:29:39Z</time>
      </trkpt>
      <trkpt lat="44.39624" lon="6.07298">
        <ele>1342</ele>
        <time>2020-06-11T08:29:40Z</time>
      </trkpt>
      <trkpt lat="44.39619" lon="6.073">
        <ele>1343</ele>
        <time>2020-06-11T08:29:44Z</time>
      </trkpt>
      <trkpt lat="44.39617" lon="6.07302">
        <ele>1344</ele>
        <time>2020-06-11T08:29:47Z</time>
      </trkpt>
      <trkpt lat="44.39614" lon="6.07304">
        <ele>1344</ele>
        <time>2020-06-11T08:29:49Z</time>
      </trkpt>
      <trkpt lat="44.3961" lon="6.07306">
        <ele>1345</ele>
        <time>2020-06-11T08:29:53Z</time>
      </trkpt>
      <trkpt lat="44.3961" lon="6.07306">
        <ele>1346</ele>
        <time>2020-06-11T08:29:54Z</time>
      </trkpt>
      <trkpt lat="44.39602" lon="6.07311">
        <ele>1347</ele>
        <time>2020-06-11T08:30:00Z</time>
      </trkpt>
      <trkpt lat="44.396" lon="6.07311">
        <ele>1347</ele>
        <time>2020-06-11T08:30:02Z</time>
      </trkpt>
      <trkpt lat="44.39597" lon="6.07312">
        <ele>1348</ele>
        <time>2020-06-11T08:30:04Z</time>
      </trkpt>
      <trkpt lat="44.39594" lon="6.07314">
        <ele>1349</ele>
        <time>2020-06-11T08:30:07Z</time>
      </trkpt>
      <trkpt lat="44.39592" lon="6.07314">
        <ele>1350</ele>
        <time>2020-06-11T08:30:09Z</time>
      </trkpt>
      <trkpt lat="44.39591" lon="6.07314">
        <ele>1350</ele>
        <time>2020-06-11T08:30:10Z</time>
      </trkpt>
      <trkpt lat="44.3959" lon="6.07315">
        <ele>1350</ele>
        <time>2020-06-11T08:30:11Z</time>
      </trkpt>
      <trkpt lat="44.39586" lon="6.07317">
        <ele>1351</ele>
        <time>2020-06-11T08:30:14Z</time>
      </trkpt>
      <trkpt lat="44.39583" lon="6.07317">
        <ele>1352</ele>
        <time>2020-06-11T08:30:16Z</time>
      </trkpt>
      <trkpt lat="44.39582" lon="6.07318">
        <ele>1352</ele>
        <time>2020-06-11T08:30:17Z</time>
      </trkpt>
      <trkpt lat="44.39572" lon="6.07321">
        <ele>1353</ele>
        <time>2020-06-11T08:30:24Z</time>
      </trkpt>
      <trkpt lat="44.39565" lon="6.07322">
        <ele>1354</ele>
        <time>2020-06-11T08:30:28Z</time>
      </trkpt>
      <trkpt lat="44.39561" lon="6.0732">
        <ele>1356</ele>
        <time>2020-06-11T08:30:31Z</time>
      </trkpt>
      <trkpt lat="44.3956" lon="6.07319">
        <ele>1356</ele>
        <time>2020-06-11T08:30:32Z</time>
      </trkpt>
      <trkpt lat="44.39557" lon="6.07315">
        <ele>1357</ele>
        <time>2020-06-11T08:30:36Z</time>
      </trkpt>
      <trkpt lat="44.39555" lon="6.07311">
        <ele>1357</ele>
        <time>2020-06-11T08:30:39Z</time>
      </trkpt>
      <trkpt lat="44.39553" lon="6.07308">
        <ele>1358</ele>
        <time>2020-06-11T08:30:41Z</time>
      </trkpt>
      <trkpt lat="44.39551" lon="6.07303">
        <ele>1359</ele>
        <time>2020-06-11T08:30:44Z</time>
      </trkpt>
      <trkpt lat="44.39551" lon="6.07301">
        <ele>1359</ele>
        <time>2020-06-11T08:30:45Z</time>
      </trkpt>
      <trkpt lat="44.39552" lon="6.07291">
        <ele>1360</ele>
        <time>2020-06-11T08:30:50Z</time>
      </trkpt>
      <trkpt lat="44.39552" lon="6.07288">
        <ele>1361</ele>
        <time>2020-06-11T08:30:52Z</time>
      </trkpt>
      <trkpt lat="44.39553" lon="6.07284">
        <ele>1361</ele>
        <time>2020-06-11T08:30:54Z</time>
      </trkpt>
      <trkpt lat="44.39554" lon="6.07278">
        <ele>1362</ele>
        <time>2020-06-11T08:30:58Z</time>
      </trkpt>
      <trkpt lat="44.39555" lon="6.07273">
        <ele>1363</ele>
        <time>2020-06-11T08:31:01Z</time>
      </trkpt>
      <trkpt lat="44.39555" lon="6.07269">
        <ele>1363</ele>
        <time>2020-06-11T08:31:03Z</time>
      </trkpt>
      <trkpt lat="44.39554" lon="6.07262">
        <ele>1364</ele>
        <time>2020-06-11T08:31:07Z</time>
      </trkpt>
      <trkpt lat="44.39551" lon="6.07259">
        <ele>1365</ele>
        <time>2020-06-11T08:31:09Z</time>
      </trkpt>
      <trkpt lat="44.39549" lon="6.07255">
        <ele>1365</ele>
        <time>2020-06-11T08:31:11Z</time>
      </trkpt>
      <trkpt lat="44.39546" lon="6.07247">
        <ele>1366</ele>
        <time>2020-06-11T08:31:15Z</time>
      </trkpt>
      <trkpt lat="44.39539" lon="6.07238">
        <ele>1366</ele>
        <time>2020-06-11T08:31:20Z</time>
      </trkpt>
      <trkpt lat="44.39531" lon="6.07224">
        <ele>1366</ele>
        <time>2020-06-11T08:31:25Z</time>
      </trkpt>
      <trkpt lat="44.3952" lon="6.07221">
        <ele>1366</ele>
        <time>2020-06-11T08:31:29Z</time>
      </trkpt>
      <trkpt lat="44.39515" lon="6.07221">
        <ele>1365</ele>
        <time>2020-06-11T08:31:33Z</time>
      </trkpt>
      <trkpt lat="44.39515" lon="6.07219">
        <ele>1364</ele>
        <time>2020-06-11T08:31:34Z</time>
      </trkpt>
      <trkpt lat="44.39514" lon="6.07218">
        <ele>1364</ele>
        <time>2020-06-11T08:31:38Z</time>
      </trkpt>
      <trkpt lat="44.39514" lon="6.07217">
        <ele>1364</ele>
        <time>2020-06-11T08:31:39Z</time>
      </trkpt>
      <trkpt lat="44.39512" lon="6.07213">
        <ele>1363</ele>
        <time>2020-06-11T08:31:46Z</time>
      </trkpt>
      <trkpt lat="44.39511" lon="6.07209">
        <ele>1364</ele>
        <time>2020-06-11T08:31:53Z</time>
      </trkpt>
      <trkpt lat="44.3951" lon="6.07207">
        <ele>1363</ele>
        <time>2020-06-11T08:32:01Z</time>
      </trkpt>
      <trkpt lat="44.3951" lon="6.07208">
        <ele>1363</ele>
        <time>2020-06-11T08:32:13Z</time>
      </trkpt>
      <trkpt lat="44.39508" lon="6.07207">
        <ele>1363</ele>
        <time>2020-06-11T08:32:17Z</time>
      </trkpt>
      <trkpt lat="44.39507" lon="6.07205">
        <ele>1363</ele>
        <time>2020-06-11T08:32:18Z</time>
      </trkpt>
      <trkpt lat="44.39501" lon="6.07188">
        <ele>1363</ele>
        <time>2020-06-11T08:32:23Z</time>
      </trkpt>
      <trkpt lat="44.39498" lon="6.0718">
        <ele>1363</ele>
        <time>2020-06-11T08:32:25Z</time>
      </trkpt>
      <trkpt lat="44.39493" lon="6.07173">
        <ele>1363</ele>
        <time>2020-06-11T08:32:27Z</time>
      </trkpt>
      <trkpt lat="44.39492" lon="6.07169">
        <ele>1362</ele>
        <time>2020-06-11T08:32:28Z</time>
      </trkpt>
      <trkpt lat="44.39488" lon="6.07158">
        <ele>1362</ele>
        <time>2020-06-11T08:32:31Z</time>
      </trkpt>
      <trkpt lat="44.39486" lon="6.07152">
        <ele>1361</ele>
        <time>2020-06-11T08:32:32Z</time>
      </trkpt>
      <trkpt lat="44.39476" lon="6.07137">
        <ele>1361</ele>
        <time>2020-06-11T08:32:35Z</time>
      </trkpt>
      <trkpt lat="44.39468" lon="6.0713">
        <ele>1361</ele>
        <time>2020-06-11T08:32:37Z</time>
      </trkpt>
      <trkpt lat="44.39463" lon="6.07129">
        <ele>1360</ele>
        <time>2020-06-11T08:32:38Z</time>
      </trkpt>
      <trkpt lat="44.39459" lon="6.07126">
        <ele>1360</ele>
        <time>2020-06-11T08:32:39Z</time>
      </trkpt>
      <trkpt lat="44.39453" lon="6.07118">
        <ele>1360</ele>
        <time>2020-06-11T08:32:41Z</time>
      </trkpt>
      <trkpt lat="44.39441" lon="6.071">
        <ele>1359</ele>
        <time>2020-06-11T08:32:45Z</time>
      </trkpt>
      <trkpt lat="44.39438" lon="6.07095">
        <ele>1359</ele>
        <time>2020-06-11T08:32:46Z</time>
      </trkpt>
      <trkpt lat="44.39435" lon="6.07088">
        <ele>1359</ele>
        <time>2020-06-11T08:32:47Z</time>
      </trkpt>
      <trkpt lat="44.39427" lon="6.07069">
        <ele>1359</ele>
        <time>2020-06-11T08:32:50Z</time>
      </trkpt>
      <trkpt lat="44.39426" lon="6.07063">
        <ele>1359</ele>
        <time>2020-06-11T08:32:51Z</time>
      </trkpt>
      <trkpt lat="44.39423" lon="6.07054">
        <ele>1359</ele>
        <time>2020-06-11T08:32:53Z</time>
      </trkpt>
      <trkpt lat="44.39421" lon="6.07053">
        <ele>1359</ele>
        <time>2020-06-11T08:32:54Z</time>
      </trkpt>
      <trkpt lat="44.39415" lon="6.07051">
        <ele>1358</ele>
        <time>2020-06-11T08:32:56Z</time>
      </trkpt>
      <trkpt lat="44.39411" lon="6.07046">
        <ele>1358</ele>
        <time>2020-06-11T08:32:58Z</time>
      </trkpt>
      <trkpt lat="44.39401" lon="6.07036">
        <ele>1357</ele>
        <time>2020-06-11T08:33:03Z</time>
      </trkpt>
      <trkpt lat="44.39392" lon="6.07029">
        <ele>1358</ele>
        <time>2020-06-11T08:33:08Z</time>
      </trkpt>
      <trkpt lat="44.39387" lon="6.07025">
        <ele>1359</ele>
        <time>2020-06-11T08:33:11Z</time>
      </trkpt>
      <trkpt lat="44.39383" lon="6.07018">
        <ele>1360</ele>
        <time>2020-06-11T08:33:14Z</time>
      </trkpt>
      <trkpt lat="44.39375" lon="6.07004">
        <ele>1360</ele>
        <time>2020-06-11T08:33:19Z</time>
      </trkpt>
      <trkpt lat="44.39374" lon="6.07002">
        <ele>1361</ele>
        <time>2020-06-11T08:33:20Z</time>
      </trkpt>
      <trkpt lat="44.39368" lon="6.06998">
        <ele>1362</ele>
        <time>2020-06-11T08:33:23Z</time>
      </trkpt>
      <trkpt lat="44.39364" lon="6.06995">
        <ele>1362</ele>
        <time>2020-06-11T08:33:25Z</time>
      </trkpt>
      <trkpt lat="44.39361" lon="6.06992">
        <ele>1363</ele>
        <time>2020-06-11T08:33:27Z</time>
      </trkpt>
      <trkpt lat="44.39351" lon="6.06983">
        <ele>1364</ele>
        <time>2020-06-11T08:33:33Z</time>
      </trkpt>
      <trkpt lat="44.39347" lon="6.06978">
        <ele>1364</ele>
        <time>2020-06-11T08:33:35Z</time>
      </trkpt>
      <trkpt lat="44.39339" lon="6.06969">
        <ele>1365</ele>
        <time>2020-06-11T08:33:40Z</time>
      </trkpt>
      <trkpt lat="44.39329" lon="6.06958">
        <ele>1365</ele>
        <time>2020-06-11T08:33:46Z</time>
      </trkpt>
      <trkpt lat="44.39323" lon="6.06953">
        <ele>1365</ele>
        <time>2020-06-11T08:33:50Z</time>
      </trkpt>
      <trkpt lat="44.39318" lon="6.06948">
        <ele>1366</ele>
        <time>2020-06-11T08:33:53Z</time>
      </trkpt>
      <trkpt lat="44.39311" lon="6.06943">
        <ele>1367</ele>
        <time>2020-06-11T08:33:56Z</time>
      </trkpt>
      <trkpt lat="44.39304" lon="6.06937">
        <ele>1367</ele>
        <time>2020-06-11T08:33:59Z</time>
      </trkpt>
      <trkpt lat="44.39295" lon="6.06927">
        <ele>1368</ele>
        <time>2020-06-11T08:34:03Z</time>
      </trkpt>
      <trkpt lat="44.39293" lon="6.06924">
        <ele>1368</ele>
        <time>2020-06-11T08:34:04Z</time>
      </trkpt>
      <trkpt lat="44.39286" lon="6.06911">
        <ele>1368</ele>
        <time>2020-06-11T08:34:08Z</time>
      </trkpt>
      <trkpt lat="44.39276" lon="6.06891">
        <ele>1368</ele>
        <time>2020-06-11T08:34:13Z</time>
      </trkpt>
      <trkpt lat="44.39263" lon="6.06865">
        <ele>1369</ele>
        <time>2020-06-11T08:34:19Z</time>
      </trkpt>
      <trkpt lat="44.39251" lon="6.06846">
        <ele>1369</ele>
        <time>2020-06-11T08:34:25Z</time>
      </trkpt>
      <trkpt lat="44.39244" lon="6.06835">
        <ele>1369</ele>
        <time>2020-06-11T08:34:29Z</time>
      </trkpt>
      <trkpt lat="44.39235" lon="6.06821">
        <ele>1370</ele>
        <time>2020-06-11T08:34:34Z</time>
      </trkpt>
      <trkpt lat="44.39229" lon="6.06812">
        <ele>1370</ele>
        <time>2020-06-11T08:34:37Z</time>
      </trkpt>
      <trkpt lat="44.3922" lon="6.06799">
        <ele>1371</ele>
        <time>2020-06-11T08:34:41Z</time>
      </trkpt>
      <trkpt lat="44.39207" lon="6.06783">
        <ele>1370</ele>
        <time>2020-06-11T08:34:45Z</time>
      </trkpt>
      <trkpt lat="44.392" lon="6.06773">
        <ele>1369</ele>
        <time>2020-06-11T08:34:48Z</time>
      </trkpt>
      <trkpt lat="44.39198" lon="6.06771">
        <ele>1369</ele>
        <time>2020-06-11T08:34:49Z</time>
      </trkpt>
      <trkpt lat="44.39191" lon="6.06764">
        <ele>1368</ele>
        <time>2020-06-11T08:34:52Z</time>
      </trkpt>
      <trkpt lat="44.39185" lon="6.06757">
        <ele>1368</ele>
        <time>2020-06-11T08:34:54Z</time>
      </trkpt>
      <trkpt lat="44.3917" lon="6.06743">
        <ele>1367</ele>
        <time>2020-06-11T08:34:58Z</time>
      </trkpt>
      <trkpt lat="44.39166" lon="6.06741">
        <ele>1366</ele>
        <time>2020-06-11T08:34:59Z</time>
      </trkpt>
      <trkpt lat="44.39161" lon="6.06739">
        <ele>1366</ele>
        <time>2020-06-11T08:35:00Z</time>
      </trkpt>
      <trkpt lat="44.39153" lon="6.06733">
        <ele>1364</ele>
        <time>2020-06-11T08:35:02Z</time>
      </trkpt>
      <trkpt lat="44.3915" lon="6.06728">
        <ele>1363</ele>
        <time>2020-06-11T08:35:03Z</time>
      </trkpt>
      <trkpt lat="44.39144" lon="6.06725">
        <ele>1362</ele>
        <time>2020-06-11T08:35:04Z</time>
      </trkpt>
      <trkpt lat="44.39138" lon="6.0672">
        <ele>1361</ele>
        <time>2020-06-11T08:35:05Z</time>
      </trkpt>
      <trkpt lat="44.3913" lon="6.06708">
        <ele>1359</ele>
        <time>2020-06-11T08:35:07Z</time>
      </trkpt>
      <trkpt lat="44.39119" lon="6.06696">
        <ele>1358</ele>
        <time>2020-06-11T08:35:09Z</time>
      </trkpt>
      <trkpt lat="44.39113" lon="6.06691">
        <ele>1357</ele>
        <time>2020-06-11T08:35:10Z</time>
      </trkpt>
      <trkpt lat="44.39108" lon="6.06685">
        <ele>1356</ele>
        <time>2020-06-11T08:35:11Z</time>
      </trkpt>
      <trkpt lat="44.39104" lon="6.06677">
        <ele>1354</ele>
        <time>2020-06-11T08:35:12Z</time>
      </trkpt>
      <trkpt lat="44.391" lon="6.06673">
        <ele>1353</ele>
        <time>2020-06-11T08:35:13Z</time>
      </trkpt>
      <trkpt lat="44.39096" lon="6.06668">
        <ele>1352</ele>
        <time>2020-06-11T08:35:14Z</time>
      </trkpt>
      <trkpt lat="44.39091" lon="6.06662">
        <ele>1350</ele>
        <time>2020-06-11T08:35:15Z</time>
      </trkpt>
      <trkpt lat="44.39086" lon="6.06657">
        <ele>1348</ele>
        <time>2020-06-11T08:35:16Z</time>
      </trkpt>
      <trkpt lat="44.39081" lon="6.06653">
        <ele>1347</ele>
        <time>2020-06-11T08:35:17Z</time>
      </trkpt>
      <trkpt lat="44.39075" lon="6.0665">
        <ele>1346</ele>
        <time>2020-06-11T08:35:18Z</time>
      </trkpt>
      <trkpt lat="44.3907" lon="6.06647">
        <ele>1345</ele>
        <time>2020-06-11T08:35:19Z</time>
      </trkpt>
      <trkpt lat="44.39064" lon="6.06639">
        <ele>1344</ele>
        <time>2020-06-11T08:35:20Z</time>
      </trkpt>
      <trkpt lat="44.39058" lon="6.06634">
        <ele>1342</ele>
        <time>2020-06-11T08:35:21Z</time>
      </trkpt>
      <trkpt lat="44.39053" lon="6.06627">
        <ele>1340</ele>
        <time>2020-06-11T08:35:22Z</time>
      </trkpt>
      <trkpt lat="44.39046" lon="6.0662">
        <ele>1339</ele>
        <time>2020-06-11T08:35:23Z</time>
      </trkpt>
      <trkpt lat="44.3904" lon="6.06613">
        <ele>1337</ele>
        <time>2020-06-11T08:35:24Z</time>
      </trkpt>
      <trkpt lat="44.39034" lon="6.06605">
        <ele>1336</ele>
        <time>2020-06-11T08:35:25Z</time>
      </trkpt>
      <trkpt lat="44.39028" lon="6.06599">
        <ele>1335</ele>
        <time>2020-06-11T08:35:26Z</time>
      </trkpt>
      <trkpt lat="44.39023" lon="6.06592">
        <ele>1333</ele>
        <time>2020-06-11T08:35:27Z</time>
      </trkpt>
      <trkpt lat="44.39018" lon="6.06588">
        <ele>1332</ele>
        <time>2020-06-11T08:35:28Z</time>
      </trkpt>
      <trkpt lat="44.3901" lon="6.06581">
        <ele>1331</ele>
        <time>2020-06-11T08:35:30Z</time>
      </trkpt>
      <trkpt lat="44.39001" lon="6.06569">
        <ele>1330</ele>
        <time>2020-06-11T08:35:33Z</time>
      </trkpt>
      <trkpt lat="44.38996" lon="6.06563">
        <ele>1330</ele>
        <time>2020-06-11T08:35:35Z</time>
      </trkpt>
      <trkpt lat="44.38994" lon="6.06562">
        <ele>1329</ele>
        <time>2020-06-11T08:35:37Z</time>
      </trkpt>
      <trkpt lat="44.38994" lon="6.06561">
        <ele>1328</ele>
        <time>2020-06-11T08:35:38Z</time>
      </trkpt>
      <trkpt lat="44.38992" lon="6.06559">
        <ele>1327</ele>
        <time>2020-06-11T08:35:39Z</time>
      </trkpt>
      <trkpt lat="44.38988" lon="6.06559">
        <ele>1326</ele>
        <time>2020-06-11T08:35:40Z</time>
      </trkpt>
      <trkpt lat="44.38983" lon="6.06557">
        <ele>1325</ele>
        <time>2020-06-11T08:35:41Z</time>
      </trkpt>
      <trkpt lat="44.38978" lon="6.06561">
        <ele>1325</ele>
        <time>2020-06-11T08:35:42Z</time>
      </trkpt>
      <trkpt lat="44.38965" lon="6.06562">
        <ele>1323</ele>
        <time>2020-06-11T08:35:44Z</time>
      </trkpt>
      <trkpt lat="44.38958" lon="6.06564">
        <ele>1321</ele>
        <time>2020-06-11T08:35:45Z</time>
      </trkpt>
      <trkpt lat="44.38951" lon="6.06565">
        <ele>1320</ele>
        <time>2020-06-11T08:35:46Z</time>
      </trkpt>
      <trkpt lat="44.38945" lon="6.06566">
        <ele>1319</ele>
        <time>2020-06-11T08:35:47Z</time>
      </trkpt>
      <trkpt lat="44.3894" lon="6.06568">
        <ele>1318</ele>
        <time>2020-06-11T08:35:48Z</time>
      </trkpt>
      <trkpt lat="44.38934" lon="6.06569">
        <ele>1316</ele>
        <time>2020-06-11T08:35:49Z</time>
      </trkpt>
      <trkpt lat="44.38928" lon="6.06572">
        <ele>1315</ele>
        <time>2020-06-11T08:35:50Z</time>
      </trkpt>
      <trkpt lat="44.38922" lon="6.06574">
        <ele>1313</ele>
        <time>2020-06-11T08:35:51Z</time>
      </trkpt>
      <trkpt lat="44.38917" lon="6.06574">
        <ele>1312</ele>
        <time>2020-06-11T08:35:52Z</time>
      </trkpt>
      <trkpt lat="44.38913" lon="6.06576">
        <ele>1311</ele>
        <time>2020-06-11T08:35:53Z</time>
      </trkpt>
      <trkpt lat="44.3891" lon="6.06575">
        <ele>1309</ele>
        <time>2020-06-11T08:35:54Z</time>
      </trkpt>
      <trkpt lat="44.38907" lon="6.06573">
        <ele>1308</ele>
        <time>2020-06-11T08:35:55Z</time>
      </trkpt>
      <trkpt lat="44.38905" lon="6.06572">
        <ele>1307</ele>
        <time>2020-06-11T08:35:56Z</time>
      </trkpt>
      <trkpt lat="44.38904" lon="6.06572">
        <ele>1306</ele>
        <time>2020-06-11T08:35:57Z</time>
      </trkpt>
      <trkpt lat="44.38899" lon="6.0657">
        <ele>1305</ele>
        <time>2020-06-11T08:35:59Z</time>
      </trkpt>
      <trkpt lat="44.38894" lon="6.06571">
        <ele>1304</ele>
        <time>2020-06-11T08:36:01Z</time>
      </trkpt>
      <trkpt lat="44.3889" lon="6.06571">
        <ele>1302</ele>
        <time>2020-06-11T08:36:03Z</time>
      </trkpt>
      <trkpt lat="44.38884" lon="6.06574">
        <ele>1301</ele>
        <time>2020-06-11T08:36:06Z</time>
      </trkpt>
      <trkpt lat="44.38879" lon="6.06575">
        <ele>1301</ele>
        <time>2020-06-11T08:36:09Z</time>
      </trkpt>
      <trkpt lat="44.38878" lon="6.06575">
        <ele>1300</ele>
        <time>2020-06-11T08:36:10Z</time>
      </trkpt>
      <trkpt lat="44.38876" lon="6.06574">
        <ele>1300</ele>
        <time>2020-06-11T08:36:11Z</time>
      </trkpt>
      <trkpt lat="44.38871" lon="6.06575">
        <ele>1300</ele>
        <time>2020-06-11T08:36:15Z</time>
      </trkpt>
      <trkpt lat="44.38868" lon="6.06576">
        <ele>1299</ele>
        <time>2020-06-11T08:36:19Z</time>
      </trkpt>
      <trkpt lat="44.38865" lon="6.06574">
        <ele>1299</ele>
        <time>2020-06-11T08:36:23Z</time>
      </trkpt>
      <trkpt lat="44.38863" lon="6.06572">
        <ele>1299</ele>
        <time>2020-06-11T08:36:24Z</time>
      </trkpt>
      <trkpt lat="44.38853" lon="6.06571">
        <ele>1299</ele>
        <time>2020-06-11T08:36:26Z</time>
      </trkpt>
      <trkpt lat="44.38838" lon="6.06573">
        <ele>1298</ele>
        <time>2020-06-11T08:36:28Z</time>
      </trkpt>
      <trkpt lat="44.3883" lon="6.06574">
        <ele>1297</ele>
        <time>2020-06-11T08:36:29Z</time>
      </trkpt>
      <trkpt lat="44.38823" lon="6.06576">
        <ele>1296</ele>
        <time>2020-06-11T08:36:30Z</time>
      </trkpt>
      <trkpt lat="44.38817" lon="6.06576">
        <ele>1294</ele>
        <time>2020-06-11T08:36:31Z</time>
      </trkpt>
      <trkpt lat="44.38812" lon="6.06578">
        <ele>1293</ele>
        <time>2020-06-11T08:36:32Z</time>
      </trkpt>
      <trkpt lat="44.38807" lon="6.06579">
        <ele>1292</ele>
        <time>2020-06-11T08:36:33Z</time>
      </trkpt>
      <trkpt lat="44.38802" lon="6.0658">
        <ele>1291</ele>
        <time>2020-06-11T08:36:34Z</time>
      </trkpt>
      <trkpt lat="44.38798" lon="6.06582">
        <ele>1290</ele>
        <time>2020-06-11T08:36:35Z</time>
      </trkpt>
      <trkpt lat="44.38793" lon="6.06585">
        <ele>1290</ele>
        <time>2020-06-11T08:36:36Z</time>
      </trkpt>
      <trkpt lat="44.38785" lon="6.06591">
        <ele>1289</ele>
        <time>2020-06-11T08:36:38Z</time>
      </trkpt>
      <trkpt lat="44.38781" lon="6.06593">
        <ele>1289</ele>
        <time>2020-06-11T08:36:39Z</time>
      </trkpt>
      <trkpt lat="44.38776" lon="6.06596">
        <ele>1289</ele>
        <time>2020-06-11T08:36:40Z</time>
      </trkpt>
      <trkpt lat="44.38766" lon="6.06595">
        <ele>1288</ele>
        <time>2020-06-11T08:36:42Z</time>
      </trkpt>
      <trkpt lat="44.38761" lon="6.06594">
        <ele>1287</ele>
        <time>2020-06-11T08:36:43Z</time>
      </trkpt>
      <trkpt lat="44.3875" lon="6.06591">
        <ele>1286</ele>
        <time>2020-06-11T08:36:45Z</time>
      </trkpt>
      <trkpt lat="44.38745" lon="6.06589">
        <ele>1285</ele>
        <time>2020-06-11T08:36:46Z</time>
      </trkpt>
      <trkpt lat="44.38735" lon="6.06585">
        <ele>1283</ele>
        <time>2020-06-11T08:36:48Z</time>
      </trkpt>
      <trkpt lat="44.3873" lon="6.06583">
        <ele>1281</ele>
        <time>2020-06-11T08:36:49Z</time>
      </trkpt>
      <trkpt lat="44.38726" lon="6.06584">
        <ele>1280</ele>
        <time>2020-06-11T08:36:50Z</time>
      </trkpt>
      <trkpt lat="44.38722" lon="6.06586">
        <ele>1278</ele>
        <time>2020-06-11T08:36:51Z</time>
      </trkpt>
      <trkpt lat="44.38718" lon="6.06588">
        <ele>1277</ele>
        <time>2020-06-11T08:36:52Z</time>
      </trkpt>
      <trkpt lat="44.38713" lon="6.06589">
        <ele>1276</ele>
        <time>2020-06-11T08:36:53Z</time>
      </trkpt>
      <trkpt lat="44.38708" lon="6.0659">
        <ele>1275</ele>
        <time>2020-06-11T08:36:54Z</time>
      </trkpt>
      <trkpt lat="44.38703" lon="6.06592">
        <ele>1274</ele>
        <time>2020-06-11T08:36:55Z</time>
      </trkpt>
      <trkpt lat="44.38699" lon="6.06593">
        <ele>1273</ele>
        <time>2020-06-11T08:36:56Z</time>
      </trkpt>
      <trkpt lat="44.38696" lon="6.06594">
        <ele>1272</ele>
        <time>2020-06-11T08:36:57Z</time>
      </trkpt>
      <trkpt lat="44.38695" lon="6.06594">
        <ele>1271</ele>
        <time>2020-06-11T08:36:58Z</time>
      </trkpt>
      <trkpt lat="44.38694" lon="6.06594">
        <ele>1270</ele>
        <time>2020-06-11T08:36:59Z</time>
      </trkpt>
      <trkpt lat="44.38692" lon="6.06594">
        <ele>1269</ele>
        <time>2020-06-11T08:37:00Z</time>
      </trkpt>
      <trkpt lat="44.3869" lon="6.06594">
        <ele>1268</ele>
        <time>2020-06-11T08:37:04Z</time>
      </trkpt>
      <trkpt lat="44.38689" lon="6.06594">
        <ele>1268</ele>
        <time>2020-06-11T08:37:05Z</time>
      </trkpt>
      <trkpt lat="44.38683" lon="6.06598">
        <ele>1268</ele>
        <time>2020-06-11T08:37:08Z</time>
      </trkpt>
      <trkpt lat="44.3867" lon="6.06604">
        <ele>1267</ele>
        <time>2020-06-11T08:37:12Z</time>
      </trkpt>
      <trkpt lat="44.38667" lon="6.06607">
        <ele>1267</ele>
        <time>2020-06-11T08:37:13Z</time>
      </trkpt>
      <trkpt lat="44.38659" lon="6.06613">
        <ele>1266</ele>
        <time>2020-06-11T08:37:15Z</time>
      </trkpt>
      <trkpt lat="44.38655" lon="6.06617">
        <ele>1266</ele>
        <time>2020-06-11T08:37:16Z</time>
      </trkpt>
      <trkpt lat="44.38651" lon="6.0662">
        <ele>1265</ele>
        <time>2020-06-11T08:37:17Z</time>
      </trkpt>
      <trkpt lat="44.38647" lon="6.06623">
        <ele>1265</ele>
        <time>2020-06-11T08:37:18Z</time>
      </trkpt>
      <trkpt lat="44.38644" lon="6.06626">
        <ele>1263</ele>
        <time>2020-06-11T08:37:20Z</time>
      </trkpt>
      <trkpt lat="44.38643" lon="6.06628">
        <ele>1262</ele>
        <time>2020-06-11T08:37:22Z</time>
      </trkpt>
      <trkpt lat="44.38641" lon="6.06628">
        <ele>1261</ele>
        <time>2020-06-11T08:37:26Z</time>
      </trkpt>
      <trkpt lat="44.3864" lon="6.0663">
        <ele>1261</ele>
        <time>2020-06-11T08:37:29Z</time>
      </trkpt>
      <trkpt lat="44.38639" lon="6.0663">
        <ele>1261</ele>
        <time>2020-06-11T08:37:34Z</time>
      </trkpt>
      <trkpt lat="44.38638" lon="6.06631">
        <ele>1261</ele>
        <time>2020-06-11T08:37:41Z</time>
      </trkpt>
      <trkpt lat="44.38638" lon="6.06631">
        <ele>1261</ele>
        <time>2020-06-11T08:37:52Z</time>
      </trkpt>
      <trkpt lat="44.38636" lon="6.06626">
        <ele>1261</ele>
        <time>2020-06-11T08:37:58Z</time>
      </trkpt>
      <trkpt lat="44.38635" lon="6.06625">
        <ele>1261</ele>
        <time>2020-06-11T08:38:07Z</time>
      </trkpt>
      <trkpt lat="44.38634" lon="6.06625">
        <ele>1261</ele>
        <time>2020-06-11T08:38:08Z</time>
      </trkpt>
      <trkpt lat="44.3863" lon="6.0663">
        <ele>1261</ele>
        <time>2020-06-11T08:38:11Z</time>
      </trkpt>
      <trkpt lat="44.38624" lon="6.06636">
        <ele>1259</ele>
        <time>2020-06-11T08:38:14Z</time>
      </trkpt>
      <trkpt lat="44.38617" lon="6.06641">
        <ele>1258</ele>
        <time>2020-06-11T08:38:16Z</time>
      </trkpt>
      <trkpt lat="44.38613" lon="6.06643">
        <ele>1258</ele>
        <time>2020-06-11T08:38:17Z</time>
      </trkpt>
      <trkpt lat="44.38607" lon="6.06646">
        <ele>1257</ele>
        <time>2020-06-11T08:38:19Z</time>
      </trkpt>
      <trkpt lat="44.38602" lon="6.06649">
        <ele>1255</ele>
        <time>2020-06-11T08:38:21Z</time>
      </trkpt>
      <trkpt lat="44.38598" lon="6.0665">
        <ele>1253</ele>
        <time>2020-06-11T08:38:22Z</time>
      </trkpt>
      <trkpt lat="44.38589" lon="6.06652">
        <ele>1252</ele>
        <time>2020-06-11T08:38:24Z</time>
      </trkpt>
      <trkpt lat="44.38581" lon="6.06653">
        <ele>1250</ele>
        <time>2020-06-11T08:38:26Z</time>
      </trkpt>
      <trkpt lat="44.38578" lon="6.06654">
        <ele>1249</ele>
        <time>2020-06-11T08:38:27Z</time>
      </trkpt>
      <trkpt lat="44.38577" lon="6.06654">
        <ele>1247</ele>
        <time>2020-06-11T08:38:28Z</time>
      </trkpt>
      <trkpt lat="44.38577" lon="6.06655">
        <ele>1246</ele>
        <time>2020-06-11T08:38:29Z</time>
      </trkpt>
      <trkpt lat="44.38578" lon="6.06656">
        <ele>1245</ele>
        <time>2020-06-11T08:38:31Z</time>
      </trkpt>
      <trkpt lat="44.38578" lon="6.0666">
        <ele>1245</ele>
        <time>2020-06-11T08:38:34Z</time>
      </trkpt>
      <trkpt lat="44.38577" lon="6.06663">
        <ele>1245</ele>
        <time>2020-06-11T08:38:36Z</time>
      </trkpt>
      <trkpt lat="44.38575" lon="6.06668">
        <ele>1245</ele>
        <time>2020-06-11T08:38:41Z</time>
      </trkpt>
      <trkpt lat="44.38573" lon="6.06673">
        <ele>1245</ele>
        <time>2020-06-11T08:38:48Z</time>
      </trkpt>
      <trkpt lat="44.38569" lon="6.06672">
        <ele>1244</ele>
        <time>2020-06-11T08:38:52Z</time>
      </trkpt>
      <trkpt lat="44.38565" lon="6.06673">
        <ele>1243</ele>
        <time>2020-06-11T08:38:55Z</time>
      </trkpt>
      <trkpt lat="44.38563" lon="6.06672">
        <ele>1242</ele>
        <time>2020-06-11T08:38:58Z</time>
      </trkpt>
      <trkpt lat="44.38562" lon="6.06672">
        <ele>1241</ele>
        <time>2020-06-11T08:39:01Z</time>
      </trkpt>
      <trkpt lat="44.38562" lon="6.06669">
        <ele>1241</ele>
        <time>2020-06-11T08:39:08Z</time>
      </trkpt>
      <trkpt lat="44.38559" lon="6.06667">
        <ele>1240</ele>
        <time>2020-06-11T08:39:12Z</time>
      </trkpt>
      <trkpt lat="44.38558" lon="6.06667">
        <ele>1240</ele>
        <time>2020-06-11T08:39:13Z</time>
      </trkpt>
      <trkpt lat="44.38557" lon="6.06667">
        <ele>1239</ele>
        <time>2020-06-11T08:39:14Z</time>
      </trkpt>
      <trkpt lat="44.38556" lon="6.06667">
        <ele>1239</ele>
        <time>2020-06-11T08:39:15Z</time>
      </trkpt>
      <trkpt lat="44.38555" lon="6.06667">
        <ele>1238</ele>
        <time>2020-06-11T08:39:17Z</time>
      </trkpt>
      <trkpt lat="44.38551" lon="6.06667">
        <ele>1237</ele>
        <time>2020-06-11T08:39:19Z</time>
      </trkpt>
      <trkpt lat="44.38548" lon="6.06668">
        <ele>1236</ele>
        <time>2020-06-11T08:39:20Z</time>
      </trkpt>
      <trkpt lat="44.3854" lon="6.06668">
        <ele>1235</ele>
        <time>2020-06-11T08:39:22Z</time>
      </trkpt>
      <trkpt lat="44.38532" lon="6.06669">
        <ele>1234</ele>
        <time>2020-06-11T08:39:24Z</time>
      </trkpt>
      <trkpt lat="44.38528" lon="6.0667">
        <ele>1233</ele>
        <time>2020-06-11T08:39:25Z</time>
      </trkpt>
      <trkpt lat="44.38524" lon="6.06669">
        <ele>1232</ele>
        <time>2020-06-11T08:39:26Z</time>
      </trkpt>
      <trkpt lat="44.38515" lon="6.06668">
        <ele>1230</ele>
        <time>2020-06-11T08:39:28Z</time>
      </trkpt>
      <trkpt lat="44.38511" lon="6.06668">
        <ele>1229</ele>
        <time>2020-06-11T08:39:29Z</time>
      </trkpt>
      <trkpt lat="44.38508" lon="6.06666">
        <ele>1228</ele>
        <time>2020-06-11T08:39:30Z</time>
      </trkpt>
      <trkpt lat="44.38505" lon="6.06666">
        <ele>1227</ele>
        <time>2020-06-11T08:39:31Z</time>
      </trkpt>
      <trkpt lat="44.385" lon="6.06665">
        <ele>1226</ele>
        <time>2020-06-11T08:39:32Z</time>
      </trkpt>
      <trkpt lat="44.38495" lon="6.06663">
        <ele>1225</ele>
        <time>2020-06-11T08:39:33Z</time>
      </trkpt>
      <trkpt lat="44.38488" lon="6.06663">
        <ele>1224</ele>
        <time>2020-06-11T08:39:34Z</time>
      </trkpt>
      <trkpt lat="44.38484" lon="6.0666">
        <ele>1223</ele>
        <time>2020-06-11T08:39:35Z</time>
      </trkpt>
      <trkpt lat="44.38481" lon="6.06657">
        <ele>1221</ele>
        <time>2020-06-11T08:39:36Z</time>
      </trkpt>
      <trkpt lat="44.38478" lon="6.06655">
        <ele>1220</ele>
        <time>2020-06-11T08:39:37Z</time>
      </trkpt>
      <trkpt lat="44.38475" lon="6.06652">
        <ele>1218</ele>
        <time>2020-06-11T08:39:38Z</time>
      </trkpt>
      <trkpt lat="44.38472" lon="6.06648">
        <ele>1216</ele>
        <time>2020-06-11T08:39:39Z</time>
      </trkpt>
      <trkpt lat="44.38469" lon="6.06644">
        <ele>1215</ele>
        <time>2020-06-11T08:39:40Z</time>
      </trkpt>
      <trkpt lat="44.38466" lon="6.06641">
        <ele>1214</ele>
        <time>2020-06-11T08:39:41Z</time>
      </trkpt>
      <trkpt lat="44.38465" lon="6.06639">
        <ele>1212</ele>
        <time>2020-06-11T08:39:42Z</time>
      </trkpt>
      <trkpt lat="44.38465" lon="6.06637">
        <ele>1211</ele>
        <time>2020-06-11T08:39:43Z</time>
      </trkpt>
      <trkpt lat="44.38467" lon="6.06635">
        <ele>1210</ele>
        <time>2020-06-11T08:39:44Z</time>
      </trkpt>
      <trkpt lat="44.38469" lon="6.06633">
        <ele>1209</ele>
        <time>2020-06-11T08:39:45Z</time>
      </trkpt>
      <trkpt lat="44.38477" lon="6.06627">
        <ele>1207</ele>
        <time>2020-06-11T08:39:47Z</time>
      </trkpt>
      <trkpt lat="44.38484" lon="6.06621">
        <ele>1206</ele>
        <time>2020-06-11T08:39:49Z</time>
      </trkpt>
      <trkpt lat="44.38486" lon="6.0662">
        <ele>1204</ele>
        <time>2020-06-11T08:39:50Z</time>
      </trkpt>
      <trkpt lat="44.38488" lon="6.06618">
        <ele>1203</ele>
        <time>2020-06-11T08:39:51Z</time>
      </trkpt>
      <trkpt lat="44.3849" lon="6.06617">
        <ele>1202</ele>
        <time>2020-06-11T08:39:52Z</time>
      </trkpt>
      <trkpt lat="44.38491" lon="6.06617">
        <ele>1201</ele>
        <time>2020-06-11T08:39:55Z</time>
      </trkpt>
      <trkpt lat="44.38491" lon="6.06617">
        <ele>1201</ele>
        <time>2020-06-11T08:39:57Z</time>
      </trkpt>
      <trkpt lat="44.38494" lon="6.06618">
        <ele>1201</ele>
        <time>2020-06-11T08:40:04Z</time>
      </trkpt>
      <trkpt lat="44.38496" lon="6.06616">
        <ele>1201</ele>
        <time>2020-06-11T08:40:10Z</time>
      </trkpt>
      <trkpt lat="44.38497" lon="6.06614">
        <ele>1201</ele>
        <time>2020-06-11T08:40:12Z</time>
      </trkpt>
      <trkpt lat="44.38499" lon="6.06609">
        <ele>1201</ele>
        <time>2020-06-11T08:40:15Z</time>
      </trkpt>
      <trkpt lat="44.385" lon="6.06608">
        <ele>1200</ele>
        <time>2020-06-11T08:40:16Z</time>
      </trkpt>
      <trkpt lat="44.38502" lon="6.06607">
        <ele>1199</ele>
        <time>2020-06-11T08:40:18Z</time>
      </trkpt>
      <trkpt lat="44.38503" lon="6.06607">
        <ele>1199</ele>
        <time>2020-06-11T08:40:20Z</time>
      </trkpt>
      <trkpt lat="44.38507" lon="6.06603">
        <ele>1198</ele>
        <time>2020-06-11T08:40:23Z</time>
      </trkpt>
      <trkpt lat="44.38507" lon="6.06602">
        <ele>1198</ele>
        <time>2020-06-11T08:40:24Z</time>
      </trkpt>
      <trkpt lat="44.38508" lon="6.06599">
        <ele>1197</ele>
        <time>2020-06-11T08:40:27Z</time>
      </trkpt>
      <trkpt lat="44.3851" lon="6.06596">
        <ele>1196</ele>
        <time>2020-06-11T08:40:29Z</time>
      </trkpt>
      <trkpt lat="44.38511" lon="6.06594">
        <ele>1195</ele>
        <time>2020-06-11T08:40:30Z</time>
      </trkpt>
      <trkpt lat="44.38507" lon="6.06589">
        <ele>1195</ele>
        <time>2020-06-11T08:40:32Z</time>
      </trkpt>
      <trkpt lat="44.38505" lon="6.06588">
        <ele>1194</ele>
        <time>2020-06-11T08:40:33Z</time>
      </trkpt>
      <trkpt lat="44.38503" lon="6.06589">
        <ele>1193</ele>
        <time>2020-06-11T08:40:34Z</time>
      </trkpt>
      <trkpt lat="44.38498" lon="6.06589">
        <ele>1192</ele>
        <time>2020-06-11T08:40:36Z</time>
      </trkpt>
      <trkpt lat="44.38495" lon="6.06589">
        <ele>1191</ele>
        <time>2020-06-11T08:40:37Z</time>
      </trkpt>
      <trkpt lat="44.38492" lon="6.06589">
        <ele>1190</ele>
        <time>2020-06-11T08:40:38Z</time>
      </trkpt>
      <trkpt lat="44.38488" lon="6.06587">
        <ele>1188</ele>
        <time>2020-06-11T08:40:40Z</time>
      </trkpt>
      <trkpt lat="44.38487" lon="6.06585">
        <ele>1188</ele>
        <time>2020-06-11T08:40:41Z</time>
      </trkpt>
      <trkpt lat="44.38485" lon="6.06584">
        <ele>1187</ele>
        <time>2020-06-11T08:40:42Z</time>
      </trkpt>
      <trkpt lat="44.38481" lon="6.06583">
        <ele>1185</ele>
        <time>2020-06-11T08:40:44Z</time>
      </trkpt>
      <trkpt lat="44.38478" lon="6.0658">
        <ele>1184</ele>
        <time>2020-06-11T08:40:45Z</time>
      </trkpt>
      <trkpt lat="44.38474" lon="6.06578">
        <ele>1184</ele>
        <time>2020-06-11T08:40:46Z</time>
      </trkpt>
      <trkpt lat="44.38465" lon="6.06574">
        <ele>1182</ele>
        <time>2020-06-11T08:40:48Z</time>
      </trkpt>
      <trkpt lat="44.38456" lon="6.06569">
        <ele>1181</ele>
        <time>2020-06-11T08:40:50Z</time>
      </trkpt>
      <trkpt lat="44.38453" lon="6.06568">
        <ele>1181</ele>
        <time>2020-06-11T08:40:51Z</time>
      </trkpt>
      <trkpt lat="44.38447" lon="6.06567">
        <ele>1179</ele>
        <time>2020-06-11T08:40:53Z</time>
      </trkpt>
      <trkpt lat="44.38442" lon="6.06567">
        <ele>1178</ele>
        <time>2020-06-11T08:40:55Z</time>
      </trkpt>
      <trkpt lat="44.38436" lon="6.06567">
        <ele>1176</ele>
        <time>2020-06-11T08:40:57Z</time>
      </trkpt>
      <trkpt lat="44.38429" lon="6.06569">
        <ele>1175</ele>
        <time>2020-06-11T08:40:59Z</time>
      </trkpt>
      <trkpt lat="44.38421" lon="6.06573">
        <ele>1174</ele>
        <time>2020-06-11T08:41:01Z</time>
      </trkpt>
      <trkpt lat="44.38417" lon="6.06573">
        <ele>1173</ele>
        <time>2020-06-11T08:41:02Z</time>
      </trkpt>
      <trkpt lat="44.38413" lon="6.06576">
        <ele>1173</ele>
        <time>2020-06-11T08:41:03Z</time>
      </trkpt>
      <trkpt lat="44.38405" lon="6.0658">
        <ele>1171</ele>
        <time>2020-06-11T08:41:05Z</time>
      </trkpt>
      <trkpt lat="44.38397" lon="6.06585">
        <ele>1170</ele>
        <time>2020-06-11T08:41:07Z</time>
      </trkpt>
      <trkpt lat="44.3839" lon="6.06588">
        <ele>1168</ele>
        <time>2020-06-11T08:41:09Z</time>
      </trkpt>
      <trkpt lat="44.38382" lon="6.06593">
        <ele>1167</ele>
        <time>2020-06-11T08:41:11Z</time>
      </trkpt>
      <trkpt lat="44.38378" lon="6.06595">
        <ele>1167</ele>
        <time>2020-06-11T08:41:12Z</time>
      </trkpt>
      <trkpt lat="44.38371" lon="6.06601">
        <ele>1166</ele>
        <time>2020-06-11T08:41:14Z</time>
      </trkpt>
      <trkpt lat="44.3836" lon="6.06608">
        <ele>1165</ele>
        <time>2020-06-11T08:41:17Z</time>
      </trkpt>
      <trkpt lat="44.38356" lon="6.06611">
        <ele>1164</ele>
        <time>2020-06-11T08:41:18Z</time>
      </trkpt>
      <trkpt lat="44.38352" lon="6.06614">
        <ele>1164</ele>
        <time>2020-06-11T08:41:19Z</time>
      </trkpt>
      <trkpt lat="44.38348" lon="6.06616">
        <ele>1163</ele>
        <time>2020-06-11T08:41:20Z</time>
      </trkpt>
      <trkpt lat="44.38345" lon="6.06616">
        <ele>1163</ele>
        <time>2020-06-11T08:41:21Z</time>
      </trkpt>
      <trkpt lat="44.38341" lon="6.06614">
        <ele>1162</ele>
        <time>2020-06-11T08:41:22Z</time>
      </trkpt>
      <trkpt lat="44.38333" lon="6.06612">
        <ele>1160</ele>
        <time>2020-06-11T08:41:24Z</time>
      </trkpt>
      <trkpt lat="44.38329" lon="6.06612">
        <ele>1159</ele>
        <time>2020-06-11T08:41:25Z</time>
      </trkpt>
      <trkpt lat="44.38324" lon="6.06612">
        <ele>1157</ele>
        <time>2020-06-11T08:41:26Z</time>
      </trkpt>
      <trkpt lat="44.38321" lon="6.06612">
        <ele>1156</ele>
        <time>2020-06-11T08:41:27Z</time>
      </trkpt>
      <trkpt lat="44.38318" lon="6.06612">
        <ele>1154</ele>
        <time>2020-06-11T08:41:28Z</time>
      </trkpt>
      <trkpt lat="44.38314" lon="6.06613">
        <ele>1153</ele>
        <time>2020-06-11T08:41:29Z</time>
      </trkpt>
      <trkpt lat="44.38311" lon="6.06614">
        <ele>1151</ele>
        <time>2020-06-11T08:41:30Z</time>
      </trkpt>
      <trkpt lat="44.38308" lon="6.06613">
        <ele>1150</ele>
        <time>2020-06-11T08:41:31Z</time>
      </trkpt>
      <trkpt lat="44.38304" lon="6.06612">
        <ele>1149</ele>
        <time>2020-06-11T08:41:32Z</time>
      </trkpt>
      <trkpt lat="44.383" lon="6.0661">
        <ele>1147</ele>
        <time>2020-06-11T08:41:33Z</time>
      </trkpt>
      <trkpt lat="44.38297" lon="6.06607">
        <ele>1146</ele>
        <time>2020-06-11T08:41:34Z</time>
      </trkpt>
      <trkpt lat="44.38294" lon="6.06606">
        <ele>1145</ele>
        <time>2020-06-11T08:41:35Z</time>
      </trkpt>
      <trkpt lat="44.38291" lon="6.06605">
        <ele>1143</ele>
        <time>2020-06-11T08:41:36Z</time>
      </trkpt>
      <trkpt lat="44.38287" lon="6.06605">
        <ele>1142</ele>
        <time>2020-06-11T08:41:37Z</time>
      </trkpt>
      <trkpt lat="44.38283" lon="6.06605">
        <ele>1141</ele>
        <time>2020-06-11T08:41:38Z</time>
      </trkpt>
      <trkpt lat="44.38279" lon="6.06605">
        <ele>1139</ele>
        <time>2020-06-11T08:41:39Z</time>
      </trkpt>
      <trkpt lat="44.38275" lon="6.06605">
        <ele>1138</ele>
        <time>2020-06-11T08:41:40Z</time>
      </trkpt>
      <trkpt lat="44.38272" lon="6.06603">
        <ele>1137</ele>
        <time>2020-06-11T08:41:41Z</time>
      </trkpt>
      <trkpt lat="44.38269" lon="6.066">
        <ele>1136</ele>
        <time>2020-06-11T08:41:42Z</time>
      </trkpt>
      <trkpt lat="44.38265" lon="6.06597">
        <ele>1134</ele>
        <time>2020-06-11T08:41:44Z</time>
      </trkpt>
      <trkpt lat="44.38264" lon="6.06597">
        <ele>1133</ele>
        <time>2020-06-11T08:41:45Z</time>
      </trkpt>
      <trkpt lat="44.38261" lon="6.06597">
        <ele>1132</ele>
        <time>2020-06-11T08:41:46Z</time>
      </trkpt>
      <trkpt lat="44.38256" lon="6.06597">
        <ele>1130</ele>
        <time>2020-06-11T08:41:48Z</time>
      </trkpt>
      <trkpt lat="44.38251" lon="6.066">
        <ele>1128</ele>
        <time>2020-06-11T08:41:50Z</time>
      </trkpt>
      <trkpt lat="44.38249" lon="6.06601">
        <ele>1127</ele>
        <time>2020-06-11T08:41:51Z</time>
      </trkpt>
      <trkpt lat="44.38246" lon="6.06602">
        <ele>1126</ele>
        <time>2020-06-11T08:41:52Z</time>
      </trkpt>
      <trkpt lat="44.38238" lon="6.06602">
        <ele>1125</ele>
        <time>2020-06-11T08:41:54Z</time>
      </trkpt>
      <trkpt lat="44.38228" lon="6.06596">
        <ele>1123</ele>
        <time>2020-06-11T08:41:56Z</time>
      </trkpt>
      <trkpt lat="44.38223" lon="6.06592">
        <ele>1122</ele>
        <time>2020-06-11T08:41:57Z</time>
      </trkpt>
      <trkpt lat="44.38217" lon="6.0659">
        <ele>1122</ele>
        <time>2020-06-11T08:41:58Z</time>
      </trkpt>
      <trkpt lat="44.38204" lon="6.06585">
        <ele>1120</ele>
        <time>2020-06-11T08:42:00Z</time>
      </trkpt>
      <trkpt lat="44.38198" lon="6.06584">
        <ele>1120</ele>
        <time>2020-06-11T08:42:01Z</time>
      </trkpt>
      <trkpt lat="44.38193" lon="6.06582">
        <ele>1119</ele>
        <time>2020-06-11T08:42:02Z</time>
      </trkpt>
      <trkpt lat="44.38185" lon="6.06575">
        <ele>1117</ele>
        <time>2020-06-11T08:42:04Z</time>
      </trkpt>
      <trkpt lat="44.38175" lon="6.06568">
        <ele>1115</ele>
        <time>2020-06-11T08:42:06Z</time>
      </trkpt>
      <trkpt lat="44.38163" lon="6.06559">
        <ele>1114</ele>
        <time>2020-06-11T08:42:08Z</time>
      </trkpt>
      <trkpt lat="44.38157" lon="6.06555">
        <ele>1114</ele>
        <time>2020-06-11T08:42:09Z</time>
      </trkpt>
      <trkpt lat="44.38145" lon="6.06551">
        <ele>1113</ele>
        <time>2020-06-11T08:42:11Z</time>
      </trkpt>
      <trkpt lat="44.38136" lon="6.06548">
        <ele>1111</ele>
        <time>2020-06-11T08:42:13Z</time>
      </trkpt>
      <trkpt lat="44.38126" lon="6.06545">
        <ele>1110</ele>
        <time>2020-06-11T08:42:15Z</time>
      </trkpt>
      <trkpt lat="44.38116" lon="6.0654">
        <ele>1109</ele>
        <time>2020-06-11T08:42:17Z</time>
      </trkpt>
      <trkpt lat="44.3811" lon="6.06538">
        <ele>1109</ele>
        <time>2020-06-11T08:42:18Z</time>
      </trkpt>
      <trkpt lat="44.38103" lon="6.06536">
        <ele>1108</ele>
        <time>2020-06-11T08:42:19Z</time>
      </trkpt>
      <trkpt lat="44.38096" lon="6.06535">
        <ele>1107</ele>
        <time>2020-06-11T08:42:20Z</time>
      </trkpt>
      <trkpt lat="44.38089" lon="6.06535">
        <ele>1106</ele>
        <time>2020-06-11T08:42:21Z</time>
      </trkpt>
      <trkpt lat="44.38081" lon="6.06535">
        <ele>1106</ele>
        <time>2020-06-11T08:42:22Z</time>
      </trkpt>
      <trkpt lat="44.38067" lon="6.06536">
        <ele>1104</ele>
        <time>2020-06-11T08:42:24Z</time>
      </trkpt>
      <trkpt lat="44.3806" lon="6.06538">
        <ele>1102</ele>
        <time>2020-06-11T08:42:25Z</time>
      </trkpt>
      <trkpt lat="44.38053" lon="6.06539">
        <ele>1101</ele>
        <time>2020-06-11T08:42:26Z</time>
      </trkpt>
      <trkpt lat="44.38047" lon="6.06541">
        <ele>1100</ele>
        <time>2020-06-11T08:42:27Z</time>
      </trkpt>
      <trkpt lat="44.38044" lon="6.06545">
        <ele>1099</ele>
        <time>2020-06-11T08:42:28Z</time>
      </trkpt>
      <trkpt lat="44.38041" lon="6.06548">
        <ele>1098</ele>
        <time>2020-06-11T08:42:29Z</time>
      </trkpt>
      <trkpt lat="44.38038" lon="6.06551">
        <ele>1096</ele>
        <time>2020-06-11T08:42:30Z</time>
      </trkpt>
      <trkpt lat="44.3803" lon="6.0655">
        <ele>1095</ele>
        <time>2020-06-11T08:42:32Z</time>
      </trkpt>
      <trkpt lat="44.38022" lon="6.06545">
        <ele>1094</ele>
        <time>2020-06-11T08:42:34Z</time>
      </trkpt>
      <trkpt lat="44.38019" lon="6.06542">
        <ele>1092</ele>
        <time>2020-06-11T08:42:35Z</time>
      </trkpt>
      <trkpt lat="44.38017" lon="6.0654">
        <ele>1091</ele>
        <time>2020-06-11T08:42:36Z</time>
      </trkpt>
      <trkpt lat="44.38015" lon="6.06539">
        <ele>1090</ele>
        <time>2020-06-11T08:42:37Z</time>
      </trkpt>
      <trkpt lat="44.38013" lon="6.06538">
        <ele>1088</ele>
        <time>2020-06-11T08:42:38Z</time>
      </trkpt>
      <trkpt lat="44.38012" lon="6.06539">
        <ele>1087</ele>
        <time>2020-06-11T08:42:39Z</time>
      </trkpt>
      <trkpt lat="44.38012" lon="6.0654">
        <ele>1087</ele>
        <time>2020-06-11T08:42:40Z</time>
      </trkpt>
      <trkpt lat="44.38012" lon="6.06541">
        <ele>1086</ele>
        <time>2020-06-11T08:42:41Z</time>
      </trkpt>
      <trkpt lat="44.38014" lon="6.06542">
        <ele>1086</ele>
        <time>2020-06-11T08:42:44Z</time>
      </trkpt>
      <trkpt lat="44.38016" lon="6.06541">
        <ele>1085</ele>
        <time>2020-06-11T08:42:55Z</time>
      </trkpt>
      <trkpt lat="44.38016" lon="6.06541">
        <ele>1085</ele>
        <time>2020-06-11T08:43:10Z</time>
      </trkpt>
      <trkpt lat="44.38016" lon="6.06542">
        <ele>1085</ele>
        <time>2020-06-11T08:43:14Z</time>
      </trkpt>
      <trkpt lat="44.38016" lon="6.06543">
        <ele>1085</ele>
        <time>2020-06-11T08:43:15Z</time>
      </trkpt>
      <trkpt lat="44.38015" lon="6.06544">
        <ele>1085</ele>
        <time>2020-06-11T08:43:16Z</time>
      </trkpt>
      <trkpt lat="44.38005" lon="6.06543">
        <ele>1084</ele>
        <time>2020-06-11T08:43:19Z</time>
      </trkpt>
      <trkpt lat="44.38" lon="6.06541">
        <ele>1083</ele>
        <time>2020-06-11T08:43:21Z</time>
      </trkpt>
      <trkpt lat="44.37996" lon="6.0654">
        <ele>1081</ele>
        <time>2020-06-11T08:43:23Z</time>
      </trkpt>
      <trkpt lat="44.37996" lon="6.0654">
        <ele>1081</ele>
        <time>2020-06-11T08:43:24Z</time>
      </trkpt>
      <trkpt lat="44.37996" lon="6.0654">
        <ele>1080</ele>
        <time>2020-06-11T08:43:26Z</time>
      </trkpt>
      <trkpt lat="44.37998" lon="6.06543">
        <ele>1080</ele>
        <time>2020-06-11T08:43:31Z</time>
      </trkpt>
      <trkpt lat="44.37998" lon="6.06542">
        <ele>1080</ele>
        <time>2020-06-11T08:43:49Z</time>
      </trkpt>
      <trkpt lat="44.37998" lon="6.06543">
        <ele>1080</ele>
        <time>2020-06-11T08:44:14Z</time>
      </trkpt>
      <trkpt lat="44.37998" lon="6.06545">
        <ele>1080</ele>
        <time>2020-06-11T08:44:15Z</time>
      </trkpt>
      <trkpt lat="44.38001" lon="6.06556">
        <ele>1079</ele>
        <time>2020-06-11T08:44:19Z</time>
      </trkpt>
      <trkpt lat="44.38003" lon="6.0656">
        <ele>1079</ele>
        <time>2020-06-11T08:44:20Z</time>
      </trkpt>
      <trkpt lat="44.38005" lon="6.06565">
        <ele>1079</ele>
        <time>2020-06-11T08:44:21Z</time>
      </trkpt>
      <trkpt lat="44.38012" lon="6.06575">
        <ele>1078</ele>
        <time>2020-06-11T08:44:23Z</time>
      </trkpt>
      <trkpt lat="44.38017" lon="6.0658">
        <ele>1078</ele>
        <time>2020-06-11T08:44:24Z</time>
      </trkpt>
      <trkpt lat="44.38028" lon="6.06594">
        <ele>1077</ele>
        <time>2020-06-11T08:44:26Z</time>
      </trkpt>
      <trkpt lat="44.38033" lon="6.06601">
        <ele>1076</ele>
        <time>2020-06-11T08:44:27Z</time>
      </trkpt>
      <trkpt lat="44.3804" lon="6.06605">
        <ele>1074</ele>
        <time>2020-06-11T08:44:28Z</time>
      </trkpt>
      <trkpt lat="44.38046" lon="6.06607">
        <ele>1073</ele>
        <time>2020-06-11T08:44:29Z</time>
      </trkpt>
      <trkpt lat="44.38051" lon="6.06608">
        <ele>1072</ele>
        <time>2020-06-11T08:44:30Z</time>
      </trkpt>
      <trkpt lat="44.38061" lon="6.06609">
        <ele>1070</ele>
        <time>2020-06-11T08:44:32Z</time>
      </trkpt>
      <trkpt lat="44.38066" lon="6.06609">
        <ele>1069</ele>
        <time>2020-06-11T08:44:33Z</time>
      </trkpt>
      <trkpt lat="44.3807" lon="6.0661">
        <ele>1069</ele>
        <time>2020-06-11T08:44:34Z</time>
      </trkpt>
      <trkpt lat="44.38075" lon="6.0661">
        <ele>1068</ele>
        <time>2020-06-11T08:44:35Z</time>
      </trkpt>
      <trkpt lat="44.38082" lon="6.06611">
        <ele>1068</ele>
        <time>2020-06-11T08:44:36Z</time>
      </trkpt>
      <trkpt lat="44.38097" lon="6.06617">
        <ele>1066</ele>
        <time>2020-06-11T08:44:38Z</time>
      </trkpt>
      <trkpt lat="44.38104" lon="6.06621">
        <ele>1066</ele>
        <time>2020-06-11T08:44:39Z</time>
      </trkpt>
      <trkpt lat="44.38109" lon="6.06628">
        <ele>1065</ele>
        <time>2020-06-11T08:44:40Z</time>
      </trkpt>
      <trkpt lat="44.38115" lon="6.06636">
        <ele>1064</ele>
        <time>2020-06-11T08:44:41Z</time>
      </trkpt>
      <trkpt lat="44.3812" lon="6.06644">
        <ele>1063</ele>
        <time>2020-06-11T08:44:42Z</time>
      </trkpt>
      <trkpt lat="44.38132" lon="6.06662">
        <ele>1062</ele>
        <time>2020-06-11T08:44:44Z</time>
      </trkpt>
      <trkpt lat="44.38137" lon="6.0667">
        <ele>1060</ele>
        <time>2020-06-11T08:44:45Z</time>
      </trkpt>
      <trkpt lat="44.38143" lon="6.06679">
        <ele>1058</ele>
        <time>2020-06-11T08:44:46Z</time>
      </trkpt>
      <trkpt lat="44.38147" lon="6.06688">
        <ele>1056</ele>
        <time>2020-06-11T08:44:47Z</time>
      </trkpt>
      <trkpt lat="44.3815" lon="6.06696">
        <ele>1054</ele>
        <time>2020-06-11T08:44:48Z</time>
      </trkpt>
      <trkpt lat="44.38153" lon="6.06704">
        <ele>1052</ele>
        <time>2020-06-11T08:44:49Z</time>
      </trkpt>
      <trkpt lat="44.38155" lon="6.06711">
        <ele>1051</ele>
        <time>2020-06-11T08:44:50Z</time>
      </trkpt>
      <trkpt lat="44.38158" lon="6.06719">
        <ele>1049</ele>
        <time>2020-06-11T08:44:51Z</time>
      </trkpt>
      <trkpt lat="44.38161" lon="6.06728">
        <ele>1047</ele>
        <time>2020-06-11T08:44:52Z</time>
      </trkpt>
      <trkpt lat="44.38164" lon="6.06736">
        <ele>1045</ele>
        <time>2020-06-11T08:44:53Z</time>
      </trkpt>
      <trkpt lat="44.38167" lon="6.06743">
        <ele>1043</ele>
        <time>2020-06-11T08:44:54Z</time>
      </trkpt>
      <trkpt lat="44.38169" lon="6.06749">
        <ele>1041</ele>
        <time>2020-06-11T08:44:55Z</time>
      </trkpt>
      <trkpt lat="44.3817" lon="6.06752">
        <ele>1039</ele>
        <time>2020-06-11T08:44:56Z</time>
      </trkpt>
      <trkpt lat="44.3817" lon="6.06753">
        <ele>1038</ele>
        <time>2020-06-11T08:44:57Z</time>
      </trkpt>
      <trkpt lat="44.38169" lon="6.06753">
        <ele>1037</ele>
        <time>2020-06-11T08:44:58Z</time>
      </trkpt>
      <trkpt lat="44.38168" lon="6.0676">
        <ele>1035</ele>
        <time>2020-06-11T08:45:00Z</time>
      </trkpt>
      <trkpt lat="44.38169" lon="6.06765">
        <ele>1034</ele>
        <time>2020-06-11T08:45:01Z</time>
      </trkpt>
      <trkpt lat="44.38172" lon="6.06771">
        <ele>1034</ele>
        <time>2020-06-11T08:45:02Z</time>
      </trkpt>
      <trkpt lat="44.38183" lon="6.06784">
        <ele>1033</ele>
        <time>2020-06-11T08:45:04Z</time>
      </trkpt>
      <trkpt lat="44.38189" lon="6.0679">
        <ele>1032</ele>
        <time>2020-06-11T08:45:05Z</time>
      </trkpt>
      <trkpt lat="44.38207" lon="6.06811">
        <ele>1031</ele>
        <time>2020-06-11T08:45:08Z</time>
      </trkpt>
      <trkpt lat="44.38212" lon="6.06817">
        <ele>1030</ele>
        <time>2020-06-11T08:45:09Z</time>
      </trkpt>
      <trkpt lat="44.38214" lon="6.06822">
        <ele>1028</ele>
        <time>2020-06-11T08:45:10Z</time>
      </trkpt>
      <trkpt lat="44.38215" lon="6.06825">
        <ele>1027</ele>
        <time>2020-06-11T08:45:11Z</time>
      </trkpt>
      <trkpt lat="44.38215" lon="6.06827">
        <ele>1026</ele>
        <time>2020-06-11T08:45:12Z</time>
      </trkpt>
      <trkpt lat="44.38214" lon="6.06828">
        <ele>1025</ele>
        <time>2020-06-11T08:45:13Z</time>
      </trkpt>
      <trkpt lat="44.38212" lon="6.06828">
        <ele>1024</ele>
        <time>2020-06-11T08:45:14Z</time>
      </trkpt>
      <trkpt lat="44.38211" lon="6.06828">
        <ele>1024</ele>
        <time>2020-06-11T08:45:15Z</time>
      </trkpt>
      <trkpt lat="44.38208" lon="6.06828">
        <ele>1023</ele>
        <time>2020-06-11T08:45:16Z</time>
      </trkpt>
      <trkpt lat="44.38193" lon="6.06825">
        <ele>1023</ele>
        <time>2020-06-11T08:45:19Z</time>
      </trkpt>
      <trkpt lat="44.38185" lon="6.06825">
        <ele>1023</ele>
        <time>2020-06-11T08:45:20Z</time>
      </trkpt>
      <trkpt lat="44.38169" lon="6.06828">
        <ele>1021</ele>
        <time>2020-06-11T08:45:22Z</time>
      </trkpt>
      <trkpt lat="44.38161" lon="6.06829">
        <ele>1020</ele>
        <time>2020-06-11T08:45:23Z</time>
      </trkpt>
      <trkpt lat="44.38154" lon="6.0683">
        <ele>1019</ele>
        <time>2020-06-11T08:45:24Z</time>
      </trkpt>
      <trkpt lat="44.38147" lon="6.06829">
        <ele>1017</ele>
        <time>2020-06-11T08:45:25Z</time>
      </trkpt>
      <trkpt lat="44.38141" lon="6.06829">
        <ele>1015</ele>
        <time>2020-06-11T08:45:26Z</time>
      </trkpt>
      <trkpt lat="44.38136" lon="6.06831">
        <ele>1014</ele>
        <time>2020-06-11T08:45:27Z</time>
      </trkpt>
      <trkpt lat="44.38131" lon="6.06834">
        <ele>1013</ele>
        <time>2020-06-11T08:45:28Z</time>
      </trkpt>
      <trkpt lat="44.38127" lon="6.06839">
        <ele>1011</ele>
        <time>2020-06-11T08:45:29Z</time>
      </trkpt>
      <trkpt lat="44.38123" lon="6.06842">
        <ele>1009</ele>
        <time>2020-06-11T08:45:30Z</time>
      </trkpt>
      <trkpt lat="44.38118" lon="6.06844">
        <ele>1008</ele>
        <time>2020-06-11T08:45:31Z</time>
      </trkpt>
      <trkpt lat="44.38111" lon="6.06844">
        <ele>1007</ele>
        <time>2020-06-11T08:45:32Z</time>
      </trkpt>
      <trkpt lat="44.38104" lon="6.06843">
        <ele>1006</ele>
        <time>2020-06-11T08:45:33Z</time>
      </trkpt>
      <trkpt lat="44.38097" lon="6.06841">
        <ele>1004</ele>
        <time>2020-06-11T08:45:34Z</time>
      </trkpt>
      <trkpt lat="44.38084" lon="6.06839">
        <ele>1003</ele>
        <time>2020-06-11T08:45:36Z</time>
      </trkpt>
      <trkpt lat="44.38079" lon="6.0684">
        <ele>1002</ele>
        <time>2020-06-11T08:45:37Z</time>
      </trkpt>
      <trkpt lat="44.38077" lon="6.06842">
        <ele>1000</ele>
        <time>2020-06-11T08:45:38Z</time>
      </trkpt>
      <trkpt lat="44.38077" lon="6.06846">
        <ele>999</ele>
        <time>2020-06-11T08:45:39Z</time>
      </trkpt>
      <trkpt lat="44.3808" lon="6.0685">
        <ele>997</ele>
        <time>2020-06-11T08:45:40Z</time>
      </trkpt>
      <trkpt lat="44.38084" lon="6.06854">
        <ele>996</ele>
        <time>2020-06-11T08:45:41Z</time>
      </trkpt>
      <trkpt lat="44.38089" lon="6.06858">
        <ele>995</ele>
        <time>2020-06-11T08:45:42Z</time>
      </trkpt>
      <trkpt lat="44.38094" lon="6.06863">
        <ele>995</ele>
        <time>2020-06-11T08:45:43Z</time>
      </trkpt>
      <trkpt lat="44.38109" lon="6.06875">
        <ele>994</ele>
        <time>2020-06-11T08:45:45Z</time>
      </trkpt>
      <trkpt lat="44.38115" lon="6.06881">
        <ele>993</ele>
        <time>2020-06-11T08:45:46Z</time>
      </trkpt>
      <trkpt lat="44.38123" lon="6.06884">
        <ele>992</ele>
        <time>2020-06-11T08:45:47Z</time>
      </trkpt>
      <trkpt lat="44.3813" lon="6.06887">
        <ele>991</ele>
        <time>2020-06-11T08:45:48Z</time>
      </trkpt>
      <trkpt lat="44.38137" lon="6.06893">
        <ele>990</ele>
        <time>2020-06-11T08:45:49Z</time>
      </trkpt>
      <trkpt lat="44.38144" lon="6.06901">
        <ele>989</ele>
        <time>2020-06-11T08:45:50Z</time>
      </trkpt>
      <trkpt lat="44.3815" lon="6.06912">
        <ele>988</ele>
        <time>2020-06-11T08:45:51Z</time>
      </trkpt>
      <trkpt lat="44.38157" lon="6.06923">
        <ele>987</ele>
        <time>2020-06-11T08:45:52Z</time>
      </trkpt>
      <trkpt lat="44.38163" lon="6.06934">
        <ele>986</ele>
        <time>2020-06-11T08:45:53Z</time>
      </trkpt>
      <trkpt lat="44.3817" lon="6.06945">
        <ele>985</ele>
        <time>2020-06-11T08:45:54Z</time>
      </trkpt>
      <trkpt lat="44.38176" lon="6.06954">
        <ele>983</ele>
        <time>2020-06-11T08:45:55Z</time>
      </trkpt>
      <trkpt lat="44.38181" lon="6.06962">
        <ele>981</ele>
        <time>2020-06-11T08:45:56Z</time>
      </trkpt>
      <trkpt lat="44.38188" lon="6.06967">
        <ele>979</ele>
        <time>2020-06-11T08:45:57Z</time>
      </trkpt>
      <trkpt lat="44.38192" lon="6.0697">
        <ele>977</ele>
        <time>2020-06-11T08:45:58Z</time>
      </trkpt>
      <trkpt lat="44.38195" lon="6.06974">
        <ele>975</ele>
        <time>2020-06-11T08:45:59Z</time>
      </trkpt>
      <trkpt lat="44.38195" lon="6.06977">
        <ele>973</ele>
        <time>2020-06-11T08:46:00Z</time>
      </trkpt>
      <trkpt lat="44.38192" lon="6.06979">
        <ele>972</ele>
        <time>2020-06-11T08:46:01Z</time>
      </trkpt>
      <trkpt lat="44.38187" lon="6.0698">
        <ele>971</ele>
        <time>2020-06-11T08:46:02Z</time>
      </trkpt>
      <trkpt lat="44.38181" lon="6.0698">
        <ele>970</ele>
        <time>2020-06-11T08:46:03Z</time>
      </trkpt>
      <trkpt lat="44.38174" lon="6.0698">
        <ele>969</ele>
        <time>2020-06-11T08:46:04Z</time>
      </trkpt>
      <trkpt lat="44.38166" lon="6.06981">
        <ele>968</ele>
        <time>2020-06-11T08:46:05Z</time>
      </trkpt>
      <trkpt lat="44.38157" lon="6.06981">
        <ele>967</ele>
        <time>2020-06-11T08:46:06Z</time>
      </trkpt>
      <trkpt lat="44.38149" lon="6.0698">
        <ele>966</ele>
        <time>2020-06-11T08:46:07Z</time>
      </trkpt>
      <trkpt lat="44.38141" lon="6.06976">
        <ele>965</ele>
        <time>2020-06-11T08:46:08Z</time>
      </trkpt>
      <trkpt lat="44.38132" lon="6.06973">
        <ele>963</ele>
        <time>2020-06-11T08:46:10Z</time>
      </trkpt>
      <trkpt lat="44.38131" lon="6.06976">
        <ele>962</ele>
        <time>2020-06-11T08:46:11Z</time>
      </trkpt>
      <trkpt lat="44.38132" lon="6.06979">
        <ele>960</ele>
        <time>2020-06-11T08:46:12Z</time>
      </trkpt>
      <trkpt lat="44.38135" lon="6.06983">
        <ele>959</ele>
        <time>2020-06-11T08:46:13Z</time>
      </trkpt>
      <trkpt lat="44.38142" lon="6.06992">
        <ele>957</ele>
        <time>2020-06-11T08:46:15Z</time>
      </trkpt>
      <trkpt lat="44.38147" lon="6.06997">
        <ele>957</ele>
        <time>2020-06-11T08:46:16Z</time>
      </trkpt>
      <trkpt lat="44.38153" lon="6.07002">
        <ele>956</ele>
        <time>2020-06-11T08:46:17Z</time>
      </trkpt>
      <trkpt lat="44.3816" lon="6.07006">
        <ele>955</ele>
        <time>2020-06-11T08:46:18Z</time>
      </trkpt>
      <trkpt lat="44.38168" lon="6.07009">
        <ele>955</ele>
        <time>2020-06-11T08:46:19Z</time>
      </trkpt>
      <trkpt lat="44.38185" lon="6.07011">
        <ele>954</ele>
        <time>2020-06-11T08:46:21Z</time>
      </trkpt>
      <trkpt lat="44.38203" lon="6.07013">
        <ele>952</ele>
        <time>2020-06-11T08:46:23Z</time>
      </trkpt>
      <trkpt lat="44.3821" lon="6.07016">
        <ele>951</ele>
        <time>2020-06-11T08:46:24Z</time>
      </trkpt>
      <trkpt lat="44.38218" lon="6.07016">
        <ele>950</ele>
        <time>2020-06-11T08:46:25Z</time>
      </trkpt>
      <trkpt lat="44.38232" lon="6.07014">
        <ele>949</ele>
        <time>2020-06-11T08:46:27Z</time>
      </trkpt>
      <trkpt lat="44.3824" lon="6.07017">
        <ele>948</ele>
        <time>2020-06-11T08:46:28Z</time>
      </trkpt>
      <trkpt lat="44.38247" lon="6.07022">
        <ele>947</ele>
        <time>2020-06-11T08:46:29Z</time>
      </trkpt>
      <trkpt lat="44.38254" lon="6.07027">
        <ele>945</ele>
        <time>2020-06-11T08:46:30Z</time>
      </trkpt>
      <trkpt lat="44.38259" lon="6.07031">
        <ele>944</ele>
        <time>2020-06-11T08:46:31Z</time>
      </trkpt>
      <trkpt lat="44.38262" lon="6.07035">
        <ele>943</ele>
        <time>2020-06-11T08:46:32Z</time>
      </trkpt>
      <trkpt lat="44.38262" lon="6.07038">
        <ele>942</ele>
        <time>2020-06-11T08:46:33Z</time>
      </trkpt>
      <trkpt lat="44.38261" lon="6.07041">
        <ele>941</ele>
        <time>2020-06-11T08:46:34Z</time>
      </trkpt>
      <trkpt lat="44.38258" lon="6.07041">
        <ele>939</ele>
        <time>2020-06-11T08:46:35Z</time>
      </trkpt>
      <trkpt lat="44.38257" lon="6.07041">
        <ele>938</ele>
        <time>2020-06-11T08:46:36Z</time>
      </trkpt>
      <trkpt lat="44.38257" lon="6.07041">
        <ele>938</ele>
        <time>2020-06-11T08:46:37Z</time>
      </trkpt>
      <trkpt lat="44.38256" lon="6.07041">
        <ele>937</ele>
        <time>2020-06-11T08:46:38Z</time>
      </trkpt>
      <trkpt lat="44.38254" lon="6.0704">
        <ele>936</ele>
        <time>2020-06-11T08:46:39Z</time>
      </trkpt>
      <trkpt lat="44.38249" lon="6.07038">
        <ele>936</ele>
        <time>2020-06-11T08:46:41Z</time>
      </trkpt>
      <trkpt lat="44.38241" lon="6.07037">
        <ele>935</ele>
        <time>2020-06-11T08:46:43Z</time>
      </trkpt>
      <trkpt lat="44.38236" lon="6.07037">
        <ele>935</ele>
        <time>2020-06-11T08:46:44Z</time>
      </trkpt>
      <trkpt lat="44.38233" lon="6.07039">
        <ele>934</ele>
        <time>2020-06-11T08:46:45Z</time>
      </trkpt>
      <trkpt lat="44.38233" lon="6.07046">
        <ele>933</ele>
        <time>2020-06-11T08:46:47Z</time>
      </trkpt>
      <trkpt lat="44.3824" lon="6.07052">
        <ele>932</ele>
        <time>2020-06-11T08:46:49Z</time>
      </trkpt>
      <trkpt lat="44.38249" lon="6.07061">
        <ele>930</ele>
        <time>2020-06-11T08:46:51Z</time>
      </trkpt>
      <trkpt lat="44.38254" lon="6.07066">
        <ele>930</ele>
        <time>2020-06-11T08:46:52Z</time>
      </trkpt>
      <trkpt lat="44.38261" lon="6.07071">
        <ele>929</ele>
        <time>2020-06-11T08:46:53Z</time>
      </trkpt>
      <trkpt lat="44.38268" lon="6.07075">
        <ele>929</ele>
        <time>2020-06-11T08:46:54Z</time>
      </trkpt>
      <trkpt lat="44.38276" lon="6.07078">
        <ele>928</ele>
        <time>2020-06-11T08:46:55Z</time>
      </trkpt>
      <trkpt lat="44.3829" lon="6.07085">
        <ele>927</ele>
        <time>2020-06-11T08:46:57Z</time>
      </trkpt>
      <trkpt lat="44.38294" lon="6.07088">
        <ele>926</ele>
        <time>2020-06-11T08:46:58Z</time>
      </trkpt>
      <trkpt lat="44.38296" lon="6.07093">
        <ele>924</ele>
        <time>2020-06-11T08:46:59Z</time>
      </trkpt>
      <trkpt lat="44.38296" lon="6.071">
        <ele>922</ele>
        <time>2020-06-11T08:47:00Z</time>
      </trkpt>
      <trkpt lat="44.38295" lon="6.07108">
        <ele>921</ele>
        <time>2020-06-11T08:47:01Z</time>
      </trkpt>
      <trkpt lat="44.38292" lon="6.07116">
        <ele>920</ele>
        <time>2020-06-11T08:47:02Z</time>
      </trkpt>
      <trkpt lat="44.3829" lon="6.07126">
        <ele>919</ele>
        <time>2020-06-11T08:47:03Z</time>
      </trkpt>
      <trkpt lat="44.38288" lon="6.07137">
        <ele>918</ele>
        <time>2020-06-11T08:47:04Z</time>
      </trkpt>
      <trkpt lat="44.38285" lon="6.07149">
        <ele>917</ele>
        <time>2020-06-11T08:47:05Z</time>
      </trkpt>
      <trkpt lat="44.38282" lon="6.07161">
        <ele>916</ele>
        <time>2020-06-11T08:47:06Z</time>
      </trkpt>
      <trkpt lat="44.3828" lon="6.07173">
        <ele>914</ele>
        <time>2020-06-11T08:47:07Z</time>
      </trkpt>
      <trkpt lat="44.38279" lon="6.07184">
        <ele>913</ele>
        <time>2020-06-11T08:47:08Z</time>
      </trkpt>
      <trkpt lat="44.3828" lon="6.07193">
        <ele>911</ele>
        <time>2020-06-11T08:47:09Z</time>
      </trkpt>
      <trkpt lat="44.38284" lon="6.07201">
        <ele>910</ele>
        <time>2020-06-11T08:47:10Z</time>
      </trkpt>
      <trkpt lat="44.38288" lon="6.07209">
        <ele>908</ele>
        <time>2020-06-11T08:47:11Z</time>
      </trkpt>
      <trkpt lat="44.38291" lon="6.07217">
        <ele>907</ele>
        <time>2020-06-11T08:47:12Z</time>
      </trkpt>
      <trkpt lat="44.38295" lon="6.07232">
        <ele>905</ele>
        <time>2020-06-11T08:47:14Z</time>
      </trkpt>
      <trkpt lat="44.38292" lon="6.0724">
        <ele>903</ele>
        <time>2020-06-11T08:47:16Z</time>
      </trkpt>
      <trkpt lat="44.38289" lon="6.0724">
        <ele>902</ele>
        <time>2020-06-11T08:47:17Z</time>
      </trkpt>
      <trkpt lat="44.38286" lon="6.07237">
        <ele>902</ele>
        <time>2020-06-11T08:47:18Z</time>
      </trkpt>
      <trkpt lat="44.38283" lon="6.07232">
        <ele>901</ele>
        <time>2020-06-11T08:47:19Z</time>
      </trkpt>
      <trkpt lat="44.38279" lon="6.07225">
        <ele>901</ele>
        <time>2020-06-11T08:47:20Z</time>
      </trkpt>
      <trkpt lat="44.38274" lon="6.07218">
        <ele>900</ele>
        <time>2020-06-11T08:47:21Z</time>
      </trkpt>
      <trkpt lat="44.38267" lon="6.07212">
        <ele>899</ele>
        <time>2020-06-11T08:47:22Z</time>
      </trkpt>
      <trkpt lat="44.38261" lon="6.07207">
        <ele>898</ele>
        <time>2020-06-11T08:47:23Z</time>
      </trkpt>
      <trkpt lat="44.38255" lon="6.07204">
        <ele>897</ele>
        <time>2020-06-11T08:47:24Z</time>
      </trkpt>
      <trkpt lat="44.38249" lon="6.07204">
        <ele>896</ele>
        <time>2020-06-11T08:47:25Z</time>
      </trkpt>
      <trkpt lat="44.38242" lon="6.07206">
        <ele>894</ele>
        <time>2020-06-11T08:47:26Z</time>
      </trkpt>
      <trkpt lat="44.38236" lon="6.07207">
        <ele>893</ele>
        <time>2020-06-11T08:47:27Z</time>
      </trkpt>
      <trkpt lat="44.3823" lon="6.07208">
        <ele>892</ele>
        <time>2020-06-11T08:47:28Z</time>
      </trkpt>
      <trkpt lat="44.38225" lon="6.07207">
        <ele>891</ele>
        <time>2020-06-11T08:47:29Z</time>
      </trkpt>
      <trkpt lat="44.38219" lon="6.07206">
        <ele>889</ele>
        <time>2020-06-11T08:47:30Z</time>
      </trkpt>
      <trkpt lat="44.38213" lon="6.07205">
        <ele>888</ele>
        <time>2020-06-11T08:47:31Z</time>
      </trkpt>
      <trkpt lat="44.38208" lon="6.07206">
        <ele>886</ele>
        <time>2020-06-11T08:47:32Z</time>
      </trkpt>
      <trkpt lat="44.38202" lon="6.07207">
        <ele>885</ele>
        <time>2020-06-11T08:47:33Z</time>
      </trkpt>
      <trkpt lat="44.38196" lon="6.07208">
        <ele>883</ele>
        <time>2020-06-11T08:47:34Z</time>
      </trkpt>
      <trkpt lat="44.3819" lon="6.07209">
        <ele>882</ele>
        <time>2020-06-11T08:47:35Z</time>
      </trkpt>
      <trkpt lat="44.38184" lon="6.07208">
        <ele>880</ele>
        <time>2020-06-11T08:47:36Z</time>
      </trkpt>
      <trkpt lat="44.38177" lon="6.07206">
        <ele>879</ele>
        <time>2020-06-11T08:47:37Z</time>
      </trkpt>
      <trkpt lat="44.38171" lon="6.07205">
        <ele>878</ele>
        <time>2020-06-11T08:47:38Z</time>
      </trkpt>
      <trkpt lat="44.38165" lon="6.07203">
        <ele>877</ele>
        <time>2020-06-11T08:47:39Z</time>
      </trkpt>
      <trkpt lat="44.38159" lon="6.07202">
        <ele>875</ele>
        <time>2020-06-11T08:47:40Z</time>
      </trkpt>
      <trkpt lat="44.38154" lon="6.072">
        <ele>874</ele>
        <time>2020-06-11T08:47:41Z</time>
      </trkpt>
      <trkpt lat="44.38149" lon="6.07199">
        <ele>872</ele>
        <time>2020-06-11T08:47:42Z</time>
      </trkpt>
      <trkpt lat="44.38145" lon="6.07197">
        <ele>871</ele>
        <time>2020-06-11T08:47:43Z</time>
      </trkpt>
      <trkpt lat="44.38142" lon="6.07196">
        <ele>869</ele>
        <time>2020-06-11T08:47:44Z</time>
      </trkpt>
      <trkpt lat="44.3814" lon="6.07196">
        <ele>868</ele>
        <time>2020-06-11T08:47:45Z</time>
      </trkpt>
      <trkpt lat="44.38137" lon="6.07197">
        <ele>866</ele>
        <time>2020-06-11T08:47:47Z</time>
      </trkpt>
      <trkpt lat="44.38137" lon="6.07205">
        <ele>865</ele>
        <time>2020-06-11T08:47:50Z</time>
      </trkpt>
      <trkpt lat="44.38136" lon="6.07209">
        <ele>865</ele>
        <time>2020-06-11T08:47:51Z</time>
      </trkpt>
      <trkpt lat="44.38131" lon="6.0722">
        <ele>864</ele>
        <time>2020-06-11T08:47:53Z</time>
      </trkpt>
      <trkpt lat="44.38127" lon="6.07225">
        <ele>863</ele>
        <time>2020-06-11T08:47:54Z</time>
      </trkpt>
      <trkpt lat="44.38124" lon="6.0723">
        <ele>863</ele>
        <time>2020-06-11T08:47:55Z</time>
      </trkpt>
      <trkpt lat="44.38116" lon="6.07236">
        <ele>860</ele>
        <time>2020-06-11T08:47:57Z</time>
      </trkpt>
      <trkpt lat="44.38112" lon="6.0724">
        <ele>859</ele>
        <time>2020-06-11T08:47:58Z</time>
      </trkpt>
      <trkpt lat="44.38107" lon="6.07243">
        <ele>858</ele>
        <time>2020-06-11T08:47:59Z</time>
      </trkpt>
      <trkpt lat="44.38099" lon="6.07249">
        <ele>856</ele>
        <time>2020-06-11T08:48:01Z</time>
      </trkpt>
      <trkpt lat="44.38094" lon="6.0725">
        <ele>855</ele>
        <time>2020-06-11T08:48:02Z</time>
      </trkpt>
      <trkpt lat="44.3809" lon="6.0725">
        <ele>853</ele>
        <time>2020-06-11T08:48:03Z</time>
      </trkpt>
      <trkpt lat="44.38086" lon="6.07251">
        <ele>852</ele>
        <time>2020-06-11T08:48:04Z</time>
      </trkpt>
      <trkpt lat="44.38083" lon="6.07252">
        <ele>851</ele>
        <time>2020-06-11T08:48:05Z</time>
      </trkpt>
      <trkpt lat="44.38082" lon="6.07252">
        <ele>850</ele>
        <time>2020-06-11T08:48:06Z</time>
      </trkpt>
      <trkpt lat="44.38083" lon="6.07252">
        <ele>849</ele>
        <time>2020-06-11T08:48:07Z</time>
      </trkpt>
      <trkpt lat="44.38082" lon="6.07252">
        <ele>848</ele>
        <time>2020-06-11T08:48:09Z</time>
      </trkpt>
      <trkpt lat="44.3808" lon="6.07254">
        <ele>847</ele>
        <time>2020-06-11T08:48:11Z</time>
      </trkpt>
      <trkpt lat="44.38074" lon="6.07264">
        <ele>846</ele>
        <time>2020-06-11T08:48:14Z</time>
      </trkpt>
      <trkpt lat="44.38072" lon="6.07268">
        <ele>846</ele>
        <time>2020-06-11T08:48:15Z</time>
      </trkpt>
      <trkpt lat="44.38069" lon="6.07271">
        <ele>845</ele>
        <time>2020-06-11T08:48:16Z</time>
      </trkpt>
      <trkpt lat="44.38059" lon="6.0728">
        <ele>843</ele>
        <time>2020-06-11T08:48:19Z</time>
      </trkpt>
      <trkpt lat="44.38056" lon="6.07283">
        <ele>842</ele>
        <time>2020-06-11T08:48:20Z</time>
      </trkpt>
      <trkpt lat="44.3805" lon="6.07287">
        <ele>841</ele>
        <time>2020-06-11T08:48:22Z</time>
      </trkpt>
      <trkpt lat="44.38047" lon="6.07288">
        <ele>840</ele>
        <time>2020-06-11T08:48:24Z</time>
      </trkpt>
      <trkpt lat="44.38045" lon="6.07289">
        <ele>838</ele>
        <time>2020-06-11T08:48:26Z</time>
      </trkpt>
      <trkpt lat="44.38044" lon="6.0729">
        <ele>838</ele>
        <time>2020-06-11T08:48:28Z</time>
      </trkpt>
      <trkpt lat="44.38044" lon="6.07291">
        <ele>837</ele>
        <time>2020-06-11T08:48:29Z</time>
      </trkpt>
      <trkpt lat="44.38044" lon="6.07294">
        <ele>837</ele>
        <time>2020-06-11T08:48:31Z</time>
      </trkpt>
      <trkpt lat="44.38044" lon="6.07295">
        <ele>836</ele>
        <time>2020-06-11T08:48:33Z</time>
      </trkpt>
      <trkpt lat="44.38043" lon="6.07296">
        <ele>836</ele>
        <time>2020-06-11T08:48:34Z</time>
      </trkpt>
      <trkpt lat="44.38041" lon="6.07297">
        <ele>835</ele>
        <time>2020-06-11T08:48:36Z</time>
      </trkpt>
      <trkpt lat="44.38038" lon="6.07302">
        <ele>834</ele>
        <time>2020-06-11T08:48:39Z</time>
      </trkpt>
      <trkpt lat="44.38038" lon="6.07302">
        <ele>834</ele>
        <time>2020-06-11T08:48:40Z</time>
      </trkpt>
      <trkpt lat="44.38037" lon="6.07303">
        <ele>833</ele>
        <time>2020-06-11T08:48:44Z</time>
      </trkpt>
      <trkpt lat="44.38037" lon="6.07303">
        <ele>833</ele>
        <time>2020-06-11T08:48:45Z</time>
      </trkpt>
      <trkpt lat="44.38036" lon="6.07304">
        <ele>833</ele>
        <time>2020-06-11T08:48:46Z</time>
      </trkpt>
      <trkpt lat="44.38035" lon="6.07307">
        <ele>833</ele>
        <time>2020-06-11T08:48:50Z</time>
      </trkpt>
      <trkpt lat="44.3803" lon="6.07308">
        <ele>832</ele>
        <time>2020-06-11T08:48:57Z</time>
      </trkpt>
      <trkpt lat="44.3803" lon="6.07308">
        <ele>832</ele>
        <time>2020-06-11T08:49:05Z</time>
      </trkpt>
      <trkpt lat="44.38029" lon="6.07306">
        <ele>832</ele>
        <time>2020-06-11T08:49:09Z</time>
      </trkpt>
      <trkpt lat="44.38027" lon="6.07303">
        <ele>832</ele>
        <time>2020-06-11T08:49:11Z</time>
      </trkpt>
      <trkpt lat="44.38016" lon="6.07288">
        <ele>832</ele>
        <time>2020-06-11T08:49:17Z</time>
      </trkpt>
      <trkpt lat="44.38003" lon="6.0727">
        <ele>832</ele>
        <time>2020-06-11T08:49:23Z</time>
      </trkpt>
      <trkpt lat="44.38001" lon="6.07267">
        <ele>831</ele>
        <time>2020-06-11T08:49:24Z</time>
      </trkpt>
      <trkpt lat="44.37987" lon="6.07247">
        <ele>831</ele>
        <time>2020-06-11T08:49:29Z</time>
      </trkpt>
      <trkpt lat="44.37973" lon="6.07233">
        <ele>831</ele>
        <time>2020-06-11T08:49:33Z</time>
      </trkpt>
      <trkpt lat="44.37962" lon="6.07224">
        <ele>830</ele>
        <time>2020-06-11T08:49:36Z</time>
      </trkpt>
      <trkpt lat="44.37948" lon="6.07215">
        <ele>830</ele>
        <time>2020-06-11T08:49:39Z</time>
      </trkpt>
      <trkpt lat="44.37938" lon="6.07208">
        <ele>829</ele>
        <time>2020-06-11T08:49:41Z</time>
      </trkpt>
      <trkpt lat="44.3792" lon="6.07196">
        <ele>828</ele>
        <time>2020-06-11T08:49:44Z</time>
      </trkpt>
      <trkpt lat="44.37902" lon="6.07184">
        <ele>827</ele>
        <time>2020-06-11T08:49:47Z</time>
      </trkpt>
      <trkpt lat="44.37895" lon="6.0718">
        <ele>827</ele>
        <time>2020-06-11T08:49:48Z</time>
      </trkpt>
      <trkpt lat="44.37881" lon="6.07171">
        <ele>826</ele>
        <time>2020-06-11T08:49:50Z</time>
      </trkpt>
      <trkpt lat="44.37854" lon="6.07151">
        <ele>825</ele>
        <time>2020-06-11T08:49:54Z</time>
      </trkpt>
      <trkpt lat="44.37839" lon="6.0714">
        <ele>824</ele>
        <time>2020-06-11T08:49:56Z</time>
      </trkpt>
      <trkpt lat="44.37831" lon="6.07135">
        <ele>824</ele>
        <time>2020-06-11T08:49:57Z</time>
      </trkpt>
      <trkpt lat="44.37808" lon="6.0712">
        <ele>822</ele>
        <time>2020-06-11T08:50:00Z</time>
      </trkpt>
      <trkpt lat="44.37783" lon="6.07107">
        <ele>821</ele>
        <time>2020-06-11T08:50:03Z</time>
      </trkpt>
      <trkpt lat="44.37774" lon="6.07104">
        <ele>820</ele>
        <time>2020-06-11T08:50:04Z</time>
      </trkpt>
      <trkpt lat="44.37757" lon="6.071">
        <ele>820</ele>
        <time>2020-06-11T08:50:06Z</time>
      </trkpt>
      <trkpt lat="44.37722" lon="6.07094">
        <ele>819</ele>
        <time>2020-06-11T08:50:10Z</time>
      </trkpt>
      <trkpt lat="44.37682" lon="6.07081">
        <ele>818</ele>
        <time>2020-06-11T08:50:15Z</time>
      </trkpt>
      <trkpt lat="44.37675" lon="6.07076">
        <ele>817</ele>
        <time>2020-06-11T08:50:16Z</time>
      </trkpt>
      <trkpt lat="44.37661" lon="6.07069">
        <ele>817</ele>
        <time>2020-06-11T08:50:18Z</time>
      </trkpt>
      <trkpt lat="44.37648" lon="6.07061">
        <ele>817</ele>
        <time>2020-06-11T08:50:20Z</time>
      </trkpt>
      <trkpt lat="44.37637" lon="6.07053">
        <ele>816</ele>
        <time>2020-06-11T08:50:23Z</time>
      </trkpt>
      <trkpt lat="44.37633" lon="6.0705">
        <ele>815</ele>
        <time>2020-06-11T08:50:25Z</time>
      </trkpt>
      <trkpt lat="44.37629" lon="6.07049">
        <ele>814</ele>
        <time>2020-06-11T08:50:27Z</time>
      </trkpt>
      <trkpt lat="44.37567" lon="6.06983">
        <ele>813</ele>
        <time>2020-06-11T08:51:01Z</time>
      </trkpt>
      <trkpt lat="44.3757" lon="6.06963">
        <ele>813</ele>
        <time>2020-06-11T08:51:06Z</time>
      </trkpt>
      <trkpt lat="44.37573" lon="6.06944">
        <ele>811</ele>
        <time>2020-06-11T08:51:11Z</time>
      </trkpt>
      <trkpt lat="44.37581" lon="6.06924">
        <ele>812</ele>
        <time>2020-06-11T08:51:18Z</time>
      </trkpt>
      <trkpt lat="44.37586" lon="6.06884">
        <ele>811</ele>
        <time>2020-06-11T08:51:32Z</time>
      </trkpt>
      <trkpt lat="44.37566" lon="6.06824">
        <ele>811</ele>
        <time>2020-06-11T08:51:53Z</time>
      </trkpt>
      <trkpt lat="44.3754" lon="6.06786">
        <ele>811</ele>
        <time>2020-06-11T08:52:11Z</time>
      </trkpt>
      <trkpt lat="44.37516" lon="6.06755">
        <ele>811</ele>
        <time>2020-06-11T08:52:26Z</time>
      </trkpt>
      <trkpt lat="44.37487" lon="6.06727">
        <ele>811</ele>
        <time>2020-06-11T08:52:42Z</time>
      </trkpt>
      <trkpt lat="44.37429" lon="6.06672">
        <ele>810</ele>
        <time>2020-06-11T08:53:14Z</time>
      </trkpt>
      <trkpt lat="44.37364" lon="6.06609">
        <ele>810</ele>
        <time>2020-06-11T08:53:50Z</time>
      </trkpt>
      <trkpt lat="44.37313" lon="6.06557">
        <ele>809</ele>
        <time>2020-06-11T08:54:19Z</time>
      </trkpt>
      <trkpt lat="44.37284" lon="6.06531">
        <ele>809</ele>
        <time>2020-06-11T08:54:35Z</time>
      </trkpt>
      <trkpt lat="44.37265" lon="6.06498">
        <ele>807</ele>
        <time>2020-06-11T08:54:49Z</time>
      </trkpt>
      <trkpt lat="44.37261" lon="6.0644">
        <ele>807</ele>
        <time>2020-06-11T08:55:08Z</time>
      </trkpt>
      <trkpt lat="44.37256" lon="6.06436">
        <ele>806</ele>
        <time>2020-06-11T08:55:11Z</time>
      </trkpt>
      <trkpt lat="44.37249" lon="6.06376">
        <ele>807</ele>
        <time>2020-06-11T08:55:20Z</time>
      </trkpt>
      <trkpt lat="44.37247" lon="6.06369">
        <ele>807</ele>
        <time>2020-06-11T08:55:21Z</time>
      </trkpt>
      <trkpt lat="44.37243" lon="6.06356">
        <ele>807</ele>
        <time>2020-06-11T08:55:23Z</time>
      </trkpt>
      <trkpt lat="44.37236" lon="6.06344">
        <ele>807</ele>
        <time>2020-06-11T08:55:25Z</time>
      </trkpt>
      <trkpt lat="44.37211" lon="6.06318">
        <ele>806</ele>
        <time>2020-06-11T08:55:30Z</time>
      </trkpt>
      <trkpt lat="44.37181" lon="6.06296">
        <ele>805</ele>
        <time>2020-06-11T08:55:35Z</time>
      </trkpt>
      <trkpt lat="44.37167" lon="6.06289">
        <ele>804</ele>
        <time>2020-06-11T08:55:37Z</time>
      </trkpt>
      <trkpt lat="44.37127" lon="6.06261">
        <ele>804</ele>
        <time>2020-06-11T08:55:43Z</time>
      </trkpt>
      <trkpt lat="44.3712" lon="6.06256">
        <ele>804</ele>
        <time>2020-06-11T08:55:44Z</time>
      </trkpt>
      <trkpt lat="44.37098" lon="6.0624">
        <ele>802</ele>
        <time>2020-06-11T08:55:47Z</time>
      </trkpt>
      <trkpt lat="44.37084" lon="6.06229">
        <ele>800</ele>
        <time>2020-06-11T08:55:49Z</time>
      </trkpt>
      <trkpt lat="44.37077" lon="6.06223">
        <ele>799</ele>
        <time>2020-06-11T08:55:50Z</time>
      </trkpt>
      <trkpt lat="44.3707" lon="6.06217">
        <ele>799</ele>
        <time>2020-06-11T08:55:51Z</time>
      </trkpt>
      <trkpt lat="44.37065" lon="6.0621">
        <ele>798</ele>
        <time>2020-06-11T08:55:52Z</time>
      </trkpt>
      <trkpt lat="44.37054" lon="6.06195">
        <ele>798</ele>
        <time>2020-06-11T08:55:54Z</time>
      </trkpt>
      <trkpt lat="44.37036" lon="6.06165">
        <ele>797</ele>
        <time>2020-06-11T08:55:58Z</time>
      </trkpt>
      <trkpt lat="44.37027" lon="6.0615">
        <ele>798</ele>
        <time>2020-06-11T08:56:00Z</time>
      </trkpt>
      <trkpt lat="44.37019" lon="6.06136">
        <ele>798</ele>
        <time>2020-06-11T08:56:02Z</time>
      </trkpt>
      <trkpt lat="44.36998" lon="6.06097">
        <ele>799</ele>
        <time>2020-06-11T08:56:08Z</time>
      </trkpt>
      <trkpt lat="44.36975" lon="6.06057">
        <ele>799</ele>
        <time>2020-06-11T08:56:15Z</time>
      </trkpt>
      <trkpt lat="44.36969" lon="6.06047">
        <ele>800</ele>
        <time>2020-06-11T08:56:17Z</time>
      </trkpt>
      <trkpt lat="44.36948" lon="6.06006">
        <ele>800</ele>
        <time>2020-06-11T08:56:24Z</time>
      </trkpt>
      <trkpt lat="44.36945" lon="6.06">
        <ele>800</ele>
        <time>2020-06-11T08:56:25Z</time>
      </trkpt>
      <trkpt lat="44.36926" lon="6.05975">
        <ele>798</ele>
        <time>2020-06-11T08:56:30Z</time>
      </trkpt>
      <trkpt lat="44.36921" lon="6.05969">
        <ele>798</ele>
        <time>2020-06-11T08:56:31Z</time>
      </trkpt>
      <trkpt lat="44.36905" lon="6.05954">
        <ele>797</ele>
        <time>2020-06-11T08:56:34Z</time>
      </trkpt>
      <trkpt lat="44.36892" lon="6.05945">
        <ele>797</ele>
        <time>2020-06-11T08:56:36Z</time>
      </trkpt>
      <trkpt lat="44.3687" lon="6.05933">
        <ele>796</ele>
        <time>2020-06-11T08:56:39Z</time>
      </trkpt>
      <trkpt lat="44.36848" lon="6.05922">
        <ele>795</ele>
        <time>2020-06-11T08:56:42Z</time>
      </trkpt>
      <trkpt lat="44.3684" lon="6.05918">
        <ele>795</ele>
        <time>2020-06-11T08:56:43Z</time>
      </trkpt>
      <trkpt lat="44.36824" lon="6.05909">
        <ele>795</ele>
        <time>2020-06-11T08:56:45Z</time>
      </trkpt>
      <trkpt lat="44.36809" lon="6.05896">
        <ele>794</ele>
        <time>2020-06-11T08:56:47Z</time>
      </trkpt>
      <trkpt lat="44.36796" lon="6.05879">
        <ele>794</ele>
        <time>2020-06-11T08:56:49Z</time>
      </trkpt>
      <trkpt lat="44.36785" lon="6.0586">
        <ele>794</ele>
        <time>2020-06-11T08:56:51Z</time>
      </trkpt>
      <trkpt lat="44.3678" lon="6.0585">
        <ele>793</ele>
        <time>2020-06-11T08:56:52Z</time>
      </trkpt>
      <trkpt lat="44.36769" lon="6.0583">
        <ele>792</ele>
        <time>2020-06-11T08:56:54Z</time>
      </trkpt>
      <trkpt lat="44.36754" lon="6.05797">
        <ele>791</ele>
        <time>2020-06-11T08:56:57Z</time>
      </trkpt>
      <trkpt lat="44.36743" lon="6.05777">
        <ele>790</ele>
        <time>2020-06-11T08:56:59Z</time>
      </trkpt>
      <trkpt lat="44.36738" lon="6.05766">
        <ele>790</ele>
        <time>2020-06-11T08:57:00Z</time>
      </trkpt>
      <trkpt lat="44.36718" lon="6.05725">
        <ele>788</ele>
        <time>2020-06-11T08:57:04Z</time>
      </trkpt>
      <trkpt lat="44.36707" lon="6.05707">
        <ele>787</ele>
        <time>2020-06-11T08:57:06Z</time>
      </trkpt>
      <trkpt lat="44.36701" lon="6.05699">
        <ele>787</ele>
        <time>2020-06-11T08:57:07Z</time>
      </trkpt>
      <trkpt lat="44.36685" lon="6.05674">
        <ele>786</ele>
        <time>2020-06-11T08:57:10Z</time>
      </trkpt>
      <trkpt lat="44.36674" lon="6.05658">
        <ele>785</ele>
        <time>2020-06-11T08:57:12Z</time>
      </trkpt>
      <trkpt lat="44.36667" lon="6.05653">
        <ele>785</ele>
        <time>2020-06-11T08:57:13Z</time>
      </trkpt>
      <trkpt lat="44.3666" lon="6.0565">
        <ele>784</ele>
        <time>2020-06-11T08:57:14Z</time>
      </trkpt>
      <trkpt lat="44.36645" lon="6.05643">
        <ele>784</ele>
        <time>2020-06-11T08:57:16Z</time>
      </trkpt>
      <trkpt lat="44.36639" lon="6.05637">
        <ele>783</ele>
        <time>2020-06-11T08:57:17Z</time>
      </trkpt>
      <trkpt lat="44.36634" lon="6.0563">
        <ele>783</ele>
        <time>2020-06-11T08:57:18Z</time>
      </trkpt>
      <trkpt lat="44.36629" lon="6.05622">
        <ele>782</ele>
        <time>2020-06-11T08:57:19Z</time>
      </trkpt>
      <trkpt lat="44.36625" lon="6.05613">
        <ele>782</ele>
        <time>2020-06-11T08:57:20Z</time>
      </trkpt>
      <trkpt lat="44.36619" lon="6.05597">
        <ele>781</ele>
        <time>2020-06-11T08:57:22Z</time>
      </trkpt>
      <trkpt lat="44.36615" lon="6.0559">
        <ele>781</ele>
        <time>2020-06-11T08:57:23Z</time>
      </trkpt>
      <trkpt lat="44.36612" lon="6.05584">
        <ele>780</ele>
        <time>2020-06-11T08:57:24Z</time>
      </trkpt>
      <trkpt lat="44.36606" lon="6.05576">
        <ele>779</ele>
        <time>2020-06-11T08:57:26Z</time>
      </trkpt>
      <trkpt lat="44.36604" lon="6.05574">
        <ele>778</ele>
        <time>2020-06-11T08:57:27Z</time>
      </trkpt>
      <trkpt lat="44.366" lon="6.05573">
        <ele>778</ele>
        <time>2020-06-11T08:57:29Z</time>
      </trkpt>
      <trkpt lat="44.36592" lon="6.05571">
        <ele>777</ele>
        <time>2020-06-11T08:57:33Z</time>
      </trkpt>
      <trkpt lat="44.36574" lon="6.05561">
        <ele>777</ele>
        <time>2020-06-11T08:57:37Z</time>
      </trkpt>
      <trkpt lat="44.36569" lon="6.05559">
        <ele>777</ele>
        <time>2020-06-11T08:57:38Z</time>
      </trkpt>
      <trkpt lat="44.36548" lon="6.05553">
        <ele>777</ele>
        <time>2020-06-11T08:57:42Z</time>
      </trkpt>
      <trkpt lat="44.3653" lon="6.05543">
        <ele>777</ele>
        <time>2020-06-11T08:57:46Z</time>
      </trkpt>
      <trkpt lat="44.36527" lon="6.0554">
        <ele>776</ele>
        <time>2020-06-11T08:57:47Z</time>
      </trkpt>
      <trkpt lat="44.36519" lon="6.05532">
        <ele>776</ele>
        <time>2020-06-11T08:57:50Z</time>
      </trkpt>
      <trkpt lat="44.365" lon="6.05509">
        <ele>776</ele>
        <time>2020-06-11T08:57:56Z</time>
      </trkpt>
      <trkpt lat="44.3648" lon="6.05483">
        <ele>776</ele>
        <time>2020-06-11T08:58:02Z</time>
      </trkpt>
      <trkpt lat="44.36477" lon="6.05479">
        <ele>776</ele>
        <time>2020-06-11T08:58:03Z</time>
      </trkpt>
      <trkpt lat="44.3647" lon="6.05466">
        <ele>776</ele>
        <time>2020-06-11T08:58:06Z</time>
      </trkpt>
      <trkpt lat="44.36466" lon="6.05458">
        <ele>776</ele>
        <time>2020-06-11T08:58:08Z</time>
      </trkpt>
      <trkpt lat="44.3646" lon="6.05453">
        <ele>776</ele>
        <time>2020-06-11T08:58:10Z</time>
      </trkpt>
      <trkpt lat="44.36446" lon="6.05454">
        <ele>777</ele>
        <time>2020-06-11T08:58:15Z</time>
      </trkpt>
      <trkpt lat="44.36433" lon="6.05463">
        <ele>777</ele>
        <time>2020-06-11T08:58:19Z</time>
      </trkpt>
      <trkpt lat="44.36424" lon="6.05469">
        <ele>777</ele>
        <time>2020-06-11T08:58:21Z</time>
      </trkpt>
      <trkpt lat="44.36415" lon="6.05474">
        <ele>776</ele>
        <time>2020-06-11T08:58:23Z</time>
      </trkpt>
      <trkpt lat="44.3641" lon="6.05475">
        <ele>776</ele>
        <time>2020-06-11T08:58:24Z</time>
      </trkpt>
      <trkpt lat="44.36405" lon="6.05474">
        <ele>776</ele>
        <time>2020-06-11T08:58:25Z</time>
      </trkpt>
      <trkpt lat="44.364" lon="6.05469">
        <ele>776</ele>
        <time>2020-06-11T08:58:26Z</time>
      </trkpt>
      <trkpt lat="44.36397" lon="6.05462">
        <ele>776</ele>
        <time>2020-06-11T08:58:27Z</time>
      </trkpt>
      <trkpt lat="44.36394" lon="6.05454">
        <ele>775</ele>
        <time>2020-06-11T08:58:28Z</time>
      </trkpt>
      <trkpt lat="44.36393" lon="6.05446">
        <ele>775</ele>
        <time>2020-06-11T08:58:29Z</time>
      </trkpt>
      <trkpt lat="44.36392" lon="6.05431">
        <ele>775</ele>
        <time>2020-06-11T08:58:31Z</time>
      </trkpt>
      <trkpt lat="44.36393" lon="6.05416">
        <ele>774</ele>
        <time>2020-06-11T08:58:33Z</time>
      </trkpt>
      <trkpt lat="44.36393" lon="6.05408">
        <ele>774</ele>
        <time>2020-06-11T08:58:34Z</time>
      </trkpt>
      <trkpt lat="44.36388" lon="6.05395">
        <ele>773</ele>
        <time>2020-06-11T08:58:36Z</time>
      </trkpt>
      <trkpt lat="44.36384" lon="6.05392">
        <ele>773</ele>
        <time>2020-06-11T08:58:37Z</time>
      </trkpt>
      <trkpt lat="44.36375" lon="6.05387">
        <ele>772</ele>
        <time>2020-06-11T08:58:39Z</time>
      </trkpt>
      <trkpt lat="44.36366" lon="6.05379">
        <ele>772</ele>
        <time>2020-06-11T08:58:41Z</time>
      </trkpt>
      <trkpt lat="44.36354" lon="6.05362">
        <ele>771</ele>
        <time>2020-06-11T08:58:44Z</time>
      </trkpt>
      <trkpt lat="44.36345" lon="6.0535">
        <ele>771</ele>
        <time>2020-06-11T08:58:46Z</time>
      </trkpt>
      <trkpt lat="44.3634" lon="6.05346">
        <ele>771</ele>
        <time>2020-06-11T08:58:47Z</time>
      </trkpt>
      <trkpt lat="44.36334" lon="6.05344">
        <ele>770</ele>
        <time>2020-06-11T08:58:48Z</time>
      </trkpt>
      <trkpt lat="44.36323" lon="6.05341">
        <ele>769</ele>
        <time>2020-06-11T08:58:50Z</time>
      </trkpt>
      <trkpt lat="44.36313" lon="6.05339">
        <ele>769</ele>
        <time>2020-06-11T08:58:52Z</time>
      </trkpt>
      <trkpt lat="44.36304" lon="6.05338">
        <ele>769</ele>
        <time>2020-06-11T08:58:54Z</time>
      </trkpt>
      <trkpt lat="44.36297" lon="6.05339">
        <ele>768</ele>
        <time>2020-06-11T08:58:56Z</time>
      </trkpt>
      <trkpt lat="44.36281" lon="6.05342">
        <ele>768</ele>
        <time>2020-06-11T08:59:01Z</time>
      </trkpt>
      <trkpt lat="44.36265" lon="6.05347">
        <ele>768</ele>
        <time>2020-06-11T08:59:05Z</time>
      </trkpt>
      <trkpt lat="44.36256" lon="6.05348">
        <ele>768</ele>
        <time>2020-06-11T08:59:07Z</time>
      </trkpt>
      <trkpt lat="44.36235" lon="6.05349">
        <ele>768</ele>
        <time>2020-06-11T08:59:11Z</time>
      </trkpt>
      <trkpt lat="44.3623" lon="6.0535">
        <ele>768</ele>
        <time>2020-06-11T08:59:12Z</time>
      </trkpt>
      <trkpt lat="44.36219" lon="6.05351">
        <ele>768</ele>
        <time>2020-06-11T08:59:14Z</time>
      </trkpt>
      <trkpt lat="44.36201" lon="6.05349">
        <ele>768</ele>
        <time>2020-06-11T08:59:17Z</time>
      </trkpt>
      <trkpt lat="44.36195" lon="6.05349">
        <ele>767</ele>
        <time>2020-06-11T08:59:18Z</time>
      </trkpt>
      <trkpt lat="44.36183" lon="6.0535">
        <ele>767</ele>
        <time>2020-06-11T08:59:20Z</time>
      </trkpt>
      <trkpt lat="44.36171" lon="6.0535">
        <ele>767</ele>
        <time>2020-06-11T08:59:22Z</time>
      </trkpt>
      <trkpt lat="44.36157" lon="6.05349">
        <ele>766</ele>
        <time>2020-06-11T08:59:25Z</time>
      </trkpt>
      <trkpt lat="44.36155" lon="6.05349">
        <ele>766</ele>
        <time>2020-06-11T08:59:26Z</time>
      </trkpt>
      <trkpt lat="44.36154" lon="6.0535">
        <ele>766</ele>
        <time>2020-06-11T08:59:27Z</time>
      </trkpt>
      <trkpt lat="44.36151" lon="6.0536">
        <ele>765</ele>
        <time>2020-06-11T08:59:30Z</time>
      </trkpt>
      <trkpt lat="44.36142" lon="6.05373">
        <ele>765</ele>
        <time>2020-06-11T08:59:34Z</time>
      </trkpt>
      <trkpt lat="44.36132" lon="6.05367">
        <ele>765</ele>
        <time>2020-06-11T08:59:37Z</time>
      </trkpt>
      <trkpt lat="44.36119" lon="6.0536">
        <ele>764</ele>
        <time>2020-06-11T08:59:40Z</time>
      </trkpt>
      <trkpt lat="44.36115" lon="6.05361">
        <ele>764</ele>
        <time>2020-06-11T08:59:41Z</time>
      </trkpt>
      <trkpt lat="44.36111" lon="6.05364">
        <ele>764</ele>
        <time>2020-06-11T08:59:42Z</time>
      </trkpt>
      <trkpt lat="44.36105" lon="6.05373">
        <ele>764</ele>
        <time>2020-06-11T08:59:44Z</time>
      </trkpt>
      <trkpt lat="44.36102" lon="6.05377">
        <ele>764</ele>
        <time>2020-06-11T08:59:45Z</time>
      </trkpt>
      <trkpt lat="44.36094" lon="6.05386">
        <ele>764</ele>
        <time>2020-06-11T08:59:47Z</time>
      </trkpt>
      <trkpt lat="44.36086" lon="6.05393">
        <ele>764</ele>
        <time>2020-06-11T08:59:49Z</time>
      </trkpt>
      <trkpt lat="44.36077" lon="6.05395">
        <ele>764</ele>
        <time>2020-06-11T08:59:51Z</time>
      </trkpt>
      <trkpt lat="44.36072" lon="6.05394">
        <ele>764</ele>
        <time>2020-06-11T08:59:52Z</time>
      </trkpt>
      <trkpt lat="44.36068" lon="6.05394">
        <ele>764</ele>
        <time>2020-06-11T08:59:53Z</time>
      </trkpt>
      <trkpt lat="44.36056" lon="6.05396">
        <ele>764</ele>
        <time>2020-06-11T08:59:56Z</time>
      </trkpt>
      <trkpt lat="44.36044" lon="6.05396">
        <ele>765</ele>
        <time>2020-06-11T09:00:00Z</time>
      </trkpt>
      <trkpt lat="44.36031" lon="6.0539">
        <ele>766</ele>
        <time>2020-06-11T09:00:04Z</time>
      </trkpt>
      <trkpt lat="44.36027" lon="6.05388">
        <ele>766</ele>
        <time>2020-06-11T09:00:05Z</time>
      </trkpt>
      <trkpt lat="44.36016" lon="6.05383">
        <ele>766</ele>
        <time>2020-06-11T09:00:08Z</time>
      </trkpt>
      <trkpt lat="44.36009" lon="6.05376">
        <ele>766</ele>
        <time>2020-06-11T09:00:10Z</time>
      </trkpt>
      <trkpt lat="44.35992" lon="6.05357">
        <ele>766</ele>
        <time>2020-06-11T09:00:15Z</time>
      </trkpt>
      <trkpt lat="44.35976" lon="6.05339">
        <ele>766</ele>
        <time>2020-06-11T09:00:21Z</time>
      </trkpt>
      <trkpt lat="44.35964" lon="6.05325">
        <ele>766</ele>
        <time>2020-06-11T09:00:24Z</time>
      </trkpt>
      <trkpt lat="44.35956" lon="6.05319">
        <ele>766</ele>
        <time>2020-06-11T09:00:26Z</time>
      </trkpt>
      <trkpt lat="44.35943" lon="6.05299">
        <ele>767</ele>
        <time>2020-06-11T09:02:04Z</time>
      </trkpt>
      <trkpt lat="44.35942" lon="6.05295">
        <ele>767</ele>
        <time>2020-06-11T09:02:05Z</time>
      </trkpt>
      <trkpt lat="44.35939" lon="6.05287">
        <ele>766</ele>
        <time>2020-06-11T09:02:07Z</time>
      </trkpt>
      <trkpt lat="44.35931" lon="6.05267">
        <ele>764</ele>
        <time>2020-06-11T09:02:10Z</time>
      </trkpt>
      <trkpt lat="44.35922" lon="6.05255">
        <ele>763</ele>
        <time>2020-06-11T09:02:12Z</time>
      </trkpt>
      <trkpt lat="44.35916" lon="6.0525">
        <ele>763</ele>
        <time>2020-06-11T09:02:13Z</time>
      </trkpt>
      <trkpt lat="44.35904" lon="6.0524">
        <ele>761</ele>
        <time>2020-06-11T09:02:15Z</time>
      </trkpt>
      <trkpt lat="44.35892" lon="6.05229">
        <ele>760</ele>
        <time>2020-06-11T09:02:17Z</time>
      </trkpt>
      <trkpt lat="44.35886" lon="6.05223">
        <ele>760</ele>
        <time>2020-06-11T09:02:18Z</time>
      </trkpt>
      <trkpt lat="44.35876" lon="6.05213">
        <ele>759</ele>
        <time>2020-06-11T09:02:20Z</time>
      </trkpt>
      <trkpt lat="44.35857" lon="6.05195">
        <ele>758</ele>
        <time>2020-06-11T09:02:24Z</time>
      </trkpt>
      <trkpt lat="44.35845" lon="6.05172">
        <ele>758</ele>
        <time>2020-06-11T09:02:28Z</time>
      </trkpt>
      <trkpt lat="44.35838" lon="6.05157">
        <ele>758</ele>
        <time>2020-06-11T09:02:31Z</time>
      </trkpt>
      <trkpt lat="44.35829" lon="6.05133">
        <ele>757</ele>
        <time>2020-06-11T09:02:35Z</time>
      </trkpt>
      <trkpt lat="44.35826" lon="6.05127">
        <ele>757</ele>
        <time>2020-06-11T09:02:36Z</time>
      </trkpt>
      <trkpt lat="44.35817" lon="6.05113">
        <ele>757</ele>
        <time>2020-06-11T09:02:39Z</time>
      </trkpt>
      <trkpt lat="44.35813" lon="6.05109">
        <ele>757</ele>
        <time>2020-06-11T09:02:40Z</time>
      </trkpt>
      <trkpt lat="44.3581" lon="6.05105">
        <ele>757</ele>
        <time>2020-06-11T09:02:41Z</time>
      </trkpt>
      <trkpt lat="44.35808" lon="6.05097">
        <ele>756</ele>
        <time>2020-06-11T09:02:43Z</time>
      </trkpt>
      <trkpt lat="44.35809" lon="6.05092">
        <ele>756</ele>
        <time>2020-06-11T09:02:44Z</time>
      </trkpt>
      <trkpt lat="44.35813" lon="6.05081">
        <ele>755</ele>
        <time>2020-06-11T09:02:47Z</time>
      </trkpt>
      <trkpt lat="44.35814" lon="6.05072">
        <ele>755</ele>
        <time>2020-06-11T09:02:50Z</time>
      </trkpt>
      <trkpt lat="44.35812" lon="6.05066">
        <ele>754</ele>
        <time>2020-06-11T09:02:52Z</time>
      </trkpt>
      <trkpt lat="44.35806" lon="6.05057">
        <ele>754</ele>
        <time>2020-06-11T09:02:58Z</time>
      </trkpt>
      <trkpt lat="44.35805" lon="6.05055">
        <ele>754</ele>
        <time>2020-06-11T09:03:01Z</time>
      </trkpt>
      <trkpt lat="44.35805" lon="6.05053">
        <ele>753</ele>
        <time>2020-06-11T09:03:03Z</time>
      </trkpt>
      <trkpt lat="44.35803" lon="6.05046">
        <ele>753</ele>
        <time>2020-06-11T09:03:10Z</time>
      </trkpt>
      <trkpt lat="44.35801" lon="6.05035">
        <ele>754</ele>
        <time>2020-06-11T09:03:16Z</time>
      </trkpt>
      <trkpt lat="44.35798" lon="6.0503">
        <ele>754</ele>
        <time>2020-06-11T09:03:20Z</time>
      </trkpt>
      <trkpt lat="44.35796" lon="6.0503">
        <ele>754</ele>
        <time>2020-06-11T09:03:21Z</time>
      </trkpt>
      <trkpt lat="44.35781" lon="6.05024">
        <ele>754</ele>
        <time>2020-06-11T09:03:26Z</time>
      </trkpt>
      <trkpt lat="44.35759" lon="6.05012">
        <ele>755</ele>
        <time>2020-06-11T09:03:31Z</time>
      </trkpt>
      <trkpt lat="44.35755" lon="6.05008">
        <ele>755</ele>
        <time>2020-06-11T09:03:32Z</time>
      </trkpt>
      <trkpt lat="44.35735" lon="6.0499">
        <ele>754</ele>
        <time>2020-06-11T09:03:37Z</time>
      </trkpt>
      <trkpt lat="44.3573" lon="6.04986">
        <ele>754</ele>
        <time>2020-06-11T09:03:38Z</time>
      </trkpt>
      <trkpt lat="44.35702" lon="6.0496">
        <ele>754</ele>
        <time>2020-06-11T09:03:44Z</time>
      </trkpt>
      <trkpt lat="44.35678" lon="6.04937">
        <ele>753</ele>
        <time>2020-06-11T09:03:49Z</time>
      </trkpt>
      <trkpt lat="44.35674" lon="6.04932">
        <ele>753</ele>
        <time>2020-06-11T09:03:50Z</time>
      </trkpt>
      <trkpt lat="44.35658" lon="6.04895">
        <ele>752</ele>
        <time>2020-06-11T09:03:55Z</time>
      </trkpt>
      <trkpt lat="44.35646" lon="6.04868">
        <ele>752</ele>
        <time>2020-06-11T09:03:59Z</time>
      </trkpt>
      <trkpt lat="44.35641" lon="6.04855">
        <ele>751</ele>
        <time>2020-06-11T09:04:01Z</time>
      </trkpt>
      <trkpt lat="44.35639" lon="6.04849">
        <ele>751</ele>
        <time>2020-06-11T09:04:02Z</time>
      </trkpt>
      <trkpt lat="44.35621" lon="6.04811">
        <ele>751</ele>
        <time>2020-06-11T09:04:09Z</time>
      </trkpt>
      <trkpt lat="44.35618" lon="6.04803">
        <ele>750</ele>
        <time>2020-06-11T09:04:11Z</time>
      </trkpt>
      <trkpt lat="44.35615" lon="6.04796">
        <ele>750</ele>
        <time>2020-06-11T09:04:13Z</time>
      </trkpt>
      <trkpt lat="44.35616" lon="6.04785">
        <ele>750</ele>
        <time>2020-06-11T09:04:17Z</time>
      </trkpt>
      <trkpt lat="44.35616" lon="6.04773">
        <ele>750</ele>
        <time>2020-06-11T09:04:20Z</time>
      </trkpt>
      <trkpt lat="44.35608" lon="6.04755">
        <ele>751</ele>
        <time>2020-06-11T09:04:25Z</time>
      </trkpt>
      <trkpt lat="44.35607" lon="6.04744">
        <ele>751</ele>
        <time>2020-06-11T09:04:27Z</time>
      </trkpt>
      <trkpt lat="44.35607" lon="6.04731">
        <ele>751</ele>
        <time>2020-06-11T09:04:29Z</time>
      </trkpt>
      <trkpt lat="44.356" lon="6.04685">
        <ele>751</ele>
        <time>2020-06-11T09:04:35Z</time>
      </trkpt>
      <trkpt lat="44.35588" lon="6.04629">
        <ele>751</ele>
        <time>2020-06-11T09:04:42Z</time>
      </trkpt>
      <trkpt lat="44.35578" lon="6.04595">
        <ele>751</ele>
        <time>2020-06-11T09:04:47Z</time>
      </trkpt>
      <trkpt lat="44.35575" lon="6.0459">
        <ele>751</ele>
        <time>2020-06-11T09:04:48Z</time>
      </trkpt>
      <trkpt lat="44.35563" lon="6.0457">
        <ele>752</ele>
        <time>2020-06-11T09:04:52Z</time>
      </trkpt>
      <trkpt lat="44.35557" lon="6.04561">
        <ele>752</ele>
        <time>2020-06-11T09:04:54Z</time>
      </trkpt>
      <trkpt lat="44.35546" lon="6.04545">
        <ele>753</ele>
        <time>2020-06-11T09:04:58Z</time>
      </trkpt>
      <trkpt lat="44.35538" lon="6.04534">
        <ele>753</ele>
        <time>2020-06-11T09:05:01Z</time>
      </trkpt>
      <trkpt lat="44.35528" lon="6.04517">
        <ele>754</ele>
        <time>2020-06-11T09:05:05Z</time>
      </trkpt>
      <trkpt lat="44.35523" lon="6.04509">
        <ele>754</ele>
        <time>2020-06-11T09:05:07Z</time>
      </trkpt>
      <trkpt lat="44.3552" lon="6.04506">
        <ele>754</ele>
        <time>2020-06-11T09:05:08Z</time>
      </trkpt>
      <trkpt lat="44.35512" lon="6.04498">
        <ele>755</ele>
        <time>2020-06-11T09:05:11Z</time>
      </trkpt>
      <trkpt lat="44.35506" lon="6.04491">
        <ele>756</ele>
        <time>2020-06-11T09:05:13Z</time>
      </trkpt>
      <trkpt lat="44.35502" lon="6.04483">
        <ele>756</ele>
        <time>2020-06-11T09:05:15Z</time>
      </trkpt>
      <trkpt lat="44.35498" lon="6.04464">
        <ele>757</ele>
        <time>2020-06-11T09:05:19Z</time>
      </trkpt>
      <trkpt lat="44.355" lon="6.04455">
        <ele>757</ele>
        <time>2020-06-11T09:05:21Z</time>
      </trkpt>
      <trkpt lat="44.35502" lon="6.04439">
        <ele>758</ele>
        <time>2020-06-11T09:05:24Z</time>
      </trkpt>
      <trkpt lat="44.35497" lon="6.04424">
        <ele>758</ele>
        <time>2020-06-11T09:05:27Z</time>
      </trkpt>
      <trkpt lat="44.35495" lon="6.04419">
        <ele>758</ele>
        <time>2020-06-11T09:05:28Z</time>
      </trkpt>
      <trkpt lat="44.35483" lon="6.04394">
        <ele>759</ele>
        <time>2020-06-11T09:05:34Z</time>
      </trkpt>
      <trkpt lat="44.35471" lon="6.04383">
        <ele>759</ele>
        <time>2020-06-11T09:05:38Z</time>
      </trkpt>
      <trkpt lat="44.35467" lon="6.04383">
        <ele>759</ele>
        <time>2020-06-11T09:05:39Z</time>
      </trkpt>
      <trkpt lat="44.35455" lon="6.04389">
        <ele>758</ele>
        <time>2020-06-11T09:05:42Z</time>
      </trkpt>
      <trkpt lat="44.35451" lon="6.04391">
        <ele>758</ele>
        <time>2020-06-11T09:05:43Z</time>
      </trkpt>
      <trkpt lat="44.35438" lon="6.04401">
        <ele>757</ele>
        <time>2020-06-11T09:05:46Z</time>
      </trkpt>
      <trkpt lat="44.35433" lon="6.04405">
        <ele>757</ele>
        <time>2020-06-11T09:05:47Z</time>
      </trkpt>
      <trkpt lat="44.35422" lon="6.04413">
        <ele>757</ele>
        <time>2020-06-11T09:05:49Z</time>
      </trkpt>
      <trkpt lat="44.3541" lon="6.04418">
        <ele>756</ele>
        <time>2020-06-11T09:05:51Z</time>
      </trkpt>
      <trkpt lat="44.35404" lon="6.0442">
        <ele>756</ele>
        <time>2020-06-11T09:05:52Z</time>
      </trkpt>
      <trkpt lat="44.35376" lon="6.04425">
        <ele>755</ele>
        <time>2020-06-11T09:05:56Z</time>
      </trkpt>
      <trkpt lat="44.35369" lon="6.04423">
        <ele>755</ele>
        <time>2020-06-11T09:05:57Z</time>
      </trkpt>
      <trkpt lat="44.35362" lon="6.0442">
        <ele>754</ele>
        <time>2020-06-11T09:05:58Z</time>
      </trkpt>
      <trkpt lat="44.3535" lon="6.04409">
        <ele>754</ele>
        <time>2020-06-11T09:06:00Z</time>
      </trkpt>
      <trkpt lat="44.35325" lon="6.04389">
        <ele>752</ele>
        <time>2020-06-11T09:06:04Z</time>
      </trkpt>
      <trkpt lat="44.35306" lon="6.04377">
        <ele>752</ele>
        <time>2020-06-11T09:06:07Z</time>
      </trkpt>
      <trkpt lat="44.353" lon="6.04374">
        <ele>752</ele>
        <time>2020-06-11T09:06:08Z</time>
      </trkpt>
      <trkpt lat="44.35286" lon="6.04375">
        <ele>751</ele>
        <time>2020-06-11T09:06:10Z</time>
      </trkpt>
      <trkpt lat="44.35271" lon="6.04376">
        <ele>750</ele>
        <time>2020-06-11T09:06:12Z</time>
      </trkpt>
      <trkpt lat="44.35252" lon="6.04375">
        <ele>748</ele>
        <time>2020-06-11T09:06:15Z</time>
      </trkpt>
      <trkpt lat="44.35245" lon="6.04374">
        <ele>747</ele>
        <time>2020-06-11T09:06:17Z</time>
      </trkpt>
      <trkpt lat="44.35244" lon="6.04374">
        <ele>746</ele>
        <time>2020-06-11T09:06:18Z</time>
      </trkpt>
      <trkpt lat="44.35243" lon="6.04374">
        <ele>746</ele>
        <time>2020-06-11T09:06:19Z</time>
      </trkpt>
      <trkpt lat="44.35241" lon="6.04373">
        <ele>744</ele>
        <time>2020-06-11T09:06:22Z</time>
      </trkpt>
      <trkpt lat="44.35241" lon="6.04374">
        <ele>744</ele>
        <time>2020-06-11T09:06:24Z</time>
      </trkpt>
      <trkpt lat="44.35242" lon="6.04373">
        <ele>744</ele>
        <time>2020-06-11T09:06:34Z</time>
      </trkpt>
      <trkpt lat="44.35242" lon="6.04374">
        <ele>745</ele>
        <time>2020-06-11T09:06:45Z</time>
      </trkpt>
      <trkpt lat="44.3524" lon="6.04372">
        <ele>745</ele>
        <time>2020-06-11T09:06:52Z</time>
      </trkpt>
      <trkpt lat="44.35239" lon="6.04371">
        <ele>745</ele>
        <time>2020-06-11T09:06:53Z</time>
      </trkpt>
      <trkpt lat="44.35231" lon="6.04353">
        <ele>745</ele>
        <time>2020-06-11T09:06:59Z</time>
      </trkpt>
      <trkpt lat="44.35222" lon="6.04331">
        <ele>745</ele>
        <time>2020-06-11T09:07:05Z</time>
      </trkpt>
      <trkpt lat="44.35215" lon="6.04321">
        <ele>745</ele>
        <time>2020-06-11T09:07:08Z</time>
      </trkpt>
      <trkpt lat="44.35212" lon="6.04319">
        <ele>745</ele>
        <time>2020-06-11T09:07:09Z</time>
      </trkpt>
      <trkpt lat="44.35205" lon="6.04307">
        <ele>745</ele>
        <time>2020-06-11T09:07:12Z</time>
      </trkpt>
      <trkpt lat="44.35199" lon="6.04294">
        <ele>745</ele>
        <time>2020-06-11T09:07:15Z</time>
      </trkpt>
      <trkpt lat="44.35192" lon="6.04279">
        <ele>745</ele>
        <time>2020-06-11T09:07:19Z</time>
      </trkpt>
      <trkpt lat="44.35179" lon="6.04247">
        <ele>744</ele>
        <time>2020-06-11T09:07:28Z</time>
      </trkpt>
      <trkpt lat="44.3517" lon="6.04235">
        <ele>743</ele>
        <time>2020-06-11T09:07:33Z</time>
      </trkpt>
      <trkpt lat="44.35168" lon="6.04235">
        <ele>743</ele>
        <time>2020-06-11T09:07:34Z</time>
      </trkpt>
      <trkpt lat="44.35165" lon="6.04239">
        <ele>743</ele>
        <time>2020-06-11T09:07:36Z</time>
      </trkpt>
      <trkpt lat="44.35164" lon="6.04242">
        <ele>743</ele>
        <time>2020-06-11T09:07:37Z</time>
      </trkpt>
      <trkpt lat="44.3516" lon="6.04258">
        <ele>742</ele>
        <time>2020-06-11T09:07:42Z</time>
      </trkpt>
      <trkpt lat="44.35157" lon="6.0426">
        <ele>742</ele>
        <time>2020-06-11T09:07:43Z</time>
      </trkpt>
      <trkpt lat="44.35155" lon="6.04263">
        <ele>742</ele>
        <time>2020-06-11T09:07:44Z</time>
      </trkpt>
      <trkpt lat="44.35141" lon="6.04281">
        <ele>741</ele>
        <time>2020-06-11T09:07:48Z</time>
      </trkpt>
      <trkpt lat="44.35125" lon="6.043">
        <ele>740</ele>
        <time>2020-06-11T09:07:51Z</time>
      </trkpt>
      <trkpt lat="44.35116" lon="6.04312">
        <ele>739</ele>
        <time>2020-06-11T09:07:53Z</time>
      </trkpt>
      <trkpt lat="44.35111" lon="6.04316">
        <ele>739</ele>
        <time>2020-06-11T09:07:54Z</time>
      </trkpt>
      <trkpt lat="44.35107" lon="6.04317">
        <ele>739</ele>
        <time>2020-06-11T09:07:55Z</time>
      </trkpt>
      <trkpt lat="44.35103" lon="6.04315">
        <ele>738</ele>
        <time>2020-06-11T09:07:56Z</time>
      </trkpt>
      <trkpt lat="44.35096" lon="6.0431">
        <ele>738</ele>
        <time>2020-06-11T09:07:58Z</time>
      </trkpt>
      <trkpt lat="44.35091" lon="6.04304">
        <ele>737</ele>
        <time>2020-06-11T09:08:01Z</time>
      </trkpt>
      <trkpt lat="44.35089" lon="6.04302">
        <ele>737</ele>
        <time>2020-06-11T09:08:02Z</time>
      </trkpt>
      <trkpt lat="44.35083" lon="6.04288">
        <ele>737</ele>
        <time>2020-06-11T09:08:06Z</time>
      </trkpt>
      <trkpt lat="44.35081" lon="6.04286">
        <ele>737</ele>
        <time>2020-06-11T09:08:07Z</time>
      </trkpt>
      <trkpt lat="44.35078" lon="6.04291">
        <ele>737</ele>
        <time>2020-06-11T09:08:09Z</time>
      </trkpt>
      <trkpt lat="44.35073" lon="6.04305">
        <ele>738</ele>
        <time>2020-06-11T09:08:12Z</time>
      </trkpt>
      <trkpt lat="44.35065" lon="6.04318">
        <ele>738</ele>
        <time>2020-06-11T09:08:15Z</time>
      </trkpt>
      <trkpt lat="44.35058" lon="6.04314">
        <ele>738</ele>
        <time>2020-06-11T09:08:17Z</time>
      </trkpt>
      <trkpt lat="44.35055" lon="6.04308">
        <ele>738</ele>
        <time>2020-06-11T09:08:18Z</time>
      </trkpt>
      <trkpt lat="44.35054" lon="6.04301">
        <ele>738</ele>
        <time>2020-06-11T09:08:19Z</time>
      </trkpt>
      <trkpt lat="44.3505" lon="6.04288">
        <ele>738</ele>
        <time>2020-06-11T09:08:21Z</time>
      </trkpt>
      <trkpt lat="44.35047" lon="6.04283">
        <ele>738</ele>
        <time>2020-06-11T09:08:22Z</time>
      </trkpt>
      <trkpt lat="44.35039" lon="6.04279">
        <ele>738</ele>
        <time>2020-06-11T09:08:24Z</time>
      </trkpt>
      <trkpt lat="44.35029" lon="6.04277">
        <ele>737</ele>
        <time>2020-06-11T09:08:26Z</time>
      </trkpt>
      <trkpt lat="44.35019" lon="6.04274">
        <ele>737</ele>
        <time>2020-06-11T09:08:28Z</time>
      </trkpt>
      <trkpt lat="44.35005" lon="6.04268">
        <ele>738</ele>
        <time>2020-06-11T09:08:31Z</time>
      </trkpt>
      <trkpt lat="44.34992" lon="6.04253">
        <ele>738</ele>
        <time>2020-06-11T09:08:35Z</time>
      </trkpt>
      <trkpt lat="44.34977" lon="6.04237">
        <ele>739</ele>
        <time>2020-06-11T09:08:39Z</time>
      </trkpt>
      <trkpt lat="44.34966" lon="6.04224">
        <ele>739</ele>
        <time>2020-06-11T09:08:42Z</time>
      </trkpt>
      <trkpt lat="44.34945" lon="6.04204">
        <ele>738</ele>
        <time>2020-06-11T09:08:47Z</time>
      </trkpt>
      <trkpt lat="44.34941" lon="6.042">
        <ele>738</ele>
        <time>2020-06-11T09:08:48Z</time>
      </trkpt>
      <trkpt lat="44.34929" lon="6.04182">
        <ele>738</ele>
        <time>2020-06-11T09:08:52Z</time>
      </trkpt>
      <trkpt lat="44.34924" lon="6.04171">
        <ele>738</ele>
        <time>2020-06-11T09:08:54Z</time>
      </trkpt>
      <trkpt lat="44.34905" lon="6.04121">
        <ele>738</ele>
        <time>2020-06-11T09:09:01Z</time>
      </trkpt>
      <trkpt lat="44.34895" lon="6.04097">
        <ele>738</ele>
        <time>2020-06-11T09:09:04Z</time>
      </trkpt>
      <trkpt lat="44.34886" lon="6.04082">
        <ele>737</ele>
        <time>2020-06-11T09:09:06Z</time>
      </trkpt>
      <trkpt lat="44.34882" lon="6.04075">
        <ele>737</ele>
        <time>2020-06-11T09:09:07Z</time>
      </trkpt>
      <trkpt lat="44.34877" lon="6.04068">
        <ele>736</ele>
        <time>2020-06-11T09:09:08Z</time>
      </trkpt>
      <trkpt lat="44.34868" lon="6.04053">
        <ele>735</ele>
        <time>2020-06-11T09:09:10Z</time>
      </trkpt>
      <trkpt lat="44.34859" lon="6.04036">
        <ele>734</ele>
        <time>2020-06-11T09:09:12Z</time>
      </trkpt>
      <trkpt lat="44.34849" lon="6.0402">
        <ele>733</ele>
        <time>2020-06-11T09:09:14Z</time>
      </trkpt>
      <trkpt lat="44.34836" lon="6.03995">
        <ele>732</ele>
        <time>2020-06-11T09:09:17Z</time>
      </trkpt>
      <trkpt lat="44.34823" lon="6.03983">
        <ele>732</ele>
        <time>2020-06-11T09:09:19Z</time>
      </trkpt>
      <trkpt lat="44.34809" lon="6.03973">
        <ele>731</ele>
        <time>2020-06-11T09:09:21Z</time>
      </trkpt>
      <trkpt lat="44.34796" lon="6.03962">
        <ele>731</ele>
        <time>2020-06-11T09:09:23Z</time>
      </trkpt>
      <trkpt lat="44.3478" lon="6.03949">
        <ele>730</ele>
        <time>2020-06-11T09:09:26Z</time>
      </trkpt>
      <trkpt lat="44.3477" lon="6.03939">
        <ele>730</ele>
        <time>2020-06-11T09:09:28Z</time>
      </trkpt>
      <trkpt lat="44.34755" lon="6.03923">
        <ele>729</ele>
        <time>2020-06-11T09:09:31Z</time>
      </trkpt>
      <trkpt lat="44.34745" lon="6.03915">
        <ele>729</ele>
        <time>2020-06-11T09:09:33Z</time>
      </trkpt>
      <trkpt lat="44.34736" lon="6.03905">
        <ele>729</ele>
        <time>2020-06-11T09:09:35Z</time>
      </trkpt>
      <trkpt lat="44.34727" lon="6.03892">
        <ele>728</ele>
        <time>2020-06-11T09:09:38Z</time>
      </trkpt>
      <trkpt lat="44.34722" lon="6.03879">
        <ele>728</ele>
        <time>2020-06-11T09:09:40Z</time>
      </trkpt>
      <trkpt lat="44.34713" lon="6.03861">
        <ele>728</ele>
        <time>2020-06-11T09:09:43Z</time>
      </trkpt>
      <trkpt lat="44.34703" lon="6.03846">
        <ele>728</ele>
        <time>2020-06-11T09:09:46Z</time>
      </trkpt>
      <trkpt lat="44.34701" lon="6.03844">
        <ele>727</ele>
        <time>2020-06-11T09:09:47Z</time>
      </trkpt>
      <trkpt lat="44.34695" lon="6.03836">
        <ele>727</ele>
        <time>2020-06-11T09:09:51Z</time>
      </trkpt>
      <trkpt lat="44.3469" lon="6.0383">
        <ele>726</ele>
        <time>2020-06-11T09:09:53Z</time>
      </trkpt>
      <trkpt lat="44.3468" lon="6.0382">
        <ele>726</ele>
        <time>2020-06-11T09:09:56Z</time>
      </trkpt>
      <trkpt lat="44.34656" lon="6.03797">
        <ele>727</ele>
        <time>2020-06-11T09:10:04Z</time>
      </trkpt>
      <trkpt lat="44.34647" lon="6.03787">
        <ele>727</ele>
        <time>2020-06-11T09:10:07Z</time>
      </trkpt>
      <trkpt lat="44.34643" lon="6.03783">
        <ele>728</ele>
        <time>2020-06-11T09:10:08Z</time>
      </trkpt>
      <trkpt lat="44.34633" lon="6.03771">
        <ele>728</ele>
        <time>2020-06-11T09:10:11Z</time>
      </trkpt>
      <trkpt lat="44.34626" lon="6.03762">
        <ele>729</ele>
        <time>2020-06-11T09:10:13Z</time>
      </trkpt>
      <trkpt lat="44.34618" lon="6.03748">
        <ele>729</ele>
        <time>2020-06-11T09:10:16Z</time>
      </trkpt>
      <trkpt lat="44.34616" lon="6.03742">
        <ele>729</ele>
        <time>2020-06-11T09:10:17Z</time>
      </trkpt>
      <trkpt lat="44.34606" lon="6.0371">
        <ele>728</ele>
        <time>2020-06-11T09:10:22Z</time>
      </trkpt>
      <trkpt lat="44.34605" lon="6.03703">
        <ele>728</ele>
        <time>2020-06-11T09:10:23Z</time>
      </trkpt>
      <trkpt lat="44.34606" lon="6.03697">
        <ele>728</ele>
        <time>2020-06-11T09:10:24Z</time>
      </trkpt>
      <trkpt lat="44.34608" lon="6.03693">
        <ele>727</ele>
        <time>2020-06-11T09:10:25Z</time>
      </trkpt>
      <trkpt lat="44.34609" lon="6.03691">
        <ele>727</ele>
        <time>2020-06-11T09:10:26Z</time>
      </trkpt>
      <trkpt lat="44.34611" lon="6.03689">
        <ele>726</ele>
        <time>2020-06-11T09:10:27Z</time>
      </trkpt>
      <trkpt lat="44.34612" lon="6.03688">
        <ele>726</ele>
        <time>2020-06-11T09:10:28Z</time>
      </trkpt>
      <trkpt lat="44.34613" lon="6.03687">
        <ele>725</ele>
        <time>2020-06-11T09:10:29Z</time>
      </trkpt>
      <trkpt lat="44.34613" lon="6.03686">
        <ele>725</ele>
        <time>2020-06-11T09:10:30Z</time>
      </trkpt>
      <trkpt lat="44.34613" lon="6.03684">
        <ele>724</ele>
        <time>2020-06-11T09:10:34Z</time>
      </trkpt>
      <trkpt lat="44.34612" lon="6.03684">
        <ele>724</ele>
        <time>2020-06-11T09:10:35Z</time>
      </trkpt>
      <trkpt lat="44.34616" lon="6.0368">
        <ele>725</ele>
        <time>2020-06-11T09:11:07Z</time>
      </trkpt>
      <trkpt lat="44.34617" lon="6.03679">
        <ele>724</ele>
        <time>2020-06-11T09:11:08Z</time>
      </trkpt>
      <trkpt lat="44.34616" lon="6.03677">
        <ele>724</ele>
        <time>2020-06-11T09:11:13Z</time>
      </trkpt>
      <trkpt lat="44.34617" lon="6.03676">
        <ele>724</ele>
        <time>2020-06-11T09:11:21Z</time>
      </trkpt>
      <trkpt lat="44.34616" lon="6.03675">
        <ele>724</ele>
        <time>2020-06-11T09:11:32Z</time>
      </trkpt>
      <trkpt lat="44.34618" lon="6.03677">
        <ele>724</ele>
        <time>2020-06-11T09:11:43Z</time>
      </trkpt>
      <trkpt lat="44.3462" lon="6.03673">
        <ele>724</ele>
        <time>2020-06-11T09:11:51Z</time>
      </trkpt>
      <trkpt lat="44.3462" lon="6.03673">
        <ele>724</ele>
        <time>2020-06-11T09:12:00Z</time>
      </trkpt>
      <trkpt lat="44.3462" lon="6.0367">
        <ele>724</ele>
        <time>2020-06-11T09:12:07Z</time>
      </trkpt>
      <trkpt lat="44.34625" lon="6.03658">
        <ele>724</ele>
        <time>2020-06-11T09:12:13Z</time>
      </trkpt>
      <trkpt lat="44.34632" lon="6.03639">
        <ele>724</ele>
        <time>2020-06-11T09:12:18Z</time>
      </trkpt>
      <trkpt lat="44.34631" lon="6.0362">
        <ele>723</ele>
        <time>2020-06-11T09:12:22Z</time>
      </trkpt>
      <trkpt lat="44.34629" lon="6.03611">
        <ele>723</ele>
        <time>2020-06-11T09:12:24Z</time>
      </trkpt>
      <trkpt lat="44.34627" lon="6.036">
        <ele>723</ele>
        <time>2020-06-11T09:12:27Z</time>
      </trkpt>
      <trkpt lat="44.34624" lon="6.03577">
        <ele>723</ele>
        <time>2020-06-11T09:12:32Z</time>
      </trkpt>
      <trkpt lat="44.34615" lon="6.03544">
        <ele>722</ele>
        <time>2020-06-11T09:12:38Z</time>
      </trkpt>
      <trkpt lat="44.34613" lon="6.03539">
        <ele>722</ele>
        <time>2020-06-11T09:12:39Z</time>
      </trkpt>
      <trkpt lat="44.34598" lon="6.03501">
        <ele>722</ele>
        <time>2020-06-11T09:12:45Z</time>
      </trkpt>
      <trkpt lat="44.34592" lon="6.03484">
        <ele>722</ele>
        <time>2020-06-11T09:12:48Z</time>
      </trkpt>
      <trkpt lat="44.34589" lon="6.03467">
        <ele>722</ele>
        <time>2020-06-11T09:12:51Z</time>
      </trkpt>
      <trkpt lat="44.34584" lon="6.03455">
        <ele>721</ele>
        <time>2020-06-11T09:12:53Z</time>
      </trkpt>
      <trkpt lat="44.3458" lon="6.03451">
        <ele>721</ele>
        <time>2020-06-11T09:12:54Z</time>
      </trkpt>
      <trkpt lat="44.34563" lon="6.03433">
        <ele>721</ele>
        <time>2020-06-11T09:12:58Z</time>
      </trkpt>
      <trkpt lat="44.34541" lon="6.0341">
        <ele>720</ele>
        <time>2020-06-11T09:13:03Z</time>
      </trkpt>
      <trkpt lat="44.34536" lon="6.03406">
        <ele>720</ele>
        <time>2020-06-11T09:13:04Z</time>
      </trkpt>
      <trkpt lat="44.3452" lon="6.03398">
        <ele>720</ele>
        <time>2020-06-11T09:13:07Z</time>
      </trkpt>
      <trkpt lat="44.34498" lon="6.03391">
        <ele>720</ele>
        <time>2020-06-11T09:13:11Z</time>
      </trkpt>
      <trkpt lat="44.34492" lon="6.0339">
        <ele>720</ele>
        <time>2020-06-11T09:13:12Z</time>
      </trkpt>
      <trkpt lat="44.34482" lon="6.03388">
        <ele>719</ele>
        <time>2020-06-11T09:13:14Z</time>
      </trkpt>
      <trkpt lat="44.34472" lon="6.0339">
        <ele>719</ele>
        <time>2020-06-11T09:13:16Z</time>
      </trkpt>
      <trkpt lat="44.34455" lon="6.03392">
        <ele>718</ele>
        <time>2020-06-11T09:13:20Z</time>
      </trkpt>
      <trkpt lat="44.34445" lon="6.03395">
        <ele>716</ele>
        <time>2020-06-11T09:13:24Z</time>
      </trkpt>
      <trkpt lat="44.34444" lon="6.03395">
        <ele>716</ele>
        <time>2020-06-11T09:13:30Z</time>
      </trkpt>
      <trkpt lat="44.34444" lon="6.03396">
        <ele>715</ele>
        <time>2020-06-11T09:13:39Z</time>
      </trkpt>
      <trkpt lat="44.34444" lon="6.03396">
        <ele>715</ele>
        <time>2020-06-11T09:13:40Z</time>
      </trkpt>
      <trkpt lat="44.34443" lon="6.03396">
        <ele>715</ele>
        <time>2020-06-11T09:13:52Z</time>
      </trkpt>
      <trkpt lat="44.34443" lon="6.03396">
        <ele>716</ele>
        <time>2020-06-11T09:14:23Z</time>
      </trkpt>
      <trkpt lat="44.34443" lon="6.03396">
        <ele>716</ele>
        <time>2020-06-11T09:14:25Z</time>
      </trkpt>
      <trkpt lat="44.34443" lon="6.03396">
        <ele>716</ele>
        <time>2020-06-11T09:14:29Z</time>
      </trkpt>
      <trkpt lat="44.34443" lon="6.03396">
        <ele>717</ele>
        <time>2020-06-11T09:15:03Z</time>
      </trkpt>
      <trkpt lat="44.34443" lon="6.03396">
        <ele>717</ele>
        <time>2020-06-11T09:15:33Z</time>
      </trkpt>
      <trkpt lat="44.34443" lon="6.03396">
        <ele>717</ele>
        <time>2020-06-11T09:16:15Z</time>
      </trkpt>
      <trkpt lat="44.34438" lon="6.03393">
        <ele>717</ele>
        <time>2020-06-11T09:16:20Z</time>
      </trkpt>
      <trkpt lat="44.34428" lon="6.03393">
        <ele>717</ele>
        <time>2020-06-11T09:16:27Z</time>
      </trkpt>
      <trkpt lat="44.34427" lon="6.03393">
        <ele>717</ele>
        <time>2020-06-11T09:16:28Z</time>
      </trkpt>
      <trkpt lat="44.3442" lon="6.0339">
        <ele>717</ele>
        <time>2020-06-11T09:16:32Z</time>
      </trkpt>
      <trkpt lat="44.34409" lon="6.03389">
        <ele>717</ele>
        <time>2020-06-11T09:16:35Z</time>
      </trkpt>
      <trkpt lat="44.34405" lon="6.03387">
        <ele>718</ele>
        <time>2020-06-11T09:16:36Z</time>
      </trkpt>
      <trkpt lat="44.34372" lon="6.03378">
        <ele>718</ele>
        <time>2020-06-11T09:16:43Z</time>
      </trkpt>
      <trkpt lat="44.34367" lon="6.03376">
        <ele>718</ele>
        <time>2020-06-11T09:16:44Z</time>
      </trkpt>
      <trkpt lat="44.34345" lon="6.03365">
        <ele>718</ele>
        <time>2020-06-11T09:16:49Z</time>
      </trkpt>
      <trkpt lat="44.34341" lon="6.03362">
        <ele>718</ele>
        <time>2020-06-11T09:16:50Z</time>
      </trkpt>
      <trkpt lat="44.34325" lon="6.03347">
        <ele>717</ele>
        <time>2020-06-11T09:16:54Z</time>
      </trkpt>
      <trkpt lat="44.34312" lon="6.03334">
        <ele>716</ele>
        <time>2020-06-11T09:16:57Z</time>
      </trkpt>
      <trkpt lat="44.34306" lon="6.0333">
        <ele>716</ele>
        <time>2020-06-11T09:16:58Z</time>
      </trkpt>
      <trkpt lat="44.34296" lon="6.03324">
        <ele>716</ele>
        <time>2020-06-11T09:17:00Z</time>
      </trkpt>
      <trkpt lat="44.3429" lon="6.03322">
        <ele>716</ele>
        <time>2020-06-11T09:17:01Z</time>
      </trkpt>
      <trkpt lat="44.34279" lon="6.0332">
        <ele>716</ele>
        <time>2020-06-11T09:17:03Z</time>
      </trkpt>
      <trkpt lat="44.34273" lon="6.0332">
        <ele>716</ele>
        <time>2020-06-11T09:17:04Z</time>
      </trkpt>
      <trkpt lat="44.34268" lon="6.03321">
        <ele>715</ele>
        <time>2020-06-11T09:17:05Z</time>
      </trkpt>
      <trkpt lat="44.34263" lon="6.03323">
        <ele>715</ele>
        <time>2020-06-11T09:17:06Z</time>
      </trkpt>
      <trkpt lat="44.34259" lon="6.03326">
        <ele>715</ele>
        <time>2020-06-11T09:17:07Z</time>
      </trkpt>
      <trkpt lat="44.34254" lon="6.03329">
        <ele>715</ele>
        <time>2020-06-11T09:17:08Z</time>
      </trkpt>
      <trkpt lat="44.34236" lon="6.03336">
        <ele>715</ele>
        <time>2020-06-11T09:17:12Z</time>
      </trkpt>
      <trkpt lat="44.34227" lon="6.03337">
        <ele>715</ele>
        <time>2020-06-11T09:17:14Z</time>
      </trkpt>
      <trkpt lat="44.34222" lon="6.03336">
        <ele>715</ele>
        <time>2020-06-11T09:17:15Z</time>
      </trkpt>
      <trkpt lat="44.34213" lon="6.03333">
        <ele>715</ele>
        <time>2020-06-11T09:17:17Z</time>
      </trkpt>
      <trkpt lat="44.34208" lon="6.0333">
        <ele>715</ele>
        <time>2020-06-11T09:17:18Z</time>
      </trkpt>
      <trkpt lat="44.34203" lon="6.03326">
        <ele>715</ele>
        <time>2020-06-11T09:17:19Z</time>
      </trkpt>
      <trkpt lat="44.34181" lon="6.03307">
        <ele>715</ele>
        <time>2020-06-11T09:17:23Z</time>
      </trkpt>
      <trkpt lat="44.34169" lon="6.03297">
        <ele>714</ele>
        <time>2020-06-11T09:17:25Z</time>
      </trkpt>
      <trkpt lat="44.34139" lon="6.03273">
        <ele>713</ele>
        <time>2020-06-11T09:17:30Z</time>
      </trkpt>
      <trkpt lat="44.3412" lon="6.03258">
        <ele>713</ele>
        <time>2020-06-11T09:17:33Z</time>
      </trkpt>
      <trkpt lat="44.34094" lon="6.03238">
        <ele>713</ele>
        <time>2020-06-11T09:17:37Z</time>
      </trkpt>
      <trkpt lat="44.3406" lon="6.03209">
        <ele>712</ele>
        <time>2020-06-11T09:17:43Z</time>
      </trkpt>
      <trkpt lat="44.34055" lon="6.03203">
        <ele>712</ele>
        <time>2020-06-11T09:17:44Z</time>
      </trkpt>
      <trkpt lat="44.34033" lon="6.03167">
        <ele>712</ele>
        <time>2020-06-11T09:17:49Z</time>
      </trkpt>
      <trkpt lat="44.34015" lon="6.03135">
        <ele>711</ele>
        <time>2020-06-11T09:17:53Z</time>
      </trkpt>
      <trkpt lat="44.34" lon="6.03113">
        <ele>710</ele>
        <time>2020-06-11T09:17:56Z</time>
      </trkpt>
      <trkpt lat="44.33994" lon="6.03107">
        <ele>710</ele>
        <time>2020-06-11T09:17:57Z</time>
      </trkpt>
      <trkpt lat="44.33988" lon="6.03104">
        <ele>710</ele>
        <time>2020-06-11T09:17:58Z</time>
      </trkpt>
      <trkpt lat="44.33981" lon="6.03101">
        <ele>709</ele>
        <time>2020-06-11T09:17:59Z</time>
      </trkpt>
      <trkpt lat="44.33955" lon="6.03094">
        <ele>709</ele>
        <time>2020-06-11T09:18:03Z</time>
      </trkpt>
      <trkpt lat="44.33944" lon="6.03087">
        <ele>709</ele>
        <time>2020-06-11T09:18:05Z</time>
      </trkpt>
      <trkpt lat="44.33919" lon="6.03075">
        <ele>708</ele>
        <time>2020-06-11T09:18:09Z</time>
      </trkpt>
      <trkpt lat="44.33906" lon="6.03071">
        <ele>707</ele>
        <time>2020-06-11T09:18:11Z</time>
      </trkpt>
      <trkpt lat="44.33866" lon="6.03068">
        <ele>707</ele>
        <time>2020-06-11T09:18:17Z</time>
      </trkpt>
      <trkpt lat="44.33847" lon="6.03066">
        <ele>706</ele>
        <time>2020-06-11T09:18:20Z</time>
      </trkpt>
      <trkpt lat="44.33814" lon="6.03063">
        <ele>706</ele>
        <time>2020-06-11T09:18:25Z</time>
      </trkpt>
      <trkpt lat="44.33795" lon="6.0306">
        <ele>705</ele>
        <time>2020-06-11T09:18:28Z</time>
      </trkpt>
      <trkpt lat="44.33762" lon="6.03055">
        <ele>705</ele>
        <time>2020-06-11T09:18:33Z</time>
      </trkpt>
      <trkpt lat="44.33716" lon="6.03058">
        <ele>704</ele>
        <time>2020-06-11T09:18:40Z</time>
      </trkpt>
      <trkpt lat="44.33709" lon="6.03059">
        <ele>704</ele>
        <time>2020-06-11T09:18:41Z</time>
      </trkpt>
      <trkpt lat="44.33664" lon="6.03072">
        <ele>704</ele>
        <time>2020-06-11T09:18:48Z</time>
      </trkpt>
      <trkpt lat="44.33645" lon="6.03077">
        <ele>703</ele>
        <time>2020-06-11T09:18:51Z</time>
      </trkpt>
      <trkpt lat="44.33614" lon="6.03086">
        <ele>702</ele>
        <time>2020-06-11T09:18:56Z</time>
      </trkpt>
      <trkpt lat="44.3357" lon="6.03098">
        <ele>702</ele>
        <time>2020-06-11T09:19:03Z</time>
      </trkpt>
      <trkpt lat="44.33563" lon="6.03099">
        <ele>701</ele>
        <time>2020-06-11T09:19:04Z</time>
      </trkpt>
      <trkpt lat="44.33529" lon="6.031">
        <ele>700</ele>
        <time>2020-06-11T09:19:09Z</time>
      </trkpt>
      <trkpt lat="44.33522" lon="6.031">
        <ele>700</ele>
        <time>2020-06-11T09:19:10Z</time>
      </trkpt>
      <trkpt lat="44.33488" lon="6.031">
        <ele>700</ele>
        <time>2020-06-11T09:19:15Z</time>
      </trkpt>
      <trkpt lat="44.33448" lon="6.03102">
        <ele>699</ele>
        <time>2020-06-11T09:19:21Z</time>
      </trkpt>
      <trkpt lat="44.33429" lon="6.03104">
        <ele>698</ele>
        <time>2020-06-11T09:19:24Z</time>
      </trkpt>
      <trkpt lat="44.33379" lon="6.0311">
        <ele>698</ele>
        <time>2020-06-11T09:19:32Z</time>
      </trkpt>
      <trkpt lat="44.33374" lon="6.0311">
        <ele>698</ele>
        <time>2020-06-11T09:19:33Z</time>
      </trkpt>
      <trkpt lat="44.3333" lon="6.03112">
        <ele>697</ele>
        <time>2020-06-11T09:19:40Z</time>
      </trkpt>
      <trkpt lat="44.33292" lon="6.03122">
        <ele>697</ele>
        <time>2020-06-11T09:19:46Z</time>
      </trkpt>
      <trkpt lat="44.33285" lon="6.03125">
        <ele>696</ele>
        <time>2020-06-11T09:19:47Z</time>
      </trkpt>
      <trkpt lat="44.33272" lon="6.0313">
        <ele>695</ele>
        <time>2020-06-11T09:19:49Z</time>
      </trkpt>
      <trkpt lat="44.33253" lon="6.03135">
        <ele>694</ele>
        <time>2020-06-11T09:19:52Z</time>
      </trkpt>
      <trkpt lat="44.33202" lon="6.03141">
        <ele>693</ele>
        <time>2020-06-11T09:20:00Z</time>
      </trkpt>
      <trkpt lat="44.33171" lon="6.03151">
        <ele>693</ele>
        <time>2020-06-11T09:20:05Z</time>
      </trkpt>
      <trkpt lat="44.33152" lon="6.03158">
        <ele>693</ele>
        <time>2020-06-11T09:20:08Z</time>
      </trkpt>
      <trkpt lat="44.33114" lon="6.03172">
        <ele>692</ele>
        <time>2020-06-11T09:20:14Z</time>
      </trkpt>
      <trkpt lat="44.33087" lon="6.03181">
        <ele>691</ele>
        <time>2020-06-11T09:20:18Z</time>
      </trkpt>
      <trkpt lat="44.33072" lon="6.03186">
        <ele>691</ele>
        <time>2020-06-11T09:20:20Z</time>
      </trkpt>
      <trkpt lat="44.33045" lon="6.03195">
        <ele>690</ele>
        <time>2020-06-11T09:20:24Z</time>
      </trkpt>
      <trkpt lat="44.33032" lon="6.032">
        <ele>689</ele>
        <time>2020-06-11T09:20:26Z</time>
      </trkpt>
      <trkpt lat="44.32985" lon="6.03215">
        <ele>689</ele>
        <time>2020-06-11T09:20:33Z</time>
      </trkpt>
      <trkpt lat="44.32978" lon="6.03217">
        <ele>689</ele>
        <time>2020-06-11T09:20:34Z</time>
      </trkpt>
      <trkpt lat="44.32923" lon="6.03232">
        <ele>689</ele>
        <time>2020-06-11T09:20:42Z</time>
      </trkpt>
      <trkpt lat="44.32879" lon="6.03245">
        <ele>688</ele>
        <time>2020-06-11T09:20:49Z</time>
      </trkpt>
      <trkpt lat="44.32823" lon="6.03261">
        <ele>686</ele>
        <time>2020-06-11T09:20:58Z</time>
      </trkpt>
      <trkpt lat="44.32817" lon="6.03263">
        <ele>686</ele>
        <time>2020-06-11T09:20:59Z</time>
      </trkpt>
      <trkpt lat="44.32795" lon="6.03272">
        <ele>686</ele>
        <time>2020-06-11T09:21:03Z</time>
      </trkpt>
      <trkpt lat="44.32778" lon="6.03275">
        <ele>686</ele>
        <time>2020-06-11T09:21:07Z</time>
      </trkpt>
      <trkpt lat="44.32773" lon="6.03276">
        <ele>685</ele>
        <time>2020-06-11T09:21:08Z</time>
      </trkpt>
      <trkpt lat="44.32749" lon="6.03278">
        <ele>685</ele>
        <time>2020-06-11T09:21:12Z</time>
      </trkpt>
      <trkpt lat="44.32736" lon="6.0328">
        <ele>684</ele>
        <time>2020-06-11T09:21:14Z</time>
      </trkpt>
      <trkpt lat="44.32701" lon="6.03281">
        <ele>684</ele>
        <time>2020-06-11T09:21:20Z</time>
      </trkpt>
      <trkpt lat="44.32696" lon="6.03288">
        <ele>684</ele>
        <time>2020-06-11T09:21:22Z</time>
      </trkpt>
      <trkpt lat="44.32696" lon="6.03294">
        <ele>684</ele>
        <time>2020-06-11T09:21:23Z</time>
      </trkpt>
      <trkpt lat="44.32698" lon="6.03299">
        <ele>684</ele>
        <time>2020-06-11T09:21:24Z</time>
      </trkpt>
      <trkpt lat="44.32699" lon="6.03305">
        <ele>683</ele>
        <time>2020-06-11T09:21:25Z</time>
      </trkpt>
      <trkpt lat="44.32703" lon="6.0332">
        <ele>683</ele>
        <time>2020-06-11T09:21:28Z</time>
      </trkpt>
      <trkpt lat="44.32707" lon="6.03363">
        <ele>684</ele>
        <time>2020-06-11T09:21:37Z</time>
      </trkpt>
      <trkpt lat="44.32707" lon="6.03368">
        <ele>684</ele>
        <time>2020-06-11T09:21:38Z</time>
      </trkpt>
      <trkpt lat="44.32707" lon="6.03382">
        <ele>686</ele>
        <time>2020-06-11T09:21:42Z</time>
      </trkpt>
      <trkpt lat="44.32706" lon="6.03385">
        <ele>686</ele>
        <time>2020-06-11T09:21:43Z</time>
      </trkpt>
      <trkpt lat="44.32707" lon="6.03404">
        <ele>687</ele>
        <time>2020-06-11T09:21:48Z</time>
      </trkpt>
      <trkpt lat="44.32707" lon="6.03407">
        <ele>687</ele>
        <time>2020-06-11T09:21:49Z</time>
      </trkpt>
      <trkpt lat="44.32707" lon="6.03418">
        <ele>688</ele>
        <time>2020-06-11T09:21:52Z</time>
      </trkpt>
      <trkpt lat="44.3271" lon="6.03429">
        <ele>689</ele>
        <time>2020-06-11T09:21:55Z</time>
      </trkpt>
      <trkpt lat="44.32713" lon="6.03439">
        <ele>689</ele>
        <time>2020-06-11T09:21:58Z</time>
      </trkpt>
      <trkpt lat="44.32717" lon="6.03452">
        <ele>690</ele>
        <time>2020-06-11T09:22:02Z</time>
      </trkpt>
      <trkpt lat="44.3272" lon="6.03457">
        <ele>690</ele>
        <time>2020-06-11T09:22:04Z</time>
      </trkpt>
      <trkpt lat="44.32728" lon="6.03466">
        <ele>691</ele>
        <time>2020-06-11T09:22:08Z</time>
      </trkpt>
      <trkpt lat="44.32731" lon="6.03469">
        <ele>691</ele>
        <time>2020-06-11T09:22:09Z</time>
      </trkpt>
      <trkpt lat="44.32744" lon="6.03478">
        <ele>691</ele>
        <time>2020-06-11T09:22:13Z</time>
      </trkpt>
      <trkpt lat="44.3276" lon="6.03487">
        <ele>692</ele>
        <time>2020-06-11T09:22:19Z</time>
      </trkpt>
      <trkpt lat="44.32763" lon="6.03488">
        <ele>692</ele>
        <time>2020-06-11T09:22:20Z</time>
      </trkpt>
      <trkpt lat="44.32771" lon="6.035">
        <ele>693</ele>
        <time>2020-06-11T09:22:24Z</time>
      </trkpt>
      <trkpt lat="44.32774" lon="6.03509">
        <ele>693</ele>
        <time>2020-06-11T09:22:27Z</time>
      </trkpt>
      <trkpt lat="44.32781" lon="6.03524">
        <ele>694</ele>
        <time>2020-06-11T09:22:32Z</time>
      </trkpt>
      <trkpt lat="44.32786" lon="6.03535">
        <ele>695</ele>
        <time>2020-06-11T09:22:36Z</time>
      </trkpt>
      <trkpt lat="44.32789" lon="6.0354">
        <ele>695</ele>
        <time>2020-06-11T09:22:38Z</time>
      </trkpt>
      <trkpt lat="44.328" lon="6.0355">
        <ele>696</ele>
        <time>2020-06-11T09:22:43Z</time>
      </trkpt>
      <trkpt lat="44.32805" lon="6.03556">
        <ele>697</ele>
        <time>2020-06-11T09:22:46Z</time>
      </trkpt>
      <trkpt lat="44.32809" lon="6.03562">
        <ele>697</ele>
        <time>2020-06-11T09:22:48Z</time>
      </trkpt>
      <trkpt lat="44.32819" lon="6.0358">
        <ele>698</ele>
        <time>2020-06-11T09:22:54Z</time>
      </trkpt>
      <trkpt lat="44.32824" lon="6.03591">
        <ele>699</ele>
        <time>2020-06-11T09:22:58Z</time>
      </trkpt>
      <trkpt lat="44.32828" lon="6.03598">
        <ele>700</ele>
        <time>2020-06-11T09:23:01Z</time>
      </trkpt>
      <trkpt lat="44.32829" lon="6.03601">
        <ele>701</ele>
        <time>2020-06-11T09:23:02Z</time>
      </trkpt>
      <trkpt lat="44.32835" lon="6.03613">
        <ele>701</ele>
        <time>2020-06-11T09:23:06Z</time>
      </trkpt>
      <trkpt lat="44.32836" lon="6.03617">
        <ele>702</ele>
        <time>2020-06-11T09:23:08Z</time>
      </trkpt>
      <trkpt lat="44.32838" lon="6.03627">
        <ele>702</ele>
        <time>2020-06-11T09:23:13Z</time>
      </trkpt>
      <trkpt lat="44.3284" lon="6.03632">
        <ele>703</ele>
        <time>2020-06-11T09:23:15Z</time>
      </trkpt>
      <trkpt lat="44.32839" lon="6.03647">
        <ele>704</ele>
        <time>2020-06-11T09:23:20Z</time>
      </trkpt>
      <trkpt lat="44.32833" lon="6.03655">
        <ele>705</ele>
        <time>2020-06-11T09:23:24Z</time>
      </trkpt>
      <trkpt lat="44.32831" lon="6.03656">
        <ele>705</ele>
        <time>2020-06-11T09:23:25Z</time>
      </trkpt>
      <trkpt lat="44.32828" lon="6.03655">
        <ele>705</ele>
        <time>2020-06-11T09:23:27Z</time>
      </trkpt>
      <trkpt lat="44.32821" lon="6.03648">
        <ele>706</ele>
        <time>2020-06-11T09:23:31Z</time>
      </trkpt>
      <trkpt lat="44.32817" lon="6.03643">
        <ele>707</ele>
        <time>2020-06-11T09:23:34Z</time>
      </trkpt>
      <trkpt lat="44.32811" lon="6.03635">
        <ele>708</ele>
        <time>2020-06-11T09:23:38Z</time>
      </trkpt>
      <trkpt lat="44.32809" lon="6.03633">
        <ele>708</ele>
        <time>2020-06-11T09:23:39Z</time>
      </trkpt>
      <trkpt lat="44.32804" lon="6.03625">
        <ele>710</ele>
        <time>2020-06-11T09:23:43Z</time>
      </trkpt>
      <trkpt lat="44.32798" lon="6.03621">
        <ele>711</ele>
        <time>2020-06-11T09:23:46Z</time>
      </trkpt>
      <trkpt lat="44.3279" lon="6.03619">
        <ele>712</ele>
        <time>2020-06-11T09:23:50Z</time>
      </trkpt>
      <trkpt lat="44.32788" lon="6.03621">
        <ele>712</ele>
        <time>2020-06-11T09:23:51Z</time>
      </trkpt>
      <trkpt lat="44.32774" lon="6.03638">
        <ele>713</ele>
        <time>2020-06-11T09:23:57Z</time>
      </trkpt>
      <trkpt lat="44.32756" lon="6.03661">
        <ele>713</ele>
        <time>2020-06-11T09:24:04Z</time>
      </trkpt>
      <trkpt lat="44.32749" lon="6.03669">
        <ele>713</ele>
        <time>2020-06-11T09:24:06Z</time>
      </trkpt>
      <trkpt lat="44.32742" lon="6.0367">
        <ele>713</ele>
        <time>2020-06-11T09:24:08Z</time>
      </trkpt>
      <trkpt lat="44.3274" lon="6.03669">
        <ele>713</ele>
        <time>2020-06-11T09:24:09Z</time>
      </trkpt>
      <trkpt lat="44.32738" lon="6.03668">
        <ele>713</ele>
        <time>2020-06-11T09:24:10Z</time>
      </trkpt>
      <trkpt lat="44.32736" lon="6.03663">
        <ele>714</ele>
        <time>2020-06-11T09:24:12Z</time>
      </trkpt>
      <trkpt lat="44.32733" lon="6.03657">
        <ele>714</ele>
        <time>2020-06-11T09:24:14Z</time>
      </trkpt>
      <trkpt lat="44.32729" lon="6.03649">
        <ele>715</ele>
        <time>2020-06-11T09:24:17Z</time>
      </trkpt>
      <trkpt lat="44.32728" lon="6.03647">
        <ele>716</ele>
        <time>2020-06-11T09:24:18Z</time>
      </trkpt>
      <trkpt lat="44.32723" lon="6.03634">
        <ele>716</ele>
        <time>2020-06-11T09:24:22Z</time>
      </trkpt>
      <trkpt lat="44.32721" lon="6.03628">
        <ele>717</ele>
        <time>2020-06-11T09:24:24Z</time>
      </trkpt>
      <trkpt lat="44.32719" lon="6.03616">
        <ele>718</ele>
        <time>2020-06-11T09:24:28Z</time>
      </trkpt>
      <trkpt lat="44.32719" lon="6.03613">
        <ele>718</ele>
        <time>2020-06-11T09:24:29Z</time>
      </trkpt>
      <trkpt lat="44.32719" lon="6.03602">
        <ele>719</ele>
        <time>2020-06-11T09:24:32Z</time>
      </trkpt>
      <trkpt lat="44.32718" lon="6.03589">
        <ele>720</ele>
        <time>2020-06-11T09:24:36Z</time>
      </trkpt>
      <trkpt lat="44.32718" lon="6.03575">
        <ele>721</ele>
        <time>2020-06-11T09:24:40Z</time>
      </trkpt>
      <trkpt lat="44.32718" lon="6.03572">
        <ele>721</ele>
        <time>2020-06-11T09:24:41Z</time>
      </trkpt>
      <trkpt lat="44.32718" lon="6.03563">
        <ele>722</ele>
        <time>2020-06-11T09:24:44Z</time>
      </trkpt>
      <trkpt lat="44.32718" lon="6.03554">
        <ele>723</ele>
        <time>2020-06-11T09:24:47Z</time>
      </trkpt>
      <trkpt lat="44.32719" lon="6.03549">
        <ele>723</ele>
        <time>2020-06-11T09:24:49Z</time>
      </trkpt>
      <trkpt lat="44.32719" lon="6.03539">
        <ele>724</ele>
        <time>2020-06-11T09:24:52Z</time>
      </trkpt>
      <trkpt lat="44.32713" lon="6.03527">
        <ele>725</ele>
        <time>2020-06-11T09:24:56Z</time>
      </trkpt>
      <trkpt lat="44.32709" lon="6.03522">
        <ele>725</ele>
        <time>2020-06-11T09:24:58Z</time>
      </trkpt>
      <trkpt lat="44.32703" lon="6.03516">
        <ele>726</ele>
        <time>2020-06-11T09:25:01Z</time>
      </trkpt>
      <trkpt lat="44.327" lon="6.03515">
        <ele>727</ele>
        <time>2020-06-11T09:25:02Z</time>
      </trkpt>
      <trkpt lat="44.32691" lon="6.03519">
        <ele>728</ele>
        <time>2020-06-11T09:25:06Z</time>
      </trkpt>
      <trkpt lat="44.32684" lon="6.0353">
        <ele>729</ele>
        <time>2020-06-11T09:25:13Z</time>
      </trkpt>
      <trkpt lat="44.32681" lon="6.03531">
        <ele>729</ele>
        <time>2020-06-11T09:25:14Z</time>
      </trkpt>
      <trkpt lat="44.32674" lon="6.03536">
        <ele>730</ele>
        <time>2020-06-11T09:25:17Z</time>
      </trkpt>
      <trkpt lat="44.32668" lon="6.03539">
        <ele>731</ele>
        <time>2020-06-11T09:25:20Z</time>
      </trkpt>
      <trkpt lat="44.32658" lon="6.03541">
        <ele>732</ele>
        <time>2020-06-11T09:25:25Z</time>
      </trkpt>
      <trkpt lat="44.32656" lon="6.03542">
        <ele>733</ele>
        <time>2020-06-11T09:25:26Z</time>
      </trkpt>
      <trkpt lat="44.32645" lon="6.03545">
        <ele>734</ele>
        <time>2020-06-11T09:25:31Z</time>
      </trkpt>
      <trkpt lat="44.32643" lon="6.03546">
        <ele>734</ele>
        <time>2020-06-11T09:25:32Z</time>
      </trkpt>
      <trkpt lat="44.32637" lon="6.03549">
        <ele>735</ele>
        <time>2020-06-11T09:25:34Z</time>
      </trkpt>
      <trkpt lat="44.32627" lon="6.03558">
        <ele>736</ele>
        <time>2020-06-11T09:25:39Z</time>
      </trkpt>
      <trkpt lat="44.32626" lon="6.03561">
        <ele>736</ele>
        <time>2020-06-11T09:25:40Z</time>
      </trkpt>
      <trkpt lat="44.32622" lon="6.03576">
        <ele>737</ele>
        <time>2020-06-11T09:25:45Z</time>
      </trkpt>
      <trkpt lat="44.32622" lon="6.03579">
        <ele>737</ele>
        <time>2020-06-11T09:25:46Z</time>
      </trkpt>
      <trkpt lat="44.32623" lon="6.03584">
        <ele>738</ele>
        <time>2020-06-11T09:25:48Z</time>
      </trkpt>
      <trkpt lat="44.32625" lon="6.03594">
        <ele>739</ele>
        <time>2020-06-11T09:25:52Z</time>
      </trkpt>
      <trkpt lat="44.32627" lon="6.03599">
        <ele>740</ele>
        <time>2020-06-11T09:25:54Z</time>
      </trkpt>
      <trkpt lat="44.32628" lon="6.03602">
        <ele>740</ele>
        <time>2020-06-11T09:25:55Z</time>
      </trkpt>
      <trkpt lat="44.32631" lon="6.03609">
        <ele>741</ele>
        <time>2020-06-11T09:25:58Z</time>
      </trkpt>
      <trkpt lat="44.32633" lon="6.03614">
        <ele>742</ele>
        <time>2020-06-11T09:26:00Z</time>
      </trkpt>
      <trkpt lat="44.32633" lon="6.03616">
        <ele>742</ele>
        <time>2020-06-11T09:26:01Z</time>
      </trkpt>
      <trkpt lat="44.32634" lon="6.03619">
        <ele>742</ele>
        <time>2020-06-11T09:26:02Z</time>
      </trkpt>
      <trkpt lat="44.3264" lon="6.03629">
        <ele>744</ele>
        <time>2020-06-11T09:26:07Z</time>
      </trkpt>
      <trkpt lat="44.32642" lon="6.03633">
        <ele>744</ele>
        <time>2020-06-11T09:26:09Z</time>
      </trkpt>
      <trkpt lat="44.32644" lon="6.0364">
        <ele>745</ele>
        <time>2020-06-11T09:26:12Z</time>
      </trkpt>
      <trkpt lat="44.32648" lon="6.03649">
        <ele>746</ele>
        <time>2020-06-11T09:26:16Z</time>
      </trkpt>
      <trkpt lat="44.3265" lon="6.03655">
        <ele>747</ele>
        <time>2020-06-11T09:26:19Z</time>
      </trkpt>
      <trkpt lat="44.32654" lon="6.03665">
        <ele>748</ele>
        <time>2020-06-11T09:26:23Z</time>
      </trkpt>
      <trkpt lat="44.32656" lon="6.03671">
        <ele>749</ele>
        <time>2020-06-11T09:26:26Z</time>
      </trkpt>
      <trkpt lat="44.32658" lon="6.03675">
        <ele>749</ele>
        <time>2020-06-11T09:26:28Z</time>
      </trkpt>
      <trkpt lat="44.32663" lon="6.03684">
        <ele>751</ele>
        <time>2020-06-11T09:26:32Z</time>
      </trkpt>
      <trkpt lat="44.32665" lon="6.03691">
        <ele>752</ele>
        <time>2020-06-11T09:26:35Z</time>
      </trkpt>
      <trkpt lat="44.32669" lon="6.037">
        <ele>753</ele>
        <time>2020-06-11T09:26:39Z</time>
      </trkpt>
      <trkpt lat="44.32673" lon="6.03705">
        <ele>754</ele>
        <time>2020-06-11T09:26:42Z</time>
      </trkpt>
      <trkpt lat="44.32674" lon="6.03707">
        <ele>754</ele>
        <time>2020-06-11T09:26:43Z</time>
      </trkpt>
      <trkpt lat="44.32679" lon="6.0372">
        <ele>756</ele>
        <time>2020-06-11T09:26:49Z</time>
      </trkpt>
      <trkpt lat="44.32682" lon="6.03729">
        <ele>757</ele>
        <time>2020-06-11T09:26:53Z</time>
      </trkpt>
      <trkpt lat="44.32684" lon="6.03742">
        <ele>758</ele>
        <time>2020-06-11T09:26:58Z</time>
      </trkpt>
      <trkpt lat="44.32685" lon="6.03745">
        <ele>758</ele>
        <time>2020-06-11T09:26:59Z</time>
      </trkpt>
      <trkpt lat="44.32685" lon="6.0375">
        <ele>758</ele>
        <time>2020-06-11T09:27:01Z</time>
      </trkpt>
      <trkpt lat="44.32686" lon="6.03753">
        <ele>759</ele>
        <time>2020-06-11T09:27:02Z</time>
      </trkpt>
      <trkpt lat="44.32687" lon="6.03764">
        <ele>760</ele>
        <time>2020-06-11T09:27:07Z</time>
      </trkpt>
      <trkpt lat="44.32689" lon="6.03773">
        <ele>761</ele>
        <time>2020-06-11T09:27:11Z</time>
      </trkpt>
      <trkpt lat="44.32689" lon="6.03778">
        <ele>762</ele>
        <time>2020-06-11T09:27:13Z</time>
      </trkpt>
      <trkpt lat="44.32689" lon="6.03783">
        <ele>763</ele>
        <time>2020-06-11T09:27:15Z</time>
      </trkpt>
      <trkpt lat="44.3269" lon="6.03794">
        <ele>763</ele>
        <time>2020-06-11T09:27:19Z</time>
      </trkpt>
      <trkpt lat="44.3269" lon="6.03799">
        <ele>764</ele>
        <time>2020-06-11T09:27:21Z</time>
      </trkpt>
      <trkpt lat="44.32692" lon="6.0381">
        <ele>765</ele>
        <time>2020-06-11T09:27:25Z</time>
      </trkpt>
      <trkpt lat="44.32692" lon="6.03813">
        <ele>765</ele>
        <time>2020-06-11T09:27:26Z</time>
      </trkpt>
      <trkpt lat="44.32691" lon="6.03821">
        <ele>766</ele>
        <time>2020-06-11T09:27:30Z</time>
      </trkpt>
      <trkpt lat="44.32691" lon="6.03823">
        <ele>766</ele>
        <time>2020-06-11T09:27:31Z</time>
      </trkpt>
      <trkpt lat="44.3269" lon="6.03831">
        <ele>767</ele>
        <time>2020-06-11T09:27:34Z</time>
      </trkpt>
      <trkpt lat="44.32689" lon="6.0384">
        <ele>768</ele>
        <time>2020-06-11T09:27:37Z</time>
      </trkpt>
      <trkpt lat="44.32689" lon="6.03843">
        <ele>768</ele>
        <time>2020-06-11T09:27:38Z</time>
      </trkpt>
      <trkpt lat="44.32691" lon="6.03855">
        <ele>769</ele>
        <time>2020-06-11T09:27:43Z</time>
      </trkpt>
      <trkpt lat="44.32692" lon="6.03857">
        <ele>770</ele>
        <time>2020-06-11T09:27:44Z</time>
      </trkpt>
      <trkpt lat="44.32697" lon="6.03867">
        <ele>771</ele>
        <time>2020-06-11T09:27:49Z</time>
      </trkpt>
      <trkpt lat="44.32698" lon="6.03869">
        <ele>772</ele>
        <time>2020-06-11T09:27:50Z</time>
      </trkpt>
      <trkpt lat="44.327" lon="6.03875">
        <ele>772</ele>
        <time>2020-06-11T09:27:53Z</time>
      </trkpt>
      <trkpt lat="44.32703" lon="6.03882">
        <ele>773</ele>
        <time>2020-06-11T09:27:56Z</time>
      </trkpt>
      <trkpt lat="44.32705" lon="6.03887">
        <ele>773</ele>
        <time>2020-06-11T09:27:58Z</time>
      </trkpt>
      <trkpt lat="44.32708" lon="6.039">
        <ele>775</ele>
        <time>2020-06-11T09:28:03Z</time>
      </trkpt>
      <trkpt lat="44.32709" lon="6.03902">
        <ele>775</ele>
        <time>2020-06-11T09:28:04Z</time>
      </trkpt>
      <trkpt lat="44.32712" lon="6.0391">
        <ele>776</ele>
        <time>2020-06-11T09:28:07Z</time>
      </trkpt>
      <trkpt lat="44.32715" lon="6.03922">
        <ele>777</ele>
        <time>2020-06-11T09:28:12Z</time>
      </trkpt>
      <trkpt lat="44.32716" lon="6.03924">
        <ele>777</ele>
        <time>2020-06-11T09:28:13Z</time>
      </trkpt>
      <trkpt lat="44.32718" lon="6.03932">
        <ele>778</ele>
        <time>2020-06-11T09:28:16Z</time>
      </trkpt>
      <trkpt lat="44.32718" lon="6.03943">
        <ele>779</ele>
        <time>2020-06-11T09:28:21Z</time>
      </trkpt>
      <trkpt lat="44.32718" lon="6.03946">
        <ele>779</ele>
        <time>2020-06-11T09:28:22Z</time>
      </trkpt>
      <trkpt lat="44.3272" lon="6.03958">
        <ele>780</ele>
        <time>2020-06-11T09:28:27Z</time>
      </trkpt>
      <trkpt lat="44.3272" lon="6.03961">
        <ele>780</ele>
        <time>2020-06-11T09:28:28Z</time>
      </trkpt>
      <trkpt lat="44.32721" lon="6.03968">
        <ele>781</ele>
        <time>2020-06-11T09:28:31Z</time>
      </trkpt>
      <trkpt lat="44.32722" lon="6.03978">
        <ele>782</ele>
        <time>2020-06-11T09:28:35Z</time>
      </trkpt>
      <trkpt lat="44.32723" lon="6.03981">
        <ele>783</ele>
        <time>2020-06-11T09:28:36Z</time>
      </trkpt>
      <trkpt lat="44.32723" lon="6.03983">
        <ele>783</ele>
        <time>2020-06-11T09:28:37Z</time>
      </trkpt>
      <trkpt lat="44.32726" lon="6.03993">
        <ele>784</ele>
        <time>2020-06-11T09:28:41Z</time>
      </trkpt>
      <trkpt lat="44.32728" lon="6.03998">
        <ele>785</ele>
        <time>2020-06-11T09:28:43Z</time>
      </trkpt>
      <trkpt lat="44.32729" lon="6.04">
        <ele>785</ele>
        <time>2020-06-11T09:28:44Z</time>
      </trkpt>
      <trkpt lat="44.32732" lon="6.04008">
        <ele>786</ele>
        <time>2020-06-11T09:28:48Z</time>
      </trkpt>
      <trkpt lat="44.32734" lon="6.04012">
        <ele>786</ele>
        <time>2020-06-11T09:28:50Z</time>
      </trkpt>
      <trkpt lat="44.3274" lon="6.04022">
        <ele>787</ele>
        <time>2020-06-11T09:28:55Z</time>
      </trkpt>
      <trkpt lat="44.32742" lon="6.04027">
        <ele>788</ele>
        <time>2020-06-11T09:28:57Z</time>
      </trkpt>
      <trkpt lat="44.32743" lon="6.04029">
        <ele>788</ele>
        <time>2020-06-11T09:28:58Z</time>
      </trkpt>
      <trkpt lat="44.32748" lon="6.04041">
        <ele>789</ele>
        <time>2020-06-11T09:29:03Z</time>
      </trkpt>
      <trkpt lat="44.32749" lon="6.04043">
        <ele>790</ele>
        <time>2020-06-11T09:29:04Z</time>
      </trkpt>
      <trkpt lat="44.32751" lon="6.04047">
        <ele>790</ele>
        <time>2020-06-11T09:29:06Z</time>
      </trkpt>
      <trkpt lat="44.32755" lon="6.04058">
        <ele>792</ele>
        <time>2020-06-11T09:29:11Z</time>
      </trkpt>
      <trkpt lat="44.32755" lon="6.0406">
        <ele>792</ele>
        <time>2020-06-11T09:29:12Z</time>
      </trkpt>
      <trkpt lat="44.32758" lon="6.04069">
        <ele>793</ele>
        <time>2020-06-11T09:29:16Z</time>
      </trkpt>
      <trkpt lat="44.3276" lon="6.04073">
        <ele>794</ele>
        <time>2020-06-11T09:29:18Z</time>
      </trkpt>
      <trkpt lat="44.3276" lon="6.04075">
        <ele>794</ele>
        <time>2020-06-11T09:29:19Z</time>
      </trkpt>
      <trkpt lat="44.32762" lon="6.04088">
        <ele>795</ele>
        <time>2020-06-11T09:29:24Z</time>
      </trkpt>
      <trkpt lat="44.32764" lon="6.04095">
        <ele>796</ele>
        <time>2020-06-11T09:29:27Z</time>
      </trkpt>
      <trkpt lat="44.32764" lon="6.04097">
        <ele>796</ele>
        <time>2020-06-11T09:29:28Z</time>
      </trkpt>
      <trkpt lat="44.32766" lon="6.04115">
        <ele>797</ele>
        <time>2020-06-11T09:29:35Z</time>
      </trkpt>
      <trkpt lat="44.32766" lon="6.0412">
        <ele>798</ele>
        <time>2020-06-11T09:29:37Z</time>
      </trkpt>
      <trkpt lat="44.32766" lon="6.04129">
        <ele>799</ele>
        <time>2020-06-11T09:29:41Z</time>
      </trkpt>
      <trkpt lat="44.32768" lon="6.04135">
        <ele>799</ele>
        <time>2020-06-11T09:29:44Z</time>
      </trkpt>
      <trkpt lat="44.32768" lon="6.04138">
        <ele>800</ele>
        <time>2020-06-11T09:29:45Z</time>
      </trkpt>
      <trkpt lat="44.32769" lon="6.04143">
        <ele>801</ele>
        <time>2020-06-11T09:29:47Z</time>
      </trkpt>
      <trkpt lat="44.32768" lon="6.04154">
        <ele>802</ele>
        <time>2020-06-11T09:29:51Z</time>
      </trkpt>
      <trkpt lat="44.32766" lon="6.04166">
        <ele>803</ele>
        <time>2020-06-11T09:29:56Z</time>
      </trkpt>
      <trkpt lat="44.32766" lon="6.04173">
        <ele>804</ele>
        <time>2020-06-11T09:29:59Z</time>
      </trkpt>
      <trkpt lat="44.32768" lon="6.04185">
        <ele>805</ele>
        <time>2020-06-11T09:30:03Z</time>
      </trkpt>
      <trkpt lat="44.32769" lon="6.0419">
        <ele>806</ele>
        <time>2020-06-11T09:30:05Z</time>
      </trkpt>
      <trkpt lat="44.32771" lon="6.04195">
        <ele>806</ele>
        <time>2020-06-11T09:30:07Z</time>
      </trkpt>
      <trkpt lat="44.32775" lon="6.04206">
        <ele>808</ele>
        <time>2020-06-11T09:30:11Z</time>
      </trkpt>
      <trkpt lat="44.32776" lon="6.04209">
        <ele>808</ele>
        <time>2020-06-11T09:30:12Z</time>
      </trkpt>
      <trkpt lat="44.32784" lon="6.04219">
        <ele>809</ele>
        <time>2020-06-11T09:30:17Z</time>
      </trkpt>
      <trkpt lat="44.32786" lon="6.04221">
        <ele>809</ele>
        <time>2020-06-11T09:30:18Z</time>
      </trkpt>
      <trkpt lat="44.32798" lon="6.04218">
        <ele>809</ele>
        <time>2020-06-11T09:30:22Z</time>
      </trkpt>
      <trkpt lat="44.32802" lon="6.04214">
        <ele>810</ele>
        <time>2020-06-11T09:30:24Z</time>
      </trkpt>
      <trkpt lat="44.32808" lon="6.04205">
        <ele>811</ele>
        <time>2020-06-11T09:30:28Z</time>
      </trkpt>
      <trkpt lat="44.3281" lon="6.04203">
        <ele>811</ele>
        <time>2020-06-11T09:30:29Z</time>
      </trkpt>
      <trkpt lat="44.3282" lon="6.04196">
        <ele>812</ele>
        <time>2020-06-11T09:30:34Z</time>
      </trkpt>
      <trkpt lat="44.32823" lon="6.04196">
        <ele>812</ele>
        <time>2020-06-11T09:30:35Z</time>
      </trkpt>
      <trkpt lat="44.32834" lon="6.04204">
        <ele>813</ele>
        <time>2020-06-11T09:30:42Z</time>
      </trkpt>
      <trkpt lat="44.32839" lon="6.04213">
        <ele>814</ele>
        <time>2020-06-11T09:30:46Z</time>
      </trkpt>
      <trkpt lat="44.32843" lon="6.04219">
        <ele>815</ele>
        <time>2020-06-11T09:30:49Z</time>
      </trkpt>
      <trkpt lat="44.32845" lon="6.04221">
        <ele>816</ele>
        <time>2020-06-11T09:30:50Z</time>
      </trkpt>
      <trkpt lat="44.32852" lon="6.04225">
        <ele>817</ele>
        <time>2020-06-11T09:30:54Z</time>
      </trkpt>
      <trkpt lat="44.32856" lon="6.04226">
        <ele>817</ele>
        <time>2020-06-11T09:30:56Z</time>
      </trkpt>
      <trkpt lat="44.3286" lon="6.04226">
        <ele>818</ele>
        <time>2020-06-11T09:30:58Z</time>
      </trkpt>
      <trkpt lat="44.32867" lon="6.04227">
        <ele>819</ele>
        <time>2020-06-11T09:31:01Z</time>
      </trkpt>
      <trkpt lat="44.32869" lon="6.04227">
        <ele>819</ele>
        <time>2020-06-11T09:31:02Z</time>
      </trkpt>
      <trkpt lat="44.32881" lon="6.04217">
        <ele>820</ele>
        <time>2020-06-11T09:31:08Z</time>
      </trkpt>
      <trkpt lat="44.32885" lon="6.04206">
        <ele>821</ele>
        <time>2020-06-11T09:31:12Z</time>
      </trkpt>
      <trkpt lat="44.32888" lon="6.04198">
        <ele>822</ele>
        <time>2020-06-11T09:31:15Z</time>
      </trkpt>
      <trkpt lat="44.32891" lon="6.04185">
        <ele>823</ele>
        <time>2020-06-11T09:31:19Z</time>
      </trkpt>
      <trkpt lat="44.32894" lon="6.04172">
        <ele>824</ele>
        <time>2020-06-11T09:31:23Z</time>
      </trkpt>
      <trkpt lat="44.32898" lon="6.04156">
        <ele>824</ele>
        <time>2020-06-11T09:31:30Z</time>
      </trkpt>
      <trkpt lat="44.32909" lon="6.04143">
        <ele>825</ele>
        <time>2020-06-11T09:31:37Z</time>
      </trkpt>
      <trkpt lat="44.32911" lon="6.04142">
        <ele>825</ele>
        <time>2020-06-11T09:31:38Z</time>
      </trkpt>
      <trkpt lat="44.32923" lon="6.04143">
        <ele>827</ele>
        <time>2020-06-11T09:31:44Z</time>
      </trkpt>
      <trkpt lat="44.32929" lon="6.04148">
        <ele>828</ele>
        <time>2020-06-11T09:31:48Z</time>
      </trkpt>
      <trkpt lat="44.32934" lon="6.04151">
        <ele>828</ele>
        <time>2020-06-11T09:31:51Z</time>
      </trkpt>
      <trkpt lat="44.32937" lon="6.04154">
        <ele>829</ele>
        <time>2020-06-11T09:31:53Z</time>
      </trkpt>
      <trkpt lat="44.32942" lon="6.04159">
        <ele>830</ele>
        <time>2020-06-11T09:31:56Z</time>
      </trkpt>
      <trkpt lat="44.32944" lon="6.04161">
        <ele>830</ele>
        <time>2020-06-11T09:31:57Z</time>
      </trkpt>
      <trkpt lat="44.32956" lon="6.04172">
        <ele>831</ele>
        <time>2020-06-11T09:32:03Z</time>
      </trkpt>
      <trkpt lat="44.3296" lon="6.04177">
        <ele>832</ele>
        <time>2020-06-11T09:32:05Z</time>
      </trkpt>
      <trkpt lat="44.32963" lon="6.0418">
        <ele>832</ele>
        <time>2020-06-11T09:32:07Z</time>
      </trkpt>
      <trkpt lat="44.32971" lon="6.04186">
        <ele>833</ele>
        <time>2020-06-11T09:32:11Z</time>
      </trkpt>
      <trkpt lat="44.3298" lon="6.04195">
        <ele>835</ele>
        <time>2020-06-11T09:32:16Z</time>
      </trkpt>
      <trkpt lat="44.32987" lon="6.04203">
        <ele>835</ele>
        <time>2020-06-11T09:32:20Z</time>
      </trkpt>
      <trkpt lat="44.32991" lon="6.04207">
        <ele>836</ele>
        <time>2020-06-11T09:32:22Z</time>
      </trkpt>
      <trkpt lat="44.33" lon="6.04218">
        <ele>837</ele>
        <time>2020-06-11T09:32:27Z</time>
      </trkpt>
      <trkpt lat="44.33013" lon="6.04226">
        <ele>838</ele>
        <time>2020-06-11T09:32:33Z</time>
      </trkpt>
      <trkpt lat="44.33016" lon="6.04227">
        <ele>838</ele>
        <time>2020-06-11T09:32:34Z</time>
      </trkpt>
      <trkpt lat="44.33022" lon="6.0423">
        <ele>839</ele>
        <time>2020-06-11T09:32:37Z</time>
      </trkpt>
      <trkpt lat="44.33029" lon="6.04231">
        <ele>840</ele>
        <time>2020-06-11T09:32:40Z</time>
      </trkpt>
      <trkpt lat="44.33035" lon="6.04232">
        <ele>841</ele>
        <time>2020-06-11T09:32:42Z</time>
      </trkpt>
      <trkpt lat="44.33045" lon="6.04229">
        <ele>841</ele>
        <time>2020-06-11T09:32:47Z</time>
      </trkpt>
      <trkpt lat="44.33049" lon="6.04224">
        <ele>842</ele>
        <time>2020-06-11T09:32:49Z</time>
      </trkpt>
      <trkpt lat="44.33055" lon="6.04224">
        <ele>842</ele>
        <time>2020-06-11T09:32:52Z</time>
      </trkpt>
      <trkpt lat="44.33057" lon="6.04228">
        <ele>843</ele>
        <time>2020-06-11T09:32:54Z</time>
      </trkpt>
      <trkpt lat="44.33058" lon="6.0423">
        <ele>843</ele>
        <time>2020-06-11T09:32:55Z</time>
      </trkpt>
      <trkpt lat="44.33057" lon="6.04236">
        <ele>843</ele>
        <time>2020-06-11T09:32:57Z</time>
      </trkpt>
      <trkpt lat="44.33055" lon="6.04238">
        <ele>844</ele>
        <time>2020-06-11T09:32:58Z</time>
      </trkpt>
      <trkpt lat="44.33051" lon="6.04241">
        <ele>844</ele>
        <time>2020-06-11T09:33:00Z</time>
      </trkpt>
      <trkpt lat="44.33047" lon="6.04242">
        <ele>845</ele>
        <time>2020-06-11T09:33:02Z</time>
      </trkpt>
      <trkpt lat="44.33032" lon="6.04243">
        <ele>846</ele>
        <time>2020-06-11T09:33:08Z</time>
      </trkpt>
      <trkpt lat="44.33028" lon="6.04244">
        <ele>846</ele>
        <time>2020-06-11T09:33:10Z</time>
      </trkpt>
      <trkpt lat="44.33024" lon="6.04244">
        <ele>847</ele>
        <time>2020-06-11T09:33:12Z</time>
      </trkpt>
      <trkpt lat="44.33013" lon="6.04248">
        <ele>848</ele>
        <time>2020-06-11T09:33:17Z</time>
      </trkpt>
      <trkpt lat="44.33011" lon="6.04248">
        <ele>848</ele>
        <time>2020-06-11T09:33:18Z</time>
      </trkpt>
      <trkpt lat="44.33003" lon="6.04251">
        <ele>849</ele>
        <time>2020-06-11T09:33:22Z</time>
      </trkpt>
      <trkpt lat="44.32994" lon="6.04248">
        <ele>850</ele>
        <time>2020-06-11T09:33:26Z</time>
      </trkpt>
      <trkpt lat="44.32993" lon="6.04248">
        <ele>850</ele>
        <time>2020-06-11T09:33:27Z</time>
      </trkpt>
      <trkpt lat="44.32983" lon="6.04246">
        <ele>851</ele>
        <time>2020-06-11T09:33:32Z</time>
      </trkpt>
      <trkpt lat="44.32978" lon="6.04244">
        <ele>852</ele>
        <time>2020-06-11T09:33:34Z</time>
      </trkpt>
      <trkpt lat="44.32971" lon="6.04237">
        <ele>852</ele>
        <time>2020-06-11T09:33:37Z</time>
      </trkpt>
      <trkpt lat="44.32963" lon="6.04233">
        <ele>854</ele>
        <time>2020-06-11T09:33:40Z</time>
      </trkpt>
      <trkpt lat="44.32959" lon="6.04232">
        <ele>854</ele>
        <time>2020-06-11T09:33:42Z</time>
      </trkpt>
      <trkpt lat="44.32952" lon="6.04229">
        <ele>855</ele>
        <time>2020-06-11T09:33:45Z</time>
      </trkpt>
      <trkpt lat="44.32946" lon="6.0423">
        <ele>856</ele>
        <time>2020-06-11T09:33:48Z</time>
      </trkpt>
      <trkpt lat="44.32943" lon="6.04232">
        <ele>856</ele>
        <time>2020-06-11T09:33:49Z</time>
      </trkpt>
      <trkpt lat="44.32939" lon="6.04246">
        <ele>857</ele>
        <time>2020-06-11T09:33:54Z</time>
      </trkpt>
      <trkpt lat="44.32941" lon="6.04261">
        <ele>858</ele>
        <time>2020-06-11T09:33:59Z</time>
      </trkpt>
      <trkpt lat="44.32943" lon="6.0427">
        <ele>859</ele>
        <time>2020-06-11T09:34:02Z</time>
      </trkpt>
      <trkpt lat="44.32943" lon="6.04273">
        <ele>859</ele>
        <time>2020-06-11T09:34:03Z</time>
      </trkpt>
      <trkpt lat="44.32945" lon="6.04293">
        <ele>860</ele>
        <time>2020-06-11T09:34:10Z</time>
      </trkpt>
      <trkpt lat="44.32941" lon="6.04305">
        <ele>861</ele>
        <time>2020-06-11T09:34:14Z</time>
      </trkpt>
      <trkpt lat="44.32937" lon="6.04312">
        <ele>862</ele>
        <time>2020-06-11T09:34:17Z</time>
      </trkpt>
      <trkpt lat="44.32933" lon="6.0432">
        <ele>862</ele>
        <time>2020-06-11T09:34:20Z</time>
      </trkpt>
      <trkpt lat="44.3293" lon="6.04333">
        <ele>863</ele>
        <time>2020-06-11T09:34:24Z</time>
      </trkpt>
      <trkpt lat="44.3293" lon="6.04336">
        <ele>863</ele>
        <time>2020-06-11T09:34:25Z</time>
      </trkpt>
      <trkpt lat="44.32929" lon="6.04345">
        <ele>865</ele>
        <time>2020-06-11T09:34:28Z</time>
      </trkpt>
      <trkpt lat="44.32929" lon="6.04357">
        <ele>866</ele>
        <time>2020-06-11T09:34:32Z</time>
      </trkpt>
      <trkpt lat="44.32929" lon="6.0436">
        <ele>866</ele>
        <time>2020-06-11T09:34:33Z</time>
      </trkpt>
      <trkpt lat="44.3293" lon="6.0437">
        <ele>867</ele>
        <time>2020-06-11T09:34:36Z</time>
      </trkpt>
      <trkpt lat="44.3293" lon="6.04379">
        <ele>867</ele>
        <time>2020-06-11T09:34:39Z</time>
      </trkpt>
      <trkpt lat="44.32931" lon="6.04388">
        <ele>868</ele>
        <time>2020-06-11T09:34:42Z</time>
      </trkpt>
      <trkpt lat="44.32932" lon="6.04403">
        <ele>869</ele>
        <time>2020-06-11T09:34:47Z</time>
      </trkpt>
      <trkpt lat="44.32932" lon="6.04405">
        <ele>869</ele>
        <time>2020-06-11T09:34:48Z</time>
      </trkpt>
      <trkpt lat="44.32935" lon="6.04414">
        <ele>870</ele>
        <time>2020-06-11T09:34:51Z</time>
      </trkpt>
      <trkpt lat="44.32937" lon="6.04428">
        <ele>871</ele>
        <time>2020-06-11T09:34:56Z</time>
      </trkpt>
      <trkpt lat="44.32937" lon="6.04431">
        <ele>871</ele>
        <time>2020-06-11T09:34:57Z</time>
      </trkpt>
      <trkpt lat="44.32934" lon="6.04439">
        <ele>872</ele>
        <time>2020-06-11T09:35:00Z</time>
      </trkpt>
      <trkpt lat="44.32932" lon="6.04444">
        <ele>873</ele>
        <time>2020-06-11T09:35:02Z</time>
      </trkpt>
      <trkpt lat="44.32922" lon="6.04455">
        <ele>874</ele>
        <time>2020-06-11T09:35:07Z</time>
      </trkpt>
      <trkpt lat="44.32916" lon="6.04461">
        <ele>875</ele>
        <time>2020-06-11T09:35:10Z</time>
      </trkpt>
      <trkpt lat="44.32908" lon="6.04473">
        <ele>876</ele>
        <time>2020-06-11T09:35:15Z</time>
      </trkpt>
      <trkpt lat="44.32906" lon="6.04478">
        <ele>876</ele>
        <time>2020-06-11T09:35:17Z</time>
      </trkpt>
      <trkpt lat="44.32901" lon="6.04488">
        <ele>877</ele>
        <time>2020-06-11T09:35:21Z</time>
      </trkpt>
      <trkpt lat="44.32899" lon="6.04494">
        <ele>877</ele>
        <time>2020-06-11T09:35:23Z</time>
      </trkpt>
      <trkpt lat="44.32896" lon="6.04507">
        <ele>878</ele>
        <time>2020-06-11T09:35:27Z</time>
      </trkpt>
      <trkpt lat="44.32895" lon="6.04513">
        <ele>878</ele>
        <time>2020-06-11T09:35:29Z</time>
      </trkpt>
      <trkpt lat="44.32895" lon="6.04525">
        <ele>879</ele>
        <time>2020-06-11T09:35:33Z</time>
      </trkpt>
      <trkpt lat="44.32897" lon="6.04535">
        <ele>880</ele>
        <time>2020-06-11T09:35:36Z</time>
      </trkpt>
      <trkpt lat="44.32897" lon="6.04537">
        <ele>880</ele>
        <time>2020-06-11T09:35:37Z</time>
      </trkpt>
      <trkpt lat="44.32901" lon="6.0455">
        <ele>882</ele>
        <time>2020-06-11T09:35:42Z</time>
      </trkpt>
      <trkpt lat="44.32906" lon="6.04566">
        <ele>883</ele>
        <time>2020-06-11T09:35:48Z</time>
      </trkpt>
      <trkpt lat="44.32906" lon="6.04572">
        <ele>884</ele>
        <time>2020-06-11T09:35:50Z</time>
      </trkpt>
      <trkpt lat="44.32908" lon="6.04584">
        <ele>885</ele>
        <time>2020-06-11T09:35:54Z</time>
      </trkpt>
      <trkpt lat="44.32907" lon="6.04593">
        <ele>886</ele>
        <time>2020-06-11T09:35:57Z</time>
      </trkpt>
      <trkpt lat="44.32904" lon="6.04599">
        <ele>887</ele>
        <time>2020-06-11T09:36:00Z</time>
      </trkpt>
      <trkpt lat="44.329" lon="6.04603">
        <ele>888</ele>
        <time>2020-06-11T09:36:03Z</time>
      </trkpt>
      <trkpt lat="44.32894" lon="6.04602">
        <ele>889</ele>
        <time>2020-06-11T09:36:06Z</time>
      </trkpt>
      <trkpt lat="44.3289" lon="6.04599">
        <ele>890</ele>
        <time>2020-06-11T09:36:08Z</time>
      </trkpt>
      <trkpt lat="44.32881" lon="6.04595">
        <ele>891</ele>
        <time>2020-06-11T09:36:13Z</time>
      </trkpt>
      <trkpt lat="44.3287" lon="6.04594">
        <ele>892</ele>
        <time>2020-06-11T09:36:19Z</time>
      </trkpt>
      <trkpt lat="44.32866" lon="6.04593">
        <ele>893</ele>
        <time>2020-06-11T09:36:21Z</time>
      </trkpt>
      <trkpt lat="44.32864" lon="6.04591">
        <ele>893</ele>
        <time>2020-06-11T09:36:22Z</time>
      </trkpt>
      <trkpt lat="44.32855" lon="6.0459">
        <ele>894</ele>
        <time>2020-06-11T09:36:27Z</time>
      </trkpt>
      <trkpt lat="44.32853" lon="6.04589">
        <ele>895</ele>
        <time>2020-06-11T09:36:28Z</time>
      </trkpt>
      <trkpt lat="44.32844" lon="6.04591">
        <ele>896</ele>
        <time>2020-06-11T09:36:32Z</time>
      </trkpt>
      <trkpt lat="44.32837" lon="6.04588">
        <ele>897</ele>
        <time>2020-06-11T09:36:36Z</time>
      </trkpt>
      <trkpt lat="44.32835" lon="6.04587">
        <ele>897</ele>
        <time>2020-06-11T09:36:37Z</time>
      </trkpt>
      <trkpt lat="44.32829" lon="6.04584">
        <ele>898</ele>
        <time>2020-06-11T09:36:41Z</time>
      </trkpt>
      <trkpt lat="44.32823" lon="6.04582">
        <ele>898</ele>
        <time>2020-06-11T09:36:44Z</time>
      </trkpt>
      <trkpt lat="44.3282" lon="6.0458">
        <ele>899</ele>
        <time>2020-06-11T09:36:46Z</time>
      </trkpt>
      <trkpt lat="44.32814" lon="6.04576">
        <ele>900</ele>
        <time>2020-06-11T09:36:49Z</time>
      </trkpt>
      <trkpt lat="44.3281" lon="6.04574">
        <ele>901</ele>
        <time>2020-06-11T09:36:52Z</time>
      </trkpt>
      <trkpt lat="44.32808" lon="6.04573">
        <ele>901</ele>
        <time>2020-06-11T09:36:53Z</time>
      </trkpt>
      <trkpt lat="44.328" lon="6.04577">
        <ele>902</ele>
        <time>2020-06-11T09:36:58Z</time>
      </trkpt>
      <trkpt lat="44.32796" lon="6.04584">
        <ele>903</ele>
        <time>2020-06-11T09:37:01Z</time>
      </trkpt>
      <trkpt lat="44.32793" lon="6.04592">
        <ele>904</ele>
        <time>2020-06-11T09:37:04Z</time>
      </trkpt>
      <trkpt lat="44.32792" lon="6.046">
        <ele>905</ele>
        <time>2020-06-11T09:37:07Z</time>
      </trkpt>
      <trkpt lat="44.3279" lon="6.04611">
        <ele>906</ele>
        <time>2020-06-11T09:37:11Z</time>
      </trkpt>
      <trkpt lat="44.32786" lon="6.04624">
        <ele>907</ele>
        <time>2020-06-11T09:37:16Z</time>
      </trkpt>
      <trkpt lat="44.32784" lon="6.04627">
        <ele>907</ele>
        <time>2020-06-11T09:37:18Z</time>
      </trkpt>
      <trkpt lat="44.32784" lon="6.04628">
        <ele>907</ele>
        <time>2020-06-11T09:37:19Z</time>
      </trkpt>
      <trkpt lat="44.32784" lon="6.04632">
        <ele>908</ele>
        <time>2020-06-11T09:37:21Z</time>
      </trkpt>
      <trkpt lat="44.32782" lon="6.04637">
        <ele>908</ele>
        <time>2020-06-11T09:37:23Z</time>
      </trkpt>
      <trkpt lat="44.32781" lon="6.04642">
        <ele>909</ele>
        <time>2020-06-11T09:37:25Z</time>
      </trkpt>
      <trkpt lat="44.32781" lon="6.04653">
        <ele>910</ele>
        <time>2020-06-11T09:37:29Z</time>
      </trkpt>
      <trkpt lat="44.32781" lon="6.04656">
        <ele>910</ele>
        <time>2020-06-11T09:37:30Z</time>
      </trkpt>
      <trkpt lat="44.32784" lon="6.04665">
        <ele>911</ele>
        <time>2020-06-11T09:37:34Z</time>
      </trkpt>
      <trkpt lat="44.32786" lon="6.04674">
        <ele>912</ele>
        <time>2020-06-11T09:37:38Z</time>
      </trkpt>
      <trkpt lat="44.32788" lon="6.04684">
        <ele>913</ele>
        <time>2020-06-11T09:37:42Z</time>
      </trkpt>
      <trkpt lat="44.32789" lon="6.04699">
        <ele>915</ele>
        <time>2020-06-11T09:37:48Z</time>
      </trkpt>
      <trkpt lat="44.32789" lon="6.04712">
        <ele>916</ele>
        <time>2020-06-11T09:37:53Z</time>
      </trkpt>
      <trkpt lat="44.32788" lon="6.04718">
        <ele>916</ele>
        <time>2020-06-11T09:37:55Z</time>
      </trkpt>
      <trkpt lat="44.32789" lon="6.04726">
        <ele>917</ele>
        <time>2020-06-11T09:37:58Z</time>
      </trkpt>
      <trkpt lat="44.32787" lon="6.04738">
        <ele>917</ele>
        <time>2020-06-11T09:38:02Z</time>
      </trkpt>
      <trkpt lat="44.32787" lon="6.04741">
        <ele>918</ele>
        <time>2020-06-11T09:38:03Z</time>
      </trkpt>
      <trkpt lat="44.32782" lon="6.04755">
        <ele>919</ele>
        <time>2020-06-11T09:38:08Z</time>
      </trkpt>
      <trkpt lat="44.32775" lon="6.04765">
        <ele>920</ele>
        <time>2020-06-11T09:38:13Z</time>
      </trkpt>
      <trkpt lat="44.32774" lon="6.04766">
        <ele>920</ele>
        <time>2020-06-11T09:38:14Z</time>
      </trkpt>
      <trkpt lat="44.32766" lon="6.04771">
        <ele>921</ele>
        <time>2020-06-11T09:38:18Z</time>
      </trkpt>
      <trkpt lat="44.32765" lon="6.04772">
        <ele>921</ele>
        <time>2020-06-11T09:38:19Z</time>
      </trkpt>
      <trkpt lat="44.32756" lon="6.04765">
        <ele>922</ele>
        <time>2020-06-11T09:38:24Z</time>
      </trkpt>
      <trkpt lat="44.32755" lon="6.04763">
        <ele>923</ele>
        <time>2020-06-11T09:38:25Z</time>
      </trkpt>
      <trkpt lat="44.32751" lon="6.04753">
        <ele>924</ele>
        <time>2020-06-11T09:38:29Z</time>
      </trkpt>
      <trkpt lat="44.32749" lon="6.04747">
        <ele>924</ele>
        <time>2020-06-11T09:38:32Z</time>
      </trkpt>
      <trkpt lat="44.32747" lon="6.04744">
        <ele>925</ele>
        <time>2020-06-11T09:38:34Z</time>
      </trkpt>
      <trkpt lat="44.32741" lon="6.04734">
        <ele>926</ele>
        <time>2020-06-11T09:38:39Z</time>
      </trkpt>
      <trkpt lat="44.32739" lon="6.04733">
        <ele>926</ele>
        <time>2020-06-11T09:38:40Z</time>
      </trkpt>
      <trkpt lat="44.32729" lon="6.04727">
        <ele>927</ele>
        <time>2020-06-11T09:38:45Z</time>
      </trkpt>
      <trkpt lat="44.32726" lon="6.04725">
        <ele>927</ele>
        <time>2020-06-11T09:38:46Z</time>
      </trkpt>
      <trkpt lat="44.32719" lon="6.04721">
        <ele>928</ele>
        <time>2020-06-11T09:38:49Z</time>
      </trkpt>
      <trkpt lat="44.3271" lon="6.04716">
        <ele>929</ele>
        <time>2020-06-11T09:38:53Z</time>
      </trkpt>
      <trkpt lat="44.32706" lon="6.04713">
        <ele>930</ele>
        <time>2020-06-11T09:38:55Z</time>
      </trkpt>
      <trkpt lat="44.32698" lon="6.04707">
        <ele>930</ele>
        <time>2020-06-11T09:38:59Z</time>
      </trkpt>
      <trkpt lat="44.32696" lon="6.04705">
        <ele>931</ele>
        <time>2020-06-11T09:39:00Z</time>
      </trkpt>
      <trkpt lat="44.32682" lon="6.047">
        <ele>932</ele>
        <time>2020-06-11T09:39:06Z</time>
      </trkpt>
      <trkpt lat="44.32673" lon="6.047">
        <ele>933</ele>
        <time>2020-06-11T09:39:10Z</time>
      </trkpt>
      <trkpt lat="44.32669" lon="6.04702">
        <ele>933</ele>
        <time>2020-06-11T09:39:12Z</time>
      </trkpt>
      <trkpt lat="44.32663" lon="6.04712">
        <ele>934</ele>
        <time>2020-06-11T09:39:16Z</time>
      </trkpt>
      <trkpt lat="44.32663" lon="6.04716">
        <ele>934</ele>
        <time>2020-06-11T09:39:17Z</time>
      </trkpt>
      <trkpt lat="44.32666" lon="6.04724">
        <ele>935</ele>
        <time>2020-06-11T09:39:20Z</time>
      </trkpt>
      <trkpt lat="44.32667" lon="6.04726">
        <ele>936</ele>
        <time>2020-06-11T09:39:21Z</time>
      </trkpt>
      <trkpt lat="44.32676" lon="6.0474">
        <ele>937</ele>
        <time>2020-06-11T09:39:27Z</time>
      </trkpt>
      <trkpt lat="44.32678" lon="6.04743">
        <ele>937</ele>
        <time>2020-06-11T09:39:28Z</time>
      </trkpt>
      <trkpt lat="44.32679" lon="6.04745">
        <ele>937</ele>
        <time>2020-06-11T09:39:29Z</time>
      </trkpt>
      <trkpt lat="44.32684" lon="6.04752">
        <ele>938</ele>
        <time>2020-06-11T09:39:32Z</time>
      </trkpt>
      <trkpt lat="44.32689" lon="6.0476">
        <ele>938</ele>
        <time>2020-06-11T09:39:35Z</time>
      </trkpt>
      <trkpt lat="44.327" lon="6.04774">
        <ele>939</ele>
        <time>2020-06-11T09:39:41Z</time>
      </trkpt>
      <trkpt lat="44.32709" lon="6.04784">
        <ele>940</ele>
        <time>2020-06-11T09:39:46Z</time>
      </trkpt>
      <trkpt lat="44.3272" lon="6.048">
        <ele>941</ele>
        <time>2020-06-11T09:39:51Z</time>
      </trkpt>
      <trkpt lat="44.32725" lon="6.04809">
        <ele>941</ele>
        <time>2020-06-11T09:39:54Z</time>
      </trkpt>
      <trkpt lat="44.32731" lon="6.04819">
        <ele>941</ele>
        <time>2020-06-11T09:39:57Z</time>
      </trkpt>
      <trkpt lat="44.3274" lon="6.04835">
        <ele>942</ele>
        <time>2020-06-11T09:40:02Z</time>
      </trkpt>
      <trkpt lat="44.32745" lon="6.04842">
        <ele>942</ele>
        <time>2020-06-11T09:40:04Z</time>
      </trkpt>
      <trkpt lat="44.32759" lon="6.04853">
        <ele>943</ele>
        <time>2020-06-11T09:40:09Z</time>
      </trkpt>
      <trkpt lat="44.32762" lon="6.04855">
        <ele>943</ele>
        <time>2020-06-11T09:40:10Z</time>
      </trkpt>
      <trkpt lat="44.32774" lon="6.04857">
        <ele>944</ele>
        <time>2020-06-11T09:40:14Z</time>
      </trkpt>
      <trkpt lat="44.32779" lon="6.04855">
        <ele>944</ele>
        <time>2020-06-11T09:40:16Z</time>
      </trkpt>
      <trkpt lat="44.32786" lon="6.0485">
        <ele>945</ele>
        <time>2020-06-11T09:40:19Z</time>
      </trkpt>
      <trkpt lat="44.32788" lon="6.04848">
        <ele>945</ele>
        <time>2020-06-11T09:40:20Z</time>
      </trkpt>
      <trkpt lat="44.32795" lon="6.0484">
        <ele>947</ele>
        <time>2020-06-11T09:40:24Z</time>
      </trkpt>
      <trkpt lat="44.32796" lon="6.04838">
        <ele>947</ele>
        <time>2020-06-11T09:40:25Z</time>
      </trkpt>
      <trkpt lat="44.32805" lon="6.0483">
        <ele>948</ele>
        <time>2020-06-11T09:40:29Z</time>
      </trkpt>
      <trkpt lat="44.32811" lon="6.04826">
        <ele>948</ele>
        <time>2020-06-11T09:40:32Z</time>
      </trkpt>
      <trkpt lat="44.32814" lon="6.04822">
        <ele>949</ele>
        <time>2020-06-11T09:40:34Z</time>
      </trkpt>
      <trkpt lat="44.32822" lon="6.04818">
        <ele>950</ele>
        <time>2020-06-11T09:40:38Z</time>
      </trkpt>
      <trkpt lat="44.32824" lon="6.04817">
        <ele>950</ele>
        <time>2020-06-11T09:40:39Z</time>
      </trkpt>
      <trkpt lat="44.32826" lon="6.04816">
        <ele>950</ele>
        <time>2020-06-11T09:40:40Z</time>
      </trkpt>
      <trkpt lat="44.32829" lon="6.04813">
        <ele>951</ele>
        <time>2020-06-11T09:40:42Z</time>
      </trkpt>
      <trkpt lat="44.32831" lon="6.04811">
        <ele>951</ele>
        <time>2020-06-11T09:40:43Z</time>
      </trkpt>
      <trkpt lat="44.32834" lon="6.04801">
        <ele>952</ele>
        <time>2020-06-11T09:40:46Z</time>
      </trkpt>
      <trkpt lat="44.32834" lon="6.04794">
        <ele>953</ele>
        <time>2020-06-11T09:40:48Z</time>
      </trkpt>
      <trkpt lat="44.32833" lon="6.04788">
        <ele>954</ele>
        <time>2020-06-11T09:40:50Z</time>
      </trkpt>
      <trkpt lat="44.32835" lon="6.04776">
        <ele>955</ele>
        <time>2020-06-11T09:40:54Z</time>
      </trkpt>
      <trkpt lat="44.32839" lon="6.04771">
        <ele>955</ele>
        <time>2020-06-11T09:40:57Z</time>
      </trkpt>
      <trkpt lat="44.32842" lon="6.04768">
        <ele>956</ele>
        <time>2020-06-11T09:40:59Z</time>
      </trkpt>
      <trkpt lat="44.3285" lon="6.04759">
        <ele>957</ele>
        <time>2020-06-11T09:41:04Z</time>
      </trkpt>
      <trkpt lat="44.32852" lon="6.04758">
        <ele>957</ele>
        <time>2020-06-11T09:41:05Z</time>
      </trkpt>
      <trkpt lat="44.32859" lon="6.04752">
        <ele>958</ele>
        <time>2020-06-11T09:41:09Z</time>
      </trkpt>
      <trkpt lat="44.32863" lon="6.04747">
        <ele>959</ele>
        <time>2020-06-11T09:41:12Z</time>
      </trkpt>
      <trkpt lat="44.32865" lon="6.04745">
        <ele>959</ele>
        <time>2020-06-11T09:41:13Z</time>
      </trkpt>
      <trkpt lat="44.3287" lon="6.04739">
        <ele>960</ele>
        <time>2020-06-11T09:41:16Z</time>
      </trkpt>
      <trkpt lat="44.32876" lon="6.04732">
        <ele>961</ele>
        <time>2020-06-11T09:41:20Z</time>
      </trkpt>
      <trkpt lat="44.32878" lon="6.0473">
        <ele>962</ele>
        <time>2020-06-11T09:41:21Z</time>
      </trkpt>
      <trkpt lat="44.3289" lon="6.04725">
        <ele>963</ele>
        <time>2020-06-11T09:41:27Z</time>
      </trkpt>
      <trkpt lat="44.32897" lon="6.04726">
        <ele>964</ele>
        <time>2020-06-11T09:41:31Z</time>
      </trkpt>
      <trkpt lat="44.32898" lon="6.04728">
        <ele>964</ele>
        <time>2020-06-11T09:41:32Z</time>
      </trkpt>
      <trkpt lat="44.32912" lon="6.04728">
        <ele>966</ele>
        <time>2020-06-11T09:42:46Z</time>
      </trkpt>
      <trkpt lat="44.3292" lon="6.04735">
        <ele>966</ele>
        <time>2020-06-11T09:42:52Z</time>
      </trkpt>
      <trkpt lat="44.32929" lon="6.04746">
        <ele>967</ele>
        <time>2020-06-11T09:42:59Z</time>
      </trkpt>
      <trkpt lat="44.32934" lon="6.04752">
        <ele>967</ele>
        <time>2020-06-11T09:43:02Z</time>
      </trkpt>
      <trkpt lat="44.32941" lon="6.04761">
        <ele>968</ele>
        <time>2020-06-11T09:43:06Z</time>
      </trkpt>
      <trkpt lat="44.32943" lon="6.04762">
        <ele>968</ele>
        <time>2020-06-11T09:43:07Z</time>
      </trkpt>
      <trkpt lat="44.32949" lon="6.04765">
        <ele>969</ele>
        <time>2020-06-11T09:43:12Z</time>
      </trkpt>
      <trkpt lat="44.32951" lon="6.04767">
        <ele>969</ele>
        <time>2020-06-11T09:43:15Z</time>
      </trkpt>
      <trkpt lat="44.32953" lon="6.04768">
        <ele>970</ele>
        <time>2020-06-11T09:43:19Z</time>
      </trkpt>
      <trkpt lat="44.32951" lon="6.04767">
        <ele>969</ele>
        <time>2020-06-11T09:43:30Z</time>
      </trkpt>
      <trkpt lat="44.3295" lon="6.04766">
        <ele>969</ele>
        <time>2020-06-11T09:43:39Z</time>
      </trkpt>
      <trkpt lat="44.3295" lon="6.04766">
        <ele>969</ele>
        <time>2020-06-11T09:44:11Z</time>
      </trkpt>
      <trkpt lat="44.32955" lon="6.0477">
        <ele>969</ele>
        <time>2020-06-11T09:44:19Z</time>
      </trkpt>
      <trkpt lat="44.32959" lon="6.04773">
        <ele>970</ele>
        <time>2020-06-11T09:44:21Z</time>
      </trkpt>
      <trkpt lat="44.32964" lon="6.04778">
        <ele>971</ele>
        <time>2020-06-11T09:44:24Z</time>
      </trkpt>
      <trkpt lat="44.32971" lon="6.04785">
        <ele>972</ele>
        <time>2020-06-11T09:44:28Z</time>
      </trkpt>
      <trkpt lat="44.32974" lon="6.04789">
        <ele>972</ele>
        <time>2020-06-11T09:44:30Z</time>
      </trkpt>
      <trkpt lat="44.3298" lon="6.04793">
        <ele>973</ele>
        <time>2020-06-11T09:44:33Z</time>
      </trkpt>
      <trkpt lat="44.32987" lon="6.04795">
        <ele>973</ele>
        <time>2020-06-11T09:44:36Z</time>
      </trkpt>
      <trkpt lat="44.32995" lon="6.04797">
        <ele>974</ele>
        <time>2020-06-11T09:44:40Z</time>
      </trkpt>
      <trkpt lat="44.32999" lon="6.04798">
        <ele>974</ele>
        <time>2020-06-11T09:44:42Z</time>
      </trkpt>
      <trkpt lat="44.33008" lon="6.048">
        <ele>975</ele>
        <time>2020-06-11T09:44:46Z</time>
      </trkpt>
      <trkpt lat="44.33014" lon="6.048">
        <ele>976</ele>
        <time>2020-06-11T09:44:50Z</time>
      </trkpt>
      <trkpt lat="44.33016" lon="6.04801">
        <ele>977</ele>
        <time>2020-06-11T09:44:51Z</time>
      </trkpt>
      <trkpt lat="44.33027" lon="6.04802">
        <ele>977</ele>
        <time>2020-06-11T09:44:56Z</time>
      </trkpt>
      <trkpt lat="44.33031" lon="6.048">
        <ele>978</ele>
        <time>2020-06-11T09:44:58Z</time>
      </trkpt>
      <trkpt lat="44.33038" lon="6.04793">
        <ele>979</ele>
        <time>2020-06-11T09:45:01Z</time>
      </trkpt>
      <trkpt lat="44.33038" lon="6.04789">
        <ele>979</ele>
        <time>2020-06-11T09:45:02Z</time>
      </trkpt>
      <trkpt lat="44.33038" lon="6.0477">
        <ele>980</ele>
        <time>2020-06-11T09:45:07Z</time>
      </trkpt>
      <trkpt lat="44.33038" lon="6.04766">
        <ele>980</ele>
        <time>2020-06-11T09:45:08Z</time>
      </trkpt>
      <trkpt lat="44.33044" lon="6.04751">
        <ele>981</ele>
        <time>2020-06-11T09:45:13Z</time>
      </trkpt>
      <trkpt lat="44.33046" lon="6.0475">
        <ele>981</ele>
        <time>2020-06-11T09:45:14Z</time>
      </trkpt>
      <trkpt lat="44.33054" lon="6.04746">
        <ele>982</ele>
        <time>2020-06-11T09:45:18Z</time>
      </trkpt>
      <trkpt lat="44.33056" lon="6.04745">
        <ele>982</ele>
        <time>2020-06-11T09:45:19Z</time>
      </trkpt>
      <trkpt lat="44.33066" lon="6.04745">
        <ele>983</ele>
        <time>2020-06-11T09:45:23Z</time>
      </trkpt>
      <trkpt lat="44.3307" lon="6.04742">
        <ele>983</ele>
        <time>2020-06-11T09:45:25Z</time>
      </trkpt>
      <trkpt lat="44.33074" lon="6.04738">
        <ele>984</ele>
        <time>2020-06-11T09:45:28Z</time>
      </trkpt>
      <trkpt lat="44.33075" lon="6.04735">
        <ele>984</ele>
        <time>2020-06-11T09:45:29Z</time>
      </trkpt>
      <trkpt lat="44.33077" lon="6.04729">
        <ele>985</ele>
        <time>2020-06-11T09:45:31Z</time>
      </trkpt>
      <trkpt lat="44.33079" lon="6.04727">
        <ele>985</ele>
        <time>2020-06-11T09:45:32Z</time>
      </trkpt>
      <trkpt lat="44.33082" lon="6.04718">
        <ele>986</ele>
        <time>2020-06-11T09:45:35Z</time>
      </trkpt>
      <trkpt lat="44.33086" lon="6.04709">
        <ele>987</ele>
        <time>2020-06-11T09:45:38Z</time>
      </trkpt>
      <trkpt lat="44.33089" lon="6.04704">
        <ele>987</ele>
        <time>2020-06-11T09:45:40Z</time>
      </trkpt>
      <trkpt lat="44.33095" lon="6.04692">
        <ele>988</ele>
        <time>2020-06-11T09:45:45Z</time>
      </trkpt>
      <trkpt lat="44.33097" lon="6.04677">
        <ele>989</ele>
        <time>2020-06-11T09:45:50Z</time>
      </trkpt>
      <trkpt lat="44.33098" lon="6.04675">
        <ele>989</ele>
        <time>2020-06-11T09:45:51Z</time>
      </trkpt>
      <trkpt lat="44.33102" lon="6.04662">
        <ele>990</ele>
        <time>2020-06-11T09:45:55Z</time>
      </trkpt>
      <trkpt lat="44.33103" lon="6.04656">
        <ele>991</ele>
        <time>2020-06-11T09:45:57Z</time>
      </trkpt>
      <trkpt lat="44.33108" lon="6.04648">
        <ele>991</ele>
        <time>2020-06-11T09:46:00Z</time>
      </trkpt>
      <trkpt lat="44.33113" lon="6.04638">
        <ele>992</ele>
        <time>2020-06-11T09:46:03Z</time>
      </trkpt>
      <trkpt lat="44.33118" lon="6.04628">
        <ele>992</ele>
        <time>2020-06-11T09:46:06Z</time>
      </trkpt>
      <trkpt lat="44.33125" lon="6.04622">
        <ele>993</ele>
        <time>2020-06-11T09:46:10Z</time>
      </trkpt>
      <trkpt lat="44.33128" lon="6.04621">
        <ele>993</ele>
        <time>2020-06-11T09:46:11Z</time>
      </trkpt>
      <trkpt lat="44.3314" lon="6.04612">
        <ele>994</ele>
        <time>2020-06-11T09:46:17Z</time>
      </trkpt>
      <trkpt lat="44.33142" lon="6.0461">
        <ele>994</ele>
        <time>2020-06-11T09:46:18Z</time>
      </trkpt>
      <trkpt lat="44.33152" lon="6.04605">
        <ele>996</ele>
        <time>2020-06-11T09:46:23Z</time>
      </trkpt>
      <trkpt lat="44.33154" lon="6.04608">
        <ele>996</ele>
        <time>2020-06-11T09:46:25Z</time>
      </trkpt>
      <trkpt lat="44.33154" lon="6.04613">
        <ele>997</ele>
        <time>2020-06-11T09:46:27Z</time>
      </trkpt>
      <trkpt lat="44.33152" lon="6.04616">
        <ele>997</ele>
        <time>2020-06-11T09:46:28Z</time>
      </trkpt>
      <trkpt lat="44.33144" lon="6.04622">
        <ele>998</ele>
        <time>2020-06-11T09:46:32Z</time>
      </trkpt>
      <trkpt lat="44.33133" lon="6.04629">
        <ele>999</ele>
        <time>2020-06-11T09:46:37Z</time>
      </trkpt>
      <trkpt lat="44.33131" lon="6.04631">
        <ele>999</ele>
        <time>2020-06-11T09:46:38Z</time>
      </trkpt>
      <trkpt lat="44.33127" lon="6.04642">
        <ele>1000</ele>
        <time>2020-06-11T09:46:42Z</time>
      </trkpt>
      <trkpt lat="44.33127" lon="6.04648">
        <ele>1001</ele>
        <time>2020-06-11T09:46:44Z</time>
      </trkpt>
      <trkpt lat="44.33127" lon="6.04657">
        <ele>1001</ele>
        <time>2020-06-11T09:46:47Z</time>
      </trkpt>
      <trkpt lat="44.33127" lon="6.04672">
        <ele>1002</ele>
        <time>2020-06-11T09:46:52Z</time>
      </trkpt>
      <trkpt lat="44.33127" lon="6.04675">
        <ele>1002</ele>
        <time>2020-06-11T09:46:53Z</time>
      </trkpt>
      <trkpt lat="44.33126" lon="6.04686">
        <ele>1003</ele>
        <time>2020-06-11T09:46:57Z</time>
      </trkpt>
      <trkpt lat="44.33126" lon="6.04688">
        <ele>1004</ele>
        <time>2020-06-11T09:46:58Z</time>
      </trkpt>
      <trkpt lat="44.33123" lon="6.04699">
        <ele>1005</ele>
        <time>2020-06-11T09:47:02Z</time>
      </trkpt>
      <trkpt lat="44.33121" lon="6.04707">
        <ele>1005</ele>
        <time>2020-06-11T09:47:05Z</time>
      </trkpt>
      <trkpt lat="44.33119" lon="6.04712">
        <ele>1006</ele>
        <time>2020-06-11T09:47:07Z</time>
      </trkpt>
      <trkpt lat="44.33117" lon="6.04724">
        <ele>1006</ele>
        <time>2020-06-11T09:47:11Z</time>
      </trkpt>
      <trkpt lat="44.33115" lon="6.04733">
        <ele>1007</ele>
        <time>2020-06-11T09:47:14Z</time>
      </trkpt>
      <trkpt lat="44.33115" lon="6.04746">
        <ele>1007</ele>
        <time>2020-06-11T09:47:18Z</time>
      </trkpt>
      <trkpt lat="44.33115" lon="6.04759">
        <ele>1008</ele>
        <time>2020-06-11T09:47:22Z</time>
      </trkpt>
      <trkpt lat="44.33113" lon="6.04765">
        <ele>1008</ele>
        <time>2020-06-11T09:47:24Z</time>
      </trkpt>
      <trkpt lat="44.3311" lon="6.04773">
        <ele>1009</ele>
        <time>2020-06-11T09:47:27Z</time>
      </trkpt>
      <trkpt lat="44.33106" lon="6.0478">
        <ele>1010</ele>
        <time>2020-06-11T09:47:30Z</time>
      </trkpt>
      <trkpt lat="44.33105" lon="6.04782">
        <ele>1010</ele>
        <time>2020-06-11T09:47:31Z</time>
      </trkpt>
      <trkpt lat="44.331" lon="6.0479">
        <ele>1011</ele>
        <time>2020-06-11T09:47:35Z</time>
      </trkpt>
      <trkpt lat="44.33099" lon="6.04792">
        <ele>1011</ele>
        <time>2020-06-11T09:47:36Z</time>
      </trkpt>
      <trkpt lat="44.33092" lon="6.04799">
        <ele>1013</ele>
        <time>2020-06-11T09:47:40Z</time>
      </trkpt>
      <trkpt lat="44.33086" lon="6.04805">
        <ele>1013</ele>
        <time>2020-06-11T09:47:43Z</time>
      </trkpt>
      <trkpt lat="44.33085" lon="6.04808">
        <ele>1014</ele>
        <time>2020-06-11T09:47:44Z</time>
      </trkpt>
      <trkpt lat="44.33081" lon="6.04822">
        <ele>1015</ele>
        <time>2020-06-11T09:47:49Z</time>
      </trkpt>
      <trkpt lat="44.33082" lon="6.04825">
        <ele>1015</ele>
        <time>2020-06-11T09:47:50Z</time>
      </trkpt>
      <trkpt lat="44.33083" lon="6.04837">
        <ele>1016</ele>
        <time>2020-06-11T09:47:54Z</time>
      </trkpt>
      <trkpt lat="44.33083" lon="6.04846">
        <ele>1017</ele>
        <time>2020-06-11T09:47:57Z</time>
      </trkpt>
      <trkpt lat="44.33082" lon="6.04849">
        <ele>1017</ele>
        <time>2020-06-11T09:47:58Z</time>
      </trkpt>
      <trkpt lat="44.33076" lon="6.04857">
        <ele>1018</ele>
        <time>2020-06-11T09:48:02Z</time>
      </trkpt>
      <trkpt lat="44.33074" lon="6.04858">
        <ele>1018</ele>
        <time>2020-06-11T09:48:03Z</time>
      </trkpt>
      <trkpt lat="44.33067" lon="6.04859">
        <ele>1019</ele>
        <time>2020-06-11T09:48:06Z</time>
      </trkpt>
      <trkpt lat="44.33061" lon="6.04859">
        <ele>1020</ele>
        <time>2020-06-11T09:48:09Z</time>
      </trkpt>
      <trkpt lat="44.33052" lon="6.04858">
        <ele>1020</ele>
        <time>2020-06-11T09:48:13Z</time>
      </trkpt>
      <trkpt lat="44.33048" lon="6.04859">
        <ele>1021</ele>
        <time>2020-06-11T09:48:15Z</time>
      </trkpt>
      <trkpt lat="44.33043" lon="6.0486">
        <ele>1021</ele>
        <time>2020-06-11T09:48:17Z</time>
      </trkpt>
      <trkpt lat="44.33029" lon="6.04866">
        <ele>1022</ele>
        <time>2020-06-11T09:48:23Z</time>
      </trkpt>
      <trkpt lat="44.3302" lon="6.0487">
        <ele>1024</ele>
        <time>2020-06-11T09:48:27Z</time>
      </trkpt>
      <trkpt lat="44.33007" lon="6.04876">
        <ele>1025</ele>
        <time>2020-06-11T09:48:33Z</time>
      </trkpt>
      <trkpt lat="44.32996" lon="6.04877">
        <ele>1026</ele>
        <time>2020-06-11T09:48:38Z</time>
      </trkpt>
      <trkpt lat="44.32993" lon="6.04876">
        <ele>1026</ele>
        <time>2020-06-11T09:48:40Z</time>
      </trkpt>
      <trkpt lat="44.32985" lon="6.04875">
        <ele>1027</ele>
        <time>2020-06-11T09:48:43Z</time>
      </trkpt>
      <trkpt lat="44.32977" lon="6.04876">
        <ele>1028</ele>
        <time>2020-06-11T09:48:46Z</time>
      </trkpt>
      <trkpt lat="44.3297" lon="6.04881">
        <ele>1028</ele>
        <time>2020-06-11T09:48:49Z</time>
      </trkpt>
      <trkpt lat="44.32965" lon="6.04889">
        <ele>1029</ele>
        <time>2020-06-11T09:48:52Z</time>
      </trkpt>
      <trkpt lat="44.32964" lon="6.04892">
        <ele>1029</ele>
        <time>2020-06-11T09:48:53Z</time>
      </trkpt>
      <trkpt lat="44.32965" lon="6.04904">
        <ele>1030</ele>
        <time>2020-06-11T09:48:57Z</time>
      </trkpt>
      <trkpt lat="44.32965" lon="6.04907">
        <ele>1030</ele>
        <time>2020-06-11T09:48:58Z</time>
      </trkpt>
      <trkpt lat="44.32967" lon="6.04916">
        <ele>1032</ele>
        <time>2020-06-11T09:49:01Z</time>
      </trkpt>
      <trkpt lat="44.32966" lon="6.04925">
        <ele>1032</ele>
        <time>2020-06-11T09:49:04Z</time>
      </trkpt>
      <trkpt lat="44.32965" lon="6.04928">
        <ele>1033</ele>
        <time>2020-06-11T09:49:05Z</time>
      </trkpt>
      <trkpt lat="44.32963" lon="6.04943">
        <ele>1034</ele>
        <time>2020-06-11T09:49:11Z</time>
      </trkpt>
      <trkpt lat="44.32963" lon="6.04946">
        <ele>1034</ele>
        <time>2020-06-11T09:49:12Z</time>
      </trkpt>
      <trkpt lat="44.32963" lon="6.04954">
        <ele>1035</ele>
        <time>2020-06-11T09:49:15Z</time>
      </trkpt>
      <trkpt lat="44.32964" lon="6.04965">
        <ele>1036</ele>
        <time>2020-06-11T09:49:19Z</time>
      </trkpt>
      <trkpt lat="44.32967" lon="6.04976">
        <ele>1037</ele>
        <time>2020-06-11T09:49:23Z</time>
      </trkpt>
      <trkpt lat="44.32968" lon="6.04984">
        <ele>1038</ele>
        <time>2020-06-11T09:49:26Z</time>
      </trkpt>
      <trkpt lat="44.32968" lon="6.04987">
        <ele>1039</ele>
        <time>2020-06-11T09:49:27Z</time>
      </trkpt>
      <trkpt lat="44.32964" lon="6.05002">
        <ele>1040</ele>
        <time>2020-06-11T09:49:33Z</time>
      </trkpt>
      <trkpt lat="44.32963" lon="6.05004">
        <ele>1040</ele>
        <time>2020-06-11T09:49:34Z</time>
      </trkpt>
      <trkpt lat="44.32956" lon="6.05012">
        <ele>1041</ele>
        <time>2020-06-11T09:49:38Z</time>
      </trkpt>
      <trkpt lat="44.32949" lon="6.0502">
        <ele>1042</ele>
        <time>2020-06-11T09:49:42Z</time>
      </trkpt>
      <trkpt lat="44.32948" lon="6.05022">
        <ele>1042</ele>
        <time>2020-06-11T09:49:43Z</time>
      </trkpt>
      <trkpt lat="44.32941" lon="6.05035">
        <ele>1044</ele>
        <time>2020-06-11T09:49:48Z</time>
      </trkpt>
      <trkpt lat="44.3294" lon="6.05041">
        <ele>1044</ele>
        <time>2020-06-11T09:49:50Z</time>
      </trkpt>
      <trkpt lat="44.32938" lon="6.05046">
        <ele>1045</ele>
        <time>2020-06-11T09:49:52Z</time>
      </trkpt>
      <trkpt lat="44.32934" lon="6.05057">
        <ele>1046</ele>
        <time>2020-06-11T09:49:56Z</time>
      </trkpt>
      <trkpt lat="44.32933" lon="6.05059">
        <ele>1046</ele>
        <time>2020-06-11T09:49:57Z</time>
      </trkpt>
      <trkpt lat="44.3293" lon="6.05069">
        <ele>1047</ele>
        <time>2020-06-11T09:50:01Z</time>
      </trkpt>
      <trkpt lat="44.32931" lon="6.05077">
        <ele>1048</ele>
        <time>2020-06-11T09:50:04Z</time>
      </trkpt>
      <trkpt lat="44.32939" lon="6.05082">
        <ele>1049</ele>
        <time>2020-06-11T09:50:08Z</time>
      </trkpt>
      <trkpt lat="44.32941" lon="6.05081">
        <ele>1049</ele>
        <time>2020-06-11T09:50:09Z</time>
      </trkpt>
      <trkpt lat="44.32947" lon="6.05073">
        <ele>1050</ele>
        <time>2020-06-11T09:50:12Z</time>
      </trkpt>
      <trkpt lat="44.32949" lon="6.05066">
        <ele>1051</ele>
        <time>2020-06-11T09:50:14Z</time>
      </trkpt>
      <trkpt lat="44.32954" lon="6.05054">
        <ele>1051</ele>
        <time>2020-06-11T09:50:18Z</time>
      </trkpt>
      <trkpt lat="44.32957" lon="6.05048">
        <ele>1052</ele>
        <time>2020-06-11T09:50:20Z</time>
      </trkpt>
      <trkpt lat="44.32964" lon="6.05036">
        <ele>1052</ele>
        <time>2020-06-11T09:50:25Z</time>
      </trkpt>
      <trkpt lat="44.32968" lon="6.05033">
        <ele>1053</ele>
        <time>2020-06-11T09:50:27Z</time>
      </trkpt>
      <trkpt lat="44.32977" lon="6.05031">
        <ele>1054</ele>
        <time>2020-06-11T09:50:31Z</time>
      </trkpt>
      <trkpt lat="44.32979" lon="6.05031">
        <ele>1054</ele>
        <time>2020-06-11T09:50:32Z</time>
      </trkpt>
      <trkpt lat="44.32986" lon="6.05029">
        <ele>1055</ele>
        <time>2020-06-11T09:50:36Z</time>
      </trkpt>
      <trkpt lat="44.3299" lon="6.05024">
        <ele>1056</ele>
        <time>2020-06-11T09:50:39Z</time>
      </trkpt>
      <trkpt lat="44.32998" lon="6.05012">
        <ele>1057</ele>
        <time>2020-06-11T09:50:44Z</time>
      </trkpt>
      <trkpt lat="44.32999" lon="6.05009">
        <ele>1058</ele>
        <time>2020-06-11T09:50:45Z</time>
      </trkpt>
      <trkpt lat="44.33002" lon="6.05001">
        <ele>1058</ele>
        <time>2020-06-11T09:50:48Z</time>
      </trkpt>
      <trkpt lat="44.33005" lon="6.04986">
        <ele>1059</ele>
        <time>2020-06-11T09:50:53Z</time>
      </trkpt>
      <trkpt lat="44.33007" lon="6.04975">
        <ele>1061</ele>
        <time>2020-06-11T09:50:57Z</time>
      </trkpt>
      <trkpt lat="44.33011" lon="6.04967">
        <ele>1061</ele>
        <time>2020-06-11T09:51:00Z</time>
      </trkpt>
      <trkpt lat="44.33014" lon="6.04964">
        <ele>1062</ele>
        <time>2020-06-11T09:51:02Z</time>
      </trkpt>
      <trkpt lat="44.33021" lon="6.04956">
        <ele>1063</ele>
        <time>2020-06-11T09:51:06Z</time>
      </trkpt>
      <trkpt lat="44.33027" lon="6.04951">
        <ele>1064</ele>
        <time>2020-06-11T09:51:10Z</time>
      </trkpt>
      <trkpt lat="44.33029" lon="6.04949">
        <ele>1064</ele>
        <time>2020-06-11T09:51:11Z</time>
      </trkpt>
      <trkpt lat="44.33039" lon="6.04945">
        <ele>1065</ele>
        <time>2020-06-11T09:51:16Z</time>
      </trkpt>
      <trkpt lat="44.3304" lon="6.04944">
        <ele>1065</ele>
        <time>2020-06-11T09:51:17Z</time>
      </trkpt>
      <trkpt lat="44.33046" lon="6.04942">
        <ele>1066</ele>
        <time>2020-06-11T09:51:20Z</time>
      </trkpt>
      <trkpt lat="44.33054" lon="6.0494">
        <ele>1067</ele>
        <time>2020-06-11T09:51:24Z</time>
      </trkpt>
      <trkpt lat="44.33059" lon="6.0494">
        <ele>1067</ele>
        <time>2020-06-11T09:51:26Z</time>
      </trkpt>
      <trkpt lat="44.33065" lon="6.0494">
        <ele>1068</ele>
        <time>2020-06-11T09:51:29Z</time>
      </trkpt>
      <trkpt lat="44.33073" lon="6.04943">
        <ele>1069</ele>
        <time>2020-06-11T09:51:33Z</time>
      </trkpt>
      <trkpt lat="44.33074" lon="6.04944">
        <ele>1069</ele>
        <time>2020-06-11T09:51:34Z</time>
      </trkpt>
      <trkpt lat="44.33086" lon="6.04949">
        <ele>1071</ele>
        <time>2020-06-11T09:51:40Z</time>
      </trkpt>
      <trkpt lat="44.33091" lon="6.0495">
        <ele>1071</ele>
        <time>2020-06-11T09:51:42Z</time>
      </trkpt>
      <trkpt lat="44.33103" lon="6.04946">
        <ele>1072</ele>
        <time>2020-06-11T09:51:48Z</time>
      </trkpt>
      <trkpt lat="44.33106" lon="6.04942">
        <ele>1072</ele>
        <time>2020-06-11T09:51:50Z</time>
      </trkpt>
      <trkpt lat="44.33114" lon="6.04934">
        <ele>1073</ele>
        <time>2020-06-11T09:51:54Z</time>
      </trkpt>
      <trkpt lat="44.33115" lon="6.04932">
        <ele>1073</ele>
        <time>2020-06-11T09:51:55Z</time>
      </trkpt>
      <trkpt lat="44.33123" lon="6.04925">
        <ele>1074</ele>
        <time>2020-06-11T09:51:59Z</time>
      </trkpt>
      <trkpt lat="44.33125" lon="6.04925">
        <ele>1074</ele>
        <time>2020-06-11T09:52:00Z</time>
      </trkpt>
      <trkpt lat="44.33135" lon="6.04923">
        <ele>1075</ele>
        <time>2020-06-11T09:52:05Z</time>
      </trkpt>
      <trkpt lat="44.33144" lon="6.04919">
        <ele>1076</ele>
        <time>2020-06-11T09:52:09Z</time>
      </trkpt>
      <trkpt lat="44.33146" lon="6.04917">
        <ele>1077</ele>
        <time>2020-06-11T09:52:10Z</time>
      </trkpt>
      <trkpt lat="44.3315" lon="6.04911">
        <ele>1078</ele>
        <time>2020-06-11T09:52:13Z</time>
      </trkpt>
      <trkpt lat="44.33156" lon="6.04901">
        <ele>1078</ele>
        <time>2020-06-11T09:52:17Z</time>
      </trkpt>
      <trkpt lat="44.33169" lon="6.04891">
        <ele>1079</ele>
        <time>2020-06-11T09:52:22Z</time>
      </trkpt>
      <trkpt lat="44.33174" lon="6.04887">
        <ele>1079</ele>
        <time>2020-06-11T09:52:24Z</time>
      </trkpt>
      <trkpt lat="44.3318" lon="6.04879">
        <ele>1080</ele>
        <time>2020-06-11T09:52:27Z</time>
      </trkpt>
      <trkpt lat="44.33185" lon="6.04871">
        <ele>1080</ele>
        <time>2020-06-11T09:52:30Z</time>
      </trkpt>
      <trkpt lat="44.33189" lon="6.04867">
        <ele>1081</ele>
        <time>2020-06-11T09:52:32Z</time>
      </trkpt>
      <trkpt lat="44.33195" lon="6.04859">
        <ele>1082</ele>
        <time>2020-06-11T09:52:36Z</time>
      </trkpt>
      <trkpt lat="44.33197" lon="6.04857">
        <ele>1082</ele>
        <time>2020-06-11T09:52:37Z</time>
      </trkpt>
      <trkpt lat="44.33204" lon="6.04844">
        <ele>1083</ele>
        <time>2020-06-11T09:52:42Z</time>
      </trkpt>
      <trkpt lat="44.33208" lon="6.04839">
        <ele>1084</ele>
        <time>2020-06-11T09:52:44Z</time>
      </trkpt>
      <trkpt lat="44.33212" lon="6.04835">
        <ele>1084</ele>
        <time>2020-06-11T09:52:46Z</time>
      </trkpt>
      <trkpt lat="44.33221" lon="6.04826">
        <ele>1085</ele>
        <time>2020-06-11T09:52:51Z</time>
      </trkpt>
      <trkpt lat="44.33223" lon="6.04824">
        <ele>1086</ele>
        <time>2020-06-11T09:52:52Z</time>
      </trkpt>
      <trkpt lat="44.3323" lon="6.04818">
        <ele>1086</ele>
        <time>2020-06-11T09:52:56Z</time>
      </trkpt>
      <trkpt lat="44.33234" lon="6.04814">
        <ele>1087</ele>
        <time>2020-06-11T09:52:58Z</time>
      </trkpt>
      <trkpt lat="44.33238" lon="6.04807">
        <ele>1088</ele>
        <time>2020-06-11T09:53:01Z</time>
      </trkpt>
      <trkpt lat="44.33241" lon="6.04801">
        <ele>1088</ele>
        <time>2020-06-11T09:53:03Z</time>
      </trkpt>
      <trkpt lat="44.33243" lon="6.04799">
        <ele>1088</ele>
        <time>2020-06-11T09:53:04Z</time>
      </trkpt>
      <trkpt lat="44.33248" lon="6.04797">
        <ele>1089</ele>
        <time>2020-06-11T09:53:06Z</time>
      </trkpt>
      <trkpt lat="44.3325" lon="6.04796">
        <ele>1089</ele>
        <time>2020-06-11T09:53:07Z</time>
      </trkpt>
      <trkpt lat="44.33258" lon="6.04792">
        <ele>1090</ele>
        <time>2020-06-11T09:53:11Z</time>
      </trkpt>
      <trkpt lat="44.33265" lon="6.04789">
        <ele>1090</ele>
        <time>2020-06-11T09:53:14Z</time>
      </trkpt>
      <trkpt lat="44.3327" lon="6.04788">
        <ele>1091</ele>
        <time>2020-06-11T09:53:17Z</time>
      </trkpt>
      <trkpt lat="44.33275" lon="6.04789">
        <ele>1091</ele>
        <time>2020-06-11T09:53:20Z</time>
      </trkpt>
      <trkpt lat="44.33279" lon="6.04789">
        <ele>1092</ele>
        <time>2020-06-11T09:53:22Z</time>
      </trkpt>
      <trkpt lat="44.33286" lon="6.04789">
        <ele>1093</ele>
        <time>2020-06-11T09:53:25Z</time>
      </trkpt>
      <trkpt lat="44.33288" lon="6.0479">
        <ele>1093</ele>
        <time>2020-06-11T09:53:26Z</time>
      </trkpt>
      <trkpt lat="44.33296" lon="6.04787">
        <ele>1094</ele>
        <time>2020-06-11T09:53:30Z</time>
      </trkpt>
      <trkpt lat="44.33298" lon="6.04786">
        <ele>1094</ele>
        <time>2020-06-11T09:53:31Z</time>
      </trkpt>
      <trkpt lat="44.33306" lon="6.04785">
        <ele>1095</ele>
        <time>2020-06-11T09:53:35Z</time>
      </trkpt>
      <trkpt lat="44.33311" lon="6.04784">
        <ele>1095</ele>
        <time>2020-06-11T09:53:37Z</time>
      </trkpt>
      <trkpt lat="44.33317" lon="6.04784">
        <ele>1096</ele>
        <time>2020-06-11T09:53:41Z</time>
      </trkpt>
      <trkpt lat="44.33319" lon="6.04784">
        <ele>1096</ele>
        <time>2020-06-11T09:53:42Z</time>
      </trkpt>
      <trkpt lat="44.33328" lon="6.04783">
        <ele>1097</ele>
        <time>2020-06-11T09:53:46Z</time>
      </trkpt>
      <trkpt lat="44.33331" lon="6.04782">
        <ele>1098</ele>
        <time>2020-06-11T09:53:47Z</time>
      </trkpt>
      <trkpt lat="44.33347" lon="6.04775">
        <ele>1099</ele>
        <time>2020-06-11T09:53:53Z</time>
      </trkpt>
      <trkpt lat="44.33362" lon="6.0477">
        <ele>1100</ele>
        <time>2020-06-11T09:53:58Z</time>
      </trkpt>
      <trkpt lat="44.33364" lon="6.04769">
        <ele>1100</ele>
        <time>2020-06-11T09:53:59Z</time>
      </trkpt>
      <trkpt lat="44.33372" lon="6.04767">
        <ele>1101</ele>
        <time>2020-06-11T09:54:02Z</time>
      </trkpt>
      <trkpt lat="44.33379" lon="6.04766">
        <ele>1101</ele>
        <time>2020-06-11T09:54:05Z</time>
      </trkpt>
      <trkpt lat="44.33384" lon="6.04766">
        <ele>1101</ele>
        <time>2020-06-11T09:54:07Z</time>
      </trkpt>
      <trkpt lat="44.33388" lon="6.04767">
        <ele>1102</ele>
        <time>2020-06-11T09:54:09Z</time>
      </trkpt>
      <trkpt lat="44.33394" lon="6.04767">
        <ele>1103</ele>
        <time>2020-06-11T09:54:12Z</time>
      </trkpt>
      <trkpt lat="44.33404" lon="6.04768">
        <ele>1104</ele>
        <time>2020-06-11T09:54:17Z</time>
      </trkpt>
      <trkpt lat="44.33406" lon="6.04767">
        <ele>1104</ele>
        <time>2020-06-11T09:54:18Z</time>
      </trkpt>
      <trkpt lat="44.33415" lon="6.04764">
        <ele>1106</ele>
        <time>2020-06-11T09:54:23Z</time>
      </trkpt>
      <trkpt lat="44.3343" lon="6.0476">
        <ele>1106</ele>
        <time>2020-06-11T09:54:29Z</time>
      </trkpt>
      <trkpt lat="44.33432" lon="6.0476">
        <ele>1107</ele>
        <time>2020-06-11T09:54:30Z</time>
      </trkpt>
      <trkpt lat="44.33444" lon="6.0476">
        <ele>1108</ele>
        <time>2020-06-11T09:54:35Z</time>
      </trkpt>
      <trkpt lat="44.33447" lon="6.0476">
        <ele>1108</ele>
        <time>2020-06-11T09:54:36Z</time>
      </trkpt>
      <trkpt lat="44.33457" lon="6.04758">
        <ele>1109</ele>
        <time>2020-06-11T09:54:41Z</time>
      </trkpt>
      <trkpt lat="44.33467" lon="6.04758">
        <ele>1110</ele>
        <time>2020-06-11T09:54:46Z</time>
      </trkpt>
      <trkpt lat="44.3347" lon="6.04758">
        <ele>1110</ele>
        <time>2020-06-11T09:54:47Z</time>
      </trkpt>
      <trkpt lat="44.33479" lon="6.04761">
        <ele>1111</ele>
        <time>2020-06-11T09:54:51Z</time>
      </trkpt>
      <trkpt lat="44.33484" lon="6.04764">
        <ele>1111</ele>
        <time>2020-06-11T09:54:53Z</time>
      </trkpt>
      <trkpt lat="44.3349" lon="6.04767">
        <ele>1112</ele>
        <time>2020-06-11T09:54:55Z</time>
      </trkpt>
      <trkpt lat="44.33503" lon="6.04772">
        <ele>1113</ele>
        <time>2020-06-11T09:54:59Z</time>
      </trkpt>
      <trkpt lat="44.3351" lon="6.04775">
        <ele>1113</ele>
        <time>2020-06-11T09:55:02Z</time>
      </trkpt>
      <trkpt lat="44.33518" lon="6.0478">
        <ele>1114</ele>
        <time>2020-06-11T09:55:05Z</time>
      </trkpt>
      <trkpt lat="44.3352" lon="6.04781">
        <ele>1114</ele>
        <time>2020-06-11T09:55:06Z</time>
      </trkpt>
      <trkpt lat="44.33534" lon="6.04789">
        <ele>1115</ele>
        <time>2020-06-11T09:55:11Z</time>
      </trkpt>
      <trkpt lat="44.33545" lon="6.04795">
        <ele>1115</ele>
        <time>2020-06-11T09:55:15Z</time>
      </trkpt>
      <trkpt lat="44.33552" lon="6.04797">
        <ele>1116</ele>
        <time>2020-06-11T09:55:18Z</time>
      </trkpt>
      <trkpt lat="44.33557" lon="6.04798">
        <ele>1116</ele>
        <time>2020-06-11T09:55:20Z</time>
      </trkpt>
      <trkpt lat="44.3357" lon="6.048">
        <ele>1117</ele>
        <time>2020-06-11T09:55:24Z</time>
      </trkpt>
      <trkpt lat="44.33591" lon="6.048">
        <ele>1117</ele>
        <time>2020-06-11T09:55:31Z</time>
      </trkpt>
      <trkpt lat="44.33597" lon="6.04799">
        <ele>1118</ele>
        <time>2020-06-11T09:55:33Z</time>
      </trkpt>
      <trkpt lat="44.33618" lon="6.048">
        <ele>1117</ele>
        <time>2020-06-11T09:55:39Z</time>
      </trkpt>
      <trkpt lat="44.33622" lon="6.04801">
        <ele>1117</ele>
        <time>2020-06-11T09:55:40Z</time>
      </trkpt>
      <trkpt lat="44.33647" lon="6.04818">
        <ele>1118</ele>
        <time>2020-06-11T09:55:47Z</time>
      </trkpt>
      <trkpt lat="44.33653" lon="6.04824">
        <ele>1118</ele>
        <time>2020-06-11T09:55:49Z</time>
      </trkpt>
      <trkpt lat="44.33665" lon="6.04836">
        <ele>1118</ele>
        <time>2020-06-11T09:55:53Z</time>
      </trkpt>
      <trkpt lat="44.33677" lon="6.04857">
        <ele>1118</ele>
        <time>2020-06-11T09:55:58Z</time>
      </trkpt>
      <trkpt lat="44.33685" lon="6.0488">
        <ele>1118</ele>
        <time>2020-06-11T09:56:03Z</time>
      </trkpt>
      <trkpt lat="44.33688" lon="6.04889">
        <ele>1118</ele>
        <time>2020-06-11T09:56:05Z</time>
      </trkpt>
      <trkpt lat="44.3369" lon="6.04898">
        <ele>1118</ele>
        <time>2020-06-11T09:56:07Z</time>
      </trkpt>
      <trkpt lat="44.33694" lon="6.04924">
        <ele>1118</ele>
        <time>2020-06-11T09:56:12Z</time>
      </trkpt>
      <trkpt lat="44.33702" lon="6.04948">
        <ele>1118</ele>
        <time>2020-06-11T09:56:16Z</time>
      </trkpt>
      <trkpt lat="44.3371" lon="6.04965">
        <ele>1119</ele>
        <time>2020-06-11T09:56:19Z</time>
      </trkpt>
      <trkpt lat="44.3372" lon="6.04981">
        <ele>1118</ele>
        <time>2020-06-11T09:56:22Z</time>
      </trkpt>
      <trkpt lat="44.33724" lon="6.04985">
        <ele>1118</ele>
        <time>2020-06-11T09:56:23Z</time>
      </trkpt>
      <trkpt lat="44.33754" lon="6.05008">
        <ele>1118</ele>
        <time>2020-06-11T09:56:30Z</time>
      </trkpt>
      <trkpt lat="44.33761" lon="6.05017">
        <ele>1118</ele>
        <time>2020-06-11T09:56:32Z</time>
      </trkpt>
      <trkpt lat="44.33766" lon="6.05029">
        <ele>1118</ele>
        <time>2020-06-11T09:56:34Z</time>
      </trkpt>
      <trkpt lat="44.33769" lon="6.05036">
        <ele>1118</ele>
        <time>2020-06-11T09:56:35Z</time>
      </trkpt>
      <trkpt lat="44.33789" lon="6.05079">
        <ele>1118</ele>
        <time>2020-06-11T09:56:42Z</time>
      </trkpt>
      <trkpt lat="44.33795" lon="6.05104">
        <ele>1117</ele>
        <time>2020-06-11T09:56:46Z</time>
      </trkpt>
      <trkpt lat="44.33798" lon="6.05114">
        <ele>1117</ele>
        <time>2020-06-11T09:56:48Z</time>
      </trkpt>
      <trkpt lat="44.33799" lon="6.05131">
        <ele>1116</ele>
        <time>2020-06-11T09:56:53Z</time>
      </trkpt>
      <trkpt lat="44.33799" lon="6.05132">
        <ele>1116</ele>
        <time>2020-06-11T09:56:54Z</time>
      </trkpt>
      <trkpt lat="44.33798" lon="6.05133">
        <ele>1116</ele>
        <time>2020-06-11T09:56:58Z</time>
      </trkpt>
      <trkpt lat="44.338" lon="6.05144">
        <ele>1116</ele>
        <time>2020-06-11T09:57:04Z</time>
      </trkpt>
      <trkpt lat="44.33804" lon="6.05167">
        <ele>1116</ele>
        <time>2020-06-11T09:57:10Z</time>
      </trkpt>
      <trkpt lat="44.33804" lon="6.0519">
        <ele>1116</ele>
        <time>2020-06-11T09:57:15Z</time>
      </trkpt>
      <trkpt lat="44.33805" lon="6.0521">
        <ele>1116</ele>
        <time>2020-06-11T09:57:20Z</time>
      </trkpt>
      <trkpt lat="44.33799" lon="6.05238">
        <ele>1116</ele>
        <time>2020-06-11T09:57:26Z</time>
      </trkpt>
      <trkpt lat="44.33792" lon="6.05268">
        <ele>1116</ele>
        <time>2020-06-11T09:57:32Z</time>
      </trkpt>
      <trkpt lat="44.33784" lon="6.05289">
        <ele>1115</ele>
        <time>2020-06-11T09:57:36Z</time>
      </trkpt>
      <trkpt lat="44.33775" lon="6.0532">
        <ele>1115</ele>
        <time>2020-06-11T09:57:41Z</time>
      </trkpt>
      <trkpt lat="44.33771" lon="6.05342">
        <ele>1115</ele>
        <time>2020-06-11T09:57:44Z</time>
      </trkpt>
      <trkpt lat="44.33767" lon="6.05357">
        <ele>1115</ele>
        <time>2020-06-11T09:57:46Z</time>
      </trkpt>
      <trkpt lat="44.33763" lon="6.05364">
        <ele>1115</ele>
        <time>2020-06-11T09:57:47Z</time>
      </trkpt>
      <trkpt lat="44.3376" lon="6.05379">
        <ele>1114</ele>
        <time>2020-06-11T09:57:49Z</time>
      </trkpt>
      <trkpt lat="44.3376" lon="6.05387">
        <ele>1114</ele>
        <time>2020-06-11T09:57:50Z</time>
      </trkpt>
      <trkpt lat="44.33758" lon="6.05405">
        <ele>1113</ele>
        <time>2020-06-11T09:57:52Z</time>
      </trkpt>
      <trkpt lat="44.33758" lon="6.05414">
        <ele>1113</ele>
        <time>2020-06-11T09:57:53Z</time>
      </trkpt>
      <trkpt lat="44.33759" lon="6.05423">
        <ele>1112</ele>
        <time>2020-06-11T09:57:54Z</time>
      </trkpt>
      <trkpt lat="44.33756" lon="6.05441">
        <ele>1112</ele>
        <time>2020-06-11T09:57:56Z</time>
      </trkpt>
      <trkpt lat="44.33755" lon="6.05457">
        <ele>1112</ele>
        <time>2020-06-11T09:57:58Z</time>
      </trkpt>
      <trkpt lat="44.33754" lon="6.05465">
        <ele>1111</ele>
        <time>2020-06-11T09:57:59Z</time>
      </trkpt>
      <trkpt lat="44.33751" lon="6.05479">
        <ele>1111</ele>
        <time>2020-06-11T09:58:01Z</time>
      </trkpt>
      <trkpt lat="44.33743" lon="6.055">
        <ele>1111</ele>
        <time>2020-06-11T09:58:04Z</time>
      </trkpt>
      <trkpt lat="44.33741" lon="6.05507">
        <ele>1111</ele>
        <time>2020-06-11T09:58:05Z</time>
      </trkpt>
      <trkpt lat="44.33738" lon="6.05528">
        <ele>1110</ele>
        <time>2020-06-11T09:58:08Z</time>
      </trkpt>
      <trkpt lat="44.33739" lon="6.05536">
        <ele>1108</ele>
        <time>2020-06-11T09:58:10Z</time>
      </trkpt>
      <trkpt lat="44.33739" lon="6.05539">
        <ele>1107</ele>
        <time>2020-06-11T09:58:11Z</time>
      </trkpt>
      <trkpt lat="44.33739" lon="6.05542">
        <ele>1107</ele>
        <time>2020-06-11T09:58:12Z</time>
      </trkpt>
      <trkpt lat="44.33735" lon="6.05546">
        <ele>1106</ele>
        <time>2020-06-11T09:58:14Z</time>
      </trkpt>
      <trkpt lat="44.33732" lon="6.05547">
        <ele>1105</ele>
        <time>2020-06-11T09:58:16Z</time>
      </trkpt>
      <trkpt lat="44.33724" lon="6.05552">
        <ele>1105</ele>
        <time>2020-06-11T09:58:22Z</time>
      </trkpt>
      <trkpt lat="44.33714" lon="6.05554">
        <ele>1105</ele>
        <time>2020-06-11T09:58:28Z</time>
      </trkpt>
      <trkpt lat="44.33699" lon="6.05557">
        <ele>1105</ele>
        <time>2020-06-11T09:58:32Z</time>
      </trkpt>
      <trkpt lat="44.33681" lon="6.05567">
        <ele>1106</ele>
        <time>2020-06-11T09:58:37Z</time>
      </trkpt>
      <trkpt lat="44.33676" lon="6.05575">
        <ele>1106</ele>
        <time>2020-06-11T09:58:40Z</time>
      </trkpt>
      <trkpt lat="44.33672" lon="6.05579">
        <ele>1107</ele>
        <time>2020-06-11T09:58:42Z</time>
      </trkpt>
      <trkpt lat="44.33671" lon="6.05581">
        <ele>1107</ele>
        <time>2020-06-11T09:58:43Z</time>
      </trkpt>
      <trkpt lat="44.33662" lon="6.05582">
        <ele>1108</ele>
        <time>2020-06-11T09:58:46Z</time>
      </trkpt>
      <trkpt lat="44.33646" lon="6.05586">
        <ele>1109</ele>
        <time>2020-06-11T09:58:51Z</time>
      </trkpt>
      <trkpt lat="44.33638" lon="6.05585">
        <ele>1109</ele>
        <time>2020-06-11T09:58:53Z</time>
      </trkpt>
      <trkpt lat="44.33629" lon="6.05581">
        <ele>1108</ele>
        <time>2020-06-11T09:58:55Z</time>
      </trkpt>
      <trkpt lat="44.3362" lon="6.05572">
        <ele>1107</ele>
        <time>2020-06-11T09:58:57Z</time>
      </trkpt>
      <trkpt lat="44.33616" lon="6.0557">
        <ele>1107</ele>
        <time>2020-06-11T09:58:58Z</time>
      </trkpt>
      <trkpt lat="44.3361" lon="6.05569">
        <ele>1105</ele>
        <time>2020-06-11T09:59:00Z</time>
      </trkpt>
      <trkpt lat="44.33606" lon="6.05567">
        <ele>1104</ele>
        <time>2020-06-11T09:59:01Z</time>
      </trkpt>
      <trkpt lat="44.33602" lon="6.05564">
        <ele>1103</ele>
        <time>2020-06-11T09:59:02Z</time>
      </trkpt>
      <trkpt lat="44.33598" lon="6.05561">
        <ele>1102</ele>
        <time>2020-06-11T09:59:03Z</time>
      </trkpt>
      <trkpt lat="44.33589" lon="6.05556">
        <ele>1100</ele>
        <time>2020-06-11T09:59:05Z</time>
      </trkpt>
      <trkpt lat="44.33585" lon="6.05554">
        <ele>1100</ele>
        <time>2020-06-11T09:59:06Z</time>
      </trkpt>
      <trkpt lat="44.33582" lon="6.05552">
        <ele>1099</ele>
        <time>2020-06-11T09:59:07Z</time>
      </trkpt>
      <trkpt lat="44.33579" lon="6.05549">
        <ele>1097</ele>
        <time>2020-06-11T09:59:08Z</time>
      </trkpt>
      <trkpt lat="44.33576" lon="6.05547">
        <ele>1096</ele>
        <time>2020-06-11T09:59:09Z</time>
      </trkpt>
      <trkpt lat="44.33573" lon="6.05544">
        <ele>1095</ele>
        <time>2020-06-11T09:59:10Z</time>
      </trkpt>
      <trkpt lat="44.3357" lon="6.05541">
        <ele>1095</ele>
        <time>2020-06-11T09:59:11Z</time>
      </trkpt>
      <trkpt lat="44.33559" lon="6.05533">
        <ele>1094</ele>
        <time>2020-06-11T09:59:16Z</time>
      </trkpt>
      <trkpt lat="44.33545" lon="6.05528">
        <ele>1095</ele>
        <time>2020-06-11T09:59:21Z</time>
      </trkpt>
      <trkpt lat="44.33527" lon="6.05526">
        <ele>1096</ele>
        <time>2020-06-11T09:59:26Z</time>
      </trkpt>
      <trkpt lat="44.33525" lon="6.05526">
        <ele>1096</ele>
        <time>2020-06-11T09:59:27Z</time>
      </trkpt>
      <trkpt lat="44.33521" lon="6.05526">
        <ele>1096</ele>
        <time>2020-06-11T09:59:31Z</time>
      </trkpt>
      <trkpt lat="44.3352" lon="6.05525">
        <ele>1097</ele>
        <time>2020-06-11T09:59:35Z</time>
      </trkpt>
      <trkpt lat="44.33518" lon="6.05524">
        <ele>1097</ele>
        <time>2020-06-11T09:59:40Z</time>
      </trkpt>
      <trkpt lat="44.33514" lon="6.05523">
        <ele>1098</ele>
        <time>2020-06-11T09:59:44Z</time>
      </trkpt>
      <trkpt lat="44.33509" lon="6.05524">
        <ele>1098</ele>
        <time>2020-06-11T09:59:48Z</time>
      </trkpt>
      <trkpt lat="44.33501" lon="6.05526">
        <ele>1099</ele>
        <time>2020-06-11T09:59:52Z</time>
      </trkpt>
      <trkpt lat="44.33498" lon="6.05527">
        <ele>1099</ele>
        <time>2020-06-11T09:59:53Z</time>
      </trkpt>
      <trkpt lat="44.33488" lon="6.05528">
        <ele>1099</ele>
        <time>2020-06-11T09:59:57Z</time>
      </trkpt>
      <trkpt lat="44.33473" lon="6.05534">
        <ele>1100</ele>
        <time>2020-06-11T10:00:01Z</time>
      </trkpt>
      <trkpt lat="44.33458" lon="6.0554">
        <ele>1099</ele>
        <time>2020-06-11T10:00:05Z</time>
      </trkpt>
      <trkpt lat="44.33441" lon="6.05551">
        <ele>1100</ele>
        <time>2020-06-11T10:00:11Z</time>
      </trkpt>
      <trkpt lat="44.33431" lon="6.0556">
        <ele>1100</ele>
        <time>2020-06-11T10:00:15Z</time>
      </trkpt>
      <trkpt lat="44.33429" lon="6.05561">
        <ele>1100</ele>
        <time>2020-06-11T10:00:16Z</time>
      </trkpt>
      <trkpt lat="44.33424" lon="6.05565">
        <ele>1101</ele>
        <time>2020-06-11T10:00:19Z</time>
      </trkpt>
      <trkpt lat="44.33421" lon="6.05567">
        <ele>1102</ele>
        <time>2020-06-11T10:00:21Z</time>
      </trkpt>
      <trkpt lat="44.3342" lon="6.05568">
        <ele>1102</ele>
        <time>2020-06-11T10:00:22Z</time>
      </trkpt>
      <trkpt lat="44.33418" lon="6.05571">
        <ele>1103</ele>
        <time>2020-06-11T10:00:24Z</time>
      </trkpt>
      <trkpt lat="44.33412" lon="6.05576">
        <ele>1104</ele>
        <time>2020-06-11T10:00:28Z</time>
      </trkpt>
      <trkpt lat="44.33404" lon="6.05584">
        <ele>1105</ele>
        <time>2020-06-11T10:00:32Z</time>
      </trkpt>
      <trkpt lat="44.33399" lon="6.05589">
        <ele>1106</ele>
        <time>2020-06-11T10:00:34Z</time>
      </trkpt>
      <trkpt lat="44.33388" lon="6.05594">
        <ele>1106</ele>
        <time>2020-06-11T10:00:38Z</time>
      </trkpt>
      <trkpt lat="44.33385" lon="6.05596">
        <ele>1106</ele>
        <time>2020-06-11T10:00:39Z</time>
      </trkpt>
      <trkpt lat="44.33372" lon="6.05601">
        <ele>1105</ele>
        <time>2020-06-11T10:00:43Z</time>
      </trkpt>
      <trkpt lat="44.33368" lon="6.05601">
        <ele>1104</ele>
        <time>2020-06-11T10:00:44Z</time>
      </trkpt>
      <trkpt lat="44.33362" lon="6.056">
        <ele>1103</ele>
        <time>2020-06-11T10:00:46Z</time>
      </trkpt>
      <trkpt lat="44.33353" lon="6.05601">
        <ele>1102</ele>
        <time>2020-06-11T10:00:49Z</time>
      </trkpt>
      <trkpt lat="44.33349" lon="6.05603">
        <ele>1101</ele>
        <time>2020-06-11T10:00:50Z</time>
      </trkpt>
      <trkpt lat="44.33345" lon="6.05606">
        <ele>1101</ele>
        <time>2020-06-11T10:00:51Z</time>
      </trkpt>
      <trkpt lat="44.33337" lon="6.0561">
        <ele>1100</ele>
        <time>2020-06-11T10:00:53Z</time>
      </trkpt>
      <trkpt lat="44.33335" lon="6.0561">
        <ele>1099</ele>
        <time>2020-06-11T10:00:54Z</time>
      </trkpt>
      <trkpt lat="44.33332" lon="6.05609">
        <ele>1097</ele>
        <time>2020-06-11T10:00:55Z</time>
      </trkpt>
      <trkpt lat="44.33329" lon="6.05607">
        <ele>1096</ele>
        <time>2020-06-11T10:00:56Z</time>
      </trkpt>
      <trkpt lat="44.33325" lon="6.05605">
        <ele>1095</ele>
        <time>2020-06-11T10:00:57Z</time>
      </trkpt>
      <trkpt lat="44.33319" lon="6.05603">
        <ele>1094</ele>
        <time>2020-06-11T10:00:58Z</time>
      </trkpt>
      <trkpt lat="44.33312" lon="6.056">
        <ele>1092</ele>
        <time>2020-06-11T10:00:59Z</time>
      </trkpt>
      <trkpt lat="44.33305" lon="6.05597">
        <ele>1091</ele>
        <time>2020-06-11T10:01:00Z</time>
      </trkpt>
      <trkpt lat="44.333" lon="6.05596">
        <ele>1090</ele>
        <time>2020-06-11T10:01:01Z</time>
      </trkpt>
      <trkpt lat="44.33295" lon="6.05596">
        <ele>1089</ele>
        <time>2020-06-11T10:01:02Z</time>
      </trkpt>
      <trkpt lat="44.3329" lon="6.05597">
        <ele>1088</ele>
        <time>2020-06-11T10:01:03Z</time>
      </trkpt>
      <trkpt lat="44.33284" lon="6.05599">
        <ele>1086</ele>
        <time>2020-06-11T10:01:05Z</time>
      </trkpt>
      <trkpt lat="44.3328" lon="6.056">
        <ele>1085</ele>
        <time>2020-06-11T10:01:06Z</time>
      </trkpt>
      <trkpt lat="44.33277" lon="6.05601">
        <ele>1083</ele>
        <time>2020-06-11T10:01:07Z</time>
      </trkpt>
      <trkpt lat="44.33272" lon="6.05601">
        <ele>1082</ele>
        <time>2020-06-11T10:01:08Z</time>
      </trkpt>
      <trkpt lat="44.33269" lon="6.05602">
        <ele>1081</ele>
        <time>2020-06-11T10:01:09Z</time>
      </trkpt>
      <trkpt lat="44.33262" lon="6.05606">
        <ele>1079</ele>
        <time>2020-06-11T10:01:11Z</time>
      </trkpt>
      <trkpt lat="44.33255" lon="6.05611">
        <ele>1078</ele>
        <time>2020-06-11T10:01:13Z</time>
      </trkpt>
      <trkpt lat="44.33254" lon="6.05612">
        <ele>1076</ele>
        <time>2020-06-11T10:01:14Z</time>
      </trkpt>
      <trkpt lat="44.33253" lon="6.05614">
        <ele>1075</ele>
        <time>2020-06-11T10:01:15Z</time>
      </trkpt>
      <trkpt lat="44.33253" lon="6.05615">
        <ele>1073</ele>
        <time>2020-06-11T10:01:16Z</time>
      </trkpt>
      <trkpt lat="44.33252" lon="6.05615">
        <ele>1072</ele>
        <time>2020-06-11T10:01:18Z</time>
      </trkpt>
      <trkpt lat="44.33251" lon="6.05614">
        <ele>1072</ele>
        <time>2020-06-11T10:01:19Z</time>
      </trkpt>
      <trkpt lat="44.33243" lon="6.05619">
        <ele>1071</ele>
        <time>2020-06-11T10:01:22Z</time>
      </trkpt>
      <trkpt lat="44.33229" lon="6.05623">
        <ele>1070</ele>
        <time>2020-06-11T10:01:25Z</time>
      </trkpt>
      <trkpt lat="44.33226" lon="6.05626">
        <ele>1069</ele>
        <time>2020-06-11T10:01:26Z</time>
      </trkpt>
      <trkpt lat="44.33223" lon="6.05628">
        <ele>1069</ele>
        <time>2020-06-11T10:01:27Z</time>
      </trkpt>
      <trkpt lat="44.33215" lon="6.05631">
        <ele>1067</ele>
        <time>2020-06-11T10:01:30Z</time>
      </trkpt>
      <trkpt lat="44.33213" lon="6.05631">
        <ele>1067</ele>
        <time>2020-06-11T10:01:31Z</time>
      </trkpt>
      <trkpt lat="44.33204" lon="6.05635">
        <ele>1067</ele>
        <time>2020-06-11T10:01:36Z</time>
      </trkpt>
      <trkpt lat="44.33202" lon="6.05636">
        <ele>1067</ele>
        <time>2020-06-11T10:01:37Z</time>
      </trkpt>
      <trkpt lat="44.33197" lon="6.05638">
        <ele>1067</ele>
        <time>2020-06-11T10:01:42Z</time>
      </trkpt>
      <trkpt lat="44.33196" lon="6.05637">
        <ele>1067</ele>
        <time>2020-06-11T10:01:50Z</time>
      </trkpt>
      <trkpt lat="44.33196" lon="6.05639">
        <ele>1067</ele>
        <time>2020-06-11T10:01:59Z</time>
      </trkpt>
      <trkpt lat="44.33195" lon="6.05639">
        <ele>1067</ele>
        <time>2020-06-11T10:02:08Z</time>
      </trkpt>
      <trkpt lat="44.33194" lon="6.0564">
        <ele>1067</ele>
        <time>2020-06-11T10:02:09Z</time>
      </trkpt>
      <trkpt lat="44.33187" lon="6.0564">
        <ele>1066</ele>
        <time>2020-06-11T10:02:12Z</time>
      </trkpt>
      <trkpt lat="44.33178" lon="6.05639">
        <ele>1066</ele>
        <time>2020-06-11T10:02:15Z</time>
      </trkpt>
      <trkpt lat="44.33167" lon="6.05636">
        <ele>1066</ele>
        <time>2020-06-11T10:02:17Z</time>
      </trkpt>
      <trkpt lat="44.33157" lon="6.05634">
        <ele>1065</ele>
        <time>2020-06-11T10:02:19Z</time>
      </trkpt>
      <trkpt lat="44.33154" lon="6.05634">
        <ele>1064</ele>
        <time>2020-06-11T10:02:20Z</time>
      </trkpt>
      <trkpt lat="44.33147" lon="6.05635">
        <ele>1064</ele>
        <time>2020-06-11T10:02:22Z</time>
      </trkpt>
      <trkpt lat="44.33135" lon="6.05638">
        <ele>1064</ele>
        <time>2020-06-11T10:02:25Z</time>
      </trkpt>
      <trkpt lat="44.3313" lon="6.05641">
        <ele>1064</ele>
        <time>2020-06-11T10:02:26Z</time>
      </trkpt>
      <trkpt lat="44.33119" lon="6.05644">
        <ele>1063</ele>
        <time>2020-06-11T10:02:28Z</time>
      </trkpt>
      <trkpt lat="44.33113" lon="6.05648">
        <ele>1063</ele>
        <time>2020-06-11T10:02:29Z</time>
      </trkpt>
      <trkpt lat="44.33107" lon="6.05653">
        <ele>1062</ele>
        <time>2020-06-11T10:02:30Z</time>
      </trkpt>
      <trkpt lat="44.33102" lon="6.05657">
        <ele>1061</ele>
        <time>2020-06-11T10:02:31Z</time>
      </trkpt>
      <trkpt lat="44.33098" lon="6.0566">
        <ele>1060</ele>
        <time>2020-06-11T10:02:32Z</time>
      </trkpt>
      <trkpt lat="44.33093" lon="6.05664">
        <ele>1059</ele>
        <time>2020-06-11T10:02:33Z</time>
      </trkpt>
      <trkpt lat="44.33087" lon="6.05668">
        <ele>1058</ele>
        <time>2020-06-11T10:02:34Z</time>
      </trkpt>
      <trkpt lat="44.33082" lon="6.05671">
        <ele>1056</ele>
        <time>2020-06-11T10:02:35Z</time>
      </trkpt>
      <trkpt lat="44.33077" lon="6.05675">
        <ele>1055</ele>
        <time>2020-06-11T10:02:36Z</time>
      </trkpt>
      <trkpt lat="44.33074" lon="6.05677">
        <ele>1054</ele>
        <time>2020-06-11T10:02:37Z</time>
      </trkpt>
      <trkpt lat="44.33071" lon="6.05679">
        <ele>1052</ele>
        <time>2020-06-11T10:02:38Z</time>
      </trkpt>
      <trkpt lat="44.33069" lon="6.05679">
        <ele>1050</ele>
        <time>2020-06-11T10:02:39Z</time>
      </trkpt>
      <trkpt lat="44.33067" lon="6.05678">
        <ele>1049</ele>
        <time>2020-06-11T10:02:40Z</time>
      </trkpt>
      <trkpt lat="44.33063" lon="6.0568">
        <ele>1048</ele>
        <time>2020-06-11T10:02:41Z</time>
      </trkpt>
      <trkpt lat="44.33058" lon="6.05682">
        <ele>1047</ele>
        <time>2020-06-11T10:02:42Z</time>
      </trkpt>
      <trkpt lat="44.33045" lon="6.05686">
        <ele>1047</ele>
        <time>2020-06-11T10:02:44Z</time>
      </trkpt>
      <trkpt lat="44.33035" lon="6.05688">
        <ele>1046</ele>
        <time>2020-06-11T10:02:46Z</time>
      </trkpt>
      <trkpt lat="44.3303" lon="6.05688">
        <ele>1046</ele>
        <time>2020-06-11T10:02:47Z</time>
      </trkpt>
      <trkpt lat="44.33026" lon="6.05687">
        <ele>1046</ele>
        <time>2020-06-11T10:02:48Z</time>
      </trkpt>
      <trkpt lat="44.33012" lon="6.05687">
        <ele>1047</ele>
        <time>2020-06-11T10:02:52Z</time>
      </trkpt>
      <trkpt lat="44.32995" lon="6.05691">
        <ele>1047</ele>
        <time>2020-06-11T10:02:56Z</time>
      </trkpt>
      <trkpt lat="44.32976" lon="6.05694">
        <ele>1048</ele>
        <time>2020-06-11T10:03:01Z</time>
      </trkpt>
      <trkpt lat="44.32972" lon="6.05695">
        <ele>1048</ele>
        <time>2020-06-11T10:03:02Z</time>
      </trkpt>
      <trkpt lat="44.32962" lon="6.05697">
        <ele>1049</ele>
        <time>2020-06-11T10:03:06Z</time>
      </trkpt>
      <trkpt lat="44.32957" lon="6.05699">
        <ele>1050</ele>
        <time>2020-06-11T10:03:08Z</time>
      </trkpt>
      <trkpt lat="44.32951" lon="6.05699">
        <ele>1050</ele>
        <time>2020-06-11T10:03:11Z</time>
      </trkpt>
      <trkpt lat="44.32943" lon="6.05703">
        <ele>1050</ele>
        <time>2020-06-11T10:03:15Z</time>
      </trkpt>
      <trkpt lat="44.3294" lon="6.05704">
        <ele>1051</ele>
        <time>2020-06-11T10:03:16Z</time>
      </trkpt>
      <trkpt lat="44.3293" lon="6.05707">
        <ele>1051</ele>
        <time>2020-06-11T10:03:20Z</time>
      </trkpt>
      <trkpt lat="44.32925" lon="6.05711">
        <ele>1052</ele>
        <time>2020-06-11T10:03:22Z</time>
      </trkpt>
      <trkpt lat="44.32918" lon="6.05717">
        <ele>1053</ele>
        <time>2020-06-11T10:03:25Z</time>
      </trkpt>
      <trkpt lat="44.32915" lon="6.0572">
        <ele>1053</ele>
        <time>2020-06-11T10:03:27Z</time>
      </trkpt>
      <trkpt lat="44.32907" lon="6.05727">
        <ele>1053</ele>
        <time>2020-06-11T10:03:30Z</time>
      </trkpt>
      <trkpt lat="44.32905" lon="6.0573">
        <ele>1054</ele>
        <time>2020-06-11T10:03:31Z</time>
      </trkpt>
      <trkpt lat="44.32902" lon="6.05734">
        <ele>1054</ele>
        <time>2020-06-11T10:03:33Z</time>
      </trkpt>
      <trkpt lat="44.32901" lon="6.05736">
        <ele>1054</ele>
        <time>2020-06-11T10:03:34Z</time>
      </trkpt>
      <trkpt lat="44.32894" lon="6.05744">
        <ele>1055</ele>
        <time>2020-06-11T10:03:39Z</time>
      </trkpt>
      <trkpt lat="44.32893" lon="6.05746">
        <ele>1055</ele>
        <time>2020-06-11T10:03:40Z</time>
      </trkpt>
      <trkpt lat="44.32889" lon="6.05751">
        <ele>1056</ele>
        <time>2020-06-11T10:03:43Z</time>
      </trkpt>
      <trkpt lat="44.32886" lon="6.05756">
        <ele>1058</ele>
        <time>2020-06-11T10:03:46Z</time>
      </trkpt>
      <trkpt lat="44.32884" lon="6.05758">
        <ele>1058</ele>
        <time>2020-06-11T10:03:47Z</time>
      </trkpt>
      <trkpt lat="44.32876" lon="6.05761">
        <ele>1059</ele>
        <time>2020-06-11T10:03:51Z</time>
      </trkpt>
      <trkpt lat="44.32874" lon="6.05762">
        <ele>1059</ele>
        <time>2020-06-11T10:03:53Z</time>
      </trkpt>
      <trkpt lat="44.32873" lon="6.05765">
        <ele>1059</ele>
        <time>2020-06-11T10:04:03Z</time>
      </trkpt>
      <trkpt lat="44.32871" lon="6.05767">
        <ele>1059</ele>
        <time>2020-06-11T10:04:11Z</time>
      </trkpt>
      <trkpt lat="44.3287" lon="6.05767">
        <ele>1059</ele>
        <time>2020-06-11T10:04:33Z</time>
      </trkpt>
      <trkpt lat="44.32866" lon="6.05761">
        <ele>1059</ele>
        <time>2020-06-11T10:05:05Z</time>
      </trkpt>
      <trkpt lat="44.3286" lon="6.05745">
        <ele>1059</ele>
        <time>2020-06-11T10:05:08Z</time>
      </trkpt>
      <trkpt lat="44.32855" lon="6.05733">
        <ele>1059</ele>
        <time>2020-06-11T10:05:10Z</time>
      </trkpt>
      <trkpt lat="44.32851" lon="6.05728">
        <ele>1058</ele>
        <time>2020-06-11T10:05:11Z</time>
      </trkpt>
      <trkpt lat="44.32843" lon="6.05719">
        <ele>1057</ele>
        <time>2020-06-11T10:05:13Z</time>
      </trkpt>
      <trkpt lat="44.32839" lon="6.05714">
        <ele>1057</ele>
        <time>2020-06-11T10:05:14Z</time>
      </trkpt>
      <trkpt lat="44.3283" lon="6.05708">
        <ele>1057</ele>
        <time>2020-06-11T10:05:17Z</time>
      </trkpt>
      <trkpt lat="44.32826" lon="6.05708">
        <ele>1056</ele>
        <time>2020-06-11T10:05:18Z</time>
      </trkpt>
      <trkpt lat="44.3282" lon="6.05707">
        <ele>1056</ele>
        <time>2020-06-11T10:05:19Z</time>
      </trkpt>
      <trkpt lat="44.3281" lon="6.05707">
        <ele>1056</ele>
        <time>2020-06-11T10:05:21Z</time>
      </trkpt>
      <trkpt lat="44.32804" lon="6.05708">
        <ele>1056</ele>
        <time>2020-06-11T10:05:22Z</time>
      </trkpt>
      <trkpt lat="44.32793" lon="6.0571">
        <ele>1055</ele>
        <time>2020-06-11T10:05:24Z</time>
      </trkpt>
      <trkpt lat="44.32781" lon="6.05712">
        <ele>1055</ele>
        <time>2020-06-11T10:05:26Z</time>
      </trkpt>
      <trkpt lat="44.3277" lon="6.05713">
        <ele>1054</ele>
        <time>2020-06-11T10:05:28Z</time>
      </trkpt>
      <trkpt lat="44.32765" lon="6.05713">
        <ele>1053</ele>
        <time>2020-06-11T10:05:29Z</time>
      </trkpt>
      <trkpt lat="44.32744" lon="6.05714">
        <ele>1054</ele>
        <time>2020-06-11T10:05:34Z</time>
      </trkpt>
      <trkpt lat="44.32724" lon="6.05706">
        <ele>1055</ele>
        <time>2020-06-11T10:05:39Z</time>
      </trkpt>
      <trkpt lat="44.32721" lon="6.05705">
        <ele>1055</ele>
        <time>2020-06-11T10:05:40Z</time>
      </trkpt>
      <trkpt lat="44.32704" lon="6.057">
        <ele>1055</ele>
        <time>2020-06-11T10:05:44Z</time>
      </trkpt>
      <trkpt lat="44.32684" lon="6.057">
        <ele>1055</ele>
        <time>2020-06-11T10:05:48Z</time>
      </trkpt>
      <trkpt lat="44.32675" lon="6.057">
        <ele>1055</ele>
        <time>2020-06-11T10:05:50Z</time>
      </trkpt>
      <trkpt lat="44.32666" lon="6.05696">
        <ele>1055</ele>
        <time>2020-06-11T10:05:52Z</time>
      </trkpt>
      <trkpt lat="44.32657" lon="6.05691">
        <ele>1054</ele>
        <time>2020-06-11T10:05:56Z</time>
      </trkpt>
      <trkpt lat="44.32647" lon="6.05686">
        <ele>1054</ele>
        <time>2020-06-11T10:06:02Z</time>
      </trkpt>
      <trkpt lat="44.32637" lon="6.05679">
        <ele>1053</ele>
        <time>2020-06-11T10:06:05Z</time>
      </trkpt>
      <trkpt lat="44.32624" lon="6.05674">
        <ele>1053</ele>
        <time>2020-06-11T10:06:07Z</time>
      </trkpt>
      <trkpt lat="44.32619" lon="6.0567">
        <ele>1052</ele>
        <time>2020-06-11T10:06:08Z</time>
      </trkpt>
      <trkpt lat="44.32613" lon="6.05666">
        <ele>1051</ele>
        <time>2020-06-11T10:06:09Z</time>
      </trkpt>
      <trkpt lat="44.32607" lon="6.05662">
        <ele>1050</ele>
        <time>2020-06-11T10:06:10Z</time>
      </trkpt>
      <trkpt lat="44.32602" lon="6.05659">
        <ele>1049</ele>
        <time>2020-06-11T10:06:11Z</time>
      </trkpt>
      <trkpt lat="44.32597" lon="6.05657">
        <ele>1047</ele>
        <time>2020-06-11T10:06:12Z</time>
      </trkpt>
      <trkpt lat="44.32593" lon="6.05656">
        <ele>1045</ele>
        <time>2020-06-11T10:06:13Z</time>
      </trkpt>
      <trkpt lat="44.32589" lon="6.05656">
        <ele>1043</ele>
        <time>2020-06-11T10:06:14Z</time>
      </trkpt>
      <trkpt lat="44.32584" lon="6.05656">
        <ele>1042</ele>
        <time>2020-06-11T10:06:15Z</time>
      </trkpt>
      <trkpt lat="44.32578" lon="6.05656">
        <ele>1040</ele>
        <time>2020-06-11T10:06:16Z</time>
      </trkpt>
      <trkpt lat="44.32571" lon="6.05655">
        <ele>1038</ele>
        <time>2020-06-11T10:06:17Z</time>
      </trkpt>
      <trkpt lat="44.32565" lon="6.05657">
        <ele>1037</ele>
        <time>2020-06-11T10:06:18Z</time>
      </trkpt>
      <trkpt lat="44.32557" lon="6.0566">
        <ele>1035</ele>
        <time>2020-06-11T10:06:19Z</time>
      </trkpt>
      <trkpt lat="44.32551" lon="6.05663">
        <ele>1034</ele>
        <time>2020-06-11T10:06:20Z</time>
      </trkpt>
      <trkpt lat="44.32545" lon="6.05667">
        <ele>1033</ele>
        <time>2020-06-11T10:06:21Z</time>
      </trkpt>
      <trkpt lat="44.32539" lon="6.05671">
        <ele>1031</ele>
        <time>2020-06-11T10:06:22Z</time>
      </trkpt>
      <trkpt lat="44.32533" lon="6.05673">
        <ele>1030</ele>
        <time>2020-06-11T10:06:23Z</time>
      </trkpt>
      <trkpt lat="44.32527" lon="6.05675">
        <ele>1029</ele>
        <time>2020-06-11T10:06:24Z</time>
      </trkpt>
      <trkpt lat="44.32522" lon="6.05678">
        <ele>1027</ele>
        <time>2020-06-11T10:06:25Z</time>
      </trkpt>
      <trkpt lat="44.32515" lon="6.05681">
        <ele>1026</ele>
        <time>2020-06-11T10:06:26Z</time>
      </trkpt>
      <trkpt lat="44.32507" lon="6.05685">
        <ele>1025</ele>
        <time>2020-06-11T10:06:27Z</time>
      </trkpt>
      <trkpt lat="44.32499" lon="6.0569">
        <ele>1023</ele>
        <time>2020-06-11T10:06:28Z</time>
      </trkpt>
      <trkpt lat="44.32491" lon="6.05695">
        <ele>1022</ele>
        <time>2020-06-11T10:06:29Z</time>
      </trkpt>
      <trkpt lat="44.32484" lon="6.05697">
        <ele>1020</ele>
        <time>2020-06-11T10:06:30Z</time>
      </trkpt>
      <trkpt lat="44.32477" lon="6.05697">
        <ele>1018</ele>
        <time>2020-06-11T10:06:31Z</time>
      </trkpt>
      <trkpt lat="44.3247" lon="6.05697">
        <ele>1016</ele>
        <time>2020-06-11T10:06:32Z</time>
      </trkpt>
      <trkpt lat="44.32464" lon="6.05696">
        <ele>1015</ele>
        <time>2020-06-11T10:06:33Z</time>
      </trkpt>
      <trkpt lat="44.32452" lon="6.05691">
        <ele>1013</ele>
        <time>2020-06-11T10:06:35Z</time>
      </trkpt>
      <trkpt lat="44.32449" lon="6.05692">
        <ele>1012</ele>
        <time>2020-06-11T10:06:36Z</time>
      </trkpt>
      <trkpt lat="44.32447" lon="6.05695">
        <ele>1011</ele>
        <time>2020-06-11T10:06:37Z</time>
      </trkpt>
      <trkpt lat="44.32444" lon="6.05702">
        <ele>1010</ele>
        <time>2020-06-11T10:06:39Z</time>
      </trkpt>
      <trkpt lat="44.32433" lon="6.05708">
        <ele>1009</ele>
        <time>2020-06-11T10:06:42Z</time>
      </trkpt>
      <trkpt lat="44.32422" lon="6.05712">
        <ele>1009</ele>
        <time>2020-06-11T10:06:44Z</time>
      </trkpt>
      <trkpt lat="44.3241" lon="6.05714">
        <ele>1008</ele>
        <time>2020-06-11T10:06:46Z</time>
      </trkpt>
      <trkpt lat="44.32404" lon="6.05715">
        <ele>1007</ele>
        <time>2020-06-11T10:06:47Z</time>
      </trkpt>
      <trkpt lat="44.32399" lon="6.05717">
        <ele>1006</ele>
        <time>2020-06-11T10:06:48Z</time>
      </trkpt>
      <trkpt lat="44.32394" lon="6.05717">
        <ele>1004</ele>
        <time>2020-06-11T10:06:49Z</time>
      </trkpt>
      <trkpt lat="44.32387" lon="6.05716">
        <ele>1003</ele>
        <time>2020-06-11T10:06:50Z</time>
      </trkpt>
      <trkpt lat="44.3238" lon="6.05713">
        <ele>1001</ele>
        <time>2020-06-11T10:06:51Z</time>
      </trkpt>
      <trkpt lat="44.32373" lon="6.0571">
        <ele>1000</ele>
        <time>2020-06-11T10:06:52Z</time>
      </trkpt>
      <trkpt lat="44.32365" lon="6.05707">
        <ele>999</ele>
        <time>2020-06-11T10:06:53Z</time>
      </trkpt>
      <trkpt lat="44.32347" lon="6.05699">
        <ele>997</ele>
        <time>2020-06-11T10:06:55Z</time>
      </trkpt>
      <trkpt lat="44.32331" lon="6.05692">
        <ele>995</ele>
        <time>2020-06-11T10:06:57Z</time>
      </trkpt>
      <trkpt lat="44.32323" lon="6.05689">
        <ele>994</ele>
        <time>2020-06-11T10:06:58Z</time>
      </trkpt>
      <trkpt lat="44.32315" lon="6.05685">
        <ele>993</ele>
        <time>2020-06-11T10:06:59Z</time>
      </trkpt>
      <trkpt lat="44.32303" lon="6.05679">
        <ele>991</ele>
        <time>2020-06-11T10:07:01Z</time>
      </trkpt>
      <trkpt lat="44.3229" lon="6.05675">
        <ele>990</ele>
        <time>2020-06-11T10:07:03Z</time>
      </trkpt>
      <trkpt lat="44.32283" lon="6.05675">
        <ele>989</ele>
        <time>2020-06-11T10:07:04Z</time>
      </trkpt>
      <trkpt lat="44.3227" lon="6.05676">
        <ele>989</ele>
        <time>2020-06-11T10:07:06Z</time>
      </trkpt>
      <trkpt lat="44.32258" lon="6.05682">
        <ele>988</ele>
        <time>2020-06-11T10:07:08Z</time>
      </trkpt>
      <trkpt lat="44.32251" lon="6.05686">
        <ele>988</ele>
        <time>2020-06-11T10:07:09Z</time>
      </trkpt>
      <trkpt lat="44.32239" lon="6.05685">
        <ele>988</ele>
        <time>2020-06-11T10:07:11Z</time>
      </trkpt>
      <trkpt lat="44.32216" lon="6.0568">
        <ele>988</ele>
        <time>2020-06-11T10:07:15Z</time>
      </trkpt>
      <trkpt lat="44.32208" lon="6.05678">
        <ele>988</ele>
        <time>2020-06-11T10:07:17Z</time>
      </trkpt>
      <trkpt lat="44.32197" lon="6.05674">
        <ele>988</ele>
        <time>2020-06-11T10:07:22Z</time>
      </trkpt>
      <trkpt lat="44.32191" lon="6.05672">
        <ele>990</ele>
        <time>2020-06-11T10:07:25Z</time>
      </trkpt>
      <trkpt lat="44.32181" lon="6.05669">
        <ele>991</ele>
        <time>2020-06-11T10:07:29Z</time>
      </trkpt>
      <trkpt lat="44.32157" lon="6.05668">
        <ele>991</ele>
        <time>2020-06-11T10:07:35Z</time>
      </trkpt>
      <trkpt lat="44.32139" lon="6.05665">
        <ele>991</ele>
        <time>2020-06-11T10:07:39Z</time>
      </trkpt>
      <trkpt lat="44.32134" lon="6.0566">
        <ele>991</ele>
        <time>2020-06-11T10:07:40Z</time>
      </trkpt>
      <trkpt lat="44.32123" lon="6.05648">
        <ele>990</ele>
        <time>2020-06-11T10:07:42Z</time>
      </trkpt>
      <trkpt lat="44.32119" lon="6.05643">
        <ele>989</ele>
        <time>2020-06-11T10:07:43Z</time>
      </trkpt>
      <trkpt lat="44.32115" lon="6.05638">
        <ele>988</ele>
        <time>2020-06-11T10:07:44Z</time>
      </trkpt>
      <trkpt lat="44.32111" lon="6.05633">
        <ele>986</ele>
        <time>2020-06-11T10:07:45Z</time>
      </trkpt>
      <trkpt lat="44.32106" lon="6.05628">
        <ele>984</ele>
        <time>2020-06-11T10:07:46Z</time>
      </trkpt>
      <trkpt lat="44.32101" lon="6.05621">
        <ele>983</ele>
        <time>2020-06-11T10:07:47Z</time>
      </trkpt>
      <trkpt lat="44.32096" lon="6.05614">
        <ele>982</ele>
        <time>2020-06-11T10:07:48Z</time>
      </trkpt>
      <trkpt lat="44.32084" lon="6.05602">
        <ele>980</ele>
        <time>2020-06-11T10:07:50Z</time>
      </trkpt>
      <trkpt lat="44.32078" lon="6.05597">
        <ele>979</ele>
        <time>2020-06-11T10:07:51Z</time>
      </trkpt>
      <trkpt lat="44.32071" lon="6.0559">
        <ele>977</ele>
        <time>2020-06-11T10:07:52Z</time>
      </trkpt>
      <trkpt lat="44.32065" lon="6.05585">
        <ele>975</ele>
        <time>2020-06-11T10:07:53Z</time>
      </trkpt>
      <trkpt lat="44.32059" lon="6.0558">
        <ele>974</ele>
        <time>2020-06-11T10:07:54Z</time>
      </trkpt>
      <trkpt lat="44.32053" lon="6.05575">
        <ele>972</ele>
        <time>2020-06-11T10:07:55Z</time>
      </trkpt>
      <trkpt lat="44.32047" lon="6.0557">
        <ele>971</ele>
        <time>2020-06-11T10:07:56Z</time>
      </trkpt>
      <trkpt lat="44.32044" lon="6.05563">
        <ele>969</ele>
        <time>2020-06-11T10:07:57Z</time>
      </trkpt>
      <trkpt lat="44.32039" lon="6.05555">
        <ele>967</ele>
        <time>2020-06-11T10:07:58Z</time>
      </trkpt>
      <trkpt lat="44.32034" lon="6.05548">
        <ele>966</ele>
        <time>2020-06-11T10:07:59Z</time>
      </trkpt>
      <trkpt lat="44.32029" lon="6.05543">
        <ele>964</ele>
        <time>2020-06-11T10:08:00Z</time>
      </trkpt>
      <trkpt lat="44.32024" lon="6.05538">
        <ele>963</ele>
        <time>2020-06-11T10:08:01Z</time>
      </trkpt>
      <trkpt lat="44.32019" lon="6.05531">
        <ele>962</ele>
        <time>2020-06-11T10:08:02Z</time>
      </trkpt>
      <trkpt lat="44.32013" lon="6.05523">
        <ele>961</ele>
        <time>2020-06-11T10:08:03Z</time>
      </trkpt>
      <trkpt lat="44.32006" lon="6.05516">
        <ele>959</ele>
        <time>2020-06-11T10:08:04Z</time>
      </trkpt>
      <trkpt lat="44.31998" lon="6.05509">
        <ele>958</ele>
        <time>2020-06-11T10:08:05Z</time>
      </trkpt>
      <trkpt lat="44.31991" lon="6.05501">
        <ele>956</ele>
        <time>2020-06-11T10:08:06Z</time>
      </trkpt>
      <trkpt lat="44.31984" lon="6.05492">
        <ele>955</ele>
        <time>2020-06-11T10:08:07Z</time>
      </trkpt>
      <trkpt lat="44.31977" lon="6.05485">
        <ele>954</ele>
        <time>2020-06-11T10:08:08Z</time>
      </trkpt>
      <trkpt lat="44.31971" lon="6.05481">
        <ele>953</ele>
        <time>2020-06-11T10:08:09Z</time>
      </trkpt>
      <trkpt lat="44.31968" lon="6.05478">
        <ele>951</ele>
        <time>2020-06-11T10:08:10Z</time>
      </trkpt>
      <trkpt lat="44.31964" lon="6.05476">
        <ele>949</ele>
        <time>2020-06-11T10:08:11Z</time>
      </trkpt>
      <trkpt lat="44.3196" lon="6.05475">
        <ele>947</ele>
        <time>2020-06-11T10:08:12Z</time>
      </trkpt>
      <trkpt lat="44.31958" lon="6.05474">
        <ele>945</ele>
        <time>2020-06-11T10:08:13Z</time>
      </trkpt>
      <trkpt lat="44.31956" lon="6.0547">
        <ele>944</ele>
        <time>2020-06-11T10:08:14Z</time>
      </trkpt>
      <trkpt lat="44.31955" lon="6.05466">
        <ele>943</ele>
        <time>2020-06-11T10:08:15Z</time>
      </trkpt>
      <trkpt lat="44.31955" lon="6.05462">
        <ele>942</ele>
        <time>2020-06-11T10:08:16Z</time>
      </trkpt>
      <trkpt lat="44.31953" lon="6.05459">
        <ele>941</ele>
        <time>2020-06-11T10:08:17Z</time>
      </trkpt>
      <trkpt lat="44.3195" lon="6.05459">
        <ele>939</ele>
        <time>2020-06-11T10:08:18Z</time>
      </trkpt>
      <trkpt lat="44.31949" lon="6.05457">
        <ele>938</ele>
        <time>2020-06-11T10:08:19Z</time>
      </trkpt>
      <trkpt lat="44.31948" lon="6.05453">
        <ele>936</ele>
        <time>2020-06-11T10:08:20Z</time>
      </trkpt>
      <trkpt lat="44.31948" lon="6.05448">
        <ele>936</ele>
        <time>2020-06-11T10:08:21Z</time>
      </trkpt>
      <trkpt lat="44.31944" lon="6.05447">
        <ele>935</ele>
        <time>2020-06-11T10:08:22Z</time>
      </trkpt>
      <trkpt lat="44.31942" lon="6.05445">
        <ele>934</ele>
        <time>2020-06-11T10:08:23Z</time>
      </trkpt>
      <trkpt lat="44.31941" lon="6.05441">
        <ele>933</ele>
        <time>2020-06-11T10:08:24Z</time>
      </trkpt>
      <trkpt lat="44.31943" lon="6.05438">
        <ele>932</ele>
        <time>2020-06-11T10:08:25Z</time>
      </trkpt>
      <trkpt lat="44.31945" lon="6.05433">
        <ele>931</ele>
        <time>2020-06-11T10:08:26Z</time>
      </trkpt>
      <trkpt lat="44.31947" lon="6.05427">
        <ele>930</ele>
        <time>2020-06-11T10:08:27Z</time>
      </trkpt>
      <trkpt lat="44.31951" lon="6.05419">
        <ele>928</ele>
        <time>2020-06-11T10:08:29Z</time>
      </trkpt>
      <trkpt lat="44.3195" lon="6.05413">
        <ele>927</ele>
        <time>2020-06-11T10:08:30Z</time>
      </trkpt>
      <trkpt lat="44.31946" lon="6.05409">
        <ele>926</ele>
        <time>2020-06-11T10:08:31Z</time>
      </trkpt>
      <trkpt lat="44.31942" lon="6.05406">
        <ele>924</ele>
        <time>2020-06-11T10:08:32Z</time>
      </trkpt>
      <trkpt lat="44.3194" lon="6.05402">
        <ele>923</ele>
        <time>2020-06-11T10:08:33Z</time>
      </trkpt>
      <trkpt lat="44.31942" lon="6.05393">
        <ele>921</ele>
        <time>2020-06-11T10:08:35Z</time>
      </trkpt>
      <trkpt lat="44.31943" lon="6.0539">
        <ele>919</ele>
        <time>2020-06-11T10:08:36Z</time>
      </trkpt>
      <trkpt lat="44.31942" lon="6.05388">
        <ele>918</ele>
        <time>2020-06-11T10:08:37Z</time>
      </trkpt>
      <trkpt lat="44.3194" lon="6.05387">
        <ele>917</ele>
        <time>2020-06-11T10:08:38Z</time>
      </trkpt>
      <trkpt lat="44.31935" lon="6.05386">
        <ele>916</ele>
        <time>2020-06-11T10:08:39Z</time>
      </trkpt>
      <trkpt lat="44.3193" lon="6.05384">
        <ele>914</ele>
        <time>2020-06-11T10:08:41Z</time>
      </trkpt>
      <trkpt lat="44.31932" lon="6.05381">
        <ele>914</ele>
        <time>2020-06-11T10:08:42Z</time>
      </trkpt>
      <trkpt lat="44.31934" lon="6.05375">
        <ele>913</ele>
        <time>2020-06-11T10:08:43Z</time>
      </trkpt>
      <trkpt lat="44.31939" lon="6.05368">
        <ele>911</ele>
        <time>2020-06-11T10:08:45Z</time>
      </trkpt>
      <trkpt lat="44.31938" lon="6.05365">
        <ele>910</ele>
        <time>2020-06-11T10:08:46Z</time>
      </trkpt>
      <trkpt lat="44.31938" lon="6.05362">
        <ele>908</ele>
        <time>2020-06-11T10:08:47Z</time>
      </trkpt>
      <trkpt lat="44.31939" lon="6.05358">
        <ele>906</ele>
        <time>2020-06-11T10:08:48Z</time>
      </trkpt>
      <trkpt lat="44.3194" lon="6.05353">
        <ele>905</ele>
        <time>2020-06-11T10:08:49Z</time>
      </trkpt>
      <trkpt lat="44.31941" lon="6.05347">
        <ele>904</ele>
        <time>2020-06-11T10:08:50Z</time>
      </trkpt>
      <trkpt lat="44.31945" lon="6.05344">
        <ele>903</ele>
        <time>2020-06-11T10:08:51Z</time>
      </trkpt>
      <trkpt lat="44.31948" lon="6.05341">
        <ele>901</ele>
        <time>2020-06-11T10:08:52Z</time>
      </trkpt>
      <trkpt lat="44.3195" lon="6.05339">
        <ele>900</ele>
        <time>2020-06-11T10:08:53Z</time>
      </trkpt>
      <trkpt lat="44.31948" lon="6.05335">
        <ele>898</ele>
        <time>2020-06-11T10:08:54Z</time>
      </trkpt>
      <trkpt lat="44.31945" lon="6.0533">
        <ele>897</ele>
        <time>2020-06-11T10:08:55Z</time>
      </trkpt>
      <trkpt lat="44.3194" lon="6.05326">
        <ele>896</ele>
        <time>2020-06-11T10:08:56Z</time>
      </trkpt>
      <trkpt lat="44.31934" lon="6.05319">
        <ele>894</ele>
        <time>2020-06-11T10:08:58Z</time>
      </trkpt>
      <trkpt lat="44.31933" lon="6.05315">
        <ele>893</ele>
        <time>2020-06-11T10:08:59Z</time>
      </trkpt>
      <trkpt lat="44.31935" lon="6.05311">
        <ele>891</ele>
        <time>2020-06-11T10:09:00Z</time>
      </trkpt>
      <trkpt lat="44.3194" lon="6.05308">
        <ele>889</ele>
        <time>2020-06-11T10:09:01Z</time>
      </trkpt>
      <trkpt lat="44.31944" lon="6.05304">
        <ele>887</ele>
        <time>2020-06-11T10:09:02Z</time>
      </trkpt>
      <trkpt lat="44.31948" lon="6.053">
        <ele>886</ele>
        <time>2020-06-11T10:09:03Z</time>
      </trkpt>
      <trkpt lat="44.31949" lon="6.05296">
        <ele>884</ele>
        <time>2020-06-11T10:09:04Z</time>
      </trkpt>
      <trkpt lat="44.31948" lon="6.05293">
        <ele>883</ele>
        <time>2020-06-11T10:09:05Z</time>
      </trkpt>
      <trkpt lat="44.31947" lon="6.0529">
        <ele>881</ele>
        <time>2020-06-11T10:09:06Z</time>
      </trkpt>
      <trkpt lat="44.31948" lon="6.05288">
        <ele>879</ele>
        <time>2020-06-11T10:09:07Z</time>
      </trkpt>
      <trkpt lat="44.31949" lon="6.05285">
        <ele>878</ele>
        <time>2020-06-11T10:09:08Z</time>
      </trkpt>
      <trkpt lat="44.31951" lon="6.05282">
        <ele>877</ele>
        <time>2020-06-11T10:09:09Z</time>
      </trkpt>
      <trkpt lat="44.3195" lon="6.05279">
        <ele>875</ele>
        <time>2020-06-11T10:09:10Z</time>
      </trkpt>
      <trkpt lat="44.31949" lon="6.05277">
        <ele>874</ele>
        <time>2020-06-11T10:09:11Z</time>
      </trkpt>
      <trkpt lat="44.31947" lon="6.05273">
        <ele>874</ele>
        <time>2020-06-11T10:09:12Z</time>
      </trkpt>
      <trkpt lat="44.31948" lon="6.05271">
        <ele>873</ele>
        <time>2020-06-11T10:09:13Z</time>
      </trkpt>
      <trkpt lat="44.31949" lon="6.05267">
        <ele>872</ele>
        <time>2020-06-11T10:09:14Z</time>
      </trkpt>
      <trkpt lat="44.31949" lon="6.05265">
        <ele>870</ele>
        <time>2020-06-11T10:09:15Z</time>
      </trkpt>
      <trkpt lat="44.31949" lon="6.05261">
        <ele>869</ele>
        <time>2020-06-11T10:09:16Z</time>
      </trkpt>
      <trkpt lat="44.3195" lon="6.05258">
        <ele>868</ele>
        <time>2020-06-11T10:09:17Z</time>
      </trkpt>
      <trkpt lat="44.31952" lon="6.05255">
        <ele>867</ele>
        <time>2020-06-11T10:09:18Z</time>
      </trkpt>
      <trkpt lat="44.31952" lon="6.05251">
        <ele>866</ele>
        <time>2020-06-11T10:09:19Z</time>
      </trkpt>
      <trkpt lat="44.31951" lon="6.05247">
        <ele>865</ele>
        <time>2020-06-11T10:09:20Z</time>
      </trkpt>
      <trkpt lat="44.3195" lon="6.05243">
        <ele>864</ele>
        <time>2020-06-11T10:09:21Z</time>
      </trkpt>
      <trkpt lat="44.31948" lon="6.05228">
        <ele>862</ele>
        <time>2020-06-11T10:09:23Z</time>
      </trkpt>
      <trkpt lat="44.31947" lon="6.05218">
        <ele>861</ele>
        <time>2020-06-11T10:09:24Z</time>
      </trkpt>
      <trkpt lat="44.31947" lon="6.0521">
        <ele>860</ele>
        <time>2020-06-11T10:09:25Z</time>
      </trkpt>
      <trkpt lat="44.31946" lon="6.05203">
        <ele>859</ele>
        <time>2020-06-11T10:09:26Z</time>
      </trkpt>
      <trkpt lat="44.31946" lon="6.05196">
        <ele>857</ele>
        <time>2020-06-11T10:09:27Z</time>
      </trkpt>
      <trkpt lat="44.31947" lon="6.0519">
        <ele>855</ele>
        <time>2020-06-11T10:09:28Z</time>
      </trkpt>
      <trkpt lat="44.31948" lon="6.05186">
        <ele>852</ele>
        <time>2020-06-11T10:09:29Z</time>
      </trkpt>
      <trkpt lat="44.31948" lon="6.0518">
        <ele>850</ele>
        <time>2020-06-11T10:09:30Z</time>
      </trkpt>
      <trkpt lat="44.31946" lon="6.05176">
        <ele>849</ele>
        <time>2020-06-11T10:09:31Z</time>
      </trkpt>
      <trkpt lat="44.31943" lon="6.05171">
        <ele>847</ele>
        <time>2020-06-11T10:09:32Z</time>
      </trkpt>
      <trkpt lat="44.31939" lon="6.05169">
        <ele>846</ele>
        <time>2020-06-11T10:09:33Z</time>
      </trkpt>
      <trkpt lat="44.31928" lon="6.05164">
        <ele>844</ele>
        <time>2020-06-11T10:09:35Z</time>
      </trkpt>
      <trkpt lat="44.31924" lon="6.05164">
        <ele>844</ele>
        <time>2020-06-11T10:09:36Z</time>
      </trkpt>
      <trkpt lat="44.31921" lon="6.05164">
        <ele>843</ele>
        <time>2020-06-11T10:09:37Z</time>
      </trkpt>
      <trkpt lat="44.3192" lon="6.05163">
        <ele>841</ele>
        <time>2020-06-11T10:09:38Z</time>
      </trkpt>
      <trkpt lat="44.31921" lon="6.05159">
        <ele>839</ele>
        <time>2020-06-11T10:09:39Z</time>
      </trkpt>
      <trkpt lat="44.31921" lon="6.05154">
        <ele>837</ele>
        <time>2020-06-11T10:09:40Z</time>
      </trkpt>
      <trkpt lat="44.31921" lon="6.05147">
        <ele>836</ele>
        <time>2020-06-11T10:09:41Z</time>
      </trkpt>
      <trkpt lat="44.31919" lon="6.05145">
        <ele>835</ele>
        <time>2020-06-11T10:09:42Z</time>
      </trkpt>
      <trkpt lat="44.31914" lon="6.05142">
        <ele>834</ele>
        <time>2020-06-11T10:09:43Z</time>
      </trkpt>
      <trkpt lat="44.3191" lon="6.0514">
        <ele>834</ele>
        <time>2020-06-11T10:09:44Z</time>
      </trkpt>
      <trkpt lat="44.31905" lon="6.0514">
        <ele>833</ele>
        <time>2020-06-11T10:09:45Z</time>
      </trkpt>
      <trkpt lat="44.31902" lon="6.05139">
        <ele>832</ele>
        <time>2020-06-11T10:09:46Z</time>
      </trkpt>
      <trkpt lat="44.31899" lon="6.05136">
        <ele>831</ele>
        <time>2020-06-11T10:09:47Z</time>
      </trkpt>
      <trkpt lat="44.31898" lon="6.05132">
        <ele>830</ele>
        <time>2020-06-11T10:09:48Z</time>
      </trkpt>
      <trkpt lat="44.31896" lon="6.05129">
        <ele>828</ele>
        <time>2020-06-11T10:09:49Z</time>
      </trkpt>
      <trkpt lat="44.31893" lon="6.05128">
        <ele>827</ele>
        <time>2020-06-11T10:09:50Z</time>
      </trkpt>
      <trkpt lat="44.31889" lon="6.05128">
        <ele>825</ele>
        <time>2020-06-11T10:09:51Z</time>
      </trkpt>
      <trkpt lat="44.31887" lon="6.05128">
        <ele>824</ele>
        <time>2020-06-11T10:09:52Z</time>
      </trkpt>
      <trkpt lat="44.31885" lon="6.05121">
        <ele>822</ele>
        <time>2020-06-11T10:09:54Z</time>
      </trkpt>
      <trkpt lat="44.31886" lon="6.05116">
        <ele>821</ele>
        <time>2020-06-11T10:09:55Z</time>
      </trkpt>
      <trkpt lat="44.31887" lon="6.05111">
        <ele>819</ele>
        <time>2020-06-11T10:09:56Z</time>
      </trkpt>
      <trkpt lat="44.31888" lon="6.05108">
        <ele>818</ele>
        <time>2020-06-11T10:09:57Z</time>
      </trkpt>
      <trkpt lat="44.31887" lon="6.05107">
        <ele>817</ele>
        <time>2020-06-11T10:09:58Z</time>
      </trkpt>
      <trkpt lat="44.31879" lon="6.05107">
        <ele>816</ele>
        <time>2020-06-11T10:10:00Z</time>
      </trkpt>
      <trkpt lat="44.31873" lon="6.05107">
        <ele>815</ele>
        <time>2020-06-11T10:10:01Z</time>
      </trkpt>
      <trkpt lat="44.31869" lon="6.05107">
        <ele>814</ele>
        <time>2020-06-11T10:10:02Z</time>
      </trkpt>
      <trkpt lat="44.31866" lon="6.05107">
        <ele>813</ele>
        <time>2020-06-11T10:10:03Z</time>
      </trkpt>
      <trkpt lat="44.31865" lon="6.05106">
        <ele>812</ele>
        <time>2020-06-11T10:10:04Z</time>
      </trkpt>
      <trkpt lat="44.31865" lon="6.05103">
        <ele>811</ele>
        <time>2020-06-11T10:10:05Z</time>
      </trkpt>
      <trkpt lat="44.31866" lon="6.05102">
        <ele>810</ele>
        <time>2020-06-11T10:10:06Z</time>
      </trkpt>
      <trkpt lat="44.31867" lon="6.051">
        <ele>808</ele>
        <time>2020-06-11T10:10:07Z</time>
      </trkpt>
      <trkpt lat="44.31868" lon="6.051">
        <ele>807</ele>
        <time>2020-06-11T10:10:08Z</time>
      </trkpt>
      <trkpt lat="44.3187" lon="6.051">
        <ele>806</ele>
        <time>2020-06-11T10:10:10Z</time>
      </trkpt>
      <trkpt lat="44.31871" lon="6.05098">
        <ele>805</ele>
        <time>2020-06-11T10:10:12Z</time>
      </trkpt>
      <trkpt lat="44.31871" lon="6.05095">
        <ele>805</ele>
        <time>2020-06-11T10:10:14Z</time>
      </trkpt>
      <trkpt lat="44.31872" lon="6.0509">
        <ele>804</ele>
        <time>2020-06-11T10:10:21Z</time>
      </trkpt>
      <trkpt lat="44.31872" lon="6.0509">
        <ele>803</ele>
        <time>2020-06-11T10:10:22Z</time>
      </trkpt>
      <trkpt lat="44.31872" lon="6.0509">
        <ele>804</ele>
        <time>2020-06-11T10:10:31Z</time>
      </trkpt>
      <trkpt lat="44.31872" lon="6.0509">
        <ele>804</ele>
        <time>2020-06-11T10:10:42Z</time>
      </trkpt>
      <trkpt lat="44.31872" lon="6.0509">
        <ele>805</ele>
        <time>2020-06-11T10:10:50Z</time>
      </trkpt>
      <trkpt lat="44.31872" lon="6.0509">
        <ele>805</ele>
        <time>2020-06-11T10:10:54Z</time>
      </trkpt>
      <trkpt lat="44.31871" lon="6.0509">
        <ele>805</ele>
        <time>2020-06-11T10:11:03Z</time>
      </trkpt>
      <trkpt lat="44.3187" lon="6.05089">
        <ele>805</ele>
        <time>2020-06-11T10:11:16Z</time>
      </trkpt>
      <trkpt lat="44.31872" lon="6.05089">
        <ele>805</ele>
        <time>2020-06-11T10:11:23Z</time>
      </trkpt>
      <trkpt lat="44.31872" lon="6.05087">
        <ele>805</ele>
        <time>2020-06-11T10:11:24Z</time>
      </trkpt>
      <trkpt lat="44.31877" lon="6.05076">
        <ele>805</ele>
        <time>2020-06-11T10:11:27Z</time>
      </trkpt>
      <trkpt lat="44.31881" lon="6.05071">
        <ele>805</ele>
        <time>2020-06-11T10:11:28Z</time>
      </trkpt>
      <trkpt lat="44.3189" lon="6.0506">
        <ele>804</ele>
        <time>2020-06-11T10:11:30Z</time>
      </trkpt>
      <trkpt lat="44.31893" lon="6.05057">
        <ele>803</ele>
        <time>2020-06-11T10:11:31Z</time>
      </trkpt>
      <trkpt lat="44.31895" lon="6.05055">
        <ele>802</ele>
        <time>2020-06-11T10:11:32Z</time>
      </trkpt>
      <trkpt lat="44.31895" lon="6.05054">
        <ele>800</ele>
        <time>2020-06-11T10:11:33Z</time>
      </trkpt>
      <trkpt lat="44.31893" lon="6.05053">
        <ele>798</ele>
        <time>2020-06-11T10:11:34Z</time>
      </trkpt>
      <trkpt lat="44.3189" lon="6.05053">
        <ele>797</ele>
        <time>2020-06-11T10:11:35Z</time>
      </trkpt>
      <trkpt lat="44.31886" lon="6.05052">
        <ele>796</ele>
        <time>2020-06-11T10:11:36Z</time>
      </trkpt>
      <trkpt lat="44.31882" lon="6.05051">
        <ele>796</ele>
        <time>2020-06-11T10:11:37Z</time>
      </trkpt>
      <trkpt lat="44.31878" lon="6.05049">
        <ele>795</ele>
        <time>2020-06-11T10:11:38Z</time>
      </trkpt>
      <trkpt lat="44.31875" lon="6.05049">
        <ele>793</ele>
        <time>2020-06-11T10:11:39Z</time>
      </trkpt>
      <trkpt lat="44.31874" lon="6.05047">
        <ele>791</ele>
        <time>2020-06-11T10:11:40Z</time>
      </trkpt>
      <trkpt lat="44.31874" lon="6.05046">
        <ele>790</ele>
        <time>2020-06-11T10:11:41Z</time>
      </trkpt>
      <trkpt lat="44.31874" lon="6.05043">
        <ele>789</ele>
        <time>2020-06-11T10:11:42Z</time>
      </trkpt>
      <trkpt lat="44.31876" lon="6.0504">
        <ele>788</ele>
        <time>2020-06-11T10:11:43Z</time>
      </trkpt>
      <trkpt lat="44.31879" lon="6.05037">
        <ele>787</ele>
        <time>2020-06-11T10:11:44Z</time>
      </trkpt>
      <trkpt lat="44.31888" lon="6.05028">
        <ele>786</ele>
        <time>2020-06-11T10:11:46Z</time>
      </trkpt>
      <trkpt lat="44.31891" lon="6.05022">
        <ele>786</ele>
        <time>2020-06-11T10:11:47Z</time>
      </trkpt>
      <trkpt lat="44.3189" lon="6.05018">
        <ele>785</ele>
        <time>2020-06-11T10:11:48Z</time>
      </trkpt>
      <trkpt lat="44.31888" lon="6.05017">
        <ele>784</ele>
        <time>2020-06-11T10:11:49Z</time>
      </trkpt>
      <trkpt lat="44.31884" lon="6.05018">
        <ele>783</ele>
        <time>2020-06-11T10:11:50Z</time>
      </trkpt>
      <trkpt lat="44.3188" lon="6.05017">
        <ele>781</ele>
        <time>2020-06-11T10:11:51Z</time>
      </trkpt>
      <trkpt lat="44.31876" lon="6.05017">
        <ele>780</ele>
        <time>2020-06-11T10:11:52Z</time>
      </trkpt>
      <trkpt lat="44.31871" lon="6.05017">
        <ele>779</ele>
        <time>2020-06-11T10:11:53Z</time>
      </trkpt>
      <trkpt lat="44.31869" lon="6.05018">
        <ele>777</ele>
        <time>2020-06-11T10:11:54Z</time>
      </trkpt>
      <trkpt lat="44.31868" lon="6.05017">
        <ele>776</ele>
        <time>2020-06-11T10:11:55Z</time>
      </trkpt>
      <trkpt lat="44.31868" lon="6.05015">
        <ele>775</ele>
        <time>2020-06-11T10:11:56Z</time>
      </trkpt>
      <trkpt lat="44.31871" lon="6.05008">
        <ele>773</ele>
        <time>2020-06-11T10:11:58Z</time>
      </trkpt>
      <trkpt lat="44.31874" lon="6.05003">
        <ele>772</ele>
        <time>2020-06-11T10:11:59Z</time>
      </trkpt>
      <trkpt lat="44.31877" lon="6.04996">
        <ele>772</ele>
        <time>2020-06-11T10:12:00Z</time>
      </trkpt>
      <trkpt lat="44.3188" lon="6.04978">
        <ele>771</ele>
        <time>2020-06-11T10:12:02Z</time>
      </trkpt>
      <trkpt lat="44.31884" lon="6.04966">
        <ele>769</ele>
        <time>2020-06-11T10:12:04Z</time>
      </trkpt>
      <trkpt lat="44.31885" lon="6.04961">
        <ele>767</ele>
        <time>2020-06-11T10:12:05Z</time>
      </trkpt>
      <trkpt lat="44.31884" lon="6.04958">
        <ele>765</ele>
        <time>2020-06-11T10:12:06Z</time>
      </trkpt>
      <trkpt lat="44.31886" lon="6.04953">
        <ele>764</ele>
        <time>2020-06-11T10:12:07Z</time>
      </trkpt>
      <trkpt lat="44.31884" lon="6.04949">
        <ele>763</ele>
        <time>2020-06-11T10:12:08Z</time>
      </trkpt>
      <trkpt lat="44.31882" lon="6.04947">
        <ele>761</ele>
        <time>2020-06-11T10:12:09Z</time>
      </trkpt>
      <trkpt lat="44.31879" lon="6.04948">
        <ele>760</ele>
        <time>2020-06-11T10:12:10Z</time>
      </trkpt>
      <trkpt lat="44.31877" lon="6.04946">
        <ele>759</ele>
        <time>2020-06-11T10:12:11Z</time>
      </trkpt>
      <trkpt lat="44.31876" lon="6.04943">
        <ele>758</ele>
        <time>2020-06-11T10:12:12Z</time>
      </trkpt>
      <trkpt lat="44.31875" lon="6.04939">
        <ele>757</ele>
        <time>2020-06-11T10:12:13Z</time>
      </trkpt>
      <trkpt lat="44.31875" lon="6.04933">
        <ele>756</ele>
        <time>2020-06-11T10:12:14Z</time>
      </trkpt>
      <trkpt lat="44.31877" lon="6.04929">
        <ele>755</ele>
        <time>2020-06-11T10:12:15Z</time>
      </trkpt>
      <trkpt lat="44.31879" lon="6.0492">
        <ele>753</ele>
        <time>2020-06-11T10:12:17Z</time>
      </trkpt>
      <trkpt lat="44.31875" lon="6.04915">
        <ele>752</ele>
        <time>2020-06-11T10:12:18Z</time>
      </trkpt>
      <trkpt lat="44.31871" lon="6.04914">
        <ele>752</ele>
        <time>2020-06-11T10:12:19Z</time>
      </trkpt>
      <trkpt lat="44.31862" lon="6.04915">
        <ele>750</ele>
        <time>2020-06-11T10:12:21Z</time>
      </trkpt>
      <trkpt lat="44.31858" lon="6.04917">
        <ele>749</ele>
        <time>2020-06-11T10:12:23Z</time>
      </trkpt>
      <trkpt lat="44.31857" lon="6.04916">
        <ele>748</ele>
        <time>2020-06-11T10:12:24Z</time>
      </trkpt>
      <trkpt lat="44.31854" lon="6.04912">
        <ele>746</ele>
        <time>2020-06-11T10:12:25Z</time>
      </trkpt>
      <trkpt lat="44.31852" lon="6.04906">
        <ele>744</ele>
        <time>2020-06-11T10:12:26Z</time>
      </trkpt>
      <trkpt lat="44.31851" lon="6.04901">
        <ele>743</ele>
        <time>2020-06-11T10:12:27Z</time>
      </trkpt>
      <trkpt lat="44.3185" lon="6.04896">
        <ele>742</ele>
        <time>2020-06-11T10:12:28Z</time>
      </trkpt>
      <trkpt lat="44.31849" lon="6.04892">
        <ele>741</ele>
        <time>2020-06-11T10:12:29Z</time>
      </trkpt>
      <trkpt lat="44.3185" lon="6.04889">
        <ele>739</ele>
        <time>2020-06-11T10:12:30Z</time>
      </trkpt>
      <trkpt lat="44.31849" lon="6.04886">
        <ele>738</ele>
        <time>2020-06-11T10:12:31Z</time>
      </trkpt>
      <trkpt lat="44.31847" lon="6.04884">
        <ele>737</ele>
        <time>2020-06-11T10:12:32Z</time>
      </trkpt>
      <trkpt lat="44.31843" lon="6.04883">
        <ele>735</ele>
        <time>2020-06-11T10:12:34Z</time>
      </trkpt>
      <trkpt lat="44.31842" lon="6.0488">
        <ele>734</ele>
        <time>2020-06-11T10:12:35Z</time>
      </trkpt>
      <trkpt lat="44.31843" lon="6.04876">
        <ele>733</ele>
        <time>2020-06-11T10:12:36Z</time>
      </trkpt>
      <trkpt lat="44.31842" lon="6.04872">
        <ele>732</ele>
        <time>2020-06-11T10:12:37Z</time>
      </trkpt>
      <trkpt lat="44.31841" lon="6.04869">
        <ele>731</ele>
        <time>2020-06-11T10:12:38Z</time>
      </trkpt>
      <trkpt lat="44.3184" lon="6.04867">
        <ele>730</ele>
        <time>2020-06-11T10:12:39Z</time>
      </trkpt>
      <trkpt lat="44.31838" lon="6.04866">
        <ele>730</ele>
        <time>2020-06-11T10:12:40Z</time>
      </trkpt>
      <trkpt lat="44.31833" lon="6.04868">
        <ele>728</ele>
        <time>2020-06-11T10:12:42Z</time>
      </trkpt>
      <trkpt lat="44.31832" lon="6.04867">
        <ele>727</ele>
        <time>2020-06-11T10:12:43Z</time>
      </trkpt>
      <trkpt lat="44.31832" lon="6.04865">
        <ele>726</ele>
        <time>2020-06-11T10:12:44Z</time>
      </trkpt>
      <trkpt lat="44.31833" lon="6.0486">
        <ele>725</ele>
        <time>2020-06-11T10:12:45Z</time>
      </trkpt>
      <trkpt lat="44.31834" lon="6.04855">
        <ele>724</ele>
        <time>2020-06-11T10:12:46Z</time>
      </trkpt>
      <trkpt lat="44.31836" lon="6.04851">
        <ele>723</ele>
        <time>2020-06-11T10:12:47Z</time>
      </trkpt>
      <trkpt lat="44.31839" lon="6.04846">
        <ele>721</ele>
        <time>2020-06-11T10:12:49Z</time>
      </trkpt>
      <trkpt lat="44.31838" lon="6.04844">
        <ele>720</ele>
        <time>2020-06-11T10:12:50Z</time>
      </trkpt>
      <trkpt lat="44.31835" lon="6.04843">
        <ele>719</ele>
        <time>2020-06-11T10:12:51Z</time>
      </trkpt>
      <trkpt lat="44.31832" lon="6.04843">
        <ele>718</ele>
        <time>2020-06-11T10:12:52Z</time>
      </trkpt>
      <trkpt lat="44.31829" lon="6.04842">
        <ele>717</ele>
        <time>2020-06-11T10:12:53Z</time>
      </trkpt>
      <trkpt lat="44.31826" lon="6.04842">
        <ele>716</ele>
        <time>2020-06-11T10:12:54Z</time>
      </trkpt>
      <trkpt lat="44.31824" lon="6.04842">
        <ele>715</ele>
        <time>2020-06-11T10:12:55Z</time>
      </trkpt>
      <trkpt lat="44.31823" lon="6.04841">
        <ele>715</ele>
        <time>2020-06-11T10:12:56Z</time>
      </trkpt>
      <trkpt lat="44.31822" lon="6.04839">
        <ele>714</ele>
        <time>2020-06-11T10:12:57Z</time>
      </trkpt>
      <trkpt lat="44.31823" lon="6.04833">
        <ele>713</ele>
        <time>2020-06-11T10:12:59Z</time>
      </trkpt>
      <trkpt lat="44.31825" lon="6.04829">
        <ele>713</ele>
        <time>2020-06-11T10:13:00Z</time>
      </trkpt>
      <trkpt lat="44.31828" lon="6.04825">
        <ele>712</ele>
        <time>2020-06-11T10:13:01Z</time>
      </trkpt>
      <trkpt lat="44.31832" lon="6.04818">
        <ele>711</ele>
        <time>2020-06-11T10:13:03Z</time>
      </trkpt>
      <trkpt lat="44.31834" lon="6.04811">
        <ele>710</ele>
        <time>2020-06-11T10:13:05Z</time>
      </trkpt>
      <trkpt lat="44.31834" lon="6.04807">
        <ele>709</ele>
        <time>2020-06-11T10:13:06Z</time>
      </trkpt>
      <trkpt lat="44.31835" lon="6.04805">
        <ele>708</ele>
        <time>2020-06-11T10:13:07Z</time>
      </trkpt>
      <trkpt lat="44.31837" lon="6.04801">
        <ele>706</ele>
        <time>2020-06-11T10:13:09Z</time>
      </trkpt>
      <trkpt lat="44.31838" lon="6.048">
        <ele>706</ele>
        <time>2020-06-11T10:13:10Z</time>
      </trkpt>
      <trkpt lat="44.31839" lon="6.04796">
        <ele>706</ele>
        <time>2020-06-11T10:13:13Z</time>
      </trkpt>
      <trkpt lat="44.31841" lon="6.04795">
        <ele>706</ele>
        <time>2020-06-11T10:13:15Z</time>
      </trkpt>
      <trkpt lat="44.31836" lon="6.04787">
        <ele>706</ele>
        <time>2020-06-11T10:13:19Z</time>
      </trkpt>
      <trkpt lat="44.31834" lon="6.04783">
        <ele>705</ele>
        <time>2020-06-11T10:13:26Z</time>
      </trkpt>
      <trkpt lat="44.31834" lon="6.04784">
        <ele>705</ele>
        <time>2020-06-11T10:13:29Z</time>
      </trkpt>
      <trkpt lat="44.31832" lon="6.04782">
        <ele>707</ele>
        <time>2020-06-11T10:14:16Z</time>
      </trkpt>
      <trkpt lat="44.31834" lon="6.04781">
        <ele>707</ele>
        <time>2020-06-11T10:14:22Z</time>
      </trkpt>
      <trkpt lat="44.3183" lon="6.04781">
        <ele>707</ele>
        <time>2020-06-11T10:14:24Z</time>
      </trkpt>
      <trkpt lat="44.31809" lon="6.04785">
        <ele>707</ele>
        <time>2020-06-11T10:14:30Z</time>
      </trkpt>
      <trkpt lat="44.31794" lon="6.04786">
        <ele>706</ele>
        <time>2020-06-11T10:14:34Z</time>
      </trkpt>
      <trkpt lat="44.31785" lon="6.04787">
        <ele>706</ele>
        <time>2020-06-11T10:14:37Z</time>
      </trkpt>
      <trkpt lat="44.31767" lon="6.04793">
        <ele>706</ele>
        <time>2020-06-11T10:14:44Z</time>
      </trkpt>
      <trkpt lat="44.3176" lon="6.04796">
        <ele>706</ele>
        <time>2020-06-11T10:14:49Z</time>
      </trkpt>
      <trkpt lat="44.31752" lon="6.048">
        <ele>706</ele>
        <time>2020-06-11T10:14:55Z</time>
      </trkpt>
      <trkpt lat="44.31743" lon="6.04813">
        <ele>706</ele>
        <time>2020-06-11T10:15:01Z</time>
      </trkpt>
      <trkpt lat="44.31732" lon="6.04833">
        <ele>705</ele>
        <time>2020-06-11T10:15:06Z</time>
      </trkpt>
      <trkpt lat="44.3173" lon="6.04837">
        <ele>705</ele>
        <time>2020-06-11T10:15:07Z</time>
      </trkpt>
      <trkpt lat="44.31719" lon="6.04851">
        <ele>705</ele>
        <time>2020-06-11T10:15:10Z</time>
      </trkpt>
      <trkpt lat="44.31711" lon="6.04859">
        <ele>704</ele>
        <time>2020-06-11T10:15:12Z</time>
      </trkpt>
      <trkpt lat="44.31707" lon="6.04861">
        <ele>704</ele>
        <time>2020-06-11T10:15:13Z</time>
      </trkpt>
      <trkpt lat="44.31698" lon="6.04867">
        <ele>702</ele>
        <time>2020-06-11T10:15:15Z</time>
      </trkpt>
      <trkpt lat="44.31693" lon="6.0487">
        <ele>701</ele>
        <time>2020-06-11T10:15:16Z</time>
      </trkpt>
      <trkpt lat="44.31688" lon="6.04872">
        <ele>700</ele>
        <time>2020-06-11T10:15:17Z</time>
      </trkpt>
      <trkpt lat="44.31677" lon="6.04875">
        <ele>698</ele>
        <time>2020-06-11T10:15:19Z</time>
      </trkpt>
      <trkpt lat="44.31663" lon="6.04878">
        <ele>697</ele>
        <time>2020-06-11T10:15:21Z</time>
      </trkpt>
      <trkpt lat="44.31656" lon="6.04878">
        <ele>697</ele>
        <time>2020-06-11T10:15:22Z</time>
      </trkpt>
      <trkpt lat="44.31641" lon="6.04878">
        <ele>696</ele>
        <time>2020-06-11T10:15:24Z</time>
      </trkpt>
      <trkpt lat="44.3163" lon="6.04876">
        <ele>695</ele>
        <time>2020-06-11T10:15:26Z</time>
      </trkpt>
      <trkpt lat="44.31622" lon="6.04873">
        <ele>693</ele>
        <time>2020-06-11T10:15:28Z</time>
      </trkpt>
      <trkpt lat="44.31617" lon="6.0487">
        <ele>692</ele>
        <time>2020-06-11T10:15:30Z</time>
      </trkpt>
      <trkpt lat="44.31614" lon="6.04869">
        <ele>691</ele>
        <time>2020-06-11T10:15:33Z</time>
      </trkpt>
      <trkpt lat="44.31614" lon="6.0487">
        <ele>691</ele>
        <time>2020-06-11T10:15:34Z</time>
      </trkpt>
      <trkpt lat="44.31612" lon="6.04872">
        <ele>690</ele>
        <time>2020-06-11T10:15:39Z</time>
      </trkpt>
      <trkpt lat="44.31609" lon="6.04872">
        <ele>690</ele>
        <time>2020-06-11T10:15:41Z</time>
      </trkpt>
      <trkpt lat="44.31597" lon="6.0488">
        <ele>690</ele>
        <time>2020-06-11T10:15:46Z</time>
      </trkpt>
      <trkpt lat="44.3159" lon="6.04886">
        <ele>689</ele>
        <time>2020-06-11T10:15:50Z</time>
      </trkpt>
      <trkpt lat="44.31586" lon="6.04892">
        <ele>688</ele>
        <time>2020-06-11T10:15:52Z</time>
      </trkpt>
      <trkpt lat="44.31577" lon="6.04903">
        <ele>688</ele>
        <time>2020-06-11T10:15:58Z</time>
      </trkpt>
      <trkpt lat="44.31574" lon="6.04909">
        <ele>688</ele>
        <time>2020-06-11T10:16:01Z</time>
      </trkpt>
      <trkpt lat="44.3157" lon="6.04916">
        <ele>688</ele>
        <time>2020-06-11T10:16:03Z</time>
      </trkpt>
      <trkpt lat="44.31551" lon="6.04941">
        <ele>687</ele>
        <time>2020-06-11T10:16:09Z</time>
      </trkpt>
      <trkpt lat="44.31543" lon="6.0495">
        <ele>687</ele>
        <time>2020-06-11T10:16:11Z</time>
      </trkpt>
      <trkpt lat="44.31532" lon="6.04963">
        <ele>687</ele>
        <time>2020-06-11T10:16:14Z</time>
      </trkpt>
      <trkpt lat="44.31527" lon="6.04969">
        <ele>687</ele>
        <time>2020-06-11T10:16:15Z</time>
      </trkpt>
      <trkpt lat="44.31509" lon="6.0499">
        <ele>685</ele>
        <time>2020-06-11T10:16:19Z</time>
      </trkpt>
      <trkpt lat="44.31505" lon="6.04996">
        <ele>685</ele>
        <time>2020-06-11T10:16:20Z</time>
      </trkpt>
      <trkpt lat="44.31501" lon="6.05003">
        <ele>685</ele>
        <time>2020-06-11T10:16:21Z</time>
      </trkpt>
      <trkpt lat="44.31497" lon="6.05011">
        <ele>684</ele>
        <time>2020-06-11T10:16:22Z</time>
      </trkpt>
      <trkpt lat="44.31492" lon="6.05022">
        <ele>683</ele>
        <time>2020-06-11T10:16:24Z</time>
      </trkpt>
      <trkpt lat="44.31491" lon="6.05025">
        <ele>683</ele>
        <time>2020-06-11T10:16:25Z</time>
      </trkpt>
      <trkpt lat="44.31489" lon="6.05026">
        <ele>682</ele>
        <time>2020-06-11T10:16:26Z</time>
      </trkpt>
      <trkpt lat="44.3148" lon="6.0503">
        <ele>681</ele>
        <time>2020-06-11T10:16:29Z</time>
      </trkpt>
      <trkpt lat="44.31465" lon="6.05035">
        <ele>680</ele>
        <time>2020-06-11T10:16:35Z</time>
      </trkpt>
      <trkpt lat="44.3145" lon="6.05039">
        <ele>680</ele>
        <time>2020-06-11T10:16:40Z</time>
      </trkpt>
      <trkpt lat="44.31438" lon="6.05044">
        <ele>680</ele>
        <time>2020-06-11T10:16:43Z</time>
      </trkpt>
      <trkpt lat="44.31434" lon="6.05044">
        <ele>679</ele>
        <time>2020-06-11T10:16:44Z</time>
      </trkpt>
      <trkpt lat="44.31429" lon="6.05046">
        <ele>679</ele>
        <time>2020-06-11T10:16:45Z</time>
      </trkpt>
      <trkpt lat="44.31411" lon="6.05059">
        <ele>678</ele>
        <time>2020-06-11T10:16:49Z</time>
      </trkpt>
      <trkpt lat="44.31406" lon="6.05061">
        <ele>678</ele>
        <time>2020-06-11T10:16:50Z</time>
      </trkpt>
      <trkpt lat="44.31401" lon="6.05064">
        <ele>678</ele>
        <time>2020-06-11T10:16:51Z</time>
      </trkpt>
      <trkpt lat="44.31388" lon="6.05068">
        <ele>677</ele>
        <time>2020-06-11T10:16:54Z</time>
      </trkpt>
      <trkpt lat="44.31375" lon="6.0507">
        <ele>677</ele>
        <time>2020-06-11T10:16:57Z</time>
      </trkpt>
      <trkpt lat="44.31354" lon="6.05072">
        <ele>676</ele>
        <time>2020-06-11T10:17:02Z</time>
      </trkpt>
      <trkpt lat="44.31341" lon="6.05075">
        <ele>676</ele>
        <time>2020-06-11T10:17:05Z</time>
      </trkpt>
      <trkpt lat="44.31327" lon="6.05078">
        <ele>676</ele>
        <time>2020-06-11T10:17:08Z</time>
      </trkpt>
      <trkpt lat="44.31295" lon="6.05083">
        <ele>675</ele>
        <time>2020-06-11T10:17:14Z</time>
      </trkpt>
      <trkpt lat="44.3129" lon="6.05083">
        <ele>675</ele>
        <time>2020-06-11T10:17:15Z</time>
      </trkpt>
      <trkpt lat="44.31275" lon="6.05084">
        <ele>674</ele>
        <time>2020-06-11T10:17:18Z</time>
      </trkpt>
      <trkpt lat="44.31271" lon="6.05083">
        <ele>674</ele>
        <time>2020-06-11T10:17:19Z</time>
      </trkpt>
      <trkpt lat="44.31267" lon="6.05081">
        <ele>674</ele>
        <time>2020-06-11T10:17:20Z</time>
      </trkpt>
      <trkpt lat="44.31263" lon="6.05076">
        <ele>673</ele>
        <time>2020-06-11T10:17:21Z</time>
      </trkpt>
      <trkpt lat="44.3126" lon="6.05071">
        <ele>673</ele>
        <time>2020-06-11T10:17:22Z</time>
      </trkpt>
      <trkpt lat="44.31245" lon="6.0504">
        <ele>673</ele>
        <time>2020-06-11T10:17:27Z</time>
      </trkpt>
      <trkpt lat="44.3122" lon="6.04993">
        <ele>672</ele>
        <time>2020-06-11T10:17:35Z</time>
      </trkpt>
      <trkpt lat="44.31192" lon="6.04936">
        <ele>672</ele>
        <time>2020-06-11T10:17:44Z</time>
      </trkpt>
      <trkpt lat="44.31182" lon="6.04916">
        <ele>671</ele>
        <time>2020-06-11T10:17:47Z</time>
      </trkpt>
      <trkpt lat="44.31166" lon="6.04885">
        <ele>670</ele>
        <time>2020-06-11T10:17:52Z</time>
      </trkpt>
      <trkpt lat="44.31159" lon="6.04872">
        <ele>669</ele>
        <time>2020-06-11T10:17:54Z</time>
      </trkpt>
      <trkpt lat="44.31155" lon="6.04866">
        <ele>669</ele>
        <time>2020-06-11T10:17:55Z</time>
      </trkpt>
      <trkpt lat="44.3112" lon="6.04804">
        <ele>669</ele>
        <time>2020-06-11T10:18:04Z</time>
      </trkpt>
      <trkpt lat="44.31086" lon="6.04744">
        <ele>668</ele>
        <time>2020-06-11T10:18:13Z</time>
      </trkpt>
      <trkpt lat="44.31082" lon="6.04737">
        <ele>668</ele>
        <time>2020-06-11T10:18:14Z</time>
      </trkpt>
      <trkpt lat="44.31059" lon="6.04692">
        <ele>667</ele>
        <time>2020-06-11T10:18:21Z</time>
      </trkpt>
      <trkpt lat="44.3105" lon="6.04674">
        <ele>667</ele>
        <time>2020-06-11T10:18:24Z</time>
      </trkpt>
      <trkpt lat="44.31034" lon="6.04642">
        <ele>666</ele>
        <time>2020-06-11T10:18:29Z</time>
      </trkpt>
      <trkpt lat="44.31029" lon="6.04628">
        <ele>665</ele>
        <time>2020-06-11T10:18:31Z</time>
      </trkpt>
      <trkpt lat="44.31025" lon="6.04613">
        <ele>665</ele>
        <time>2020-06-11T10:18:33Z</time>
      </trkpt>
      <trkpt lat="44.31023" lon="6.04597">
        <ele>665</ele>
        <time>2020-06-11T10:18:35Z</time>
      </trkpt>
      <trkpt lat="44.31024" lon="6.04589">
        <ele>665</ele>
        <time>2020-06-11T10:18:36Z</time>
      </trkpt>
      <trkpt lat="44.31026" lon="6.04575">
        <ele>665</ele>
        <time>2020-06-11T10:18:38Z</time>
      </trkpt>
      <trkpt lat="44.3103" lon="6.04555">
        <ele>665</ele>
        <time>2020-06-11T10:18:41Z</time>
      </trkpt>
      <trkpt lat="44.3104" lon="6.04517">
        <ele>665</ele>
        <time>2020-06-11T10:18:47Z</time>
      </trkpt>
      <trkpt lat="44.31045" lon="6.04497">
        <ele>665</ele>
        <time>2020-06-11T10:18:50Z</time>
      </trkpt>
      <trkpt lat="44.31052" lon="6.04467">
        <ele>666</ele>
        <time>2020-06-11T10:18:55Z</time>
      </trkpt>
      <trkpt lat="44.31053" lon="6.04461">
        <ele>666</ele>
        <time>2020-06-11T10:18:56Z</time>
      </trkpt>
      <trkpt lat="44.31055" lon="6.04436">
        <ele>667</ele>
        <time>2020-06-11T10:19:00Z</time>
      </trkpt>
      <trkpt lat="44.31056" lon="6.04424">
        <ele>668</ele>
        <time>2020-06-11T10:19:02Z</time>
      </trkpt>
      <trkpt lat="44.31057" lon="6.04407">
        <ele>669</ele>
        <time>2020-06-11T10:19:05Z</time>
      </trkpt>
      <trkpt lat="44.31061" lon="6.04361">
        <ele>670</ele>
        <time>2020-06-11T10:19:13Z</time>
      </trkpt>
      <trkpt lat="44.31062" lon="6.04355">
        <ele>670</ele>
        <time>2020-06-11T10:19:14Z</time>
      </trkpt>
      <trkpt lat="44.31062" lon="6.04343">
        <ele>671</ele>
        <time>2020-06-11T10:19:16Z</time>
      </trkpt>
      <trkpt lat="44.31063" lon="6.04319">
        <ele>672</ele>
        <time>2020-06-11T10:19:20Z</time>
      </trkpt>
      <trkpt lat="44.31064" lon="6.04274">
        <ele>673</ele>
        <time>2020-06-11T10:19:27Z</time>
      </trkpt>
      <trkpt lat="44.31063" lon="6.04262">
        <ele>673</ele>
        <time>2020-06-11T10:19:29Z</time>
      </trkpt>
      <trkpt lat="44.31061" lon="6.0422">
        <ele>674</ele>
        <time>2020-06-11T10:19:35Z</time>
      </trkpt>
      <trkpt lat="44.3106" lon="6.04203">
        <ele>674</ele>
        <time>2020-06-11T10:19:37Z</time>
      </trkpt>
      <trkpt lat="44.31058" lon="6.04174">
        <ele>674</ele>
        <time>2020-06-11T10:19:40Z</time>
      </trkpt>
      <trkpt lat="44.31056" lon="6.0414">
        <ele>672</ele>
        <time>2020-06-11T10:19:43Z</time>
      </trkpt>
      <trkpt lat="44.31055" lon="6.04115">
        <ele>672</ele>
        <time>2020-06-11T10:19:45Z</time>
      </trkpt>
      <trkpt lat="44.31054" lon="6.04102">
        <ele>671</ele>
        <time>2020-06-11T10:19:46Z</time>
      </trkpt>
      <trkpt lat="44.3105" lon="6.04062">
        <ele>670</ele>
        <time>2020-06-11T10:19:49Z</time>
      </trkpt>
      <trkpt lat="44.31045" lon="6.0402">
        <ele>668</ele>
        <time>2020-06-11T10:19:52Z</time>
      </trkpt>
      <trkpt lat="44.31041" lon="6.0399">
        <ele>667</ele>
        <time>2020-06-11T10:19:54Z</time>
      </trkpt>
      <trkpt lat="44.31034" lon="6.03945">
        <ele>666</ele>
        <time>2020-06-11T10:19:57Z</time>
      </trkpt>
      <trkpt lat="44.31029" lon="6.03914">
        <ele>665</ele>
        <time>2020-06-11T10:19:59Z</time>
      </trkpt>
      <trkpt lat="44.31022" lon="6.03868">
        <ele>664</ele>
        <time>2020-06-11T10:20:02Z</time>
      </trkpt>
      <trkpt lat="44.31019" lon="6.03852">
        <ele>663</ele>
        <time>2020-06-11T10:20:03Z</time>
      </trkpt>
      <trkpt lat="44.31014" lon="6.03822">
        <ele>661</ele>
        <time>2020-06-11T10:20:05Z</time>
      </trkpt>
      <trkpt lat="44.3101" lon="6.03793">
        <ele>660</ele>
        <time>2020-06-11T10:20:07Z</time>
      </trkpt>
      <trkpt lat="44.31006" lon="6.03751">
        <ele>659</ele>
        <time>2020-06-11T10:20:10Z</time>
      </trkpt>
      <trkpt lat="44.31004" lon="6.03713">
        <ele>658</ele>
        <time>2020-06-11T10:20:13Z</time>
      </trkpt>
      <trkpt lat="44.31003" lon="6.03691">
        <ele>657</ele>
        <time>2020-06-11T10:20:15Z</time>
      </trkpt>
      <trkpt lat="44.31002" lon="6.03651">
        <ele>658</ele>
        <time>2020-06-11T10:20:19Z</time>
      </trkpt>
      <trkpt lat="44.31002" lon="6.03577">
        <ele>657</ele>
        <time>2020-06-11T10:20:26Z</time>
      </trkpt>
      <trkpt lat="44.31001" lon="6.03545">
        <ele>657</ele>
        <time>2020-06-11T10:20:29Z</time>
      </trkpt>
      <trkpt lat="44.30998" lon="6.03535">
        <ele>656</ele>
        <time>2020-06-11T10:20:30Z</time>
      </trkpt>
      <trkpt lat="44.30993" lon="6.03528">
        <ele>656</ele>
        <time>2020-06-11T10:20:31Z</time>
      </trkpt>
      <trkpt lat="44.30979" lon="6.03518">
        <ele>655</ele>
        <time>2020-06-11T10:20:33Z</time>
      </trkpt>
      <trkpt lat="44.30971" lon="6.03517">
        <ele>655</ele>
        <time>2020-06-11T10:20:34Z</time>
      </trkpt>
      <trkpt lat="44.30964" lon="6.03517">
        <ele>655</ele>
        <time>2020-06-11T10:20:35Z</time>
      </trkpt>
      <trkpt lat="44.30943" lon="6.03519">
        <ele>656</ele>
        <time>2020-06-11T10:20:38Z</time>
      </trkpt>
      <trkpt lat="44.30916" lon="6.03522">
        <ele>655</ele>
        <time>2020-06-11T10:20:42Z</time>
      </trkpt>
      <trkpt lat="44.30896" lon="6.03523">
        <ele>654</ele>
        <time>2020-06-11T10:20:45Z</time>
      </trkpt>
      <trkpt lat="44.30889" lon="6.03524">
        <ele>654</ele>
        <time>2020-06-11T10:20:46Z</time>
      </trkpt>
      <trkpt lat="44.30829" lon="6.03528">
        <ele>654</ele>
        <time>2020-06-11T10:20:55Z</time>
      </trkpt>
      <trkpt lat="44.30822" lon="6.03528">
        <ele>653</ele>
        <time>2020-06-11T10:20:56Z</time>
      </trkpt>
      <trkpt lat="44.30784" lon="6.03529">
        <ele>653</ele>
        <time>2020-06-11T10:21:02Z</time>
      </trkpt>
      <trkpt lat="44.30771" lon="6.03527">
        <ele>652</ele>
        <time>2020-06-11T10:21:04Z</time>
      </trkpt>
      <trkpt lat="44.30736" lon="6.03522">
        <ele>651</ele>
        <time>2020-06-11T10:21:09Z</time>
      </trkpt>
      <trkpt lat="44.3071" lon="6.03518">
        <ele>651</ele>
        <time>2020-06-11T10:21:13Z</time>
      </trkpt>
      <trkpt lat="44.30674" lon="6.03508">
        <ele>650</ele>
        <time>2020-06-11T10:21:19Z</time>
      </trkpt>
      <trkpt lat="44.30668" lon="6.03505">
        <ele>650</ele>
        <time>2020-06-11T10:21:20Z</time>
      </trkpt>
      <trkpt lat="44.30639" lon="6.03485">
        <ele>649</ele>
        <time>2020-06-11T10:21:25Z</time>
      </trkpt>
      <trkpt lat="44.30608" lon="6.03458">
        <ele>648</ele>
        <time>2020-06-11T10:21:31Z</time>
      </trkpt>
      <trkpt lat="44.30603" lon="6.03453">
        <ele>648</ele>
        <time>2020-06-11T10:21:32Z</time>
      </trkpt>
      <trkpt lat="44.30576" lon="6.03431">
        <ele>648</ele>
        <time>2020-06-11T10:21:37Z</time>
      </trkpt>
      <trkpt lat="44.30544" lon="6.03416">
        <ele>647</ele>
        <time>2020-06-11T10:21:42Z</time>
      </trkpt>
      <trkpt lat="44.30537" lon="6.03413">
        <ele>647</ele>
        <time>2020-06-11T10:21:43Z</time>
      </trkpt>
      <trkpt lat="44.30497" lon="6.03401">
        <ele>646</ele>
        <time>2020-06-11T10:21:49Z</time>
      </trkpt>
      <trkpt lat="44.30454" lon="6.03393">
        <ele>646</ele>
        <time>2020-06-11T10:21:55Z</time>
      </trkpt>
      <trkpt lat="44.30407" lon="6.03381">
        <ele>646</ele>
        <time>2020-06-11T10:22:02Z</time>
      </trkpt>
      <trkpt lat="44.30366" lon="6.03371">
        <ele>646</ele>
        <time>2020-06-11T10:22:08Z</time>
      </trkpt>
      <trkpt lat="44.30334" lon="6.03364">
        <ele>646</ele>
        <time>2020-06-11T10:22:13Z</time>
      </trkpt>
      <trkpt lat="44.30327" lon="6.03362">
        <ele>646</ele>
        <time>2020-06-11T10:22:14Z</time>
      </trkpt>
      <trkpt lat="44.30284" lon="6.03352">
        <ele>646</ele>
        <time>2020-06-11T10:22:21Z</time>
      </trkpt>
      <trkpt lat="44.30246" lon="6.03343">
        <ele>645</ele>
        <time>2020-06-11T10:22:27Z</time>
      </trkpt>
      <trkpt lat="44.30205" lon="6.03334">
        <ele>647</ele>
        <time>2020-06-11T10:22:33Z</time>
      </trkpt>
      <trkpt lat="44.30153" lon="6.03322">
        <ele>646</ele>
        <time>2020-06-11T10:22:41Z</time>
      </trkpt>
      <trkpt lat="44.30101" lon="6.03309">
        <ele>646</ele>
        <time>2020-06-11T10:22:49Z</time>
      </trkpt>
      <trkpt lat="44.30076" lon="6.03303">
        <ele>645</ele>
        <time>2020-06-11T10:22:53Z</time>
      </trkpt>
      <trkpt lat="44.30032" lon="6.03293">
        <ele>645</ele>
        <time>2020-06-11T10:23:00Z</time>
      </trkpt>
      <trkpt lat="44.29988" lon="6.03283">
        <ele>644</ele>
        <time>2020-06-11T10:23:07Z</time>
      </trkpt>
      <trkpt lat="44.29982" lon="6.03281">
        <ele>644</ele>
        <time>2020-06-11T10:23:08Z</time>
      </trkpt>
      <trkpt lat="44.29945" lon="6.03272">
        <ele>644</ele>
        <time>2020-06-11T10:23:14Z</time>
      </trkpt>
      <trkpt lat="44.29896" lon="6.03261">
        <ele>643</ele>
        <time>2020-06-11T10:23:22Z</time>
      </trkpt>
      <trkpt lat="44.29859" lon="6.03252">
        <ele>643</ele>
        <time>2020-06-11T10:23:28Z</time>
      </trkpt>
      <trkpt lat="44.29825" lon="6.03235">
        <ele>643</ele>
        <time>2020-06-11T10:23:34Z</time>
      </trkpt>
      <trkpt lat="44.29784" lon="6.03209">
        <ele>645</ele>
        <time>2020-06-11T10:23:42Z</time>
      </trkpt>
      <trkpt lat="44.29753" lon="6.03188">
        <ele>646</ele>
        <time>2020-06-11T10:23:48Z</time>
      </trkpt>
      <trkpt lat="44.29724" lon="6.03155">
        <ele>644</ele>
        <time>2020-06-11T10:23:54Z</time>
      </trkpt>
      <trkpt lat="44.2972" lon="6.0315">
        <ele>644</ele>
        <time>2020-06-11T10:23:55Z</time>
      </trkpt>
      <trkpt lat="44.29704" lon="6.03126">
        <ele>643</ele>
        <time>2020-06-11T10:23:59Z</time>
      </trkpt>
      <trkpt lat="44.29701" lon="6.0312">
        <ele>642</ele>
        <time>2020-06-11T10:24:00Z</time>
      </trkpt>
      <trkpt lat="44.29675" lon="6.03069">
        <ele>642</ele>
        <time>2020-06-11T10:24:08Z</time>
      </trkpt>
      <trkpt lat="44.29668" lon="6.03055">
        <ele>641</ele>
        <time>2020-06-11T10:24:10Z</time>
      </trkpt>
      <trkpt lat="44.29662" lon="6.03041">
        <ele>640</ele>
        <time>2020-06-11T10:24:12Z</time>
      </trkpt>
      <trkpt lat="44.29649" lon="6.03014">
        <ele>640</ele>
        <time>2020-06-11T10:24:16Z</time>
      </trkpt>
      <trkpt lat="44.29632" lon="6.02967">
        <ele>638</ele>
        <time>2020-06-11T10:24:22Z</time>
      </trkpt>
      <trkpt lat="44.29629" lon="6.02959">
        <ele>638</ele>
        <time>2020-06-11T10:24:23Z</time>
      </trkpt>
      <trkpt lat="44.29626" lon="6.0295">
        <ele>637</ele>
        <time>2020-06-11T10:24:24Z</time>
      </trkpt>
      <trkpt lat="44.29607" lon="6.02908">
        <ele>636</ele>
        <time>2020-06-11T10:24:29Z</time>
      </trkpt>
      <trkpt lat="44.29581" lon="6.02868">
        <ele>636</ele>
        <time>2020-06-11T10:24:35Z</time>
      </trkpt>
      <trkpt lat="44.2957" lon="6.02856">
        <ele>636</ele>
        <time>2020-06-11T10:24:37Z</time>
      </trkpt>
      <trkpt lat="44.29542" lon="6.02831">
        <ele>636</ele>
        <time>2020-06-11T10:24:42Z</time>
      </trkpt>
      <trkpt lat="44.29498" lon="6.02806">
        <ele>636</ele>
        <time>2020-06-11T10:24:49Z</time>
      </trkpt>
      <trkpt lat="44.29442" lon="6.02779">
        <ele>636</ele>
        <time>2020-06-11T10:24:58Z</time>
      </trkpt>
      <trkpt lat="44.2943" lon="6.02774">
        <ele>636</ele>
        <time>2020-06-11T10:25:00Z</time>
      </trkpt>
      <trkpt lat="44.29399" lon="6.02759">
        <ele>635</ele>
        <time>2020-06-11T10:25:05Z</time>
      </trkpt>
      <trkpt lat="44.29369" lon="6.02744">
        <ele>634</ele>
        <time>2020-06-11T10:25:10Z</time>
      </trkpt>
      <trkpt lat="44.29363" lon="6.02742">
        <ele>634</ele>
        <time>2020-06-11T10:25:11Z</time>
      </trkpt>
      <trkpt lat="44.29321" lon="6.02721">
        <ele>633</ele>
        <time>2020-06-11T10:25:18Z</time>
      </trkpt>
      <trkpt lat="44.29315" lon="6.02718">
        <ele>633</ele>
        <time>2020-06-11T10:25:19Z</time>
      </trkpt>
      <trkpt lat="44.29295" lon="6.0271">
        <ele>632</ele>
        <time>2020-06-11T10:25:22Z</time>
      </trkpt>
      <trkpt lat="44.29281" lon="6.02705">
        <ele>632</ele>
        <time>2020-06-11T10:25:24Z</time>
      </trkpt>
      <trkpt lat="44.29261" lon="6.02701">
        <ele>631</ele>
        <time>2020-06-11T10:25:27Z</time>
      </trkpt>
      <trkpt lat="44.2924" lon="6.02698">
        <ele>630</ele>
        <time>2020-06-11T10:25:30Z</time>
      </trkpt>
      <trkpt lat="44.2919" lon="6.02693">
        <ele>630</ele>
        <time>2020-06-11T10:25:37Z</time>
      </trkpt>
      <trkpt lat="44.29159" lon="6.02675">
        <ele>630</ele>
        <time>2020-06-11T10:25:42Z</time>
      </trkpt>
      <trkpt lat="44.29123" lon="6.02647">
        <ele>630</ele>
        <time>2020-06-11T10:25:49Z</time>
      </trkpt>
      <trkpt lat="44.29091" lon="6.02621">
        <ele>631</ele>
        <time>2020-06-11T10:25:56Z</time>
      </trkpt>
      <trkpt lat="44.29078" lon="6.0261">
        <ele>632</ele>
        <time>2020-06-11T10:25:59Z</time>
      </trkpt>
      <trkpt lat="44.29055" lon="6.02593">
        <ele>633</ele>
        <time>2020-06-11T10:26:04Z</time>
      </trkpt>
      <trkpt lat="44.29051" lon="6.02589">
        <ele>633</ele>
        <time>2020-06-11T10:26:05Z</time>
      </trkpt>
      <trkpt lat="44.29033" lon="6.02575">
        <ele>634</ele>
        <time>2020-06-11T10:26:09Z</time>
      </trkpt>
      <trkpt lat="44.2902" lon="6.02565">
        <ele>635</ele>
        <time>2020-06-11T10:26:12Z</time>
      </trkpt>
      <trkpt lat="44.29017" lon="6.02561">
        <ele>635</ele>
        <time>2020-06-11T10:26:13Z</time>
      </trkpt>
      <trkpt lat="44.28993" lon="6.02539">
        <ele>637</ele>
        <time>2020-06-11T10:26:19Z</time>
      </trkpt>
      <trkpt lat="44.28989" lon="6.02535">
        <ele>637</ele>
        <time>2020-06-11T10:26:20Z</time>
      </trkpt>
      <trkpt lat="44.28972" lon="6.0252">
        <ele>638</ele>
        <time>2020-06-11T10:26:24Z</time>
      </trkpt>
      <trkpt lat="44.28952" lon="6.02509">
        <ele>638</ele>
        <time>2020-06-11T10:26:28Z</time>
      </trkpt>
      <trkpt lat="44.28942" lon="6.02504">
        <ele>639</ele>
        <time>2020-06-11T10:26:30Z</time>
      </trkpt>
      <trkpt lat="44.2892" lon="6.02496">
        <ele>640</ele>
        <time>2020-06-11T10:26:34Z</time>
      </trkpt>
      <trkpt lat="44.28915" lon="6.02495">
        <ele>640</ele>
        <time>2020-06-11T10:26:35Z</time>
      </trkpt>
      <trkpt lat="44.28874" lon="6.02484">
        <ele>640</ele>
        <time>2020-06-11T10:26:42Z</time>
      </trkpt>
      <trkpt lat="44.2883" lon="6.02468">
        <ele>640</ele>
        <time>2020-06-11T10:26:49Z</time>
      </trkpt>
      <trkpt lat="44.28824" lon="6.02463">
        <ele>640</ele>
        <time>2020-06-11T10:26:50Z</time>
      </trkpt>
      <trkpt lat="44.28819" lon="6.02458">
        <ele>640</ele>
        <time>2020-06-11T10:26:51Z</time>
      </trkpt>
      <trkpt lat="44.288" lon="6.02434">
        <ele>640</ele>
        <time>2020-06-11T10:26:55Z</time>
      </trkpt>
      <trkpt lat="44.28772" lon="6.02388">
        <ele>639</ele>
        <time>2020-06-11T10:27:02Z</time>
      </trkpt>
      <trkpt lat="44.28764" lon="6.02376">
        <ele>639</ele>
        <time>2020-06-11T10:27:04Z</time>
      </trkpt>
      <trkpt lat="44.28728" lon="6.02334">
        <ele>639</ele>
        <time>2020-06-11T10:27:12Z</time>
      </trkpt>
      <trkpt lat="44.28693" lon="6.02293">
        <ele>638</ele>
        <time>2020-06-11T10:27:19Z</time>
      </trkpt>
      <trkpt lat="44.28688" lon="6.02288">
        <ele>638</ele>
        <time>2020-06-11T10:27:20Z</time>
      </trkpt>
      <trkpt lat="44.28668" lon="6.02265">
        <ele>637</ele>
        <time>2020-06-11T10:27:24Z</time>
      </trkpt>
      <trkpt lat="44.28642" lon="6.02237">
        <ele>637</ele>
        <time>2020-06-11T10:27:29Z</time>
      </trkpt>
      <trkpt lat="44.28601" lon="6.02191">
        <ele>637</ele>
        <time>2020-06-11T10:27:37Z</time>
      </trkpt>
      <trkpt lat="44.28585" lon="6.02172">
        <ele>636</ele>
        <time>2020-06-11T10:27:40Z</time>
      </trkpt>
      <trkpt lat="44.28557" lon="6.02141">
        <ele>635</ele>
        <time>2020-06-11T10:27:45Z</time>
      </trkpt>
      <trkpt lat="44.28513" lon="6.02092">
        <ele>635</ele>
        <time>2020-06-11T10:27:53Z</time>
      </trkpt>
      <trkpt lat="44.28468" lon="6.02038">
        <ele>634</ele>
        <time>2020-06-11T10:28:01Z</time>
      </trkpt>
      <trkpt lat="44.28457" lon="6.02025">
        <ele>633</ele>
        <time>2020-06-11T10:28:03Z</time>
      </trkpt>
      <trkpt lat="44.28446" lon="6.02015">
        <ele>633</ele>
        <time>2020-06-11T10:28:05Z</time>
      </trkpt>
      <trkpt lat="44.28434" lon="6.02005">
        <ele>633</ele>
        <time>2020-06-11T10:28:07Z</time>
      </trkpt>
      <trkpt lat="44.28408" lon="6.01986">
        <ele>632</ele>
        <time>2020-06-11T10:28:11Z</time>
      </trkpt>
      <trkpt lat="44.28394" lon="6.01976">
        <ele>632</ele>
        <time>2020-06-11T10:28:13Z</time>
      </trkpt>
      <trkpt lat="44.2838" lon="6.01968">
        <ele>631</ele>
        <time>2020-06-11T10:28:15Z</time>
      </trkpt>
      <trkpt lat="44.28352" lon="6.01953">
        <ele>630</ele>
        <time>2020-06-11T10:28:19Z</time>
      </trkpt>
      <trkpt lat="44.28346" lon="6.01948">
        <ele>630</ele>
        <time>2020-06-11T10:28:20Z</time>
      </trkpt>
      <trkpt lat="44.28321" lon="6.01929">
        <ele>629</ele>
        <time>2020-06-11T10:28:24Z</time>
      </trkpt>
      <trkpt lat="44.28296" lon="6.0191">
        <ele>629</ele>
        <time>2020-06-11T10:28:28Z</time>
      </trkpt>
      <trkpt lat="44.28256" lon="6.01879">
        <ele>629</ele>
        <time>2020-06-11T10:28:35Z</time>
      </trkpt>
      <trkpt lat="44.28229" lon="6.01869">
        <ele>629</ele>
        <time>2020-06-11T10:28:40Z</time>
      </trkpt>
      <trkpt lat="44.28209" lon="6.01868">
        <ele>628</ele>
        <time>2020-06-11T10:28:44Z</time>
      </trkpt>
      <trkpt lat="44.282" lon="6.01868">
        <ele>627</ele>
        <time>2020-06-11T10:28:46Z</time>
      </trkpt>
      <trkpt lat="44.28195" lon="6.01869">
        <ele>626</ele>
        <time>2020-06-11T10:28:47Z</time>
      </trkpt>
      <trkpt lat="44.2819" lon="6.01879">
        <ele>626</ele>
        <time>2020-06-11T10:28:49Z</time>
      </trkpt>
      <trkpt lat="44.2819" lon="6.01885">
        <ele>625</ele>
        <time>2020-06-11T10:28:50Z</time>
      </trkpt>
      <trkpt lat="44.2819" lon="6.01898">
        <ele>625</ele>
        <time>2020-06-11T10:28:53Z</time>
      </trkpt>
      <trkpt lat="44.28189" lon="6.01902">
        <ele>624</ele>
        <time>2020-06-11T10:28:56Z</time>
      </trkpt>
      <trkpt lat="44.28189" lon="6.01902">
        <ele>624</ele>
        <time>2020-06-11T10:28:57Z</time>
      </trkpt>
      <trkpt lat="44.28189" lon="6.01901">
        <ele>624</ele>
        <time>2020-06-11T10:29:01Z</time>
      </trkpt>
      <trkpt lat="44.28193" lon="6.01872">
        <ele>626</ele>
        <time>2020-06-11T10:54:59Z</time>
      </trkpt>
      <trkpt lat="44.28193" lon="6.0187">
        <ele>626</ele>
        <time>2020-06-11T10:55:00Z</time>
      </trkpt>
      <trkpt lat="44.28188" lon="6.01858">
        <ele>626</ele>
        <time>2020-06-11T10:55:05Z</time>
      </trkpt>
      <trkpt lat="44.28185" lon="6.01854">
        <ele>625</ele>
        <time>2020-06-11T10:55:07Z</time>
      </trkpt>
      <trkpt lat="44.28181" lon="6.01851">
        <ele>624</ele>
        <time>2020-06-11T10:55:10Z</time>
      </trkpt>
      <trkpt lat="44.28179" lon="6.01851">
        <ele>624</ele>
        <time>2020-06-11T10:55:11Z</time>
      </trkpt>
      <trkpt lat="44.2817" lon="6.01848">
        <ele>623</ele>
        <time>2020-06-11T10:55:14Z</time>
      </trkpt>
      <trkpt lat="44.28166" lon="6.01847">
        <ele>622</ele>
        <time>2020-06-11T10:55:15Z</time>
      </trkpt>
      <trkpt lat="44.2816" lon="6.01843">
        <ele>621</ele>
        <time>2020-06-11T10:55:17Z</time>
      </trkpt>
      <trkpt lat="44.28152" lon="6.01837">
        <ele>619</ele>
        <time>2020-06-11T10:55:19Z</time>
      </trkpt>
      <trkpt lat="44.28143" lon="6.0183">
        <ele>618</ele>
        <time>2020-06-11T10:55:21Z</time>
      </trkpt>
      <trkpt lat="44.28131" lon="6.01821">
        <ele>617</ele>
        <time>2020-06-11T10:55:23Z</time>
      </trkpt>
      <trkpt lat="44.28125" lon="6.01816">
        <ele>616</ele>
        <time>2020-06-11T10:55:24Z</time>
      </trkpt>
      <trkpt lat="44.2812" lon="6.01811">
        <ele>615</ele>
        <time>2020-06-11T10:55:25Z</time>
      </trkpt>
      <trkpt lat="44.28115" lon="6.01806">
        <ele>615</ele>
        <time>2020-06-11T10:55:26Z</time>
      </trkpt>
      <trkpt lat="44.28111" lon="6.018">
        <ele>614</ele>
        <time>2020-06-11T10:55:27Z</time>
      </trkpt>
      <trkpt lat="44.28107" lon="6.01792">
        <ele>613</ele>
        <time>2020-06-11T10:55:28Z</time>
      </trkpt>
      <trkpt lat="44.28105" lon="6.01783">
        <ele>613</ele>
        <time>2020-06-11T10:55:29Z</time>
      </trkpt>
      <trkpt lat="44.28099" lon="6.01765">
        <ele>611</ele>
        <time>2020-06-11T10:55:31Z</time>
      </trkpt>
      <trkpt lat="44.28096" lon="6.01756">
        <ele>611</ele>
        <time>2020-06-11T10:55:32Z</time>
      </trkpt>
      <trkpt lat="44.28087" lon="6.0174">
        <ele>610</ele>
        <time>2020-06-11T10:55:34Z</time>
      </trkpt>
      <trkpt lat="44.28083" lon="6.01733">
        <ele>610</ele>
        <time>2020-06-11T10:55:35Z</time>
      </trkpt>
      <trkpt lat="44.28074" lon="6.01719">
        <ele>609</ele>
        <time>2020-06-11T10:55:37Z</time>
      </trkpt>
      <trkpt lat="44.28068" lon="6.01704">
        <ele>608</ele>
        <time>2020-06-11T10:55:39Z</time>
      </trkpt>
      <trkpt lat="44.28066" lon="6.01696">
        <ele>608</ele>
        <time>2020-06-11T10:55:40Z</time>
      </trkpt>
      <trkpt lat="44.28061" lon="6.01658">
        <ele>608</ele>
        <time>2020-06-11T10:55:45Z</time>
      </trkpt>
      <trkpt lat="44.28059" lon="6.01651">
        <ele>608</ele>
        <time>2020-06-11T10:55:46Z</time>
      </trkpt>
      <trkpt lat="44.28057" lon="6.01645">
        <ele>608</ele>
        <time>2020-06-11T10:55:47Z</time>
      </trkpt>
      <trkpt lat="44.28051" lon="6.01619">
        <ele>608</ele>
        <time>2020-06-11T10:55:51Z</time>
      </trkpt>
      <trkpt lat="44.28048" lon="6.01599">
        <ele>607</ele>
        <time>2020-06-11T10:55:55Z</time>
      </trkpt>
      <trkpt lat="44.28047" lon="6.01595">
        <ele>606</ele>
        <time>2020-06-11T10:55:57Z</time>
      </trkpt>
      <trkpt lat="44.28044" lon="6.0158">
        <ele>606</ele>
        <time>2020-06-11T10:56:02Z</time>
      </trkpt>
      <trkpt lat="44.28041" lon="6.01574">
        <ele>606</ele>
        <time>2020-06-11T10:56:04Z</time>
      </trkpt>
      <trkpt lat="44.28034" lon="6.01571">
        <ele>606</ele>
        <time>2020-06-11T10:56:06Z</time>
      </trkpt>
      <trkpt lat="44.28029" lon="6.01572">
        <ele>606</ele>
        <time>2020-06-11T10:56:07Z</time>
      </trkpt>
      <trkpt lat="44.28011" lon="6.01579">
        <ele>606</ele>
        <time>2020-06-11T10:56:11Z</time>
      </trkpt>
      <trkpt lat="44.27981" lon="6.0158">
        <ele>605</ele>
        <time>2020-06-11T10:56:17Z</time>
      </trkpt>
      <trkpt lat="44.27975" lon="6.01579">
        <ele>605</ele>
        <time>2020-06-11T10:56:18Z</time>
      </trkpt>
      <trkpt lat="44.27942" lon="6.01569">
        <ele>605</ele>
        <time>2020-06-11T10:56:24Z</time>
      </trkpt>
      <trkpt lat="44.27937" lon="6.01566">
        <ele>605</ele>
        <time>2020-06-11T10:56:25Z</time>
      </trkpt>
      <trkpt lat="44.27932" lon="6.01562">
        <ele>605</ele>
        <time>2020-06-11T10:56:26Z</time>
      </trkpt>
      <trkpt lat="44.27917" lon="6.01548">
        <ele>605</ele>
        <time>2020-06-11T10:56:29Z</time>
      </trkpt>
      <trkpt lat="44.27913" lon="6.01543">
        <ele>605</ele>
        <time>2020-06-11T10:56:30Z</time>
      </trkpt>
      <trkpt lat="44.27904" lon="6.01532">
        <ele>604</ele>
        <time>2020-06-11T10:56:32Z</time>
      </trkpt>
      <trkpt lat="44.27886" lon="6.01512">
        <ele>603</ele>
        <time>2020-06-11T10:56:36Z</time>
      </trkpt>
      <trkpt lat="44.27876" lon="6.01502">
        <ele>603</ele>
        <time>2020-06-11T10:56:38Z</time>
      </trkpt>
      <trkpt lat="44.27866" lon="6.01493">
        <ele>603</ele>
        <time>2020-06-11T10:56:40Z</time>
      </trkpt>
      <trkpt lat="44.27856" lon="6.01488">
        <ele>603</ele>
        <time>2020-06-11T10:56:42Z</time>
      </trkpt>
      <trkpt lat="44.27823" lon="6.01476">
        <ele>602</ele>
        <time>2020-06-11T10:56:47Z</time>
      </trkpt>
      <trkpt lat="44.27817" lon="6.01474">
        <ele>602</ele>
        <time>2020-06-11T10:56:48Z</time>
      </trkpt>
      <trkpt lat="44.27791" lon="6.01467">
        <ele>602</ele>
        <time>2020-06-11T10:56:52Z</time>
      </trkpt>
      <trkpt lat="44.27778" lon="6.01462">
        <ele>600</ele>
        <time>2020-06-11T10:56:54Z</time>
      </trkpt>
      <trkpt lat="44.27734" lon="6.01435">
        <ele>600</ele>
        <time>2020-06-11T10:57:02Z</time>
      </trkpt>
      <trkpt lat="44.27724" lon="6.01426">
        <ele>600</ele>
        <time>2020-06-11T10:57:04Z</time>
      </trkpt>
      <trkpt lat="44.27712" lon="6.0141">
        <ele>600</ele>
        <time>2020-06-11T10:57:07Z</time>
      </trkpt>
      <trkpt lat="44.277" lon="6.01393">
        <ele>600</ele>
        <time>2020-06-11T10:57:10Z</time>
      </trkpt>
      <trkpt lat="44.27689" lon="6.01375">
        <ele>599</ele>
        <time>2020-06-11T10:57:13Z</time>
      </trkpt>
      <trkpt lat="44.27678" lon="6.01355">
        <ele>598</ele>
        <time>2020-06-11T10:57:16Z</time>
      </trkpt>
      <trkpt lat="44.27662" lon="6.01333">
        <ele>597</ele>
        <time>2020-06-11T10:57:20Z</time>
      </trkpt>
      <trkpt lat="44.27658" lon="6.01329">
        <ele>597</ele>
        <time>2020-06-11T10:57:21Z</time>
      </trkpt>
      <trkpt lat="44.27644" lon="6.01321">
        <ele>597</ele>
        <time>2020-06-11T10:57:25Z</time>
      </trkpt>
      <trkpt lat="44.27641" lon="6.01322">
        <ele>597</ele>
        <time>2020-06-11T10:57:26Z</time>
      </trkpt>
      <trkpt lat="44.27615" lon="6.0134">
        <ele>597</ele>
        <time>2020-06-11T10:57:33Z</time>
      </trkpt>
      <trkpt lat="44.27578" lon="6.01366">
        <ele>598</ele>
        <time>2020-06-11T10:57:43Z</time>
      </trkpt>
      <trkpt lat="44.27553" lon="6.01384">
        <ele>598</ele>
        <time>2020-06-11T10:57:52Z</time>
      </trkpt>
      <trkpt lat="44.27535" lon="6.01397">
        <ele>599</ele>
        <time>2020-06-11T10:57:59Z</time>
      </trkpt>
      <trkpt lat="44.2753" lon="6.01399">
        <ele>600</ele>
        <time>2020-06-11T10:58:01Z</time>
      </trkpt>
      <trkpt lat="44.27521" lon="6.01399">
        <ele>601</ele>
        <time>2020-06-11T10:58:06Z</time>
      </trkpt>
      <trkpt lat="44.27516" lon="6.01398">
        <ele>602</ele>
        <time>2020-06-11T10:58:09Z</time>
      </trkpt>
      <trkpt lat="44.2751" lon="6.01395">
        <ele>602</ele>
        <time>2020-06-11T10:58:12Z</time>
      </trkpt>
      <trkpt lat="44.27504" lon="6.01391">
        <ele>604</ele>
        <time>2020-06-11T10:58:16Z</time>
      </trkpt>
      <trkpt lat="44.27496" lon="6.01385">
        <ele>605</ele>
        <time>2020-06-11T10:58:21Z</time>
      </trkpt>
      <trkpt lat="44.27491" lon="6.01382">
        <ele>606</ele>
        <time>2020-06-11T10:58:24Z</time>
      </trkpt>
      <trkpt lat="44.27489" lon="6.01381">
        <ele>606</ele>
        <time>2020-06-11T10:58:25Z</time>
      </trkpt>
      <trkpt lat="44.27478" lon="6.01376">
        <ele>607</ele>
        <time>2020-06-11T10:58:31Z</time>
      </trkpt>
      <trkpt lat="44.27473" lon="6.01373">
        <ele>608</ele>
        <time>2020-06-11T10:58:34Z</time>
      </trkpt>
      <trkpt lat="44.27471" lon="6.01373">
        <ele>608</ele>
        <time>2020-06-11T10:58:35Z</time>
      </trkpt>
      <trkpt lat="44.27462" lon="6.0137">
        <ele>610</ele>
        <time>2020-06-11T10:58:40Z</time>
      </trkpt>
      <trkpt lat="44.27456" lon="6.01372">
        <ele>610</ele>
        <time>2020-06-11T10:58:43Z</time>
      </trkpt>
      <trkpt lat="44.27453" lon="6.01375">
        <ele>611</ele>
        <time>2020-06-11T10:58:45Z</time>
      </trkpt>
      <trkpt lat="44.2745" lon="6.01384">
        <ele>612</ele>
        <time>2020-06-11T10:58:49Z</time>
      </trkpt>
      <trkpt lat="44.27453" lon="6.01399">
        <ele>613</ele>
        <time>2020-06-11T10:58:55Z</time>
      </trkpt>
      <trkpt lat="44.27454" lon="6.01401">
        <ele>613</ele>
        <time>2020-06-11T10:58:56Z</time>
      </trkpt>
      <trkpt lat="44.27456" lon="6.01406">
        <ele>614</ele>
        <time>2020-06-11T10:58:58Z</time>
      </trkpt>
      <trkpt lat="44.27458" lon="6.01407">
        <ele>614</ele>
        <time>2020-06-11T10:58:59Z</time>
      </trkpt>
      <trkpt lat="44.27462" lon="6.01413">
        <ele>615</ele>
        <time>2020-06-11T10:59:02Z</time>
      </trkpt>
      <trkpt lat="44.27464" lon="6.01418">
        <ele>616</ele>
        <time>2020-06-11T10:59:04Z</time>
      </trkpt>
      <trkpt lat="44.27474" lon="6.01434">
        <ele>616</ele>
        <time>2020-06-11T10:59:12Z</time>
      </trkpt>
      <trkpt lat="44.27475" lon="6.01437">
        <ele>617</ele>
        <time>2020-06-11T10:59:13Z</time>
      </trkpt>
      <trkpt lat="44.27477" lon="6.01442">
        <ele>617</ele>
        <time>2020-06-11T10:59:15Z</time>
      </trkpt>
      <trkpt lat="44.27475" lon="6.01454">
        <ele>619</ele>
        <time>2020-06-11T10:59:19Z</time>
      </trkpt>
      <trkpt lat="44.27467" lon="6.0146">
        <ele>619</ele>
        <time>2020-06-11T10:59:24Z</time>
      </trkpt>
      <trkpt lat="44.27464" lon="6.0146">
        <ele>620</ele>
        <time>2020-06-11T10:59:25Z</time>
      </trkpt>
      <trkpt lat="44.27459" lon="6.01455">
        <ele>621</ele>
        <time>2020-06-11T10:59:28Z</time>
      </trkpt>
      <trkpt lat="44.27457" lon="6.01452">
        <ele>621</ele>
        <time>2020-06-11T10:59:29Z</time>
      </trkpt>
      <trkpt lat="44.27455" lon="6.01448">
        <ele>622</ele>
        <time>2020-06-11T10:59:31Z</time>
      </trkpt>
      <trkpt lat="44.27452" lon="6.01438">
        <ele>623</ele>
        <time>2020-06-11T10:59:35Z</time>
      </trkpt>
      <trkpt lat="44.27449" lon="6.01431">
        <ele>624</ele>
        <time>2020-06-11T10:59:38Z</time>
      </trkpt>
      <trkpt lat="44.27446" lon="6.01426">
        <ele>624</ele>
        <time>2020-06-11T10:59:40Z</time>
      </trkpt>
      <trkpt lat="44.27443" lon="6.01423">
        <ele>625</ele>
        <time>2020-06-11T10:59:42Z</time>
      </trkpt>
      <trkpt lat="44.27441" lon="6.01423">
        <ele>625</ele>
        <time>2020-06-11T10:59:43Z</time>
      </trkpt>
      <trkpt lat="44.27437" lon="6.01428">
        <ele>626</ele>
        <time>2020-06-11T10:59:46Z</time>
      </trkpt>
      <trkpt lat="44.27438" lon="6.0143">
        <ele>626</ele>
        <time>2020-06-11T10:59:47Z</time>
      </trkpt>
      <trkpt lat="44.2744" lon="6.01437">
        <ele>627</ele>
        <time>2020-06-11T10:59:50Z</time>
      </trkpt>
      <trkpt lat="44.27443" lon="6.01449">
        <ele>628</ele>
        <time>2020-06-11T10:59:55Z</time>
      </trkpt>
      <trkpt lat="44.27444" lon="6.01453">
        <ele>628</ele>
        <time>2020-06-11T10:59:57Z</time>
      </trkpt>
      <trkpt lat="44.27446" lon="6.01462">
        <ele>629</ele>
        <time>2020-06-11T11:00:01Z</time>
      </trkpt>
      <trkpt lat="44.27447" lon="6.01473">
        <ele>630</ele>
        <time>2020-06-11T11:00:06Z</time>
      </trkpt>
      <trkpt lat="44.27448" lon="6.0148">
        <ele>631</ele>
        <time>2020-06-11T11:00:09Z</time>
      </trkpt>
      <trkpt lat="44.27448" lon="6.01483">
        <ele>631</ele>
        <time>2020-06-11T11:00:10Z</time>
      </trkpt>
      <trkpt lat="44.27448" lon="6.01492">
        <ele>632</ele>
        <time>2020-06-11T11:00:14Z</time>
      </trkpt>
      <trkpt lat="44.27449" lon="6.01497">
        <ele>633</ele>
        <time>2020-06-11T11:00:16Z</time>
      </trkpt>
      <trkpt lat="44.2745" lon="6.01504">
        <ele>634</ele>
        <time>2020-06-11T11:00:19Z</time>
      </trkpt>
      <trkpt lat="44.27451" lon="6.01514">
        <ele>635</ele>
        <time>2020-06-11T11:00:23Z</time>
      </trkpt>
      <trkpt lat="44.27451" lon="6.01516">
        <ele>635</ele>
        <time>2020-06-11T11:00:24Z</time>
      </trkpt>
      <trkpt lat="44.27452" lon="6.01528">
        <ele>636</ele>
        <time>2020-06-11T11:00:29Z</time>
      </trkpt>
      <trkpt lat="44.27453" lon="6.01543">
        <ele>637</ele>
        <time>2020-06-11T11:00:35Z</time>
      </trkpt>
      <trkpt lat="44.27453" lon="6.0156">
        <ele>638</ele>
        <time>2020-06-11T11:00:42Z</time>
      </trkpt>
      <trkpt lat="44.27454" lon="6.01567">
        <ele>639</ele>
        <time>2020-06-11T11:00:45Z</time>
      </trkpt>
      <trkpt lat="44.27454" lon="6.01572">
        <ele>639</ele>
        <time>2020-06-11T11:00:47Z</time>
      </trkpt>
      <trkpt lat="44.27455" lon="6.01582">
        <ele>640</ele>
        <time>2020-06-11T11:00:51Z</time>
      </trkpt>
      <trkpt lat="44.27456" lon="6.01592">
        <ele>641</ele>
        <time>2020-06-11T11:00:55Z</time>
      </trkpt>
      <trkpt lat="44.27457" lon="6.01594">
        <ele>642</ele>
        <time>2020-06-11T11:00:56Z</time>
      </trkpt>
      <trkpt lat="44.2746" lon="6.01605">
        <ele>643</ele>
        <time>2020-06-11T11:01:01Z</time>
      </trkpt>
      <trkpt lat="44.27465" lon="6.01617">
        <ele>644</ele>
        <time>2020-06-11T11:01:07Z</time>
      </trkpt>
      <trkpt lat="44.27468" lon="6.01625">
        <ele>645</ele>
        <time>2020-06-11T11:01:11Z</time>
      </trkpt>
      <trkpt lat="44.27474" lon="6.01635">
        <ele>646</ele>
        <time>2020-06-11T11:01:17Z</time>
      </trkpt>
      <trkpt lat="44.27475" lon="6.01637">
        <ele>647</ele>
        <time>2020-06-11T11:01:18Z</time>
      </trkpt>
      <trkpt lat="44.27476" lon="6.01639">
        <ele>647</ele>
        <time>2020-06-11T11:01:19Z</time>
      </trkpt>
      <trkpt lat="44.27478" lon="6.01645">
        <ele>648</ele>
        <time>2020-06-11T11:01:22Z</time>
      </trkpt>
      <trkpt lat="44.27482" lon="6.01654">
        <ele>650</ele>
        <time>2020-06-11T11:01:27Z</time>
      </trkpt>
      <trkpt lat="44.27483" lon="6.01658">
        <ele>650</ele>
        <time>2020-06-11T11:01:29Z</time>
      </trkpt>
      <trkpt lat="44.27486" lon="6.01666">
        <ele>651</ele>
        <time>2020-06-11T11:01:33Z</time>
      </trkpt>
      <trkpt lat="44.27487" lon="6.01674">
        <ele>652</ele>
        <time>2020-06-11T11:01:37Z</time>
      </trkpt>
      <trkpt lat="44.27488" lon="6.01676">
        <ele>652</ele>
        <time>2020-06-11T11:01:38Z</time>
      </trkpt>
      <trkpt lat="44.27489" lon="6.0168">
        <ele>652</ele>
        <time>2020-06-11T11:01:40Z</time>
      </trkpt>
      <trkpt lat="44.27489" lon="6.01685">
        <ele>653</ele>
        <time>2020-06-11T11:01:43Z</time>
      </trkpt>
      <trkpt lat="44.27491" lon="6.01695">
        <ele>654</ele>
        <time>2020-06-11T11:01:48Z</time>
      </trkpt>
      <trkpt lat="44.27491" lon="6.017">
        <ele>654</ele>
        <time>2020-06-11T11:01:50Z</time>
      </trkpt>
      <trkpt lat="44.27492" lon="6.01709">
        <ele>655</ele>
        <time>2020-06-11T11:01:53Z</time>
      </trkpt>
      <trkpt lat="44.27491" lon="6.0172">
        <ele>656</ele>
        <time>2020-06-11T11:01:58Z</time>
      </trkpt>
      <trkpt lat="44.27491" lon="6.01723">
        <ele>656</ele>
        <time>2020-06-11T11:01:59Z</time>
      </trkpt>
      <trkpt lat="44.27489" lon="6.01733">
        <ele>657</ele>
        <time>2020-06-11T11:02:03Z</time>
      </trkpt>
      <trkpt lat="44.27485" lon="6.01741">
        <ele>658</ele>
        <time>2020-06-11T11:02:07Z</time>
      </trkpt>
      <trkpt lat="44.27476" lon="6.01745">
        <ele>660</ele>
        <time>2020-06-11T11:02:12Z</time>
      </trkpt>
      <trkpt lat="44.27472" lon="6.01745">
        <ele>660</ele>
        <time>2020-06-11T11:02:14Z</time>
      </trkpt>
      <trkpt lat="44.27464" lon="6.0175">
        <ele>660</ele>
        <time>2020-06-11T11:02:18Z</time>
      </trkpt>
      <trkpt lat="44.27458" lon="6.01771">
        <ele>660</ele>
        <time>2020-06-11T11:02:24Z</time>
      </trkpt>
      <trkpt lat="44.27455" lon="6.01797">
        <ele>660</ele>
        <time>2020-06-11T11:02:30Z</time>
      </trkpt>
      <trkpt lat="44.2746" lon="6.01829">
        <ele>660</ele>
        <time>2020-06-11T11:02:37Z</time>
      </trkpt>
      <trkpt lat="44.27474" lon="6.01865">
        <ele>660</ele>
        <time>2020-06-11T11:02:45Z</time>
      </trkpt>
      <trkpt lat="44.27485" lon="6.0189">
        <ele>660</ele>
        <time>2020-06-11T11:02:50Z</time>
      </trkpt>
      <trkpt lat="44.27488" lon="6.01901">
        <ele>660</ele>
        <time>2020-06-11T11:02:52Z</time>
      </trkpt>
      <trkpt lat="44.27494" lon="6.01923">
        <ele>659</ele>
        <time>2020-06-11T11:02:56Z</time>
      </trkpt>
      <trkpt lat="44.27493" lon="6.01935">
        <ele>659</ele>
        <time>2020-06-11T11:02:58Z</time>
      </trkpt>
      <trkpt lat="44.27487" lon="6.01965">
        <ele>660</ele>
        <time>2020-06-11T11:03:04Z</time>
      </trkpt>
      <trkpt lat="44.2748" lon="6.01977">
        <ele>661</ele>
        <time>2020-06-11T11:03:07Z</time>
      </trkpt>
      <trkpt lat="44.27472" lon="6.01986">
        <ele>661</ele>
        <time>2020-06-11T11:03:09Z</time>
      </trkpt>
      <trkpt lat="44.27448" lon="6.02017">
        <ele>660</ele>
        <time>2020-06-11T11:03:14Z</time>
      </trkpt>
      <trkpt lat="44.2742" lon="6.02046">
        <ele>660</ele>
        <time>2020-06-11T11:03:19Z</time>
      </trkpt>
      <trkpt lat="44.27416" lon="6.02054">
        <ele>660</ele>
        <time>2020-06-11T11:03:20Z</time>
      </trkpt>
      <trkpt lat="44.27413" lon="6.02063">
        <ele>660</ele>
        <time>2020-06-11T11:03:21Z</time>
      </trkpt>
      <trkpt lat="44.27408" lon="6.02084">
        <ele>660</ele>
        <time>2020-06-11T11:03:23Z</time>
      </trkpt>
      <trkpt lat="44.27408" lon="6.02134">
        <ele>659</ele>
        <time>2020-06-11T11:03:27Z</time>
      </trkpt>
      <trkpt lat="44.274" lon="6.02155">
        <ele>658</ele>
        <time>2020-06-11T11:03:29Z</time>
      </trkpt>
      <trkpt lat="44.27387" lon="6.02166">
        <ele>656</ele>
        <time>2020-06-11T11:03:31Z</time>
      </trkpt>
      <trkpt lat="44.2738" lon="6.0217">
        <ele>655</ele>
        <time>2020-06-11T11:03:32Z</time>
      </trkpt>
      <trkpt lat="44.27374" lon="6.02173">
        <ele>655</ele>
        <time>2020-06-11T11:03:33Z</time>
      </trkpt>
      <trkpt lat="44.27362" lon="6.0218">
        <ele>653</ele>
        <time>2020-06-11T11:03:35Z</time>
      </trkpt>
      <trkpt lat="44.27351" lon="6.02186">
        <ele>652</ele>
        <time>2020-06-11T11:03:37Z</time>
      </trkpt>
      <trkpt lat="44.27345" lon="6.02188">
        <ele>652</ele>
        <time>2020-06-11T11:03:38Z</time>
      </trkpt>
      <trkpt lat="44.27326" lon="6.02191">
        <ele>652</ele>
        <time>2020-06-11T11:03:41Z</time>
      </trkpt>
      <trkpt lat="44.27315" lon="6.02199">
        <ele>652</ele>
        <time>2020-06-11T11:03:43Z</time>
      </trkpt>
      <trkpt lat="44.2731" lon="6.02205">
        <ele>652</ele>
        <time>2020-06-11T11:03:44Z</time>
      </trkpt>
      <trkpt lat="44.27297" lon="6.02224">
        <ele>652</ele>
        <time>2020-06-11T11:03:47Z</time>
      </trkpt>
      <trkpt lat="44.27287" lon="6.02234">
        <ele>651</ele>
        <time>2020-06-11T11:03:49Z</time>
      </trkpt>
      <trkpt lat="44.27282" lon="6.02238">
        <ele>651</ele>
        <time>2020-06-11T11:03:50Z</time>
      </trkpt>
      <trkpt lat="44.27278" lon="6.02241">
        <ele>651</ele>
        <time>2020-06-11T11:03:51Z</time>
      </trkpt>
      <trkpt lat="44.27273" lon="6.02245">
        <ele>651</ele>
        <time>2020-06-11T11:03:52Z</time>
      </trkpt>
      <trkpt lat="44.2727" lon="6.02248">
        <ele>651</ele>
        <time>2020-06-11T11:03:53Z</time>
      </trkpt>
      <trkpt lat="44.27258" lon="6.02265">
        <ele>651</ele>
        <time>2020-06-11T11:03:58Z</time>
      </trkpt>
      <trkpt lat="44.2725" lon="6.02287">
        <ele>652</ele>
        <time>2020-06-11T11:04:05Z</time>
      </trkpt>
      <trkpt lat="44.27249" lon="6.02291">
        <ele>653</ele>
        <time>2020-06-11T11:04:06Z</time>
      </trkpt>
      <trkpt lat="44.27245" lon="6.02301">
        <ele>653</ele>
        <time>2020-06-11T11:04:09Z</time>
      </trkpt>
      <trkpt lat="44.27235" lon="6.02316">
        <ele>654</ele>
        <time>2020-06-11T11:04:13Z</time>
      </trkpt>
      <trkpt lat="44.27224" lon="6.0232">
        <ele>655</ele>
        <time>2020-06-11T11:04:16Z</time>
      </trkpt>
      <trkpt lat="44.27217" lon="6.0232">
        <ele>655</ele>
        <time>2020-06-11T11:04:18Z</time>
      </trkpt>
      <trkpt lat="44.27188" lon="6.02318">
        <ele>655</ele>
        <time>2020-06-11T11:04:25Z</time>
      </trkpt>
      <trkpt lat="44.27178" lon="6.02322">
        <ele>655</ele>
        <time>2020-06-11T11:04:27Z</time>
      </trkpt>
      <trkpt lat="44.27174" lon="6.02325">
        <ele>656</ele>
        <time>2020-06-11T11:04:28Z</time>
      </trkpt>
      <trkpt lat="44.27171" lon="6.0233">
        <ele>656</ele>
        <time>2020-06-11T11:04:29Z</time>
      </trkpt>
      <trkpt lat="44.27158" lon="6.02362">
        <ele>654</ele>
        <time>2020-06-11T11:04:34Z</time>
      </trkpt>
      <trkpt lat="44.27156" lon="6.02369">
        <ele>654</ele>
        <time>2020-06-11T11:04:35Z</time>
      </trkpt>
      <trkpt lat="44.27154" lon="6.02376">
        <ele>653</ele>
        <time>2020-06-11T11:04:36Z</time>
      </trkpt>
      <trkpt lat="44.27148" lon="6.02399">
        <ele>652</ele>
        <time>2020-06-11T11:04:39Z</time>
      </trkpt>
      <trkpt lat="44.27143" lon="6.02405">
        <ele>652</ele>
        <time>2020-06-11T11:04:40Z</time>
      </trkpt>
      <trkpt lat="44.27137" lon="6.02407">
        <ele>651</ele>
        <time>2020-06-11T11:04:41Z</time>
      </trkpt>
      <trkpt lat="44.27132" lon="6.02407">
        <ele>651</ele>
        <time>2020-06-11T11:04:42Z</time>
      </trkpt>
      <trkpt lat="44.27126" lon="6.02406">
        <ele>651</ele>
        <time>2020-06-11T11:04:43Z</time>
      </trkpt>
      <trkpt lat="44.27121" lon="6.02406">
        <ele>650</ele>
        <time>2020-06-11T11:04:44Z</time>
      </trkpt>
      <trkpt lat="44.27112" lon="6.02409">
        <ele>650</ele>
        <time>2020-06-11T11:04:46Z</time>
      </trkpt>
      <trkpt lat="44.27108" lon="6.02411">
        <ele>650</ele>
        <time>2020-06-11T11:04:47Z</time>
      </trkpt>
      <trkpt lat="44.27099" lon="6.02423">
        <ele>652</ele>
        <time>2020-06-11T11:04:52Z</time>
      </trkpt>
      <trkpt lat="44.27094" lon="6.02432">
        <ele>653</ele>
        <time>2020-06-11T11:04:56Z</time>
      </trkpt>
      <trkpt lat="44.27091" lon="6.0244">
        <ele>654</ele>
        <time>2020-06-11T11:04:59Z</time>
      </trkpt>
      <trkpt lat="44.2709" lon="6.02442">
        <ele>654</ele>
        <time>2020-06-11T11:05:00Z</time>
      </trkpt>
      <trkpt lat="44.27087" lon="6.02448">
        <ele>656</ele>
        <time>2020-06-11T11:05:03Z</time>
      </trkpt>
      <trkpt lat="44.27083" lon="6.02453">
        <ele>657</ele>
        <time>2020-06-11T11:05:06Z</time>
      </trkpt>
      <trkpt lat="44.27082" lon="6.02455">
        <ele>657</ele>
        <time>2020-06-11T11:05:07Z</time>
      </trkpt>
      <trkpt lat="44.2708" lon="6.02455">
        <ele>657</ele>
        <time>2020-06-11T11:05:08Z</time>
      </trkpt>
      <trkpt lat="44.27077" lon="6.02453">
        <ele>658</ele>
        <time>2020-06-11T11:05:10Z</time>
      </trkpt>
      <trkpt lat="44.27077" lon="6.02451">
        <ele>658</ele>
        <time>2020-06-11T11:05:11Z</time>
      </trkpt>
      <trkpt lat="44.27077" lon="6.02445">
        <ele>659</ele>
        <time>2020-06-11T11:05:13Z</time>
      </trkpt>
      <trkpt lat="44.27079" lon="6.02432">
        <ele>660</ele>
        <time>2020-06-11T11:05:18Z</time>
      </trkpt>
      <trkpt lat="44.2708" lon="6.02415">
        <ele>661</ele>
        <time>2020-06-11T11:05:24Z</time>
      </trkpt>
      <trkpt lat="44.2708" lon="6.0241">
        <ele>662</ele>
        <time>2020-06-11T11:05:26Z</time>
      </trkpt>
      <trkpt lat="44.27079" lon="6.02404">
        <ele>663</ele>
        <time>2020-06-11T11:05:28Z</time>
      </trkpt>
      <trkpt lat="44.27079" lon="6.02396">
        <ele>664</ele>
        <time>2020-06-11T11:05:31Z</time>
      </trkpt>
      <trkpt lat="44.27079" lon="6.02389">
        <ele>664</ele>
        <time>2020-06-11T11:05:34Z</time>
      </trkpt>
      <trkpt lat="44.27078" lon="6.02384">
        <ele>665</ele>
        <time>2020-06-11T11:05:36Z</time>
      </trkpt>
      <trkpt lat="44.27078" lon="6.02372">
        <ele>665</ele>
        <time>2020-06-11T11:05:41Z</time>
      </trkpt>
      <trkpt lat="44.27077" lon="6.02368">
        <ele>666</ele>
        <time>2020-06-11T11:05:43Z</time>
      </trkpt>
      <trkpt lat="44.27075" lon="6.02357">
        <ele>667</ele>
        <time>2020-06-11T11:05:49Z</time>
      </trkpt>
      <trkpt lat="44.27074" lon="6.02348">
        <ele>668</ele>
        <time>2020-06-11T11:05:53Z</time>
      </trkpt>
      <trkpt lat="44.27072" lon="6.02341">
        <ele>669</ele>
        <time>2020-06-11T11:05:56Z</time>
      </trkpt>
      <trkpt lat="44.2707" lon="6.02339">
        <ele>669</ele>
        <time>2020-06-11T11:05:57Z</time>
      </trkpt>
      <trkpt lat="44.27066" lon="6.02335">
        <ele>670</ele>
        <time>2020-06-11T11:06:00Z</time>
      </trkpt>
      <trkpt lat="44.27062" lon="6.02337">
        <ele>670</ele>
        <time>2020-06-11T11:06:02Z</time>
      </trkpt>
      <trkpt lat="44.2706" lon="6.02342">
        <ele>670</ele>
        <time>2020-06-11T11:06:04Z</time>
      </trkpt>
      <trkpt lat="44.2706" lon="6.0235">
        <ele>671</ele>
        <time>2020-06-11T11:06:07Z</time>
      </trkpt>
      <trkpt lat="44.2706" lon="6.02352">
        <ele>671</ele>
        <time>2020-06-11T11:06:08Z</time>
      </trkpt>
      <trkpt lat="44.2706" lon="6.02363">
        <ele>672</ele>
        <time>2020-06-11T11:06:12Z</time>
      </trkpt>
      <trkpt lat="44.2706" lon="6.02371">
        <ele>673</ele>
        <time>2020-06-11T11:06:16Z</time>
      </trkpt>
      <trkpt lat="44.27059" lon="6.02373">
        <ele>674</ele>
        <time>2020-06-11T11:06:17Z</time>
      </trkpt>
      <trkpt lat="44.27058" lon="6.02377">
        <ele>675</ele>
        <time>2020-06-11T11:06:19Z</time>
      </trkpt>
      <trkpt lat="44.27054" lon="6.02386">
        <ele>676</ele>
        <time>2020-06-11T11:06:24Z</time>
      </trkpt>
      <trkpt lat="44.27054" lon="6.02388">
        <ele>676</ele>
        <time>2020-06-11T11:06:25Z</time>
      </trkpt>
      <trkpt lat="44.2705" lon="6.02398">
        <ele>677</ele>
        <time>2020-06-11T11:06:30Z</time>
      </trkpt>
      <trkpt lat="44.27048" lon="6.02407">
        <ele>677</ele>
        <time>2020-06-11T11:06:34Z</time>
      </trkpt>
      <trkpt lat="44.27047" lon="6.02416">
        <ele>678</ele>
        <time>2020-06-11T11:06:38Z</time>
      </trkpt>
      <trkpt lat="44.27046" lon="6.02427">
        <ele>679</ele>
        <time>2020-06-11T11:06:43Z</time>
      </trkpt>
      <trkpt lat="44.27046" lon="6.0243">
        <ele>679</ele>
        <time>2020-06-11T11:06:44Z</time>
      </trkpt>
      <trkpt lat="44.27043" lon="6.02441">
        <ele>680</ele>
        <time>2020-06-11T11:06:49Z</time>
      </trkpt>
      <trkpt lat="44.2704" lon="6.02447">
        <ele>681</ele>
        <time>2020-06-11T11:06:52Z</time>
      </trkpt>
      <trkpt lat="44.27039" lon="6.02449">
        <ele>681</ele>
        <time>2020-06-11T11:06:53Z</time>
      </trkpt>
      <trkpt lat="44.27035" lon="6.02458">
        <ele>683</ele>
        <time>2020-06-11T11:06:58Z</time>
      </trkpt>
      <trkpt lat="44.27031" lon="6.02474">
        <ele>684</ele>
        <time>2020-06-11T11:07:04Z</time>
      </trkpt>
      <trkpt lat="44.27031" lon="6.02477">
        <ele>684</ele>
        <time>2020-06-11T11:07:05Z</time>
      </trkpt>
      <trkpt lat="44.2703" lon="6.0249">
        <ele>685</ele>
        <time>2020-06-11T11:07:10Z</time>
      </trkpt>
      <trkpt lat="44.27029" lon="6.02495">
        <ele>685</ele>
        <time>2020-06-11T11:07:12Z</time>
      </trkpt>
      <trkpt lat="44.27028" lon="6.02505">
        <ele>686</ele>
        <time>2020-06-11T11:07:16Z</time>
      </trkpt>
      <trkpt lat="44.27027" lon="6.02513">
        <ele>687</ele>
        <time>2020-06-11T11:07:19Z</time>
      </trkpt>
      <trkpt lat="44.27026" lon="6.02516">
        <ele>687</ele>
        <time>2020-06-11T11:07:21Z</time>
      </trkpt>
      <trkpt lat="44.27021" lon="6.02517">
        <ele>688</ele>
        <time>2020-06-11T11:07:24Z</time>
      </trkpt>
      <trkpt lat="44.27018" lon="6.02514">
        <ele>688</ele>
        <time>2020-06-11T11:07:26Z</time>
      </trkpt>
      <trkpt lat="44.27014" lon="6.02509">
        <ele>689</ele>
        <time>2020-06-11T11:07:29Z</time>
      </trkpt>
      <trkpt lat="44.27013" lon="6.02507">
        <ele>690</ele>
        <time>2020-06-11T11:07:30Z</time>
      </trkpt>
      <trkpt lat="44.27008" lon="6.025">
        <ele>691</ele>
        <time>2020-06-11T11:07:33Z</time>
      </trkpt>
      <trkpt lat="44.27001" lon="6.02492">
        <ele>691</ele>
        <time>2020-06-11T11:07:37Z</time>
      </trkpt>
      <trkpt lat="44.26997" lon="6.0249">
        <ele>692</ele>
        <time>2020-06-11T11:07:39Z</time>
      </trkpt>
      <trkpt lat="44.26992" lon="6.0248">
        <ele>693</ele>
        <time>2020-06-11T11:07:44Z</time>
      </trkpt>
      <trkpt lat="44.26994" lon="6.0247">
        <ele>694</ele>
        <time>2020-06-11T11:07:48Z</time>
      </trkpt>
      <trkpt lat="44.26995" lon="6.02465">
        <ele>694</ele>
        <time>2020-06-11T11:07:50Z</time>
      </trkpt>
      <trkpt lat="44.26996" lon="6.02461">
        <ele>695</ele>
        <time>2020-06-11T11:07:52Z</time>
      </trkpt>
      <trkpt lat="44.26993" lon="6.02451">
        <ele>696</ele>
        <time>2020-06-11T11:07:56Z</time>
      </trkpt>
      <trkpt lat="44.26982" lon="6.02451">
        <ele>697</ele>
        <time>2020-06-11T11:08:01Z</time>
      </trkpt>
      <trkpt lat="44.26978" lon="6.02454">
        <ele>697</ele>
        <time>2020-06-11T11:08:03Z</time>
      </trkpt>
      <trkpt lat="44.26975" lon="6.02462">
        <ele>698</ele>
        <time>2020-06-11T11:08:06Z</time>
      </trkpt>
      <trkpt lat="44.26975" lon="6.02465">
        <ele>698</ele>
        <time>2020-06-11T11:08:07Z</time>
      </trkpt>
      <trkpt lat="44.2697" lon="6.02482">
        <ele>700</ele>
        <time>2020-06-11T11:08:12Z</time>
      </trkpt>
      <trkpt lat="44.26969" lon="6.02487">
        <ele>700</ele>
        <time>2020-06-11T11:08:13Z</time>
      </trkpt>
      <trkpt lat="44.26962" lon="6.02515">
        <ele>701</ele>
        <time>2020-06-11T11:08:19Z</time>
      </trkpt>
      <trkpt lat="44.26963" lon="6.0252">
        <ele>701</ele>
        <time>2020-06-11T11:08:20Z</time>
      </trkpt>
      <trkpt lat="44.26964" lon="6.02524">
        <ele>701</ele>
        <time>2020-06-11T11:08:21Z</time>
      </trkpt>
      <trkpt lat="44.26972" lon="6.02532">
        <ele>701</ele>
        <time>2020-06-11T11:08:24Z</time>
      </trkpt>
      <trkpt lat="44.26984" lon="6.02533">
        <ele>702</ele>
        <time>2020-06-11T11:08:28Z</time>
      </trkpt>
      <trkpt lat="44.26987" lon="6.02534">
        <ele>702</ele>
        <time>2020-06-11T11:08:29Z</time>
      </trkpt>
      <trkpt lat="44.26991" lon="6.02538">
        <ele>702</ele>
        <time>2020-06-11T11:08:31Z</time>
      </trkpt>
      <trkpt lat="44.26991" lon="6.02542">
        <ele>703</ele>
        <time>2020-06-11T11:08:32Z</time>
      </trkpt>
      <trkpt lat="44.2699" lon="6.02546">
        <ele>703</ele>
        <time>2020-06-11T11:08:33Z</time>
      </trkpt>
      <trkpt lat="44.26985" lon="6.02549">
        <ele>703</ele>
        <time>2020-06-11T11:08:35Z</time>
      </trkpt>
      <trkpt lat="44.26977" lon="6.02552">
        <ele>704</ele>
        <time>2020-06-11T11:08:38Z</time>
      </trkpt>
      <trkpt lat="44.26963" lon="6.02559">
        <ele>705</ele>
        <time>2020-06-11T11:08:43Z</time>
      </trkpt>
      <trkpt lat="44.26949" lon="6.0257">
        <ele>706</ele>
        <time>2020-06-11T11:08:49Z</time>
      </trkpt>
      <trkpt lat="44.26945" lon="6.02573">
        <ele>707</ele>
        <time>2020-06-11T11:08:51Z</time>
      </trkpt>
      <trkpt lat="44.2694" lon="6.02575">
        <ele>707</ele>
        <time>2020-06-11T11:08:53Z</time>
      </trkpt>
      <trkpt lat="44.2693" lon="6.02578">
        <ele>709</ele>
        <time>2020-06-11T11:08:58Z</time>
      </trkpt>
      <trkpt lat="44.26927" lon="6.02579">
        <ele>709</ele>
        <time>2020-06-11T11:08:59Z</time>
      </trkpt>
      <trkpt lat="44.26923" lon="6.02579">
        <ele>710</ele>
        <time>2020-06-11T11:09:01Z</time>
      </trkpt>
      <trkpt lat="44.26912" lon="6.02582">
        <ele>711</ele>
        <time>2020-06-11T11:09:06Z</time>
      </trkpt>
      <trkpt lat="44.2691" lon="6.02583">
        <ele>711</ele>
        <time>2020-06-11T11:09:07Z</time>
      </trkpt>
      <trkpt lat="44.26902" lon="6.02586">
        <ele>712</ele>
        <time>2020-06-11T11:09:11Z</time>
      </trkpt>
      <trkpt lat="44.26897" lon="6.02589">
        <ele>713</ele>
        <time>2020-06-11T11:09:14Z</time>
      </trkpt>
      <trkpt lat="44.26891" lon="6.02591">
        <ele>714</ele>
        <time>2020-06-11T11:09:17Z</time>
      </trkpt>
      <trkpt lat="44.26886" lon="6.02594">
        <ele>715</ele>
        <time>2020-06-11T11:09:20Z</time>
      </trkpt>
      <trkpt lat="44.2688" lon="6.026">
        <ele>717</ele>
        <time>2020-06-11T11:09:24Z</time>
      </trkpt>
      <trkpt lat="44.26875" lon="6.02604">
        <ele>717</ele>
        <time>2020-06-11T11:09:27Z</time>
      </trkpt>
      <trkpt lat="44.26873" lon="6.02606">
        <ele>718</ele>
        <time>2020-06-11T11:09:28Z</time>
      </trkpt>
      <trkpt lat="44.26863" lon="6.02613">
        <ele>719</ele>
        <time>2020-06-11T11:09:34Z</time>
      </trkpt>
      <trkpt lat="44.26858" lon="6.02616">
        <ele>720</ele>
        <time>2020-06-11T11:09:37Z</time>
      </trkpt>
      <trkpt lat="44.26856" lon="6.02617">
        <ele>721</ele>
        <time>2020-06-11T11:09:38Z</time>
      </trkpt>
      <trkpt lat="44.26852" lon="6.02619">
        <ele>721</ele>
        <time>2020-06-11T11:09:40Z</time>
      </trkpt>
      <trkpt lat="44.26846" lon="6.02622">
        <ele>722</ele>
        <time>2020-06-11T11:09:43Z</time>
      </trkpt>
      <trkpt lat="44.26839" lon="6.02624">
        <ele>723</ele>
        <time>2020-06-11T11:09:46Z</time>
      </trkpt>
      <trkpt lat="44.26835" lon="6.02625">
        <ele>724</ele>
        <time>2020-06-11T11:09:48Z</time>
      </trkpt>
      <trkpt lat="44.26824" lon="6.02628">
        <ele>724</ele>
        <time>2020-06-11T11:09:53Z</time>
      </trkpt>
      <trkpt lat="44.26815" lon="6.02633">
        <ele>726</ele>
        <time>2020-06-11T11:09:57Z</time>
      </trkpt>
      <trkpt lat="44.26809" lon="6.02636">
        <ele>727</ele>
        <time>2020-06-11T11:10:00Z</time>
      </trkpt>
      <trkpt lat="44.26807" lon="6.02638">
        <ele>727</ele>
        <time>2020-06-11T11:10:01Z</time>
      </trkpt>
      <trkpt lat="44.26796" lon="6.02644">
        <ele>728</ele>
        <time>2020-06-11T11:10:06Z</time>
      </trkpt>
      <trkpt lat="44.26788" lon="6.02649">
        <ele>729</ele>
        <time>2020-06-11T11:10:10Z</time>
      </trkpt>
      <trkpt lat="44.26773" lon="6.02656">
        <ele>730</ele>
        <time>2020-06-11T11:10:17Z</time>
      </trkpt>
      <trkpt lat="44.26769" lon="6.02659">
        <ele>731</ele>
        <time>2020-06-11T11:10:19Z</time>
      </trkpt>
      <trkpt lat="44.26767" lon="6.02661">
        <ele>731</ele>
        <time>2020-06-11T11:10:20Z</time>
      </trkpt>
      <trkpt lat="44.26761" lon="6.02665">
        <ele>732</ele>
        <time>2020-06-11T11:10:23Z</time>
      </trkpt>
      <trkpt lat="44.26757" lon="6.02668">
        <ele>733</ele>
        <time>2020-06-11T11:10:25Z</time>
      </trkpt>
      <trkpt lat="44.26753" lon="6.02671">
        <ele>734</ele>
        <time>2020-06-11T11:10:27Z</time>
      </trkpt>
      <trkpt lat="44.26751" lon="6.02672">
        <ele>734</ele>
        <time>2020-06-11T11:10:28Z</time>
      </trkpt>
      <trkpt lat="44.26744" lon="6.02677">
        <ele>735</ele>
        <time>2020-06-11T11:10:31Z</time>
      </trkpt>
      <trkpt lat="44.26733" lon="6.02679">
        <ele>735</ele>
        <time>2020-06-11T11:10:35Z</time>
      </trkpt>
      <trkpt lat="44.26728" lon="6.0268">
        <ele>736</ele>
        <time>2020-06-11T11:10:37Z</time>
      </trkpt>
      <trkpt lat="44.26709" lon="6.02685">
        <ele>737</ele>
        <time>2020-06-11T11:10:44Z</time>
      </trkpt>
      <trkpt lat="44.26707" lon="6.02686">
        <ele>737</ele>
        <time>2020-06-11T11:10:45Z</time>
      </trkpt>
      <trkpt lat="44.26697" lon="6.0269">
        <ele>738</ele>
        <time>2020-06-11T11:10:49Z</time>
      </trkpt>
      <trkpt lat="44.26688" lon="6.02693">
        <ele>739</ele>
        <time>2020-06-11T11:10:53Z</time>
      </trkpt>
      <trkpt lat="44.26681" lon="6.02693">
        <ele>740</ele>
        <time>2020-06-11T11:10:56Z</time>
      </trkpt>
      <trkpt lat="44.26672" lon="6.0269">
        <ele>741</ele>
        <time>2020-06-11T11:11:00Z</time>
      </trkpt>
      <trkpt lat="44.26661" lon="6.02688">
        <ele>743</ele>
        <time>2020-06-11T11:11:05Z</time>
      </trkpt>
      <trkpt lat="44.26651" lon="6.02685">
        <ele>744</ele>
        <time>2020-06-11T11:11:09Z</time>
      </trkpt>
      <trkpt lat="44.26643" lon="6.02684">
        <ele>745</ele>
        <time>2020-06-11T11:11:13Z</time>
      </trkpt>
      <trkpt lat="44.26634" lon="6.02685">
        <ele>746</ele>
        <time>2020-06-11T11:11:17Z</time>
      </trkpt>
      <trkpt lat="44.26632" lon="6.02685">
        <ele>746</ele>
        <time>2020-06-11T11:11:18Z</time>
      </trkpt>
      <trkpt lat="44.26623" lon="6.02686">
        <ele>747</ele>
        <time>2020-06-11T11:11:22Z</time>
      </trkpt>
      <trkpt lat="44.26615" lon="6.02688">
        <ele>748</ele>
        <time>2020-06-11T11:11:26Z</time>
      </trkpt>
      <trkpt lat="44.26604" lon="6.02697">
        <ele>749</ele>
        <time>2020-06-11T11:11:32Z</time>
      </trkpt>
      <trkpt lat="44.266" lon="6.027">
        <ele>750</ele>
        <time>2020-06-11T11:11:34Z</time>
      </trkpt>
      <trkpt lat="44.26594" lon="6.02705">
        <ele>751</ele>
        <time>2020-06-11T11:11:37Z</time>
      </trkpt>
      <trkpt lat="44.26585" lon="6.0271">
        <ele>752</ele>
        <time>2020-06-11T11:11:41Z</time>
      </trkpt>
      <trkpt lat="44.26581" lon="6.02713">
        <ele>752</ele>
        <time>2020-06-11T11:11:43Z</time>
      </trkpt>
      <trkpt lat="44.26577" lon="6.02716">
        <ele>753</ele>
        <time>2020-06-11T11:11:45Z</time>
      </trkpt>
      <trkpt lat="44.26567" lon="6.02729">
        <ele>754</ele>
        <time>2020-06-11T11:11:50Z</time>
      </trkpt>
      <trkpt lat="44.26566" lon="6.02743">
        <ele>754</ele>
        <time>2020-06-11T11:11:53Z</time>
      </trkpt>
      <trkpt lat="44.2657" lon="6.02748">
        <ele>754</ele>
        <time>2020-06-11T11:11:55Z</time>
      </trkpt>
      <trkpt lat="44.26573" lon="6.0275">
        <ele>754</ele>
        <time>2020-06-11T11:11:56Z</time>
      </trkpt>
      <trkpt lat="44.26577" lon="6.02751">
        <ele>754</ele>
        <time>2020-06-11T11:11:57Z</time>
      </trkpt>
      <trkpt lat="44.26587" lon="6.0276">
        <ele>754</ele>
        <time>2020-06-11T11:12:00Z</time>
      </trkpt>
      <trkpt lat="44.26595" lon="6.02779">
        <ele>754</ele>
        <time>2020-06-11T11:12:04Z</time>
      </trkpt>
      <trkpt lat="44.26593" lon="6.028">
        <ele>754</ele>
        <time>2020-06-11T11:12:09Z</time>
      </trkpt>
      <trkpt lat="44.26593" lon="6.02822">
        <ele>754</ele>
        <time>2020-06-11T11:12:14Z</time>
      </trkpt>
      <trkpt lat="44.26597" lon="6.02843">
        <ele>755</ele>
        <time>2020-06-11T11:12:20Z</time>
      </trkpt>
      <trkpt lat="44.26609" lon="6.02865">
        <ele>756</ele>
        <time>2020-06-11T11:12:26Z</time>
      </trkpt>
      <trkpt lat="44.26621" lon="6.02879">
        <ele>757</ele>
        <time>2020-06-11T11:12:31Z</time>
      </trkpt>
      <trkpt lat="44.26625" lon="6.02887">
        <ele>758</ele>
        <time>2020-06-11T11:12:33Z</time>
      </trkpt>
      <trkpt lat="44.26633" lon="6.02901">
        <ele>758</ele>
        <time>2020-06-11T11:12:37Z</time>
      </trkpt>
      <trkpt lat="44.26642" lon="6.02918">
        <ele>759</ele>
        <time>2020-06-11T11:12:42Z</time>
      </trkpt>
      <trkpt lat="44.26648" lon="6.02929">
        <ele>760</ele>
        <time>2020-06-11T11:12:45Z</time>
      </trkpt>
      <trkpt lat="44.26659" lon="6.02943">
        <ele>760</ele>
        <time>2020-06-11T11:12:49Z</time>
      </trkpt>
      <trkpt lat="44.26681" lon="6.02962">
        <ele>760</ele>
        <time>2020-06-11T11:12:56Z</time>
      </trkpt>
      <trkpt lat="44.26691" lon="6.02969">
        <ele>761</ele>
        <time>2020-06-11T11:13:00Z</time>
      </trkpt>
      <trkpt lat="44.26693" lon="6.02971">
        <ele>761</ele>
        <time>2020-06-11T11:13:01Z</time>
      </trkpt>
      <trkpt lat="44.26699" lon="6.02985">
        <ele>762</ele>
        <time>2020-06-11T11:13:05Z</time>
      </trkpt>
      <trkpt lat="44.267" lon="6.0299">
        <ele>762</ele>
        <time>2020-06-11T11:13:06Z</time>
      </trkpt>
      <trkpt lat="44.26703" lon="6.03005">
        <ele>763</ele>
        <time>2020-06-11T11:13:09Z</time>
      </trkpt>
      <trkpt lat="44.26703" lon="6.03021">
        <ele>763</ele>
        <time>2020-06-11T11:13:12Z</time>
      </trkpt>
      <trkpt lat="44.26698" lon="6.03054">
        <ele>762</ele>
        <time>2020-06-11T11:13:17Z</time>
      </trkpt>
      <trkpt lat="44.26696" lon="6.03062">
        <ele>762</ele>
        <time>2020-06-11T11:13:18Z</time>
      </trkpt>
      <trkpt lat="44.26688" lon="6.03085">
        <ele>762</ele>
        <time>2020-06-11T11:13:21Z</time>
      </trkpt>
      <trkpt lat="44.26688" lon="6.03094">
        <ele>762</ele>
        <time>2020-06-11T11:13:22Z</time>
      </trkpt>
      <trkpt lat="44.2669" lon="6.03103">
        <ele>762</ele>
        <time>2020-06-11T11:13:23Z</time>
      </trkpt>
      <trkpt lat="44.26695" lon="6.03119">
        <ele>760</ele>
        <time>2020-06-11T11:13:25Z</time>
      </trkpt>
      <trkpt lat="44.26698" lon="6.03128">
        <ele>760</ele>
        <time>2020-06-11T11:13:26Z</time>
      </trkpt>
      <trkpt lat="44.26707" lon="6.03142">
        <ele>759</ele>
        <time>2020-06-11T11:13:28Z</time>
      </trkpt>
      <trkpt lat="44.26712" lon="6.03148">
        <ele>759</ele>
        <time>2020-06-11T11:13:29Z</time>
      </trkpt>
      <trkpt lat="44.26722" lon="6.0316">
        <ele>759</ele>
        <time>2020-06-11T11:13:31Z</time>
      </trkpt>
      <trkpt lat="44.26725" lon="6.03168">
        <ele>759</ele>
        <time>2020-06-11T11:13:32Z</time>
      </trkpt>
      <trkpt lat="44.26726" lon="6.03177">
        <ele>758</ele>
        <time>2020-06-11T11:13:33Z</time>
      </trkpt>
      <trkpt lat="44.26729" lon="6.03196">
        <ele>758</ele>
        <time>2020-06-11T11:13:35Z</time>
      </trkpt>
      <trkpt lat="44.26731" lon="6.03206">
        <ele>757</ele>
        <time>2020-06-11T11:13:36Z</time>
      </trkpt>
      <trkpt lat="44.26733" lon="6.03215">
        <ele>757</ele>
        <time>2020-06-11T11:13:37Z</time>
      </trkpt>
      <trkpt lat="44.2674" lon="6.03232">
        <ele>756</ele>
        <time>2020-06-11T11:13:39Z</time>
      </trkpt>
      <trkpt lat="44.26744" lon="6.03239">
        <ele>755</ele>
        <time>2020-06-11T11:13:40Z</time>
      </trkpt>
      <trkpt lat="44.26749" lon="6.03246">
        <ele>755</ele>
        <time>2020-06-11T11:13:41Z</time>
      </trkpt>
      <trkpt lat="44.26762" lon="6.03275">
        <ele>754</ele>
        <time>2020-06-11T11:13:45Z</time>
      </trkpt>
      <trkpt lat="44.26768" lon="6.03288">
        <ele>754</ele>
        <time>2020-06-11T11:13:47Z</time>
      </trkpt>
      <trkpt lat="44.26773" lon="6.03291">
        <ele>754</ele>
        <time>2020-06-11T11:13:48Z</time>
      </trkpt>
      <trkpt lat="44.26801" lon="6.03302">
        <ele>753</ele>
        <time>2020-06-11T11:13:54Z</time>
      </trkpt>
      <trkpt lat="44.26808" lon="6.03305">
        <ele>753</ele>
        <time>2020-06-11T11:13:56Z</time>
      </trkpt>
      <trkpt lat="44.26824" lon="6.03313">
        <ele>753</ele>
        <time>2020-06-11T11:14:00Z</time>
      </trkpt>
      <trkpt lat="44.26842" lon="6.0333">
        <ele>753</ele>
        <time>2020-06-11T11:14:04Z</time>
      </trkpt>
      <trkpt lat="44.2685" lon="6.03341">
        <ele>753</ele>
        <time>2020-06-11T11:14:06Z</time>
      </trkpt>
      <trkpt lat="44.26853" lon="6.03348">
        <ele>753</ele>
        <time>2020-06-11T11:14:07Z</time>
      </trkpt>
      <trkpt lat="44.26857" lon="6.0336">
        <ele>754</ele>
        <time>2020-06-11T11:14:09Z</time>
      </trkpt>
      <trkpt lat="44.26858" lon="6.03367">
        <ele>754</ele>
        <time>2020-06-11T11:14:10Z</time>
      </trkpt>
      <trkpt lat="44.2686" lon="6.03406">
        <ele>754</ele>
        <time>2020-06-11T11:14:17Z</time>
      </trkpt>
      <trkpt lat="44.26854" lon="6.0344">
        <ele>755</ele>
        <time>2020-06-11T11:14:24Z</time>
      </trkpt>
      <trkpt lat="44.26848" lon="6.03475">
        <ele>755</ele>
        <time>2020-06-11T11:14:31Z</time>
      </trkpt>
      <trkpt lat="44.26848" lon="6.03481">
        <ele>755</ele>
        <time>2020-06-11T11:14:32Z</time>
      </trkpt>
      <trkpt lat="44.26846" lon="6.03521">
        <ele>756</ele>
        <time>2020-06-11T11:14:39Z</time>
      </trkpt>
      <trkpt lat="44.26846" lon="6.03526">
        <ele>756</ele>
        <time>2020-06-11T11:14:40Z</time>
      </trkpt>
      <trkpt lat="44.26848" lon="6.03544">
        <ele>757</ele>
        <time>2020-06-11T11:14:44Z</time>
      </trkpt>
      <trkpt lat="44.26849" lon="6.03548">
        <ele>757</ele>
        <time>2020-06-11T11:14:45Z</time>
      </trkpt>
      <trkpt lat="44.26854" lon="6.03579">
        <ele>758</ele>
        <time>2020-06-11T11:14:51Z</time>
      </trkpt>
      <trkpt lat="44.26854" lon="6.03586">
        <ele>758</ele>
        <time>2020-06-11T11:14:52Z</time>
      </trkpt>
      <trkpt lat="44.26853" lon="6.03613">
        <ele>757</ele>
        <time>2020-06-11T11:14:55Z</time>
      </trkpt>
      <trkpt lat="44.26847" lon="6.03642">
        <ele>756</ele>
        <time>2020-06-11T11:14:58Z</time>
      </trkpt>
      <trkpt lat="44.2684" lon="6.03659">
        <ele>755</ele>
        <time>2020-06-11T11:15:00Z</time>
      </trkpt>
      <trkpt lat="44.26836" lon="6.03666">
        <ele>755</ele>
        <time>2020-06-11T11:15:01Z</time>
      </trkpt>
      <trkpt lat="44.26831" lon="6.03672">
        <ele>754</ele>
        <time>2020-06-11T11:15:02Z</time>
      </trkpt>
      <trkpt lat="44.26823" lon="6.03683">
        <ele>754</ele>
        <time>2020-06-11T11:15:04Z</time>
      </trkpt>
      <trkpt lat="44.26808" lon="6.0371">
        <ele>755</ele>
        <time>2020-06-11T11:15:09Z</time>
      </trkpt>
      <trkpt lat="44.26803" lon="6.03725">
        <ele>756</ele>
        <time>2020-06-11T11:15:12Z</time>
      </trkpt>
      <trkpt lat="44.26793" lon="6.03745">
        <ele>757</ele>
        <time>2020-06-11T11:15:17Z</time>
      </trkpt>
      <trkpt lat="44.26783" lon="6.03763">
        <ele>758</ele>
        <time>2020-06-11T11:15:22Z</time>
      </trkpt>
      <trkpt lat="44.26779" lon="6.03774">
        <ele>759</ele>
        <time>2020-06-11T11:15:25Z</time>
      </trkpt>
      <trkpt lat="44.26778" lon="6.03778">
        <ele>759</ele>
        <time>2020-06-11T11:15:26Z</time>
      </trkpt>
      <trkpt lat="44.26776" lon="6.03789">
        <ele>760</ele>
        <time>2020-06-11T11:15:29Z</time>
      </trkpt>
      <trkpt lat="44.26777" lon="6.03793">
        <ele>761</ele>
        <time>2020-06-11T11:15:30Z</time>
      </trkpt>
      <trkpt lat="44.2678" lon="6.03809">
        <ele>761</ele>
        <time>2020-06-11T11:15:34Z</time>
      </trkpt>
      <trkpt lat="44.26783" lon="6.03826">
        <ele>762</ele>
        <time>2020-06-11T11:15:38Z</time>
      </trkpt>
      <trkpt lat="44.26787" lon="6.0384">
        <ele>762</ele>
        <time>2020-06-11T11:15:42Z</time>
      </trkpt>
      <trkpt lat="44.26789" lon="6.03856">
        <ele>764</ele>
        <time>2020-06-11T11:15:46Z</time>
      </trkpt>
      <trkpt lat="44.2679" lon="6.0386">
        <ele>764</ele>
        <time>2020-06-11T11:15:47Z</time>
      </trkpt>
      <trkpt lat="44.2679" lon="6.03877">
        <ele>765</ele>
        <time>2020-06-11T11:15:52Z</time>
      </trkpt>
      <trkpt lat="44.2679" lon="6.03881">
        <ele>765</ele>
        <time>2020-06-11T11:15:53Z</time>
      </trkpt>
      <trkpt lat="44.26791" lon="6.03887">
        <ele>766</ele>
        <time>2020-06-11T11:15:55Z</time>
      </trkpt>
      <trkpt lat="44.26793" lon="6.03902">
        <ele>767</ele>
        <time>2020-06-11T11:15:59Z</time>
      </trkpt>
      <trkpt lat="44.26794" lon="6.03909">
        <ele>767</ele>
        <time>2020-06-11T11:16:01Z</time>
      </trkpt>
      <trkpt lat="44.26797" lon="6.03924">
        <ele>768</ele>
        <time>2020-06-11T11:16:05Z</time>
      </trkpt>
      <trkpt lat="44.26802" lon="6.03947">
        <ele>768</ele>
        <time>2020-06-11T11:16:11Z</time>
      </trkpt>
      <trkpt lat="44.26804" lon="6.0395">
        <ele>768</ele>
        <time>2020-06-11T11:16:12Z</time>
      </trkpt>
      <trkpt lat="44.2681" lon="6.03962">
        <ele>769</ele>
        <time>2020-06-11T11:16:16Z</time>
      </trkpt>
      <trkpt lat="44.26818" lon="6.03976">
        <ele>771</ele>
        <time>2020-06-11T11:16:21Z</time>
      </trkpt>
      <trkpt lat="44.26821" lon="6.03981">
        <ele>771</ele>
        <time>2020-06-11T11:16:23Z</time>
      </trkpt>
      <trkpt lat="44.26826" lon="6.03988">
        <ele>772</ele>
        <time>2020-06-11T11:16:26Z</time>
      </trkpt>
      <trkpt lat="44.26834" lon="6.04003">
        <ele>773</ele>
        <time>2020-06-11T11:16:31Z</time>
      </trkpt>
      <trkpt lat="44.26836" lon="6.04006">
        <ele>773</ele>
        <time>2020-06-11T11:16:32Z</time>
      </trkpt>
      <trkpt lat="44.26844" lon="6.04017">
        <ele>774</ele>
        <time>2020-06-11T11:16:36Z</time>
      </trkpt>
      <trkpt lat="44.26853" lon="6.04033">
        <ele>775</ele>
        <time>2020-06-11T11:16:41Z</time>
      </trkpt>
      <trkpt lat="44.26859" lon="6.04053">
        <ele>776</ele>
        <time>2020-06-11T11:16:47Z</time>
      </trkpt>
      <trkpt lat="44.2686" lon="6.0406">
        <ele>777</ele>
        <time>2020-06-11T11:16:49Z</time>
      </trkpt>
      <trkpt lat="44.2686" lon="6.04064">
        <ele>777</ele>
        <time>2020-06-11T11:16:50Z</time>
      </trkpt>
      <trkpt lat="44.26857" lon="6.04086">
        <ele>779</ele>
        <time>2020-06-11T11:16:56Z</time>
      </trkpt>
      <trkpt lat="44.26854" lon="6.04106">
        <ele>780</ele>
        <time>2020-06-11T11:17:01Z</time>
      </trkpt>
      <trkpt lat="44.26852" lon="6.04113">
        <ele>780</ele>
        <time>2020-06-11T11:17:03Z</time>
      </trkpt>
      <trkpt lat="44.2685" lon="6.04127">
        <ele>781</ele>
        <time>2020-06-11T11:17:07Z</time>
      </trkpt>
      <trkpt lat="44.26849" lon="6.04133">
        <ele>781</ele>
        <time>2020-06-11T11:17:09Z</time>
      </trkpt>
      <trkpt lat="44.26849" lon="6.04142">
        <ele>782</ele>
        <time>2020-06-11T11:17:12Z</time>
      </trkpt>
      <trkpt lat="44.26849" lon="6.04148">
        <ele>782</ele>
        <time>2020-06-11T11:17:14Z</time>
      </trkpt>
      <trkpt lat="44.26847" lon="6.04163">
        <ele>783</ele>
        <time>2020-06-11T11:17:19Z</time>
      </trkpt>
      <trkpt lat="44.26847" lon="6.04167">
        <ele>783</ele>
        <time>2020-06-11T11:17:20Z</time>
      </trkpt>
      <trkpt lat="44.26846" lon="6.04173">
        <ele>784</ele>
        <time>2020-06-11T11:17:22Z</time>
      </trkpt>
      <trkpt lat="44.26845" lon="6.04185">
        <ele>785</ele>
        <time>2020-06-11T11:17:26Z</time>
      </trkpt>
      <trkpt lat="44.26845" lon="6.04194">
        <ele>786</ele>
        <time>2020-06-11T11:17:29Z</time>
      </trkpt>
      <trkpt lat="44.26844" lon="6.04204">
        <ele>786</ele>
        <time>2020-06-11T11:17:32Z</time>
      </trkpt>
      <trkpt lat="44.26843" lon="6.04221">
        <ele>788</ele>
        <time>2020-06-11T11:17:37Z</time>
      </trkpt>
      <trkpt lat="44.26844" lon="6.04235">
        <ele>789</ele>
        <time>2020-06-11T11:17:41Z</time>
      </trkpt>
      <trkpt lat="44.26843" lon="6.04247">
        <ele>790</ele>
        <time>2020-06-11T11:17:45Z</time>
      </trkpt>
      <trkpt lat="44.26843" lon="6.04256">
        <ele>791</ele>
        <time>2020-06-11T11:17:49Z</time>
      </trkpt>
      <trkpt lat="44.26845" lon="6.04265">
        <ele>791</ele>
        <time>2020-06-11T11:17:53Z</time>
      </trkpt>
      <trkpt lat="44.26846" lon="6.04271">
        <ele>792</ele>
        <time>2020-06-11T11:17:55Z</time>
      </trkpt>
      <trkpt lat="44.2685" lon="6.04284">
        <ele>793</ele>
        <time>2020-06-11T11:17:59Z</time>
      </trkpt>
      <trkpt lat="44.26852" lon="6.04291">
        <ele>794</ele>
        <time>2020-06-11T11:18:01Z</time>
      </trkpt>
      <trkpt lat="44.26856" lon="6.04303">
        <ele>794</ele>
        <time>2020-06-11T11:18:05Z</time>
      </trkpt>
      <trkpt lat="44.26859" lon="6.04313">
        <ele>795</ele>
        <time>2020-06-11T11:18:08Z</time>
      </trkpt>
      <trkpt lat="44.26859" lon="6.04325">
        <ele>795</ele>
        <time>2020-06-11T11:18:12Z</time>
      </trkpt>
      <trkpt lat="44.26858" lon="6.04328">
        <ele>795</ele>
        <time>2020-06-11T11:18:13Z</time>
      </trkpt>
      <trkpt lat="44.26853" lon="6.04336">
        <ele>797</ele>
        <time>2020-06-11T11:18:16Z</time>
      </trkpt>
      <trkpt lat="44.26845" lon="6.04344">
        <ele>798</ele>
        <time>2020-06-11T11:18:20Z</time>
      </trkpt>
      <trkpt lat="44.26837" lon="6.0435">
        <ele>799</ele>
        <time>2020-06-11T11:18:25Z</time>
      </trkpt>
      <trkpt lat="44.26834" lon="6.04354">
        <ele>799</ele>
        <time>2020-06-11T11:18:27Z</time>
      </trkpt>
      <trkpt lat="44.26831" lon="6.0436">
        <ele>800</ele>
        <time>2020-06-11T11:18:31Z</time>
      </trkpt>
      <trkpt lat="44.26829" lon="6.04364">
        <ele>800</ele>
        <time>2020-06-11T11:18:33Z</time>
      </trkpt>
      <trkpt lat="44.26828" lon="6.04367">
        <ele>801</ele>
        <time>2020-06-11T11:18:35Z</time>
      </trkpt>
      <trkpt lat="44.26827" lon="6.04375">
        <ele>802</ele>
        <time>2020-06-11T11:18:38Z</time>
      </trkpt>
      <trkpt lat="44.26826" lon="6.04377">
        <ele>802</ele>
        <time>2020-06-11T11:18:39Z</time>
      </trkpt>
      <trkpt lat="44.26822" lon="6.0439">
        <ele>803</ele>
        <time>2020-06-11T11:18:44Z</time>
      </trkpt>
      <trkpt lat="44.26818" lon="6.04405">
        <ele>804</ele>
        <time>2020-06-11T11:18:50Z</time>
      </trkpt>
      <trkpt lat="44.26817" lon="6.04408">
        <ele>804</ele>
        <time>2020-06-11T11:18:51Z</time>
      </trkpt>
      <trkpt lat="44.26813" lon="6.04416">
        <ele>805</ele>
        <time>2020-06-11T11:18:54Z</time>
      </trkpt>
      <trkpt lat="44.26811" lon="6.0442">
        <ele>806</ele>
        <time>2020-06-11T11:18:56Z</time>
      </trkpt>
      <trkpt lat="44.26805" lon="6.04432">
        <ele>807</ele>
        <time>2020-06-11T11:19:01Z</time>
      </trkpt>
      <trkpt lat="44.26804" lon="6.04435">
        <ele>807</ele>
        <time>2020-06-11T11:19:02Z</time>
      </trkpt>
      <trkpt lat="44.26797" lon="6.04451">
        <ele>808</ele>
        <time>2020-06-11T11:19:08Z</time>
      </trkpt>
      <trkpt lat="44.26794" lon="6.04458">
        <ele>808</ele>
        <time>2020-06-11T11:19:10Z</time>
      </trkpt>
      <trkpt lat="44.26789" lon="6.04467">
        <ele>809</ele>
        <time>2020-06-11T11:19:13Z</time>
      </trkpt>
      <trkpt lat="44.26781" lon="6.04475">
        <ele>810</ele>
        <time>2020-06-11T11:19:17Z</time>
      </trkpt>
      <trkpt lat="44.26774" lon="6.04483">
        <ele>811</ele>
        <time>2020-06-11T11:19:21Z</time>
      </trkpt>
      <trkpt lat="44.26768" lon="6.04487">
        <ele>812</ele>
        <time>2020-06-11T11:19:24Z</time>
      </trkpt>
      <trkpt lat="44.26763" lon="6.04488">
        <ele>812</ele>
        <time>2020-06-11T11:19:26Z</time>
      </trkpt>
      <trkpt lat="44.26756" lon="6.04491">
        <ele>813</ele>
        <time>2020-06-11T11:19:30Z</time>
      </trkpt>
      <trkpt lat="44.26751" lon="6.04493">
        <ele>814</ele>
        <time>2020-06-11T11:19:33Z</time>
      </trkpt>
      <trkpt lat="44.26749" lon="6.04494">
        <ele>815</ele>
        <time>2020-06-11T11:19:34Z</time>
      </trkpt>
      <trkpt lat="44.26745" lon="6.04496">
        <ele>816</ele>
        <time>2020-06-11T11:19:37Z</time>
      </trkpt>
      <trkpt lat="44.26741" lon="6.04499">
        <ele>816</ele>
        <time>2020-06-11T11:19:40Z</time>
      </trkpt>
      <trkpt lat="44.26737" lon="6.04501">
        <ele>817</ele>
        <time>2020-06-11T11:19:43Z</time>
      </trkpt>
      <trkpt lat="44.26732" lon="6.04505">
        <ele>818</ele>
        <time>2020-06-11T11:19:47Z</time>
      </trkpt>
      <trkpt lat="44.26731" lon="6.04506">
        <ele>819</ele>
        <time>2020-06-11T11:19:48Z</time>
      </trkpt>
      <trkpt lat="44.26728" lon="6.04507">
        <ele>819</ele>
        <time>2020-06-11T11:19:50Z</time>
      </trkpt>
      <trkpt lat="44.26728" lon="6.04508">
        <ele>820</ele>
        <time>2020-06-11T11:19:51Z</time>
      </trkpt>
      <trkpt lat="44.26724" lon="6.04511">
        <ele>820</ele>
        <time>2020-06-11T11:19:54Z</time>
      </trkpt>
      <trkpt lat="44.26723" lon="6.04512">
        <ele>820</ele>
        <time>2020-06-11T11:19:55Z</time>
      </trkpt>
      <trkpt lat="44.26716" lon="6.0452">
        <ele>821</ele>
        <time>2020-06-11T11:20:00Z</time>
      </trkpt>
      <trkpt lat="44.26714" lon="6.04522">
        <ele>822</ele>
        <time>2020-06-11T11:20:01Z</time>
      </trkpt>
      <trkpt lat="44.26708" lon="6.04528">
        <ele>823</ele>
        <time>2020-06-11T11:20:05Z</time>
      </trkpt>
      <trkpt lat="44.26705" lon="6.04533">
        <ele>824</ele>
        <time>2020-06-11T11:20:08Z</time>
      </trkpt>
      <trkpt lat="44.26704" lon="6.04535">
        <ele>824</ele>
        <time>2020-06-11T11:20:09Z</time>
      </trkpt>
      <trkpt lat="44.26699" lon="6.04545">
        <ele>825</ele>
        <time>2020-06-11T11:20:14Z</time>
      </trkpt>
      <trkpt lat="44.26696" lon="6.04552">
        <ele>826</ele>
        <time>2020-06-11T11:20:17Z</time>
      </trkpt>
      <trkpt lat="44.26692" lon="6.04558">
        <ele>826</ele>
        <time>2020-06-11T11:20:20Z</time>
      </trkpt>
      <trkpt lat="44.26685" lon="6.04566">
        <ele>827</ele>
        <time>2020-06-11T11:20:24Z</time>
      </trkpt>
      <trkpt lat="44.26682" lon="6.04572">
        <ele>827</ele>
        <time>2020-06-11T11:20:26Z</time>
      </trkpt>
      <trkpt lat="44.26676" lon="6.04579">
        <ele>828</ele>
        <time>2020-06-11T11:20:29Z</time>
      </trkpt>
      <trkpt lat="44.26675" lon="6.04581">
        <ele>828</ele>
        <time>2020-06-11T11:20:30Z</time>
      </trkpt>
      <trkpt lat="44.26671" lon="6.04586">
        <ele>829</ele>
        <time>2020-06-11T11:20:32Z</time>
      </trkpt>
      <trkpt lat="44.26659" lon="6.04598">
        <ele>830</ele>
        <time>2020-06-11T11:20:38Z</time>
      </trkpt>
      <trkpt lat="44.26656" lon="6.046">
        <ele>830</ele>
        <time>2020-06-11T11:20:39Z</time>
      </trkpt>
      <trkpt lat="44.26643" lon="6.04611">
        <ele>830</ele>
        <time>2020-06-11T11:20:46Z</time>
      </trkpt>
      <trkpt lat="44.2664" lon="6.04614">
        <ele>831</ele>
        <time>2020-06-11T11:20:48Z</time>
      </trkpt>
      <trkpt lat="44.26635" lon="6.04619">
        <ele>832</ele>
        <time>2020-06-11T11:20:51Z</time>
      </trkpt>
      <trkpt lat="44.26628" lon="6.04627">
        <ele>833</ele>
        <time>2020-06-11T11:20:55Z</time>
      </trkpt>
      <trkpt lat="44.2662" lon="6.04632">
        <ele>834</ele>
        <time>2020-06-11T11:20:59Z</time>
      </trkpt>
      <trkpt lat="44.26615" lon="6.04636">
        <ele>835</ele>
        <time>2020-06-11T11:21:02Z</time>
      </trkpt>
      <trkpt lat="44.26612" lon="6.04639">
        <ele>835</ele>
        <time>2020-06-11T11:21:04Z</time>
      </trkpt>
      <trkpt lat="44.26606" lon="6.04644">
        <ele>836</ele>
        <time>2020-06-11T11:21:08Z</time>
      </trkpt>
      <trkpt lat="44.26602" lon="6.04649">
        <ele>837</ele>
        <time>2020-06-11T11:21:11Z</time>
      </trkpt>
      <trkpt lat="44.26599" lon="6.04651">
        <ele>838</ele>
        <time>2020-06-11T11:21:13Z</time>
      </trkpt>
      <trkpt lat="44.26593" lon="6.04658">
        <ele>839</ele>
        <time>2020-06-11T11:21:18Z</time>
      </trkpt>
      <trkpt lat="44.26592" lon="6.0466">
        <ele>839</ele>
        <time>2020-06-11T11:21:19Z</time>
      </trkpt>
      <trkpt lat="44.2659" lon="6.04663">
        <ele>840</ele>
        <time>2020-06-11T11:21:21Z</time>
      </trkpt>
      <trkpt lat="44.26585" lon="6.04671">
        <ele>841</ele>
        <time>2020-06-11T11:21:26Z</time>
      </trkpt>
      <trkpt lat="44.26581" lon="6.04675">
        <ele>842</ele>
        <time>2020-06-11T11:21:30Z</time>
      </trkpt>
      <trkpt lat="44.26575" lon="6.04681">
        <ele>843</ele>
        <time>2020-06-11T11:21:35Z</time>
      </trkpt>
      <trkpt lat="44.26571" lon="6.04684">
        <ele>845</ele>
        <time>2020-06-11T11:21:38Z</time>
      </trkpt>
      <trkpt lat="44.26569" lon="6.04686">
        <ele>845</ele>
        <time>2020-06-11T11:21:40Z</time>
      </trkpt>
      <trkpt lat="44.26566" lon="6.04688">
        <ele>846</ele>
        <time>2020-06-11T11:21:42Z</time>
      </trkpt>
      <trkpt lat="44.26561" lon="6.04692">
        <ele>847</ele>
        <time>2020-06-11T11:21:46Z</time>
      </trkpt>
      <trkpt lat="44.26555" lon="6.04695">
        <ele>848</ele>
        <time>2020-06-11T11:21:50Z</time>
      </trkpt>
      <trkpt lat="44.26554" lon="6.04696">
        <ele>848</ele>
        <time>2020-06-11T11:21:51Z</time>
      </trkpt>
      <trkpt lat="44.26546" lon="6.04699">
        <ele>849</ele>
        <time>2020-06-11T11:21:57Z</time>
      </trkpt>
      <trkpt lat="44.26544" lon="6.04699">
        <ele>849</ele>
        <time>2020-06-11T11:21:58Z</time>
      </trkpt>
      <trkpt lat="44.2654" lon="6.04702">
        <ele>850</ele>
        <time>2020-06-11T11:22:01Z</time>
      </trkpt>
      <trkpt lat="44.26534" lon="6.04706">
        <ele>851</ele>
        <time>2020-06-11T11:22:05Z</time>
      </trkpt>
      <trkpt lat="44.26533" lon="6.04707">
        <ele>851</ele>
        <time>2020-06-11T11:22:06Z</time>
      </trkpt>
      <trkpt lat="44.26526" lon="6.04713">
        <ele>852</ele>
        <time>2020-06-11T11:22:10Z</time>
      </trkpt>
      <trkpt lat="44.26522" lon="6.04714">
        <ele>853</ele>
        <time>2020-06-11T11:22:12Z</time>
      </trkpt>
      <trkpt lat="44.26519" lon="6.04715">
        <ele>853</ele>
        <time>2020-06-11T11:22:14Z</time>
      </trkpt>
      <trkpt lat="44.26509" lon="6.04717">
        <ele>855</ele>
        <time>2020-06-11T11:22:20Z</time>
      </trkpt>
      <trkpt lat="44.26506" lon="6.04718">
        <ele>855</ele>
        <time>2020-06-11T11:22:22Z</time>
      </trkpt>
      <trkpt lat="44.26501" lon="6.04719">
        <ele>856</ele>
        <time>2020-06-11T11:22:25Z</time>
      </trkpt>
      <trkpt lat="44.26495" lon="6.04721">
        <ele>857</ele>
        <time>2020-06-11T11:22:29Z</time>
      </trkpt>
      <trkpt lat="44.26494" lon="6.04722">
        <ele>858</ele>
        <time>2020-06-11T11:22:30Z</time>
      </trkpt>
      <trkpt lat="44.26491" lon="6.04723">
        <ele>858</ele>
        <time>2020-06-11T11:22:32Z</time>
      </trkpt>
      <trkpt lat="44.26482" lon="6.04727">
        <ele>859</ele>
        <time>2020-06-11T11:22:38Z</time>
      </trkpt>
      <trkpt lat="44.26479" lon="6.04728">
        <ele>860</ele>
        <time>2020-06-11T11:22:40Z</time>
      </trkpt>
      <trkpt lat="44.26473" lon="6.04731">
        <ele>861</ele>
        <time>2020-06-11T11:22:44Z</time>
      </trkpt>
      <trkpt lat="44.26468" lon="6.04733">
        <ele>862</ele>
        <time>2020-06-11T11:22:47Z</time>
      </trkpt>
      <trkpt lat="44.26466" lon="6.04734">
        <ele>862</ele>
        <time>2020-06-11T11:22:48Z</time>
      </trkpt>
      <trkpt lat="44.2646" lon="6.04737">
        <ele>863</ele>
        <time>2020-06-11T11:22:51Z</time>
      </trkpt>
      <trkpt lat="44.26454" lon="6.04745">
        <ele>863</ele>
        <time>2020-06-11T11:22:55Z</time>
      </trkpt>
      <trkpt lat="44.26449" lon="6.0476">
        <ele>864</ele>
        <time>2020-06-11T11:23:01Z</time>
      </trkpt>
      <trkpt lat="44.26447" lon="6.04776">
        <ele>865</ele>
        <time>2020-06-11T11:23:07Z</time>
      </trkpt>
      <trkpt lat="44.26445" lon="6.04781">
        <ele>866</ele>
        <time>2020-06-11T11:23:09Z</time>
      </trkpt>
      <trkpt lat="44.26441" lon="6.04787">
        <ele>867</ele>
        <time>2020-06-11T11:23:12Z</time>
      </trkpt>
      <trkpt lat="44.26435" lon="6.04789">
        <ele>867</ele>
        <time>2020-06-11T11:23:15Z</time>
      </trkpt>
      <trkpt lat="44.26432" lon="6.04788">
        <ele>868</ele>
        <time>2020-06-11T11:23:17Z</time>
      </trkpt>
      <trkpt lat="44.26423" lon="6.04785">
        <ele>869</ele>
        <time>2020-06-11T11:23:22Z</time>
      </trkpt>
      <trkpt lat="44.26421" lon="6.04785">
        <ele>869</ele>
        <time>2020-06-11T11:23:23Z</time>
      </trkpt>
      <trkpt lat="44.26414" lon="6.04782">
        <ele>870</ele>
        <time>2020-06-11T11:23:27Z</time>
      </trkpt>
      <trkpt lat="44.26407" lon="6.04781">
        <ele>871</ele>
        <time>2020-06-11T11:23:31Z</time>
      </trkpt>
      <trkpt lat="44.26404" lon="6.04781">
        <ele>871</ele>
        <time>2020-06-11T11:23:33Z</time>
      </trkpt>
      <trkpt lat="44.26393" lon="6.04782">
        <ele>872</ele>
        <time>2020-06-11T11:23:39Z</time>
      </trkpt>
      <trkpt lat="44.26388" lon="6.0479">
        <ele>873</ele>
        <time>2020-06-11T11:23:44Z</time>
      </trkpt>
      <trkpt lat="44.26388" lon="6.04792">
        <ele>874</ele>
        <time>2020-06-11T11:23:45Z</time>
      </trkpt>
      <trkpt lat="44.26387" lon="6.04802">
        <ele>875</ele>
        <time>2020-06-11T11:23:49Z</time>
      </trkpt>
      <trkpt lat="44.26389" lon="6.04806">
        <ele>875</ele>
        <time>2020-06-11T11:23:51Z</time>
      </trkpt>
      <trkpt lat="44.26398" lon="6.04808">
        <ele>876</ele>
        <time>2020-06-11T11:23:55Z</time>
      </trkpt>
      <trkpt lat="44.26401" lon="6.04808">
        <ele>876</ele>
        <time>2020-06-11T11:23:56Z</time>
      </trkpt>
      <trkpt lat="44.26419" lon="6.04809">
        <ele>877</ele>
        <time>2020-06-11T11:24:02Z</time>
      </trkpt>
      <trkpt lat="44.26423" lon="6.04812">
        <ele>877</ele>
        <time>2020-06-11T11:24:03Z</time>
      </trkpt>
      <trkpt lat="44.26443" lon="6.04826">
        <ele>877</ele>
        <time>2020-06-11T11:24:09Z</time>
      </trkpt>
      <trkpt lat="44.26451" lon="6.0483">
        <ele>878</ele>
        <time>2020-06-11T11:24:12Z</time>
      </trkpt>
      <trkpt lat="44.26455" lon="6.04834">
        <ele>878</ele>
        <time>2020-06-11T11:24:14Z</time>
      </trkpt>
      <trkpt lat="44.26457" lon="6.04837">
        <ele>879</ele>
        <time>2020-06-11T11:24:15Z</time>
      </trkpt>
      <trkpt lat="44.26458" lon="6.04841">
        <ele>879</ele>
        <time>2020-06-11T11:24:16Z</time>
      </trkpt>
      <trkpt lat="44.26457" lon="6.04844">
        <ele>879</ele>
        <time>2020-06-11T11:24:17Z</time>
      </trkpt>
      <trkpt lat="44.26456" lon="6.04846">
        <ele>880</ele>
        <time>2020-06-11T11:24:18Z</time>
      </trkpt>
      <trkpt lat="44.26454" lon="6.04848">
        <ele>880</ele>
        <time>2020-06-11T11:24:19Z</time>
      </trkpt>
      <trkpt lat="44.26452" lon="6.04849">
        <ele>880</ele>
        <time>2020-06-11T11:24:20Z</time>
      </trkpt>
      <trkpt lat="44.26447" lon="6.04848">
        <ele>881</ele>
        <time>2020-06-11T11:24:22Z</time>
      </trkpt>
      <trkpt lat="44.26445" lon="6.04847">
        <ele>882</ele>
        <time>2020-06-11T11:24:23Z</time>
      </trkpt>
      <trkpt lat="44.2644" lon="6.04846">
        <ele>883</ele>
        <time>2020-06-11T11:24:25Z</time>
      </trkpt>
      <trkpt lat="44.26431" lon="6.04842">
        <ele>884</ele>
        <time>2020-06-11T11:24:30Z</time>
      </trkpt>
      <trkpt lat="44.26421" lon="6.0484">
        <ele>885</ele>
        <time>2020-06-11T11:24:35Z</time>
      </trkpt>
      <trkpt lat="44.26412" lon="6.04839">
        <ele>886</ele>
        <time>2020-06-11T11:24:40Z</time>
      </trkpt>
      <trkpt lat="44.26403" lon="6.04841">
        <ele>887</ele>
        <time>2020-06-11T11:24:45Z</time>
      </trkpt>
      <trkpt lat="44.26397" lon="6.04843">
        <ele>888</ele>
        <time>2020-06-11T11:24:48Z</time>
      </trkpt>
      <trkpt lat="44.26393" lon="6.04846">
        <ele>888</ele>
        <time>2020-06-11T11:24:50Z</time>
      </trkpt>
      <trkpt lat="44.26386" lon="6.04853">
        <ele>889</ele>
        <time>2020-06-11T11:24:55Z</time>
      </trkpt>
      <trkpt lat="44.26383" lon="6.04856">
        <ele>890</ele>
        <time>2020-06-11T11:24:57Z</time>
      </trkpt>
      <trkpt lat="44.26379" lon="6.04859">
        <ele>890</ele>
        <time>2020-06-11T11:24:59Z</time>
      </trkpt>
      <trkpt lat="44.26369" lon="6.04868">
        <ele>891</ele>
        <time>2020-06-11T11:25:05Z</time>
      </trkpt>
      <trkpt lat="44.26363" lon="6.04872">
        <ele>891</ele>
        <time>2020-06-11T11:25:08Z</time>
      </trkpt>
      <trkpt lat="44.26356" lon="6.04878">
        <ele>893</ele>
        <time>2020-06-11T11:25:12Z</time>
      </trkpt>
      <trkpt lat="44.2635" lon="6.04886">
        <ele>893</ele>
        <time>2020-06-11T11:25:16Z</time>
      </trkpt>
      <trkpt lat="44.26348" lon="6.04888">
        <ele>894</ele>
        <time>2020-06-11T11:25:17Z</time>
      </trkpt>
      <trkpt lat="44.26337" lon="6.04901">
        <ele>895</ele>
        <time>2020-06-11T11:25:23Z</time>
      </trkpt>
      <trkpt lat="44.26333" lon="6.04904">
        <ele>895</ele>
        <time>2020-06-11T11:25:25Z</time>
      </trkpt>
      <trkpt lat="44.26326" lon="6.04908">
        <ele>896</ele>
        <time>2020-06-11T11:25:28Z</time>
      </trkpt>
      <trkpt lat="44.26318" lon="6.04908">
        <ele>896</ele>
        <time>2020-06-11T11:25:31Z</time>
      </trkpt>
      <trkpt lat="44.2631" lon="6.04898">
        <ele>897</ele>
        <time>2020-06-11T11:25:34Z</time>
      </trkpt>
      <trkpt lat="44.26313" lon="6.04884">
        <ele>897</ele>
        <time>2020-06-11T11:25:37Z</time>
      </trkpt>
      <trkpt lat="44.26316" lon="6.04876">
        <ele>897</ele>
        <time>2020-06-11T11:25:39Z</time>
      </trkpt>
      <trkpt lat="44.2632" lon="6.0486">
        <ele>898</ele>
        <time>2020-06-11T11:25:44Z</time>
      </trkpt>
      <trkpt lat="44.26324" lon="6.04848">
        <ele>899</ele>
        <time>2020-06-11T11:25:48Z</time>
      </trkpt>
      <trkpt lat="44.26326" lon="6.04838">
        <ele>900</ele>
        <time>2020-06-11T11:25:51Z</time>
      </trkpt>
      <trkpt lat="44.26323" lon="6.04824">
        <ele>901</ele>
        <time>2020-06-11T11:25:55Z</time>
      </trkpt>
      <trkpt lat="44.26321" lon="6.04822">
        <ele>901</ele>
        <time>2020-06-11T11:25:56Z</time>
      </trkpt>
      <trkpt lat="44.26311" lon="6.0482">
        <ele>902</ele>
        <time>2020-06-11T11:26:01Z</time>
      </trkpt>
      <trkpt lat="44.26303" lon="6.04825">
        <ele>903</ele>
        <time>2020-06-11T11:26:05Z</time>
      </trkpt>
      <trkpt lat="44.26299" lon="6.04829">
        <ele>905</ele>
        <time>2020-06-11T11:26:08Z</time>
      </trkpt>
      <trkpt lat="44.26292" lon="6.04835">
        <ele>906</ele>
        <time>2020-06-11T11:26:12Z</time>
      </trkpt>
      <trkpt lat="44.26284" lon="6.04841">
        <ele>907</ele>
        <time>2020-06-11T11:26:17Z</time>
      </trkpt>
      <trkpt lat="44.26282" lon="6.04842">
        <ele>907</ele>
        <time>2020-06-11T11:26:18Z</time>
      </trkpt>
      <trkpt lat="44.26279" lon="6.04844">
        <ele>908</ele>
        <time>2020-06-11T11:26:20Z</time>
      </trkpt>
      <trkpt lat="44.26276" lon="6.04846">
        <ele>909</ele>
        <time>2020-06-11T11:26:22Z</time>
      </trkpt>
      <trkpt lat="44.26271" lon="6.04848">
        <ele>910</ele>
        <time>2020-06-11T11:26:25Z</time>
      </trkpt>
      <trkpt lat="44.26261" lon="6.04849">
        <ele>911</ele>
        <time>2020-06-11T11:26:31Z</time>
      </trkpt>
      <trkpt lat="44.26254" lon="6.04849">
        <ele>912</ele>
        <time>2020-06-11T11:26:35Z</time>
      </trkpt>
      <trkpt lat="44.26252" lon="6.0485">
        <ele>913</ele>
        <time>2020-06-11T11:26:36Z</time>
      </trkpt>
      <trkpt lat="44.26245" lon="6.0485">
        <ele>914</ele>
        <time>2020-06-11T11:26:40Z</time>
      </trkpt>
      <trkpt lat="44.26239" lon="6.04851">
        <ele>914</ele>
        <time>2020-06-11T11:26:44Z</time>
      </trkpt>
      <trkpt lat="44.26232" lon="6.04851">
        <ele>915</ele>
        <time>2020-06-11T11:26:48Z</time>
      </trkpt>
      <trkpt lat="44.26225" lon="6.04851">
        <ele>916</ele>
        <time>2020-06-11T11:26:52Z</time>
      </trkpt>
      <trkpt lat="44.26223" lon="6.04851">
        <ele>916</ele>
        <time>2020-06-11T11:26:53Z</time>
      </trkpt>
      <trkpt lat="44.26216" lon="6.04851">
        <ele>917</ele>
        <time>2020-06-11T11:26:57Z</time>
      </trkpt>
      <trkpt lat="44.26213" lon="6.04853">
        <ele>918</ele>
        <time>2020-06-11T11:26:59Z</time>
      </trkpt>
      <trkpt lat="44.26212" lon="6.04855">
        <ele>918</ele>
        <time>2020-06-11T11:27:00Z</time>
      </trkpt>
      <trkpt lat="44.2621" lon="6.04858">
        <ele>918</ele>
        <time>2020-06-11T11:27:02Z</time>
      </trkpt>
      <trkpt lat="44.26208" lon="6.04865">
        <ele>919</ele>
        <time>2020-06-11T11:27:05Z</time>
      </trkpt>
      <trkpt lat="44.26207" lon="6.04867">
        <ele>919</ele>
        <time>2020-06-11T11:27:06Z</time>
      </trkpt>
      <trkpt lat="44.2621" lon="6.0488">
        <ele>920</ele>
        <time>2020-06-11T11:27:11Z</time>
      </trkpt>
      <trkpt lat="44.26211" lon="6.04882">
        <ele>920</ele>
        <time>2020-06-11T11:27:12Z</time>
      </trkpt>
      <trkpt lat="44.26215" lon="6.04893">
        <ele>921</ele>
        <time>2020-06-11T11:27:17Z</time>
      </trkpt>
      <trkpt lat="44.26216" lon="6.04896">
        <ele>922</ele>
        <time>2020-06-11T11:27:18Z</time>
      </trkpt>
      <trkpt lat="44.26217" lon="6.04901">
        <ele>922</ele>
        <time>2020-06-11T11:27:20Z</time>
      </trkpt>
      <trkpt lat="44.26218" lon="6.04909">
        <ele>923</ele>
        <time>2020-06-11T11:27:23Z</time>
      </trkpt>
      <trkpt lat="44.26217" lon="6.04913">
        <ele>924</ele>
        <time>2020-06-11T11:27:25Z</time>
      </trkpt>
      <trkpt lat="44.26217" lon="6.04915">
        <ele>925</ele>
        <time>2020-06-11T11:27:26Z</time>
      </trkpt>
      <trkpt lat="44.26215" lon="6.04921">
        <ele>926</ele>
        <time>2020-06-11T11:27:29Z</time>
      </trkpt>
      <trkpt lat="44.26211" lon="6.04927">
        <ele>926</ele>
        <time>2020-06-11T11:27:32Z</time>
      </trkpt>
      <trkpt lat="44.2621" lon="6.04929">
        <ele>927</ele>
        <time>2020-06-11T11:27:33Z</time>
      </trkpt>
      <trkpt lat="44.26205" lon="6.04935">
        <ele>928</ele>
        <time>2020-06-11T11:27:37Z</time>
      </trkpt>
      <trkpt lat="44.26199" lon="6.0494">
        <ele>929</ele>
        <time>2020-06-11T11:27:41Z</time>
      </trkpt>
      <trkpt lat="44.26197" lon="6.04941">
        <ele>929</ele>
        <time>2020-06-11T11:27:42Z</time>
      </trkpt>
      <trkpt lat="44.26187" lon="6.04946">
        <ele>930</ele>
        <time>2020-06-11T11:27:48Z</time>
      </trkpt>
      <trkpt lat="44.26186" lon="6.04947">
        <ele>931</ele>
        <time>2020-06-11T11:27:49Z</time>
      </trkpt>
      <trkpt lat="44.26179" lon="6.0495">
        <ele>932</ele>
        <time>2020-06-11T11:27:54Z</time>
      </trkpt>
      <trkpt lat="44.26175" lon="6.04952">
        <ele>933</ele>
        <time>2020-06-11T11:27:57Z</time>
      </trkpt>
      <trkpt lat="44.26174" lon="6.04953">
        <ele>933</ele>
        <time>2020-06-11T11:27:58Z</time>
      </trkpt>
      <trkpt lat="44.26167" lon="6.04957">
        <ele>934</ele>
        <time>2020-06-11T11:28:02Z</time>
      </trkpt>
      <trkpt lat="44.2616" lon="6.04962">
        <ele>935</ele>
        <time>2020-06-11T11:28:07Z</time>
      </trkpt>
      <trkpt lat="44.26154" lon="6.04965">
        <ele>937</ele>
        <time>2020-06-11T11:28:11Z</time>
      </trkpt>
      <trkpt lat="44.26148" lon="6.04968">
        <ele>937</ele>
        <time>2020-06-11T11:28:15Z</time>
      </trkpt>
      <trkpt lat="44.26147" lon="6.04969">
        <ele>938</ele>
        <time>2020-06-11T11:28:16Z</time>
      </trkpt>
      <trkpt lat="44.26138" lon="6.04975">
        <ele>939</ele>
        <time>2020-06-11T11:28:21Z</time>
      </trkpt>
      <trkpt lat="44.26135" lon="6.04978">
        <ele>939</ele>
        <time>2020-06-11T11:28:23Z</time>
      </trkpt>
      <trkpt lat="44.26132" lon="6.0498">
        <ele>940</ele>
        <time>2020-06-11T11:28:25Z</time>
      </trkpt>
      <trkpt lat="44.26125" lon="6.04983">
        <ele>941</ele>
        <time>2020-06-11T11:28:29Z</time>
      </trkpt>
      <trkpt lat="44.26123" lon="6.04984">
        <ele>941</ele>
        <time>2020-06-11T11:28:30Z</time>
      </trkpt>
      <trkpt lat="44.26119" lon="6.04985">
        <ele>942</ele>
        <time>2020-06-11T11:28:33Z</time>
      </trkpt>
      <trkpt lat="44.26114" lon="6.04985">
        <ele>943</ele>
        <time>2020-06-11T11:28:36Z</time>
      </trkpt>
      <trkpt lat="44.26113" lon="6.04985">
        <ele>943</ele>
        <time>2020-06-11T11:28:37Z</time>
      </trkpt>
      <trkpt lat="44.26108" lon="6.04984">
        <ele>945</ele>
        <time>2020-06-11T11:28:40Z</time>
      </trkpt>
      <trkpt lat="44.26101" lon="6.04981">
        <ele>946</ele>
        <time>2020-06-11T11:28:44Z</time>
      </trkpt>
      <trkpt lat="44.261" lon="6.04981">
        <ele>946</ele>
        <time>2020-06-11T11:28:45Z</time>
      </trkpt>
      <trkpt lat="44.26088" lon="6.04973">
        <ele>947</ele>
        <time>2020-06-11T11:28:52Z</time>
      </trkpt>
      <trkpt lat="44.26081" lon="6.04967">
        <ele>948</ele>
        <time>2020-06-11T11:28:56Z</time>
      </trkpt>
      <trkpt lat="44.26074" lon="6.04959">
        <ele>949</ele>
        <time>2020-06-11T11:29:00Z</time>
      </trkpt>
      <trkpt lat="44.26073" lon="6.04957">
        <ele>949</ele>
        <time>2020-06-11T11:29:01Z</time>
      </trkpt>
      <trkpt lat="44.26067" lon="6.04945">
        <ele>950</ele>
        <time>2020-06-11T11:29:06Z</time>
      </trkpt>
      <trkpt lat="44.26066" lon="6.04939">
        <ele>951</ele>
        <time>2020-06-11T11:29:08Z</time>
      </trkpt>
      <trkpt lat="44.26066" lon="6.04927">
        <ele>951</ele>
        <time>2020-06-11T11:29:12Z</time>
      </trkpt>
      <trkpt lat="44.26066" lon="6.04915">
        <ele>952</ele>
        <time>2020-06-11T11:29:16Z</time>
      </trkpt>
      <trkpt lat="44.26067" lon="6.04913">
        <ele>953</ele>
        <time>2020-06-11T11:29:17Z</time>
      </trkpt>
      <trkpt lat="44.26067" lon="6.04899">
        <ele>953</ele>
        <time>2020-06-11T11:29:22Z</time>
      </trkpt>
      <trkpt lat="44.26067" lon="6.0489">
        <ele>954</ele>
        <time>2020-06-11T11:29:25Z</time>
      </trkpt>
      <trkpt lat="44.26067" lon="6.04878">
        <ele>955</ele>
        <time>2020-06-11T11:29:29Z</time>
      </trkpt>
      <trkpt lat="44.26067" lon="6.04874">
        <ele>955</ele>
        <time>2020-06-11T11:29:31Z</time>
      </trkpt>
      <trkpt lat="44.26065" lon="6.04863">
        <ele>956</ele>
        <time>2020-06-11T11:29:36Z</time>
      </trkpt>
      <trkpt lat="44.26064" lon="6.04861">
        <ele>956</ele>
        <time>2020-06-11T11:29:38Z</time>
      </trkpt>
      <trkpt lat="44.26062" lon="6.04859">
        <ele>956</ele>
        <time>2020-06-11T11:29:41Z</time>
      </trkpt>
      <trkpt lat="44.2606" lon="6.0486">
        <ele>957</ele>
        <time>2020-06-11T11:29:46Z</time>
      </trkpt>
      <trkpt lat="44.2606" lon="6.0486">
        <ele>957</ele>
        <time>2020-06-11T11:29:59Z</time>
      </trkpt>
      <trkpt lat="44.2606" lon="6.0486">
        <ele>957</ele>
        <time>2020-06-11T11:30:03Z</time>
      </trkpt>
      <trkpt lat="44.2606" lon="6.0486">
        <ele>956</ele>
        <time>2020-06-11T11:30:18Z</time>
      </trkpt>
      <trkpt lat="44.2606" lon="6.04859">
        <ele>956</ele>
        <time>2020-06-11T11:30:39Z</time>
      </trkpt>
      <trkpt lat="44.2606" lon="6.04859">
        <ele>957</ele>
        <time>2020-06-11T11:31:15Z</time>
      </trkpt>
      <trkpt lat="44.26059" lon="6.04864">
        <ele>957</ele>
        <time>2020-06-11T11:31:38Z</time>
      </trkpt>
      <trkpt lat="44.26059" lon="6.04865">
        <ele>957</ele>
        <time>2020-06-11T11:31:39Z</time>
      </trkpt>
      <trkpt lat="44.26061" lon="6.04867">
        <ele>957</ele>
        <time>2020-06-11T11:31:41Z</time>
      </trkpt>
      <trkpt lat="44.26063" lon="6.04867">
        <ele>957</ele>
        <time>2020-06-11T11:31:42Z</time>
      </trkpt>
      <trkpt lat="44.26064" lon="6.04866">
        <ele>956</ele>
        <time>2020-06-11T11:31:43Z</time>
      </trkpt>
      <trkpt lat="44.26066" lon="6.04859">
        <ele>956</ele>
        <time>2020-06-11T11:31:46Z</time>
      </trkpt>
      <trkpt lat="44.26068" lon="6.04843">
        <ele>957</ele>
        <time>2020-06-11T11:31:51Z</time>
      </trkpt>
      <trkpt lat="44.26064" lon="6.0482">
        <ele>958</ele>
        <time>2020-06-11T11:32:00Z</time>
      </trkpt>
      <trkpt lat="44.26063" lon="6.04818">
        <ele>958</ele>
        <time>2020-06-11T11:32:01Z</time>
      </trkpt>
      <trkpt lat="44.26058" lon="6.04811">
        <ele>959</ele>
        <time>2020-06-11T11:32:05Z</time>
      </trkpt>
      <trkpt lat="44.26055" lon="6.04808">
        <ele>960</ele>
        <time>2020-06-11T11:32:07Z</time>
      </trkpt>
      <trkpt lat="44.2605" lon="6.04805">
        <ele>961</ele>
        <time>2020-06-11T11:32:10Z</time>
      </trkpt>
      <trkpt lat="44.26042" lon="6.04798">
        <ele>962</ele>
        <time>2020-06-11T11:32:15Z</time>
      </trkpt>
      <trkpt lat="44.26041" lon="6.04797">
        <ele>962</ele>
        <time>2020-06-11T11:32:16Z</time>
      </trkpt>
      <trkpt lat="44.26034" lon="6.04789">
        <ele>963</ele>
        <time>2020-06-11T11:32:20Z</time>
      </trkpt>
      <trkpt lat="44.26026" lon="6.04781">
        <ele>963</ele>
        <time>2020-06-11T11:32:24Z</time>
      </trkpt>
      <trkpt lat="44.26008" lon="6.04771">
        <ele>963</ele>
        <time>2020-06-11T11:32:32Z</time>
      </trkpt>
      <trkpt lat="44.25995" lon="6.04774">
        <ele>964</ele>
        <time>2020-06-11T11:32:38Z</time>
      </trkpt>
      <trkpt lat="44.25994" lon="6.04775">
        <ele>964</ele>
        <time>2020-06-11T11:32:39Z</time>
      </trkpt>
      <trkpt lat="44.25987" lon="6.04779">
        <ele>965</ele>
        <time>2020-06-11T11:32:43Z</time>
      </trkpt>
      <trkpt lat="44.25982" lon="6.04781">
        <ele>966</ele>
        <time>2020-06-11T11:32:46Z</time>
      </trkpt>
      <trkpt lat="44.25978" lon="6.04783">
        <ele>966</ele>
        <time>2020-06-11T11:32:48Z</time>
      </trkpt>
      <trkpt lat="44.25971" lon="6.04787">
        <ele>967</ele>
        <time>2020-06-11T11:32:52Z</time>
      </trkpt>
      <trkpt lat="44.25967" lon="6.04788">
        <ele>968</ele>
        <time>2020-06-11T11:32:54Z</time>
      </trkpt>
      <trkpt lat="44.25963" lon="6.0479">
        <ele>968</ele>
        <time>2020-06-11T11:32:56Z</time>
      </trkpt>
      <trkpt lat="44.25956" lon="6.04794">
        <ele>970</ele>
        <time>2020-06-11T11:33:00Z</time>
      </trkpt>
      <trkpt lat="44.25949" lon="6.04798">
        <ele>971</ele>
        <time>2020-06-11T11:33:04Z</time>
      </trkpt>
      <trkpt lat="44.25947" lon="6.04799">
        <ele>971</ele>
        <time>2020-06-11T11:33:05Z</time>
      </trkpt>
      <trkpt lat="44.25939" lon="6.04807">
        <ele>972</ele>
        <time>2020-06-11T11:33:10Z</time>
      </trkpt>
      <trkpt lat="44.25934" lon="6.04813">
        <ele>972</ele>
        <time>2020-06-11T11:33:13Z</time>
      </trkpt>
      <trkpt lat="44.25927" lon="6.04827">
        <ele>973</ele>
        <time>2020-06-11T11:33:19Z</time>
      </trkpt>
      <trkpt lat="44.25924" lon="6.04834">
        <ele>974</ele>
        <time>2020-06-11T11:33:22Z</time>
      </trkpt>
      <trkpt lat="44.25923" lon="6.04837">
        <ele>974</ele>
        <time>2020-06-11T11:33:23Z</time>
      </trkpt>
      <trkpt lat="44.25918" lon="6.04854">
        <ele>976</ele>
        <time>2020-06-11T11:33:30Z</time>
      </trkpt>
      <trkpt lat="44.25918" lon="6.04859">
        <ele>976</ele>
        <time>2020-06-11T11:33:32Z</time>
      </trkpt>
      <trkpt lat="44.25918" lon="6.04864">
        <ele>977</ele>
        <time>2020-06-11T11:33:34Z</time>
      </trkpt>
      <trkpt lat="44.25922" lon="6.04877">
        <ele>978</ele>
        <time>2020-06-11T11:33:40Z</time>
      </trkpt>
      <trkpt lat="44.25922" lon="6.04879">
        <ele>978</ele>
        <time>2020-06-11T11:33:41Z</time>
      </trkpt>
      <trkpt lat="44.25923" lon="6.0489">
        <ele>979</ele>
        <time>2020-06-11T11:33:46Z</time>
      </trkpt>
      <trkpt lat="44.25923" lon="6.04892">
        <ele>979</ele>
        <time>2020-06-11T11:33:47Z</time>
      </trkpt>
      <trkpt lat="44.2592" lon="6.04904">
        <ele>980</ele>
        <time>2020-06-11T11:33:53Z</time>
      </trkpt>
      <trkpt lat="44.25919" lon="6.04909">
        <ele>980</ele>
        <time>2020-06-11T11:33:55Z</time>
      </trkpt>
      <trkpt lat="44.25918" lon="6.04916">
        <ele>981</ele>
        <time>2020-06-11T11:33:58Z</time>
      </trkpt>
      <trkpt lat="44.25915" lon="6.04929">
        <ele>982</ele>
        <time>2020-06-11T11:34:04Z</time>
      </trkpt>
      <trkpt lat="44.25915" lon="6.04931">
        <ele>983</ele>
        <time>2020-06-11T11:34:05Z</time>
      </trkpt>
      <trkpt lat="44.25917" lon="6.04935">
        <ele>984</ele>
        <time>2020-06-11T11:34:07Z</time>
      </trkpt>
      <trkpt lat="44.2592" lon="6.04942">
        <ele>984</ele>
        <time>2020-06-11T11:34:11Z</time>
      </trkpt>
      <trkpt lat="44.25921" lon="6.04944">
        <ele>985</ele>
        <time>2020-06-11T11:34:12Z</time>
      </trkpt>
      <trkpt lat="44.25928" lon="6.04949">
        <ele>986</ele>
        <time>2020-06-11T11:34:18Z</time>
      </trkpt>
      <trkpt lat="44.2593" lon="6.04949">
        <ele>986</ele>
        <time>2020-06-11T11:34:19Z</time>
      </trkpt>
      <trkpt lat="44.25937" lon="6.04955">
        <ele>987</ele>
        <time>2020-06-11T11:34:23Z</time>
      </trkpt>
      <trkpt lat="44.25938" lon="6.04958">
        <ele>987</ele>
        <time>2020-06-11T11:34:24Z</time>
      </trkpt>
      <trkpt lat="44.25937" lon="6.04967">
        <ele>988</ele>
        <time>2020-06-11T11:34:28Z</time>
      </trkpt>
      <trkpt lat="44.25936" lon="6.04979">
        <ele>989</ele>
        <time>2020-06-11T11:34:34Z</time>
      </trkpt>
      <trkpt lat="44.25935" lon="6.04982">
        <ele>990</ele>
        <time>2020-06-11T11:34:36Z</time>
      </trkpt>
      <trkpt lat="44.25932" lon="6.0499">
        <ele>990</ele>
        <time>2020-06-11T11:34:40Z</time>
      </trkpt>
      <trkpt lat="44.25927" lon="6.04997">
        <ele>991</ele>
        <time>2020-06-11T11:34:44Z</time>
      </trkpt>
      <trkpt lat="44.25926" lon="6.04999">
        <ele>992</ele>
        <time>2020-06-11T11:34:45Z</time>
      </trkpt>
      <trkpt lat="44.25923" lon="6.05004">
        <ele>993</ele>
        <time>2020-06-11T11:34:48Z</time>
      </trkpt>
      <trkpt lat="44.25919" lon="6.05013">
        <ele>994</ele>
        <time>2020-06-11T11:34:52Z</time>
      </trkpt>
      <trkpt lat="44.25915" lon="6.05022">
        <ele>995</ele>
        <time>2020-06-11T11:34:57Z</time>
      </trkpt>
      <trkpt lat="44.2591" lon="6.05033">
        <ele>996</ele>
        <time>2020-06-11T11:35:03Z</time>
      </trkpt>
      <trkpt lat="44.25908" lon="6.05039">
        <ele>997</ele>
        <time>2020-06-11T11:35:06Z</time>
      </trkpt>
      <trkpt lat="44.25908" lon="6.05041">
        <ele>997</ele>
        <time>2020-06-11T11:35:07Z</time>
      </trkpt>
      <trkpt lat="44.25905" lon="6.05051">
        <ele>999</ele>
        <time>2020-06-11T11:35:12Z</time>
      </trkpt>
      <trkpt lat="44.25905" lon="6.05055">
        <ele>999</ele>
        <time>2020-06-11T11:35:14Z</time>
      </trkpt>
      <trkpt lat="44.25903" lon="6.05059">
        <ele>1000</ele>
        <time>2020-06-11T11:35:16Z</time>
      </trkpt>
      <trkpt lat="44.259" lon="6.05069">
        <ele>1001</ele>
        <time>2020-06-11T11:35:20Z</time>
      </trkpt>
      <trkpt lat="44.25898" lon="6.05071">
        <ele>1001</ele>
        <time>2020-06-11T11:35:21Z</time>
      </trkpt>
      <trkpt lat="44.25892" lon="6.05084">
        <ele>1002</ele>
        <time>2020-06-11T11:35:26Z</time>
      </trkpt>
      <trkpt lat="44.25886" lon="6.05093">
        <ele>1002</ele>
        <time>2020-06-11T11:35:30Z</time>
      </trkpt>
      <trkpt lat="44.25881" lon="6.05101">
        <ele>1003</ele>
        <time>2020-06-11T11:35:34Z</time>
      </trkpt>
      <trkpt lat="44.2588" lon="6.05103">
        <ele>1003</ele>
        <time>2020-06-11T11:35:35Z</time>
      </trkpt>
      <trkpt lat="44.25873" lon="6.0511">
        <ele>1004</ele>
        <time>2020-06-11T11:35:40Z</time>
      </trkpt>
      <trkpt lat="44.2587" lon="6.05112">
        <ele>1004</ele>
        <time>2020-06-11T11:35:42Z</time>
      </trkpt>
      <trkpt lat="44.25862" lon="6.05118">
        <ele>1005</ele>
        <time>2020-06-11T11:35:47Z</time>
      </trkpt>
      <trkpt lat="44.25857" lon="6.05122">
        <ele>1006</ele>
        <time>2020-06-11T11:35:51Z</time>
      </trkpt>
      <trkpt lat="44.25855" lon="6.05123">
        <ele>1006</ele>
        <time>2020-06-11T11:35:52Z</time>
      </trkpt>
      <trkpt lat="44.25854" lon="6.05124">
        <ele>1006</ele>
        <time>2020-06-11T11:35:53Z</time>
      </trkpt>
      <trkpt lat="44.25845" lon="6.05127">
        <ele>1008</ele>
        <time>2020-06-11T11:35:58Z</time>
      </trkpt>
      <trkpt lat="44.25842" lon="6.05129">
        <ele>1008</ele>
        <time>2020-06-11T11:36:00Z</time>
      </trkpt>
      <trkpt lat="44.25839" lon="6.0513">
        <ele>1009</ele>
        <time>2020-06-11T11:36:02Z</time>
      </trkpt>
      <trkpt lat="44.25833" lon="6.05132">
        <ele>1010</ele>
        <time>2020-06-11T11:36:05Z</time>
      </trkpt>
      <trkpt lat="44.25827" lon="6.05135">
        <ele>1010</ele>
        <time>2020-06-11T11:36:08Z</time>
      </trkpt>
      <trkpt lat="44.25822" lon="6.05141">
        <ele>1011</ele>
        <time>2020-06-11T11:36:12Z</time>
      </trkpt>
      <trkpt lat="44.25815" lon="6.05149">
        <ele>1011</ele>
        <time>2020-06-11T11:36:17Z</time>
      </trkpt>
      <trkpt lat="44.25814" lon="6.0515">
        <ele>1012</ele>
        <time>2020-06-11T11:36:18Z</time>
      </trkpt>
      <trkpt lat="44.25804" lon="6.05152">
        <ele>1013</ele>
        <time>2020-06-11T11:36:23Z</time>
      </trkpt>
      <trkpt lat="44.25802" lon="6.05151">
        <ele>1013</ele>
        <time>2020-06-11T11:36:24Z</time>
      </trkpt>
      <trkpt lat="44.25796" lon="6.0515">
        <ele>1014</ele>
        <time>2020-06-11T11:36:27Z</time>
      </trkpt>
      <trkpt lat="44.25785" lon="6.05147">
        <ele>1015</ele>
        <time>2020-06-11T11:36:33Z</time>
      </trkpt>
      <trkpt lat="44.25783" lon="6.05147">
        <ele>1016</ele>
        <time>2020-06-11T11:36:34Z</time>
      </trkpt>
      <trkpt lat="44.25777" lon="6.05147">
        <ele>1017</ele>
        <time>2020-06-11T11:36:37Z</time>
      </trkpt>
      <trkpt lat="44.25769" lon="6.05149">
        <ele>1018</ele>
        <time>2020-06-11T11:36:41Z</time>
      </trkpt>
      <trkpt lat="44.25759" lon="6.05152">
        <ele>1019</ele>
        <time>2020-06-11T11:36:46Z</time>
      </trkpt>
      <trkpt lat="44.25754" lon="6.05155">
        <ele>1020</ele>
        <time>2020-06-11T11:36:49Z</time>
      </trkpt>
      <trkpt lat="44.25752" lon="6.05157">
        <ele>1020</ele>
        <time>2020-06-11T11:36:50Z</time>
      </trkpt>
      <trkpt lat="44.25746" lon="6.05159">
        <ele>1021</ele>
        <time>2020-06-11T11:36:53Z</time>
      </trkpt>
      <trkpt lat="44.25742" lon="6.05161">
        <ele>1022</ele>
        <time>2020-06-11T11:36:56Z</time>
      </trkpt>
      <trkpt lat="44.2574" lon="6.05161">
        <ele>1022</ele>
        <time>2020-06-11T11:36:57Z</time>
      </trkpt>
      <trkpt lat="44.25732" lon="6.05164">
        <ele>1023</ele>
        <time>2020-06-11T11:37:02Z</time>
      </trkpt>
      <trkpt lat="44.2573" lon="6.05164">
        <ele>1023</ele>
        <time>2020-06-11T11:37:03Z</time>
      </trkpt>
      <trkpt lat="44.25724" lon="6.05166">
        <ele>1024</ele>
        <time>2020-06-11T11:37:07Z</time>
      </trkpt>
      <trkpt lat="44.2572" lon="6.05167">
        <ele>1025</ele>
        <time>2020-06-11T11:37:09Z</time>
      </trkpt>
      <trkpt lat="44.25715" lon="6.05166">
        <ele>1026</ele>
        <time>2020-06-11T11:37:12Z</time>
      </trkpt>
      <trkpt lat="44.25708" lon="6.05164">
        <ele>1027</ele>
        <time>2020-06-11T11:37:16Z</time>
      </trkpt>
      <trkpt lat="44.25703" lon="6.05163">
        <ele>1027</ele>
        <time>2020-06-11T11:37:19Z</time>
      </trkpt>
      <trkpt lat="44.257" lon="6.05163">
        <ele>1028</ele>
        <time>2020-06-11T11:37:21Z</time>
      </trkpt>
      <trkpt lat="44.25687" lon="6.05165">
        <ele>1029</ele>
        <time>2020-06-11T11:37:28Z</time>
      </trkpt>
      <trkpt lat="44.25673" lon="6.0517">
        <ele>1030</ele>
        <time>2020-06-11T11:37:36Z</time>
      </trkpt>
      <trkpt lat="44.25662" lon="6.05168">
        <ele>1031</ele>
        <time>2020-06-11T11:37:42Z</time>
      </trkpt>
      <trkpt lat="44.2566" lon="6.05168">
        <ele>1032</ele>
        <time>2020-06-11T11:37:43Z</time>
      </trkpt>
      <trkpt lat="44.25657" lon="6.05165">
        <ele>1032</ele>
        <time>2020-06-11T11:37:45Z</time>
      </trkpt>
      <trkpt lat="44.2565" lon="6.05161">
        <ele>1034</ele>
        <time>2020-06-11T11:37:49Z</time>
      </trkpt>
      <trkpt lat="44.25643" lon="6.05158">
        <ele>1035</ele>
        <time>2020-06-11T11:37:53Z</time>
      </trkpt>
      <trkpt lat="44.25635" lon="6.05157">
        <ele>1036</ele>
        <time>2020-06-11T11:37:57Z</time>
      </trkpt>
      <trkpt lat="44.25633" lon="6.05157">
        <ele>1036</ele>
        <time>2020-06-11T11:37:58Z</time>
      </trkpt>
      <trkpt lat="44.25628" lon="6.05156">
        <ele>1037</ele>
        <time>2020-06-11T11:38:01Z</time>
      </trkpt>
      <trkpt lat="44.25621" lon="6.05155">
        <ele>1038</ele>
        <time>2020-06-11T11:38:05Z</time>
      </trkpt>
      <trkpt lat="44.25614" lon="6.05155">
        <ele>1039</ele>
        <time>2020-06-11T11:38:09Z</time>
      </trkpt>
      <trkpt lat="44.2561" lon="6.05154">
        <ele>1039</ele>
        <time>2020-06-11T11:38:11Z</time>
      </trkpt>
      <trkpt lat="44.25604" lon="6.05153">
        <ele>1040</ele>
        <time>2020-06-11T11:38:15Z</time>
      </trkpt>
      <trkpt lat="44.25602" lon="6.05153">
        <ele>1041</ele>
        <time>2020-06-11T11:38:16Z</time>
      </trkpt>
      <trkpt lat="44.256" lon="6.05152">
        <ele>1042</ele>
        <time>2020-06-11T11:38:18Z</time>
      </trkpt>
      <trkpt lat="44.25594" lon="6.0515">
        <ele>1043</ele>
        <time>2020-06-11T11:38:22Z</time>
      </trkpt>
      <trkpt lat="44.25591" lon="6.0515">
        <ele>1043</ele>
        <time>2020-06-11T11:38:24Z</time>
      </trkpt>
      <trkpt lat="44.25588" lon="6.05149">
        <ele>1044</ele>
        <time>2020-06-11T11:38:26Z</time>
      </trkpt>
      <trkpt lat="44.25579" lon="6.05144">
        <ele>1044</ele>
        <time>2020-06-11T11:38:33Z</time>
      </trkpt>
      <trkpt lat="44.25577" lon="6.05143">
        <ele>1045</ele>
        <time>2020-06-11T11:38:34Z</time>
      </trkpt>
      <trkpt lat="44.25571" lon="6.0514">
        <ele>1046</ele>
        <time>2020-06-11T11:38:38Z</time>
      </trkpt>
      <trkpt lat="44.25563" lon="6.05134">
        <ele>1047</ele>
        <time>2020-06-11T11:38:44Z</time>
      </trkpt>
      <trkpt lat="44.25556" lon="6.05131">
        <ele>1048</ele>
        <time>2020-06-11T11:38:49Z</time>
      </trkpt>
      <trkpt lat="44.25551" lon="6.0513">
        <ele>1049</ele>
        <time>2020-06-11T11:38:52Z</time>
      </trkpt>
      <trkpt lat="44.25548" lon="6.0513">
        <ele>1049</ele>
        <time>2020-06-11T11:38:54Z</time>
      </trkpt>
      <trkpt lat="44.25541" lon="6.0513">
        <ele>1051</ele>
        <time>2020-06-11T11:38:58Z</time>
      </trkpt>
      <trkpt lat="44.25539" lon="6.0513">
        <ele>1051</ele>
        <time>2020-06-11T11:38:59Z</time>
      </trkpt>
      <trkpt lat="44.2553" lon="6.05131">
        <ele>1052</ele>
        <time>2020-06-11T11:39:04Z</time>
      </trkpt>
      <trkpt lat="44.25529" lon="6.05131">
        <ele>1052</ele>
        <time>2020-06-11T11:39:05Z</time>
      </trkpt>
      <trkpt lat="44.25518" lon="6.0513">
        <ele>1053</ele>
        <time>2020-06-11T11:39:10Z</time>
      </trkpt>
      <trkpt lat="44.25513" lon="6.05129">
        <ele>1053</ele>
        <time>2020-06-11T11:39:13Z</time>
      </trkpt>
      <trkpt lat="44.25502" lon="6.05125">
        <ele>1054</ele>
        <time>2020-06-11T11:39:19Z</time>
      </trkpt>
      <trkpt lat="44.255" lon="6.05125">
        <ele>1054</ele>
        <time>2020-06-11T11:39:20Z</time>
      </trkpt>
      <trkpt lat="44.25493" lon="6.05124">
        <ele>1055</ele>
        <time>2020-06-11T11:39:24Z</time>
      </trkpt>
      <trkpt lat="44.25489" lon="6.05124">
        <ele>1056</ele>
        <time>2020-06-11T11:39:26Z</time>
      </trkpt>
      <trkpt lat="44.25485" lon="6.05124">
        <ele>1057</ele>
        <time>2020-06-11T11:39:28Z</time>
      </trkpt>
      <trkpt lat="44.25481" lon="6.05123">
        <ele>1058</ele>
        <time>2020-06-11T11:39:30Z</time>
      </trkpt>
      <trkpt lat="44.2547" lon="6.05124">
        <ele>1059</ele>
        <time>2020-06-11T11:39:36Z</time>
      </trkpt>
      <trkpt lat="44.25468" lon="6.05124">
        <ele>1059</ele>
        <time>2020-06-11T11:39:37Z</time>
      </trkpt>
      <trkpt lat="44.25464" lon="6.05128">
        <ele>1059</ele>
        <time>2020-06-11T11:39:40Z</time>
      </trkpt>
      <trkpt lat="44.25463" lon="6.0513">
        <ele>1060</ele>
        <time>2020-06-11T11:39:41Z</time>
      </trkpt>
      <trkpt lat="44.25463" lon="6.05133">
        <ele>1060</ele>
        <time>2020-06-11T11:39:42Z</time>
      </trkpt>
      <trkpt lat="44.25465" lon="6.05137">
        <ele>1060</ele>
        <time>2020-06-11T11:39:44Z</time>
      </trkpt>
      <trkpt lat="44.25468" lon="6.0514">
        <ele>1061</ele>
        <time>2020-06-11T11:39:46Z</time>
      </trkpt>
      <trkpt lat="44.25469" lon="6.0514">
        <ele>1061</ele>
        <time>2020-06-11T11:39:47Z</time>
      </trkpt>
      <trkpt lat="44.25476" lon="6.05142">
        <ele>1062</ele>
        <time>2020-06-11T11:39:51Z</time>
      </trkpt>
      <trkpt lat="44.25484" lon="6.05146">
        <ele>1063</ele>
        <time>2020-06-11T11:39:56Z</time>
      </trkpt>
      <trkpt lat="44.25485" lon="6.05147">
        <ele>1063</ele>
        <time>2020-06-11T11:39:57Z</time>
      </trkpt>
      <trkpt lat="44.25492" lon="6.05153">
        <ele>1064</ele>
        <time>2020-06-11T11:40:02Z</time>
      </trkpt>
      <trkpt lat="44.25494" lon="6.05157">
        <ele>1065</ele>
        <time>2020-06-11T11:40:04Z</time>
      </trkpt>
      <trkpt lat="44.25492" lon="6.05162">
        <ele>1065</ele>
        <time>2020-06-11T11:40:07Z</time>
      </trkpt>
      <trkpt lat="44.2549" lon="6.05163">
        <ele>1066</ele>
        <time>2020-06-11T11:40:09Z</time>
      </trkpt>
      <trkpt lat="44.25485" lon="6.05163">
        <ele>1067</ele>
        <time>2020-06-11T11:40:12Z</time>
      </trkpt>
      <trkpt lat="44.2548" lon="6.05163">
        <ele>1067</ele>
        <time>2020-06-11T11:40:16Z</time>
      </trkpt>
      <trkpt lat="44.25478" lon="6.05164">
        <ele>1068</ele>
        <time>2020-06-11T11:40:17Z</time>
      </trkpt>
      <trkpt lat="44.25474" lon="6.05165">
        <ele>1069</ele>
        <time>2020-06-11T11:40:21Z</time>
      </trkpt>
      <trkpt lat="44.2547" lon="6.05167">
        <ele>1070</ele>
        <time>2020-06-11T11:40:24Z</time>
      </trkpt>
      <trkpt lat="44.25469" lon="6.05168">
        <ele>1070</ele>
        <time>2020-06-11T11:40:25Z</time>
      </trkpt>
      <trkpt lat="44.25463" lon="6.05171">
        <ele>1071</ele>
        <time>2020-06-11T11:40:30Z</time>
      </trkpt>
      <trkpt lat="44.25459" lon="6.05174">
        <ele>1072</ele>
        <time>2020-06-11T11:40:33Z</time>
      </trkpt>
      <trkpt lat="44.25458" lon="6.05176">
        <ele>1072</ele>
        <time>2020-06-11T11:40:34Z</time>
      </trkpt>
      <trkpt lat="44.25455" lon="6.05182">
        <ele>1073</ele>
        <time>2020-06-11T11:40:37Z</time>
      </trkpt>
      <trkpt lat="44.25456" lon="6.05185">
        <ele>1073</ele>
        <time>2020-06-11T11:40:38Z</time>
      </trkpt>
      <trkpt lat="44.25456" lon="6.05187">
        <ele>1073</ele>
        <time>2020-06-11T11:40:39Z</time>
      </trkpt>
      <trkpt lat="44.25463" lon="6.05192">
        <ele>1074</ele>
        <time>2020-06-11T11:40:43Z</time>
      </trkpt>
      <trkpt lat="44.25472" lon="6.05193">
        <ele>1074</ele>
        <time>2020-06-11T11:40:47Z</time>
      </trkpt>
      <trkpt lat="44.25479" lon="6.05196">
        <ele>1075</ele>
        <time>2020-06-11T11:40:50Z</time>
      </trkpt>
      <trkpt lat="44.25485" lon="6.05202">
        <ele>1075</ele>
        <time>2020-06-11T11:40:53Z</time>
      </trkpt>
      <trkpt lat="44.25492" lon="6.05214">
        <ele>1076</ele>
        <time>2020-06-11T11:40:57Z</time>
      </trkpt>
      <trkpt lat="44.25498" lon="6.05229">
        <ele>1076</ele>
        <time>2020-06-11T11:41:02Z</time>
      </trkpt>
      <trkpt lat="44.25504" lon="6.05239">
        <ele>1077</ele>
        <time>2020-06-11T11:41:06Z</time>
      </trkpt>
      <trkpt lat="44.25508" lon="6.05246">
        <ele>1078</ele>
        <time>2020-06-11T11:41:09Z</time>
      </trkpt>
      <trkpt lat="44.25517" lon="6.05259">
        <ele>1079</ele>
        <time>2020-06-11T11:41:15Z</time>
      </trkpt>
      <trkpt lat="44.25518" lon="6.05261">
        <ele>1079</ele>
        <time>2020-06-11T11:41:16Z</time>
      </trkpt>
      <trkpt lat="44.25527" lon="6.05272">
        <ele>1080</ele>
        <time>2020-06-11T11:41:22Z</time>
      </trkpt>
      <trkpt lat="44.25528" lon="6.05274">
        <ele>1080</ele>
        <time>2020-06-11T11:41:23Z</time>
      </trkpt>
      <trkpt lat="44.25535" lon="6.05281">
        <ele>1081</ele>
        <time>2020-06-11T11:41:27Z</time>
      </trkpt>
      <trkpt lat="44.2554" lon="6.05285">
        <ele>1082</ele>
        <time>2020-06-11T11:41:30Z</time>
      </trkpt>
      <trkpt lat="44.25542" lon="6.05286">
        <ele>1082</ele>
        <time>2020-06-11T11:41:31Z</time>
      </trkpt>
      <trkpt lat="44.2555" lon="6.05289">
        <ele>1083</ele>
        <time>2020-06-11T11:41:35Z</time>
      </trkpt>
      <trkpt lat="44.25557" lon="6.05292">
        <ele>1084</ele>
        <time>2020-06-11T11:41:38Z</time>
      </trkpt>
      <trkpt lat="44.25568" lon="6.05299">
        <ele>1084</ele>
        <time>2020-06-11T11:41:43Z</time>
      </trkpt>
      <trkpt lat="44.25571" lon="6.05301">
        <ele>1085</ele>
        <time>2020-06-11T11:41:45Z</time>
      </trkpt>
      <trkpt lat="44.25581" lon="6.05302">
        <ele>1085</ele>
        <time>2020-06-11T11:41:51Z</time>
      </trkpt>
      <trkpt lat="44.25586" lon="6.05302">
        <ele>1086</ele>
        <time>2020-06-11T11:41:54Z</time>
      </trkpt>
      <trkpt lat="44.25592" lon="6.05302">
        <ele>1086</ele>
        <time>2020-06-11T11:41:57Z</time>
      </trkpt>
      <trkpt lat="44.25599" lon="6.053">
        <ele>1087</ele>
        <time>2020-06-11T11:42:00Z</time>
      </trkpt>
      <trkpt lat="44.25606" lon="6.053">
        <ele>1087</ele>
        <time>2020-06-11T11:42:03Z</time>
      </trkpt>
      <trkpt lat="44.2561" lon="6.05299">
        <ele>1088</ele>
        <time>2020-06-11T11:42:05Z</time>
      </trkpt>
      <trkpt lat="44.25616" lon="6.05296">
        <ele>1089</ele>
        <time>2020-06-11T11:42:08Z</time>
      </trkpt>
      <trkpt lat="44.2562" lon="6.05295">
        <ele>1089</ele>
        <time>2020-06-11T11:42:10Z</time>
      </trkpt>
      <trkpt lat="44.25622" lon="6.05295">
        <ele>1089</ele>
        <time>2020-06-11T11:42:11Z</time>
      </trkpt>
      <trkpt lat="44.25625" lon="6.05298">
        <ele>1089</ele>
        <time>2020-06-11T11:42:13Z</time>
      </trkpt>
      <trkpt lat="44.25625" lon="6.053">
        <ele>1089</ele>
        <time>2020-06-11T11:42:14Z</time>
      </trkpt>
      <trkpt lat="44.25625" lon="6.05302">
        <ele>1090</ele>
        <time>2020-06-11T11:42:15Z</time>
      </trkpt>
      <trkpt lat="44.25622" lon="6.05305">
        <ele>1090</ele>
        <time>2020-06-11T11:42:17Z</time>
      </trkpt>
      <trkpt lat="44.2562" lon="6.05306">
        <ele>1091</ele>
        <time>2020-06-11T11:42:18Z</time>
      </trkpt>
      <trkpt lat="44.25618" lon="6.05307">
        <ele>1091</ele>
        <time>2020-06-11T11:42:19Z</time>
      </trkpt>
      <trkpt lat="44.25615" lon="6.05309">
        <ele>1092</ele>
        <time>2020-06-11T11:42:21Z</time>
      </trkpt>
      <trkpt lat="44.25608" lon="6.05313">
        <ele>1093</ele>
        <time>2020-06-11T11:42:25Z</time>
      </trkpt>
      <trkpt lat="44.25594" lon="6.05321">
        <ele>1094</ele>
        <time>2020-06-11T11:42:33Z</time>
      </trkpt>
      <trkpt lat="44.25592" lon="6.05322">
        <ele>1095</ele>
        <time>2020-06-11T11:42:34Z</time>
      </trkpt>
      <trkpt lat="44.25589" lon="6.05325">
        <ele>1096</ele>
        <time>2020-06-11T11:42:36Z</time>
      </trkpt>
      <trkpt lat="44.25581" lon="6.0533">
        <ele>1097</ele>
        <time>2020-06-11T11:42:41Z</time>
      </trkpt>
      <trkpt lat="44.25579" lon="6.05331">
        <ele>1097</ele>
        <time>2020-06-11T11:42:42Z</time>
      </trkpt>
      <trkpt lat="44.25575" lon="6.05333">
        <ele>1098</ele>
        <time>2020-06-11T11:42:45Z</time>
      </trkpt>
      <trkpt lat="44.25569" lon="6.05337">
        <ele>1099</ele>
        <time>2020-06-11T11:42:50Z</time>
      </trkpt>
      <trkpt lat="44.25567" lon="6.05337">
        <ele>1099</ele>
        <time>2020-06-11T11:42:51Z</time>
      </trkpt>
      <trkpt lat="44.25556" lon="6.05338">
        <ele>1101</ele>
        <time>2020-06-11T11:42:57Z</time>
      </trkpt>
      <trkpt lat="44.25555" lon="6.05339">
        <ele>1101</ele>
        <time>2020-06-11T11:42:58Z</time>
      </trkpt>
      <trkpt lat="44.25548" lon="6.05343">
        <ele>1102</ele>
        <time>2020-06-11T11:43:02Z</time>
      </trkpt>
      <trkpt lat="44.25541" lon="6.05346">
        <ele>1103</ele>
        <time>2020-06-11T11:43:05Z</time>
      </trkpt>
      <trkpt lat="44.2554" lon="6.05347">
        <ele>1103</ele>
        <time>2020-06-11T11:43:06Z</time>
      </trkpt>
      <trkpt lat="44.25534" lon="6.05352">
        <ele>1104</ele>
        <time>2020-06-11T11:43:10Z</time>
      </trkpt>
      <trkpt lat="44.25532" lon="6.05354">
        <ele>1104</ele>
        <time>2020-06-11T11:43:11Z</time>
      </trkpt>
      <trkpt lat="44.25526" lon="6.05357">
        <ele>1105</ele>
        <time>2020-06-11T11:43:14Z</time>
      </trkpt>
      <trkpt lat="44.25516" lon="6.05361">
        <ele>1106</ele>
        <time>2020-06-11T11:43:19Z</time>
      </trkpt>
      <trkpt lat="44.25515" lon="6.05361">
        <ele>1106</ele>
        <time>2020-06-11T11:43:20Z</time>
      </trkpt>
      <trkpt lat="44.25509" lon="6.05362">
        <ele>1107</ele>
        <time>2020-06-11T11:43:23Z</time>
      </trkpt>
      <trkpt lat="44.25504" lon="6.05362">
        <ele>1109</ele>
        <time>2020-06-11T11:43:26Z</time>
      </trkpt>
      <trkpt lat="44.25502" lon="6.05362">
        <ele>1109</ele>
        <time>2020-06-11T11:43:27Z</time>
      </trkpt>
      <trkpt lat="44.25495" lon="6.05364">
        <ele>1110</ele>
        <time>2020-06-11T11:43:31Z</time>
      </trkpt>
      <trkpt lat="44.2549" lon="6.05366">
        <ele>1110</ele>
        <time>2020-06-11T11:43:34Z</time>
      </trkpt>
      <trkpt lat="44.25484" lon="6.05368">
        <ele>1111</ele>
        <time>2020-06-11T11:43:37Z</time>
      </trkpt>
      <trkpt lat="44.25476" lon="6.05372">
        <ele>1112</ele>
        <time>2020-06-11T11:43:42Z</time>
      </trkpt>
      <trkpt lat="44.25471" lon="6.05373">
        <ele>1113</ele>
        <time>2020-06-11T11:43:45Z</time>
      </trkpt>
      <trkpt lat="44.25466" lon="6.05374">
        <ele>1114</ele>
        <time>2020-06-11T11:43:48Z</time>
      </trkpt>
      <trkpt lat="44.25464" lon="6.05374">
        <ele>1115</ele>
        <time>2020-06-11T11:43:49Z</time>
      </trkpt>
      <trkpt lat="44.25458" lon="6.05374">
        <ele>1115</ele>
        <time>2020-06-11T11:43:53Z</time>
      </trkpt>
      <trkpt lat="44.25454" lon="6.05374">
        <ele>1117</ele>
        <time>2020-06-11T11:43:56Z</time>
      </trkpt>
      <trkpt lat="44.25447" lon="6.05374">
        <ele>1118</ele>
        <time>2020-06-11T11:44:00Z</time>
      </trkpt>
      <trkpt lat="44.25444" lon="6.05374">
        <ele>1118</ele>
        <time>2020-06-11T11:44:02Z</time>
      </trkpt>
      <trkpt lat="44.25441" lon="6.05374">
        <ele>1119</ele>
        <time>2020-06-11T11:44:04Z</time>
      </trkpt>
      <trkpt lat="44.25436" lon="6.05374">
        <ele>1120</ele>
        <time>2020-06-11T11:44:07Z</time>
      </trkpt>
      <trkpt lat="44.2543" lon="6.05374">
        <ele>1121</ele>
        <time>2020-06-11T11:44:11Z</time>
      </trkpt>
      <trkpt lat="44.25423" lon="6.05375">
        <ele>1122</ele>
        <time>2020-06-11T11:44:15Z</time>
      </trkpt>
      <trkpt lat="44.25416" lon="6.05379">
        <ele>1123</ele>
        <time>2020-06-11T11:44:20Z</time>
      </trkpt>
      <trkpt lat="44.25414" lon="6.05379">
        <ele>1123</ele>
        <time>2020-06-11T11:44:21Z</time>
      </trkpt>
      <trkpt lat="44.25409" lon="6.05383">
        <ele>1124</ele>
        <time>2020-06-11T11:44:25Z</time>
      </trkpt>
      <trkpt lat="44.25405" lon="6.05387">
        <ele>1125</ele>
        <time>2020-06-11T11:44:28Z</time>
      </trkpt>
      <trkpt lat="44.25403" lon="6.0539">
        <ele>1126</ele>
        <time>2020-06-11T11:44:30Z</time>
      </trkpt>
      <trkpt lat="44.25401" lon="6.05394">
        <ele>1126</ele>
        <time>2020-06-11T11:44:32Z</time>
      </trkpt>
      <trkpt lat="44.25398" lon="6.05399">
        <ele>1127</ele>
        <time>2020-06-11T11:44:35Z</time>
      </trkpt>
      <trkpt lat="44.25397" lon="6.05401">
        <ele>1128</ele>
        <time>2020-06-11T11:44:36Z</time>
      </trkpt>
      <trkpt lat="44.25396" lon="6.05405">
        <ele>1128</ele>
        <time>2020-06-11T11:44:38Z</time>
      </trkpt>
      <trkpt lat="44.2539" lon="6.05422">
        <ele>1129</ele>
        <time>2020-06-11T11:44:46Z</time>
      </trkpt>
      <trkpt lat="44.2539" lon="6.05424">
        <ele>1129</ele>
        <time>2020-06-11T11:44:47Z</time>
      </trkpt>
      <trkpt lat="44.2539" lon="6.05431">
        <ele>1130</ele>
        <time>2020-06-11T11:44:50Z</time>
      </trkpt>
      <trkpt lat="44.2539" lon="6.05445">
        <ele>1131</ele>
        <time>2020-06-11T11:44:56Z</time>
      </trkpt>
      <trkpt lat="44.25391" lon="6.0545">
        <ele>1132</ele>
        <time>2020-06-11T11:44:58Z</time>
      </trkpt>
      <trkpt lat="44.25391" lon="6.05458">
        <ele>1132</ele>
        <time>2020-06-11T11:45:01Z</time>
      </trkpt>
      <trkpt lat="44.2539" lon="6.05474">
        <ele>1133</ele>
        <time>2020-06-11T11:45:07Z</time>
      </trkpt>
      <trkpt lat="44.2539" lon="6.05477">
        <ele>1134</ele>
        <time>2020-06-11T11:45:08Z</time>
      </trkpt>
      <trkpt lat="44.25389" lon="6.05486">
        <ele>1135</ele>
        <time>2020-06-11T11:45:11Z</time>
      </trkpt>
      <trkpt lat="44.25387" lon="6.05496">
        <ele>1136</ele>
        <time>2020-06-11T11:45:15Z</time>
      </trkpt>
      <trkpt lat="44.25386" lon="6.05499">
        <ele>1136</ele>
        <time>2020-06-11T11:45:16Z</time>
      </trkpt>
      <trkpt lat="44.25384" lon="6.05506">
        <ele>1137</ele>
        <time>2020-06-11T11:45:19Z</time>
      </trkpt>
      <trkpt lat="44.2538" lon="6.05511">
        <ele>1138</ele>
        <time>2020-06-11T11:45:22Z</time>
      </trkpt>
      <trkpt lat="44.25371" lon="6.05515">
        <ele>1140</ele>
        <time>2020-06-11T11:45:29Z</time>
      </trkpt>
      <trkpt lat="44.25366" lon="6.05517">
        <ele>1141</ele>
        <time>2020-06-11T11:45:32Z</time>
      </trkpt>
      <trkpt lat="44.25361" lon="6.05522">
        <ele>1142</ele>
        <time>2020-06-11T11:45:35Z</time>
      </trkpt>
      <trkpt lat="44.25359" lon="6.05524">
        <ele>1142</ele>
        <time>2020-06-11T11:45:36Z</time>
      </trkpt>
      <trkpt lat="44.25352" lon="6.05529">
        <ele>1143</ele>
        <time>2020-06-11T11:45:39Z</time>
      </trkpt>
      <trkpt lat="44.25345" lon="6.05534">
        <ele>1144</ele>
        <time>2020-06-11T11:45:42Z</time>
      </trkpt>
      <trkpt lat="44.25335" lon="6.05538">
        <ele>1144</ele>
        <time>2020-06-11T11:45:46Z</time>
      </trkpt>
      <trkpt lat="44.2533" lon="6.05535">
        <ele>1144</ele>
        <time>2020-06-11T11:45:48Z</time>
      </trkpt>
      <trkpt lat="44.25329" lon="6.05533">
        <ele>1144</ele>
        <time>2020-06-11T11:45:49Z</time>
      </trkpt>
      <trkpt lat="44.25327" lon="6.05524">
        <ele>1145</ele>
        <time>2020-06-11T11:45:52Z</time>
      </trkpt>
      <trkpt lat="44.25327" lon="6.05504">
        <ele>1145</ele>
        <time>2020-06-11T11:45:57Z</time>
      </trkpt>
      <trkpt lat="44.2533" lon="6.05487">
        <ele>1145</ele>
        <time>2020-06-11T11:46:01Z</time>
      </trkpt>
      <trkpt lat="44.2533" lon="6.05484">
        <ele>1145</ele>
        <time>2020-06-11T11:46:02Z</time>
      </trkpt>
      <trkpt lat="44.25328" lon="6.05458">
        <ele>1145</ele>
        <time>2020-06-11T11:46:09Z</time>
      </trkpt>
      <trkpt lat="44.25327" lon="6.05452">
        <ele>1145</ele>
        <time>2020-06-11T11:46:11Z</time>
      </trkpt>
      <trkpt lat="44.25323" lon="6.05437">
        <ele>1146</ele>
        <time>2020-06-11T11:46:16Z</time>
      </trkpt>
      <trkpt lat="44.25322" lon="6.05434">
        <ele>1147</ele>
        <time>2020-06-11T11:46:17Z</time>
      </trkpt>
      <trkpt lat="44.2532" lon="6.05431">
        <ele>1147</ele>
        <time>2020-06-11T11:46:18Z</time>
      </trkpt>
      <trkpt lat="44.25316" lon="6.05419">
        <ele>1149</ele>
        <time>2020-06-11T11:46:22Z</time>
      </trkpt>
      <trkpt lat="44.25312" lon="6.05412">
        <ele>1149</ele>
        <time>2020-06-11T11:46:25Z</time>
      </trkpt>
      <trkpt lat="44.2531" lon="6.05406">
        <ele>1150</ele>
        <time>2020-06-11T11:46:27Z</time>
      </trkpt>
      <trkpt lat="44.25303" lon="6.05395">
        <ele>1150</ele>
        <time>2020-06-11T11:46:32Z</time>
      </trkpt>
      <trkpt lat="44.25299" lon="6.05387">
        <ele>1151</ele>
        <time>2020-06-11T11:46:35Z</time>
      </trkpt>
      <trkpt lat="44.25295" lon="6.05379">
        <ele>1151</ele>
        <time>2020-06-11T11:46:38Z</time>
      </trkpt>
      <trkpt lat="44.25292" lon="6.05373">
        <ele>1152</ele>
        <time>2020-06-11T11:46:40Z</time>
      </trkpt>
      <trkpt lat="44.25285" lon="6.05361">
        <ele>1153</ele>
        <time>2020-06-11T11:46:44Z</time>
      </trkpt>
      <trkpt lat="44.25283" lon="6.05359">
        <ele>1154</ele>
        <time>2020-06-11T11:46:45Z</time>
      </trkpt>
      <trkpt lat="44.25281" lon="6.05354">
        <ele>1154</ele>
        <time>2020-06-11T11:46:47Z</time>
      </trkpt>
      <trkpt lat="44.25274" lon="6.0534">
        <ele>1155</ele>
        <time>2020-06-11T11:46:52Z</time>
      </trkpt>
      <trkpt lat="44.25266" lon="6.05328">
        <ele>1156</ele>
        <time>2020-06-11T11:46:57Z</time>
      </trkpt>
      <trkpt lat="44.25263" lon="6.05323">
        <ele>1157</ele>
        <time>2020-06-11T11:46:59Z</time>
      </trkpt>
      <trkpt lat="44.25259" lon="6.05315">
        <ele>1157</ele>
        <time>2020-06-11T11:47:02Z</time>
      </trkpt>
      <trkpt lat="44.25252" lon="6.05306">
        <ele>1158</ele>
        <time>2020-06-11T11:47:06Z</time>
      </trkpt>
      <trkpt lat="44.25251" lon="6.05304">
        <ele>1159</ele>
        <time>2020-06-11T11:47:07Z</time>
      </trkpt>
      <trkpt lat="44.25247" lon="6.05297">
        <ele>1160</ele>
        <time>2020-06-11T11:47:10Z</time>
      </trkpt>
      <trkpt lat="44.25244" lon="6.05291">
        <ele>1160</ele>
        <time>2020-06-11T11:47:12Z</time>
      </trkpt>
      <trkpt lat="44.2524" lon="6.05281">
        <ele>1161</ele>
        <time>2020-06-11T11:47:16Z</time>
      </trkpt>
      <trkpt lat="44.25236" lon="6.05272">
        <ele>1162</ele>
        <time>2020-06-11T11:47:19Z</time>
      </trkpt>
      <trkpt lat="44.25234" lon="6.0527">
        <ele>1162</ele>
        <time>2020-06-11T11:47:20Z</time>
      </trkpt>
      <trkpt lat="44.25226" lon="6.05263">
        <ele>1163</ele>
        <time>2020-06-11T11:47:24Z</time>
      </trkpt>
      <trkpt lat="44.25223" lon="6.05262">
        <ele>1164</ele>
        <time>2020-06-11T11:47:25Z</time>
      </trkpt>
      <trkpt lat="44.25213" lon="6.05249">
        <ele>1164</ele>
        <time>2020-06-11T11:47:31Z</time>
      </trkpt>
      <trkpt lat="44.25205" lon="6.05239">
        <ele>1165</ele>
        <time>2020-06-11T11:47:36Z</time>
      </trkpt>
      <trkpt lat="44.25202" lon="6.05242">
        <ele>1166</ele>
        <time>2020-06-11T11:47:38Z</time>
      </trkpt>
      <trkpt lat="44.25201" lon="6.05246">
        <ele>1166</ele>
        <time>2020-06-11T11:47:39Z</time>
      </trkpt>
      <trkpt lat="44.25201" lon="6.05249">
        <ele>1166</ele>
        <time>2020-06-11T11:47:40Z</time>
      </trkpt>
      <trkpt lat="44.25204" lon="6.05257">
        <ele>1168</ele>
        <time>2020-06-11T11:47:43Z</time>
      </trkpt>
      <trkpt lat="44.25205" lon="6.05259">
        <ele>1168</ele>
        <time>2020-06-11T11:47:44Z</time>
      </trkpt>
      <trkpt lat="44.25209" lon="6.05268">
        <ele>1169</ele>
        <time>2020-06-11T11:47:48Z</time>
      </trkpt>
      <trkpt lat="44.25214" lon="6.05276">
        <ele>1170</ele>
        <time>2020-06-11T11:47:51Z</time>
      </trkpt>
      <trkpt lat="44.25216" lon="6.05281">
        <ele>1170</ele>
        <time>2020-06-11T11:47:53Z</time>
      </trkpt>
      <trkpt lat="44.25217" lon="6.05293">
        <ele>1171</ele>
        <time>2020-06-11T11:47:57Z</time>
      </trkpt>
      <trkpt lat="44.25217" lon="6.05299">
        <ele>1171</ele>
        <time>2020-06-11T11:47:59Z</time>
      </trkpt>
      <trkpt lat="44.25218" lon="6.05312">
        <ele>1171</ele>
        <time>2020-06-11T11:48:03Z</time>
      </trkpt>
      <trkpt lat="44.25222" lon="6.05326">
        <ele>1172</ele>
        <time>2020-06-11T11:48:07Z</time>
      </trkpt>
      <trkpt lat="44.25222" lon="6.05333">
        <ele>1172</ele>
        <time>2020-06-11T11:48:09Z</time>
      </trkpt>
      <trkpt lat="44.2522" lon="6.05335">
        <ele>1173</ele>
        <time>2020-06-11T11:48:10Z</time>
      </trkpt>
      <trkpt lat="44.25216" lon="6.05334">
        <ele>1173</ele>
        <time>2020-06-11T11:48:12Z</time>
      </trkpt>
      <trkpt lat="44.25213" lon="6.0533">
        <ele>1174</ele>
        <time>2020-06-11T11:48:14Z</time>
      </trkpt>
      <trkpt lat="44.2521" lon="6.05322">
        <ele>1175</ele>
        <time>2020-06-11T11:48:17Z</time>
      </trkpt>
      <trkpt lat="44.25209" lon="6.05314">
        <ele>1175</ele>
        <time>2020-06-11T11:48:20Z</time>
      </trkpt>
      <trkpt lat="44.25208" lon="6.05312">
        <ele>1176</ele>
        <time>2020-06-11T11:48:21Z</time>
      </trkpt>
      <trkpt lat="44.25204" lon="6.05302">
        <ele>1177</ele>
        <time>2020-06-11T11:48:25Z</time>
      </trkpt>
      <trkpt lat="44.25198" lon="6.05292">
        <ele>1178</ele>
        <time>2020-06-11T11:48:29Z</time>
      </trkpt>
      <trkpt lat="44.25194" lon="6.05285">
        <ele>1179</ele>
        <time>2020-06-11T11:48:32Z</time>
      </trkpt>
      <trkpt lat="44.25189" lon="6.05276">
        <ele>1180</ele>
        <time>2020-06-11T11:48:36Z</time>
      </trkpt>
      <trkpt lat="44.25182" lon="6.05264">
        <ele>1182</ele>
        <time>2020-06-11T11:48:42Z</time>
      </trkpt>
      <trkpt lat="44.25181" lon="6.05262">
        <ele>1182</ele>
        <time>2020-06-11T11:48:43Z</time>
      </trkpt>
      <trkpt lat="44.25176" lon="6.05254">
        <ele>1183</ele>
        <time>2020-06-11T11:48:47Z</time>
      </trkpt>
      <trkpt lat="44.25173" lon="6.05248">
        <ele>1184</ele>
        <time>2020-06-11T11:48:50Z</time>
      </trkpt>
      <trkpt lat="44.25171" lon="6.05244">
        <ele>1184</ele>
        <time>2020-06-11T11:48:52Z</time>
      </trkpt>
      <trkpt lat="44.25169" lon="6.0524">
        <ele>1185</ele>
        <time>2020-06-11T11:48:54Z</time>
      </trkpt>
      <trkpt lat="44.25166" lon="6.05231">
        <ele>1186</ele>
        <time>2020-06-11T11:48:58Z</time>
      </trkpt>
      <trkpt lat="44.25163" lon="6.05224">
        <ele>1187</ele>
        <time>2020-06-11T11:49:01Z</time>
      </trkpt>
      <trkpt lat="44.25162" lon="6.05217">
        <ele>1188</ele>
        <time>2020-06-11T11:49:04Z</time>
      </trkpt>
      <trkpt lat="44.25159" lon="6.0521">
        <ele>1188</ele>
        <time>2020-06-11T11:49:07Z</time>
      </trkpt>
      <trkpt lat="44.25155" lon="6.05204">
        <ele>1190</ele>
        <time>2020-06-11T11:49:11Z</time>
      </trkpt>
      <trkpt lat="44.25154" lon="6.05202">
        <ele>1190</ele>
        <time>2020-06-11T11:49:12Z</time>
      </trkpt>
      <trkpt lat="44.25148" lon="6.05196">
        <ele>1191</ele>
        <time>2020-06-11T11:49:16Z</time>
      </trkpt>
      <trkpt lat="44.25145" lon="6.05193">
        <ele>1192</ele>
        <time>2020-06-11T11:49:18Z</time>
      </trkpt>
      <trkpt lat="44.25141" lon="6.05189">
        <ele>1192</ele>
        <time>2020-06-11T11:49:20Z</time>
      </trkpt>
      <trkpt lat="44.25136" lon="6.05184">
        <ele>1193</ele>
        <time>2020-06-11T11:49:23Z</time>
      </trkpt>
      <trkpt lat="44.25128" lon="6.05181">
        <ele>1194</ele>
        <time>2020-06-11T11:49:27Z</time>
      </trkpt>
      <trkpt lat="44.25126" lon="6.05181">
        <ele>1194</ele>
        <time>2020-06-11T11:49:28Z</time>
      </trkpt>
      <trkpt lat="44.25117" lon="6.0518">
        <ele>1195</ele>
        <time>2020-06-11T11:49:32Z</time>
      </trkpt>
      <trkpt lat="44.2511" lon="6.05179">
        <ele>1196</ele>
        <time>2020-06-11T11:49:36Z</time>
      </trkpt>
      <trkpt lat="44.25108" lon="6.05179">
        <ele>1196</ele>
        <time>2020-06-11T11:49:37Z</time>
      </trkpt>
      <trkpt lat="44.25101" lon="6.05176">
        <ele>1198</ele>
        <time>2020-06-11T11:49:41Z</time>
      </trkpt>
      <trkpt lat="44.25093" lon="6.05175">
        <ele>1199</ele>
        <time>2020-06-11T11:49:45Z</time>
      </trkpt>
      <trkpt lat="44.25087" lon="6.05173">
        <ele>1200</ele>
        <time>2020-06-11T11:49:48Z</time>
      </trkpt>
      <trkpt lat="44.25086" lon="6.05173">
        <ele>1200</ele>
        <time>2020-06-11T11:49:49Z</time>
      </trkpt>
      <trkpt lat="44.2508" lon="6.05172">
        <ele>1201</ele>
        <time>2020-06-11T11:49:52Z</time>
      </trkpt>
      <trkpt lat="44.25077" lon="6.0517">
        <ele>1201</ele>
        <time>2020-06-11T11:49:54Z</time>
      </trkpt>
      <trkpt lat="44.25075" lon="6.0517">
        <ele>1201</ele>
        <time>2020-06-11T11:49:55Z</time>
      </trkpt>
      <trkpt lat="44.25069" lon="6.05169">
        <ele>1202</ele>
        <time>2020-06-11T11:49:58Z</time>
      </trkpt>
      <trkpt lat="44.25065" lon="6.0517">
        <ele>1203</ele>
        <time>2020-06-11T11:50:00Z</time>
      </trkpt>
      <trkpt lat="44.25061" lon="6.0517">
        <ele>1203</ele>
        <time>2020-06-11T11:50:02Z</time>
      </trkpt>
      <trkpt lat="44.25054" lon="6.0517">
        <ele>1204</ele>
        <time>2020-06-11T11:50:06Z</time>
      </trkpt>
      <trkpt lat="44.2505" lon="6.0517">
        <ele>1205</ele>
        <time>2020-06-11T11:50:08Z</time>
      </trkpt>
      <trkpt lat="44.2504" lon="6.0517">
        <ele>1205</ele>
        <time>2020-06-11T11:50:13Z</time>
      </trkpt>
      <trkpt lat="44.25035" lon="6.05171">
        <ele>1206</ele>
        <time>2020-06-11T11:50:16Z</time>
      </trkpt>
      <trkpt lat="44.25029" lon="6.0517">
        <ele>1207</ele>
        <time>2020-06-11T11:50:19Z</time>
      </trkpt>
      <trkpt lat="44.25027" lon="6.0517">
        <ele>1208</ele>
        <time>2020-06-11T11:50:20Z</time>
      </trkpt>
      <trkpt lat="44.25022" lon="6.05168">
        <ele>1209</ele>
        <time>2020-06-11T11:50:23Z</time>
      </trkpt>
      <trkpt lat="44.25016" lon="6.05168">
        <ele>1210</ele>
        <time>2020-06-11T11:50:26Z</time>
      </trkpt>
      <trkpt lat="44.25015" lon="6.05168">
        <ele>1210</ele>
        <time>2020-06-11T11:50:27Z</time>
      </trkpt>
      <trkpt lat="44.2501" lon="6.05168">
        <ele>1211</ele>
        <time>2020-06-11T11:50:30Z</time>
      </trkpt>
      <trkpt lat="44.25003" lon="6.05167">
        <ele>1212</ele>
        <time>2020-06-11T11:50:34Z</time>
      </trkpt>
      <trkpt lat="44.24999" lon="6.05166">
        <ele>1213</ele>
        <time>2020-06-11T11:50:36Z</time>
      </trkpt>
      <trkpt lat="44.24993" lon="6.05165">
        <ele>1213</ele>
        <time>2020-06-11T11:50:39Z</time>
      </trkpt>
      <trkpt lat="44.24985" lon="6.05161">
        <ele>1214</ele>
        <time>2020-06-11T11:50:44Z</time>
      </trkpt>
      <trkpt lat="44.24983" lon="6.0516">
        <ele>1215</ele>
        <time>2020-06-11T11:50:45Z</time>
      </trkpt>
      <trkpt lat="44.2498" lon="6.05157">
        <ele>1215</ele>
        <time>2020-06-11T11:50:47Z</time>
      </trkpt>
      <trkpt lat="44.24976" lon="6.0515">
        <ele>1217</ele>
        <time>2020-06-11T11:50:50Z</time>
      </trkpt>
      <trkpt lat="44.24974" lon="6.05145">
        <ele>1217</ele>
        <time>2020-06-11T11:50:52Z</time>
      </trkpt>
      <trkpt lat="44.24972" lon="6.05139">
        <ele>1218</ele>
        <time>2020-06-11T11:50:54Z</time>
      </trkpt>
      <trkpt lat="44.24971" lon="6.05127">
        <ele>1219</ele>
        <time>2020-06-11T11:50:59Z</time>
      </trkpt>
      <trkpt lat="44.24971" lon="6.05125">
        <ele>1219</ele>
        <time>2020-06-11T11:51:00Z</time>
      </trkpt>
      <trkpt lat="44.24969" lon="6.05116">
        <ele>1220</ele>
        <time>2020-06-11T11:51:04Z</time>
      </trkpt>
      <trkpt lat="44.24966" lon="6.05109">
        <ele>1220</ele>
        <time>2020-06-11T11:51:07Z</time>
      </trkpt>
      <trkpt lat="44.24962" lon="6.05105">
        <ele>1221</ele>
        <time>2020-06-11T11:51:10Z</time>
      </trkpt>
      <trkpt lat="44.24955" lon="6.05099">
        <ele>1222</ele>
        <time>2020-06-11T11:51:14Z</time>
      </trkpt>
      <trkpt lat="44.24946" lon="6.05093">
        <ele>1223</ele>
        <time>2020-06-11T11:51:19Z</time>
      </trkpt>
      <trkpt lat="44.24943" lon="6.05092">
        <ele>1223</ele>
        <time>2020-06-11T11:51:21Z</time>
      </trkpt>
      <trkpt lat="44.24936" lon="6.05088">
        <ele>1224</ele>
        <time>2020-06-11T11:51:25Z</time>
      </trkpt>
      <trkpt lat="44.24926" lon="6.05085">
        <ele>1226</ele>
        <time>2020-06-11T11:51:29Z</time>
      </trkpt>
      <trkpt lat="44.24908" lon="6.05086">
        <ele>1227</ele>
        <time>2020-06-11T11:51:36Z</time>
      </trkpt>
      <trkpt lat="44.24903" lon="6.05088">
        <ele>1227</ele>
        <time>2020-06-11T11:51:38Z</time>
      </trkpt>
      <trkpt lat="44.24896" lon="6.05091">
        <ele>1228</ele>
        <time>2020-06-11T11:51:41Z</time>
      </trkpt>
      <trkpt lat="44.2489" lon="6.05096">
        <ele>1228</ele>
        <time>2020-06-11T11:51:45Z</time>
      </trkpt>
      <trkpt lat="44.24883" lon="6.05105">
        <ele>1229</ele>
        <time>2020-06-11T11:51:51Z</time>
      </trkpt>
      <trkpt lat="44.24883" lon="6.05106">
        <ele>1229</ele>
        <time>2020-06-11T11:51:52Z</time>
      </trkpt>
      <trkpt lat="44.24882" lon="6.05109">
        <ele>1228</ele>
        <time>2020-06-11T11:51:58Z</time>
      </trkpt>
      <trkpt lat="44.24882" lon="6.05109">
        <ele>1228</ele>
        <time>2020-06-11T11:51:59Z</time>
      </trkpt>
      <trkpt lat="44.24882" lon="6.05109">
        <ele>1228</ele>
        <time>2020-06-11T11:52:13Z</time>
      </trkpt>
      <trkpt lat="44.24882" lon="6.05111">
        <ele>1227</ele>
        <time>2020-06-11T11:52:28Z</time>
      </trkpt>
      <trkpt lat="44.24881" lon="6.05122">
        <ele>1227</ele>
        <time>2020-06-11T11:52:32Z</time>
      </trkpt>
      <trkpt lat="44.24881" lon="6.05126">
        <ele>1227</ele>
        <time>2020-06-11T11:52:33Z</time>
      </trkpt>
      <trkpt lat="44.24881" lon="6.05141">
        <ele>1227</ele>
        <time>2020-06-11T11:52:36Z</time>
      </trkpt>
      <trkpt lat="44.24882" lon="6.05154">
        <ele>1227</ele>
        <time>2020-06-11T11:52:38Z</time>
      </trkpt>
      <trkpt lat="44.24892" lon="6.05196">
        <ele>1227</ele>
        <time>2020-06-11T11:52:45Z</time>
      </trkpt>
      <trkpt lat="44.24895" lon="6.05208">
        <ele>1227</ele>
        <time>2020-06-11T11:52:47Z</time>
      </trkpt>
      <trkpt lat="44.24895" lon="6.05224">
        <ele>1228</ele>
        <time>2020-06-11T11:52:50Z</time>
      </trkpt>
      <trkpt lat="44.24892" lon="6.05233">
        <ele>1228</ele>
        <time>2020-06-11T11:52:52Z</time>
      </trkpt>
      <trkpt lat="44.24891" lon="6.05241">
        <ele>1229</ele>
        <time>2020-06-11T11:52:54Z</time>
      </trkpt>
      <trkpt lat="44.24891" lon="6.05245">
        <ele>1230</ele>
        <time>2020-06-11T11:52:55Z</time>
      </trkpt>
      <trkpt lat="44.24891" lon="6.0525">
        <ele>1230</ele>
        <time>2020-06-11T11:52:56Z</time>
      </trkpt>
      <trkpt lat="44.24894" lon="6.05267">
        <ele>1232</ele>
        <time>2020-06-11T11:53:01Z</time>
      </trkpt>
      <trkpt lat="44.24897" lon="6.05295">
        <ele>1231</ele>
        <time>2020-06-11T11:53:08Z</time>
      </trkpt>
      <trkpt lat="44.24896" lon="6.05309">
        <ele>1230</ele>
        <time>2020-06-11T11:53:10Z</time>
      </trkpt>
      <trkpt lat="44.24894" lon="6.05317">
        <ele>1229</ele>
        <time>2020-06-11T11:53:11Z</time>
      </trkpt>
      <trkpt lat="44.24893" lon="6.05325">
        <ele>1227</ele>
        <time>2020-06-11T11:53:12Z</time>
      </trkpt>
      <trkpt lat="44.24889" lon="6.05342">
        <ele>1226</ele>
        <time>2020-06-11T11:53:14Z</time>
      </trkpt>
      <trkpt lat="44.24885" lon="6.05361">
        <ele>1224</ele>
        <time>2020-06-11T11:53:16Z</time>
      </trkpt>
      <trkpt lat="44.24882" lon="6.05371">
        <ele>1223</ele>
        <time>2020-06-11T11:53:17Z</time>
      </trkpt>
      <trkpt lat="44.24879" lon="6.05381">
        <ele>1223</ele>
        <time>2020-06-11T11:53:18Z</time>
      </trkpt>
      <trkpt lat="44.24876" lon="6.05392">
        <ele>1221</ele>
        <time>2020-06-11T11:53:19Z</time>
      </trkpt>
      <trkpt lat="44.24873" lon="6.05402">
        <ele>1220</ele>
        <time>2020-06-11T11:53:20Z</time>
      </trkpt>
      <trkpt lat="44.24869" lon="6.05412">
        <ele>1219</ele>
        <time>2020-06-11T11:53:21Z</time>
      </trkpt>
      <trkpt lat="44.24867" lon="6.05423">
        <ele>1218</ele>
        <time>2020-06-11T11:53:22Z</time>
      </trkpt>
      <trkpt lat="44.24866" lon="6.05435">
        <ele>1217</ele>
        <time>2020-06-11T11:53:23Z</time>
      </trkpt>
      <trkpt lat="44.24862" lon="6.0546">
        <ele>1216</ele>
        <time>2020-06-11T11:53:25Z</time>
      </trkpt>
      <trkpt lat="44.24858" lon="6.05484">
        <ele>1214</ele>
        <time>2020-06-11T11:53:27Z</time>
      </trkpt>
      <trkpt lat="44.24855" lon="6.05498">
        <ele>1213</ele>
        <time>2020-06-11T11:53:29Z</time>
      </trkpt>
      <trkpt lat="44.24852" lon="6.05501">
        <ele>1211</ele>
        <time>2020-06-11T11:53:30Z</time>
      </trkpt>
      <trkpt lat="44.24848" lon="6.05501">
        <ele>1209</ele>
        <time>2020-06-11T11:53:31Z</time>
      </trkpt>
      <trkpt lat="44.24846" lon="6.05497">
        <ele>1207</ele>
        <time>2020-06-11T11:53:32Z</time>
      </trkpt>
      <trkpt lat="44.24845" lon="6.05491">
        <ele>1206</ele>
        <time>2020-06-11T11:53:33Z</time>
      </trkpt>
      <trkpt lat="44.24846" lon="6.05484">
        <ele>1206</ele>
        <time>2020-06-11T11:53:34Z</time>
      </trkpt>
      <trkpt lat="44.24846" lon="6.05477">
        <ele>1206</ele>
        <time>2020-06-11T11:53:35Z</time>
      </trkpt>
      <trkpt lat="44.24844" lon="6.0545">
        <ele>1205</ele>
        <time>2020-06-11T11:53:38Z</time>
      </trkpt>
      <trkpt lat="44.24843" lon="6.0544">
        <ele>1204</ele>
        <time>2020-06-11T11:53:39Z</time>
      </trkpt>
      <trkpt lat="44.24842" lon="6.0543">
        <ele>1203</ele>
        <time>2020-06-11T11:53:40Z</time>
      </trkpt>
      <trkpt lat="44.2484" lon="6.05409">
        <ele>1202</ele>
        <time>2020-06-11T11:53:42Z</time>
      </trkpt>
      <trkpt lat="44.2484" lon="6.05389">
        <ele>1200</ele>
        <time>2020-06-11T11:53:44Z</time>
      </trkpt>
      <trkpt lat="44.24839" lon="6.05379">
        <ele>1200</ele>
        <time>2020-06-11T11:53:45Z</time>
      </trkpt>
      <trkpt lat="44.24839" lon="6.05368">
        <ele>1199</ele>
        <time>2020-06-11T11:53:46Z</time>
      </trkpt>
      <trkpt lat="44.24839" lon="6.05332">
        <ele>1198</ele>
        <time>2020-06-11T11:53:49Z</time>
      </trkpt>
      <trkpt lat="44.24839" lon="6.05291">
        <ele>1197</ele>
        <time>2020-06-11T11:53:52Z</time>
      </trkpt>
      <trkpt lat="44.24838" lon="6.05266">
        <ele>1195</ele>
        <time>2020-06-11T11:53:54Z</time>
      </trkpt>
      <trkpt lat="44.24837" lon="6.05257">
        <ele>1194</ele>
        <time>2020-06-11T11:53:55Z</time>
      </trkpt>
      <trkpt lat="44.24835" lon="6.05252">
        <ele>1193</ele>
        <time>2020-06-11T11:53:56Z</time>
      </trkpt>
      <trkpt lat="44.24831" lon="6.05251">
        <ele>1192</ele>
        <time>2020-06-11T11:53:57Z</time>
      </trkpt>
      <trkpt lat="44.24828" lon="6.05255">
        <ele>1191</ele>
        <time>2020-06-11T11:53:58Z</time>
      </trkpt>
      <trkpt lat="44.24824" lon="6.05269">
        <ele>1190</ele>
        <time>2020-06-11T11:54:00Z</time>
      </trkpt>
      <trkpt lat="44.24823" lon="6.05278">
        <ele>1189</ele>
        <time>2020-06-11T11:54:01Z</time>
      </trkpt>
      <trkpt lat="44.2482" lon="6.05288">
        <ele>1189</ele>
        <time>2020-06-11T11:54:02Z</time>
      </trkpt>
      <trkpt lat="44.24816" lon="6.05298">
        <ele>1188</ele>
        <time>2020-06-11T11:54:03Z</time>
      </trkpt>
      <trkpt lat="44.24808" lon="6.05321">
        <ele>1187</ele>
        <time>2020-06-11T11:54:05Z</time>
      </trkpt>
      <trkpt lat="44.24803" lon="6.05333">
        <ele>1187</ele>
        <time>2020-06-11T11:54:06Z</time>
      </trkpt>
      <trkpt lat="44.24791" lon="6.05357">
        <ele>1185</ele>
        <time>2020-06-11T11:54:08Z</time>
      </trkpt>
      <trkpt lat="44.24778" lon="6.05381">
        <ele>1184</ele>
        <time>2020-06-11T11:54:10Z</time>
      </trkpt>
      <trkpt lat="44.2477" lon="6.05391">
        <ele>1183</ele>
        <time>2020-06-11T11:54:11Z</time>
      </trkpt>
      <trkpt lat="44.24761" lon="6.05399">
        <ele>1182</ele>
        <time>2020-06-11T11:54:12Z</time>
      </trkpt>
      <trkpt lat="44.24751" lon="6.05403">
        <ele>1180</ele>
        <time>2020-06-11T11:54:13Z</time>
      </trkpt>
      <trkpt lat="44.24741" lon="6.05404">
        <ele>1179</ele>
        <time>2020-06-11T11:54:14Z</time>
      </trkpt>
      <trkpt lat="44.2473" lon="6.05402">
        <ele>1177</ele>
        <time>2020-06-11T11:54:15Z</time>
      </trkpt>
      <trkpt lat="44.24719" lon="6.054">
        <ele>1175</ele>
        <time>2020-06-11T11:54:16Z</time>
      </trkpt>
      <trkpt lat="44.24707" lon="6.05397">
        <ele>1174</ele>
        <time>2020-06-11T11:54:17Z</time>
      </trkpt>
      <trkpt lat="44.24695" lon="6.05392">
        <ele>1173</ele>
        <time>2020-06-11T11:54:18Z</time>
      </trkpt>
      <trkpt lat="44.24683" lon="6.05387">
        <ele>1171</ele>
        <time>2020-06-11T11:54:19Z</time>
      </trkpt>
      <trkpt lat="44.24673" lon="6.05383">
        <ele>1170</ele>
        <time>2020-06-11T11:54:20Z</time>
      </trkpt>
      <trkpt lat="44.24663" lon="6.0538">
        <ele>1168</ele>
        <time>2020-06-11T11:54:21Z</time>
      </trkpt>
      <trkpt lat="44.24654" lon="6.05377">
        <ele>1166</ele>
        <time>2020-06-11T11:54:22Z</time>
      </trkpt>
      <trkpt lat="44.24648" lon="6.05375">
        <ele>1165</ele>
        <time>2020-06-11T11:54:23Z</time>
      </trkpt>
      <trkpt lat="44.24644" lon="6.05372">
        <ele>1163</ele>
        <time>2020-06-11T11:54:24Z</time>
      </trkpt>
      <trkpt lat="44.24642" lon="6.05368">
        <ele>1161</ele>
        <time>2020-06-11T11:54:25Z</time>
      </trkpt>
      <trkpt lat="44.2464" lon="6.05363">
        <ele>1159</ele>
        <time>2020-06-11T11:54:26Z</time>
      </trkpt>
      <trkpt lat="44.24638" lon="6.05358">
        <ele>1157</ele>
        <time>2020-06-11T11:54:27Z</time>
      </trkpt>
      <trkpt lat="44.24634" lon="6.05353">
        <ele>1156</ele>
        <time>2020-06-11T11:54:28Z</time>
      </trkpt>
      <trkpt lat="44.24629" lon="6.0535">
        <ele>1155</ele>
        <time>2020-06-11T11:54:29Z</time>
      </trkpt>
      <trkpt lat="44.24622" lon="6.05347">
        <ele>1155</ele>
        <time>2020-06-11T11:54:30Z</time>
      </trkpt>
      <trkpt lat="44.24605" lon="6.05343">
        <ele>1153</ele>
        <time>2020-06-11T11:54:32Z</time>
      </trkpt>
      <trkpt lat="44.24596" lon="6.05344">
        <ele>1152</ele>
        <time>2020-06-11T11:54:33Z</time>
      </trkpt>
      <trkpt lat="44.24588" lon="6.05348">
        <ele>1151</ele>
        <time>2020-06-11T11:54:34Z</time>
      </trkpt>
      <trkpt lat="44.24582" lon="6.05354">
        <ele>1150</ele>
        <time>2020-06-11T11:54:35Z</time>
      </trkpt>
      <trkpt lat="44.24577" lon="6.05361">
        <ele>1149</ele>
        <time>2020-06-11T11:54:36Z</time>
      </trkpt>
      <trkpt lat="44.24571" lon="6.05365">
        <ele>1147</ele>
        <time>2020-06-11T11:54:37Z</time>
      </trkpt>
      <trkpt lat="44.24565" lon="6.05366">
        <ele>1145</ele>
        <time>2020-06-11T11:54:38Z</time>
      </trkpt>
      <trkpt lat="44.24558" lon="6.05365">
        <ele>1143</ele>
        <time>2020-06-11T11:54:39Z</time>
      </trkpt>
      <trkpt lat="44.24552" lon="6.05363">
        <ele>1141</ele>
        <time>2020-06-11T11:54:40Z</time>
      </trkpt>
      <trkpt lat="44.24546" lon="6.05364">
        <ele>1140</ele>
        <time>2020-06-11T11:54:41Z</time>
      </trkpt>
      <trkpt lat="44.24543" lon="6.05366">
        <ele>1139</ele>
        <time>2020-06-11T11:54:42Z</time>
      </trkpt>
      <trkpt lat="44.2454" lon="6.05368">
        <ele>1137</ele>
        <time>2020-06-11T11:54:43Z</time>
      </trkpt>
      <trkpt lat="44.24539" lon="6.05368">
        <ele>1136</ele>
        <time>2020-06-11T11:54:44Z</time>
      </trkpt>
      <trkpt lat="44.24538" lon="6.05367">
        <ele>1134</ele>
        <time>2020-06-11T11:54:45Z</time>
      </trkpt>
      <trkpt lat="44.24537" lon="6.05367">
        <ele>1133</ele>
        <time>2020-06-11T11:54:46Z</time>
      </trkpt>
      <trkpt lat="44.24535" lon="6.05363">
        <ele>1131</ele>
        <time>2020-06-11T11:54:48Z</time>
      </trkpt>
      <trkpt lat="44.24534" lon="6.05362">
        <ele>1131</ele>
        <time>2020-06-11T11:54:49Z</time>
      </trkpt>
      <trkpt lat="44.24533" lon="6.0536">
        <ele>1130</ele>
        <time>2020-06-11T11:54:50Z</time>
      </trkpt>
      <trkpt lat="44.24533" lon="6.05356">
        <ele>1129</ele>
        <time>2020-06-11T11:54:52Z</time>
      </trkpt>
      <trkpt lat="44.24533" lon="6.05353">
        <ele>1129</ele>
        <time>2020-06-11T11:54:53Z</time>
      </trkpt>
      <trkpt lat="44.24532" lon="6.05348">
        <ele>1129</ele>
        <time>2020-06-11T11:54:56Z</time>
      </trkpt>
      <trkpt lat="44.2453" lon="6.05343">
        <ele>1128</ele>
        <time>2020-06-11T11:54:58Z</time>
      </trkpt>
      <trkpt lat="44.24528" lon="6.0534">
        <ele>1128</ele>
        <time>2020-06-11T11:54:59Z</time>
      </trkpt>
      <trkpt lat="44.24525" lon="6.05337">
        <ele>1127</ele>
        <time>2020-06-11T11:55:00Z</time>
      </trkpt>
      <trkpt lat="44.24522" lon="6.05334">
        <ele>1127</ele>
        <time>2020-06-11T11:55:01Z</time>
      </trkpt>
      <trkpt lat="44.2452" lon="6.05328">
        <ele>1126</ele>
        <time>2020-06-11T11:55:02Z</time>
      </trkpt>
      <trkpt lat="44.2452" lon="6.05321">
        <ele>1126</ele>
        <time>2020-06-11T11:55:03Z</time>
      </trkpt>
      <trkpt lat="44.2452" lon="6.05306">
        <ele>1125</ele>
        <time>2020-06-11T11:55:05Z</time>
      </trkpt>
      <trkpt lat="44.24517" lon="6.0528">
        <ele>1124</ele>
        <time>2020-06-11T11:55:09Z</time>
      </trkpt>
      <trkpt lat="44.24511" lon="6.05262">
        <ele>1124</ele>
        <time>2020-06-11T11:55:12Z</time>
      </trkpt>
      <trkpt lat="44.24509" lon="6.05257">
        <ele>1124</ele>
        <time>2020-06-11T11:55:13Z</time>
      </trkpt>
      <trkpt lat="44.24496" lon="6.05236">
        <ele>1123</ele>
        <time>2020-06-11T11:55:18Z</time>
      </trkpt>
      <trkpt lat="44.24494" lon="6.05235">
        <ele>1123</ele>
        <time>2020-06-11T11:55:19Z</time>
      </trkpt>
      <trkpt lat="44.24493" lon="6.05234">
        <ele>1122</ele>
        <time>2020-06-11T11:55:22Z</time>
      </trkpt>
      <trkpt lat="44.24493" lon="6.05234">
        <ele>1121</ele>
        <time>2020-06-11T11:55:23Z</time>
      </trkpt>
      <trkpt lat="44.24493" lon="6.05232">
        <ele>1121</ele>
        <time>2020-06-11T11:55:35Z</time>
      </trkpt>
      <trkpt lat="44.24493" lon="6.05231">
        <ele>1121</ele>
        <time>2020-06-11T11:55:37Z</time>
      </trkpt>
    </trkseg>
  </trk>
</gpx>